<?xml version="1.0" encoding="UTF-8" standalone="no" ?>
<gpx xmlns="http://www.topografix.com/GPX/1/1" xmlns:xsi="http://www.w3.org/2001/XMLSchema-instance" xsi:schemaLocation="http://www.topografix.com/GPX/1/1 http://www.topografix.com/GPX/1/1/gpx.xsd" version="1.1" creator="VisuGPX - https://www.visugpx.com">
  <metadata>
    <name>Mini Raid</name>
    <desc><![CDATA[petit balade en VTT, Pas mal de route]]></desc>
  </metadata>
  <trk>
    <name><![CDATA[Mini Raid_1]]></name>
    <cmt><![CDATA[grosse sortie pour préparer les monts d'Arrée
]]></cmt>
    <trkseg>
      <trkpt lat="47.79906" lon="-3.41192">
        <ele>39.209281921387</ele>
        <time>2012-08-16T06:53:55Z</time>
      </trkpt>
      <trkpt lat="47.79871" lon="-3.41192">
        <ele>39.591213226318</ele>
        <time>2012-08-16T06:54:03Z</time>
      </trkpt>
      <trkpt lat="47.79836" lon="-3.4119">
        <ele>39.977672576904</ele>
        <time>2012-08-16T06:54:11Z</time>
      </trkpt>
      <trkpt lat="47.79803" lon="-3.41189">
        <ele>40.725952148438</ele>
        <time>2012-08-16T06:54:19Z</time>
      </trkpt>
      <trkpt lat="47.79778" lon="-3.41187">
        <ele>41.330200195312</ele>
        <time>2012-08-16T06:54:25Z</time>
      </trkpt>
      <trkpt lat="47.79773" lon="-3.41187">
        <ele>41.440063476562</ele>
        <time>2012-08-16T06:54:26Z</time>
      </trkpt>
      <trkpt lat="47.79742" lon="-3.41188">
        <ele>41.9091796875</ele>
        <time>2012-08-16T06:54:33Z</time>
      </trkpt>
      <trkpt lat="47.7971" lon="-3.41189">
        <ele>41.515502929688</ele>
        <time>2012-08-16T06:54:40Z</time>
      </trkpt>
      <trkpt lat="47.79694" lon="-3.41189">
        <ele>41.332397460938</ele>
        <time>2012-08-16T06:54:43Z</time>
      </trkpt>
      <trkpt lat="47.79662" lon="-3.41207">
        <ele>41.113403320312</ele>
        <time>2012-08-16T06:54:50Z</time>
      </trkpt>
      <trkpt lat="47.79626" lon="-3.41224">
        <ele>41.973999023438</ele>
        <time>2012-08-16T06:54:57Z</time>
      </trkpt>
      <trkpt lat="47.79604" lon="-3.41235">
        <ele>42.51416015625</ele>
        <time>2012-08-16T06:55:02Z</time>
      </trkpt>
      <trkpt lat="47.79577" lon="-3.41247">
        <ele>43.152648925781</ele>
        <time>2012-08-16T06:55:07Z</time>
      </trkpt>
      <trkpt lat="47.79546" lon="-3.41267">
        <ele>44.009399414062</ele>
        <time>2012-08-16T06:55:14Z</time>
      </trkpt>
      <trkpt lat="47.79516" lon="-3.41284">
        <ele>44.697448730469</ele>
        <time>2012-08-16T06:55:21Z</time>
      </trkpt>
      <trkpt lat="47.79503" lon="-3.41292">
        <ele>44.941429138184</ele>
        <time>2012-08-16T06:55:24Z</time>
      </trkpt>
      <trkpt lat="47.79472" lon="-3.4131">
        <ele>44.817241668701</ele>
        <time>2012-08-16T06:55:31Z</time>
      </trkpt>
      <trkpt lat="47.79464" lon="-3.41317">
        <ele>44.824268341064</ele>
        <time>2012-08-16T06:55:33Z</time>
      </trkpt>
      <trkpt lat="47.79441" lon="-3.4133">
        <ele>44.94068145752</ele>
        <time>2012-08-16T06:55:38Z</time>
      </trkpt>
      <trkpt lat="47.79411" lon="-3.41345">
        <ele>45.258094787598</ele>
        <time>2012-08-16T06:55:44Z</time>
      </trkpt>
      <trkpt lat="47.79379" lon="-3.4136">
        <ele>46.071323394775</ele>
        <time>2012-08-16T06:55:50Z</time>
      </trkpt>
      <trkpt lat="47.7936" lon="-3.41373">
        <ele>46.506801605225</ele>
        <time>2012-08-16T06:55:55Z</time>
      </trkpt>
      <trkpt lat="47.79348" lon="-3.4138">
        <ele>46.746147155762</ele>
        <time>2012-08-16T06:55:58Z</time>
      </trkpt>
      <trkpt lat="47.79323" lon="-3.41393">
        <ele>47.161460876465</ele>
        <time>2012-08-16T06:56:05Z</time>
      </trkpt>
      <trkpt lat="47.79317" lon="-3.41397">
        <ele>47.246196746826</ele>
        <time>2012-08-16T06:56:07Z</time>
      </trkpt>
      <trkpt lat="47.79301" lon="-3.41397">
        <ele>47.479400634766</ele>
        <time>2012-08-16T06:56:12Z</time>
      </trkpt>
      <trkpt lat="47.79294" lon="-3.41386">
        <ele>47.645111083984</ele>
        <time>2012-08-16T06:56:16Z</time>
      </trkpt>
      <trkpt lat="47.79293" lon="-3.41376">
        <ele>47.719009399414</ele>
        <time>2012-08-16T06:56:18Z</time>
      </trkpt>
      <trkpt lat="47.79296" lon="-3.41332">
        <ele>47.892963409424</ele>
        <time>2012-08-16T06:56:27Z</time>
      </trkpt>
      <trkpt lat="47.79316" lon="-3.41317">
        <ele>47.467178344727</ele>
        <time>2012-08-16T06:56:32Z</time>
      </trkpt>
      <trkpt lat="47.79345" lon="-3.413">
        <ele>46.61060333252</ele>
        <time>2012-08-16T06:56:38Z</time>
      </trkpt>
      <trkpt lat="47.79357" lon="-3.41272">
        <ele>46.026744842529</ele>
        <time>2012-08-16T06:56:42Z</time>
      </trkpt>
      <trkpt lat="47.79358" lon="-3.41255">
        <ele>45.874443054199</ele>
        <time>2012-08-16T06:56:44Z</time>
      </trkpt>
      <trkpt lat="47.79365" lon="-3.41235">
        <ele>45.49072265625</ele>
        <time>2012-08-16T06:56:47Z</time>
      </trkpt>
      <trkpt lat="47.7937" lon="-3.41235">
        <ele>45.216064453125</ele>
        <time>2012-08-16T06:56:48Z</time>
      </trkpt>
      <trkpt lat="47.79402" lon="-3.41236">
        <ele>43.714599609375</ele>
        <time>2012-08-16T06:56:53Z</time>
      </trkpt>
      <trkpt lat="47.79424" lon="-3.41232">
        <ele>43.163387298584</ele>
        <time>2012-08-16T06:56:57Z</time>
      </trkpt>
      <trkpt lat="47.79439" lon="-3.41224">
        <ele>43.456317901611</ele>
        <time>2012-08-16T06:57:02Z</time>
      </trkpt>
      <trkpt lat="47.79439" lon="-3.41219">
        <ele>43.433395385742</ele>
        <time>2012-08-16T06:57:03Z</time>
      </trkpt>
      <trkpt lat="47.79436" lon="-3.41181">
        <ele>43.267757415771</ele>
        <time>2012-08-16T06:57:11Z</time>
      </trkpt>
      <trkpt lat="47.79435" lon="-3.41167">
        <ele>43.224941253662</ele>
        <time>2012-08-16T06:57:14Z</time>
      </trkpt>
      <trkpt lat="47.79426" lon="-3.41154">
        <ele>43.059898376465</ele>
        <time>2012-08-16T06:57:20Z</time>
      </trkpt>
      <trkpt lat="47.7942" lon="-3.41136">
        <ele>42.99588394165</ele>
        <time>2012-08-16T06:57:26Z</time>
      </trkpt>
      <trkpt lat="47.79415" lon="-3.4113">
        <ele>43.090133666992</ele>
        <time>2012-08-16T06:57:29Z</time>
      </trkpt>
      <trkpt lat="47.79395" lon="-3.4112">
        <ele>44.313976287842</ele>
        <time>2012-08-16T06:57:36Z</time>
      </trkpt>
      <trkpt lat="47.79374" lon="-3.4111">
        <ele>45.770092010498</ele>
        <time>2012-08-16T06:57:43Z</time>
      </trkpt>
      <trkpt lat="47.79355" lon="-3.41101">
        <ele>47.108455657959</ele>
        <time>2012-08-16T06:57:50Z</time>
      </trkpt>
      <trkpt lat="47.79331" lon="-3.41091">
        <ele>48.918960571289</ele>
        <time>2012-08-16T06:57:59Z</time>
      </trkpt>
      <trkpt lat="47.79315" lon="-3.41082">
        <ele>49.887264251709</ele>
        <time>2012-08-16T06:58:06Z</time>
      </trkpt>
      <trkpt lat="47.793" lon="-3.41075">
        <ele>50.508430480957</ele>
        <time>2012-08-16T06:58:11Z</time>
      </trkpt>
      <trkpt lat="47.79276" lon="-3.41065">
        <ele>51.220325469971</ele>
        <time>2012-08-16T06:58:19Z</time>
      </trkpt>
      <trkpt lat="47.7925" lon="-3.41053">
        <ele>51.554077148438</ele>
        <time>2012-08-16T06:58:27Z</time>
      </trkpt>
      <trkpt lat="47.79241" lon="-3.41051">
        <ele>51.081504821777</ele>
        <time>2012-08-16T06:58:30Z</time>
      </trkpt>
      <trkpt lat="47.79212" lon="-3.4104">
        <ele>49.581600189209</ele>
        <time>2012-08-16T06:58:38Z</time>
      </trkpt>
      <trkpt lat="47.79189" lon="-3.41025">
        <ele>48.270660400391</ele>
        <time>2012-08-16T06:58:45Z</time>
      </trkpt>
      <trkpt lat="47.7918" lon="-3.41013">
        <ele>47.69864654541</ele>
        <time>2012-08-16T06:58:49Z</time>
      </trkpt>
      <trkpt lat="47.79175" lon="-3.4101">
        <ele>47.464546203613</ele>
        <time>2012-08-16T06:58:51Z</time>
      </trkpt>
      <trkpt lat="47.79168" lon="-3.4102">
        <ele>47.525104522705</ele>
        <time>2012-08-16T06:58:55Z</time>
      </trkpt>
      <trkpt lat="47.79165" lon="-3.41027">
        <ele>47.590480804443</ele>
        <time>2012-08-16T06:58:57Z</time>
      </trkpt>
      <trkpt lat="47.79145" lon="-3.41066">
        <ele>47.84256362915</ele>
        <time>2012-08-16T06:59:07Z</time>
      </trkpt>
      <trkpt lat="47.79138" lon="-3.41077">
        <ele>47.855583190918</ele>
        <time>2012-08-16T06:59:10Z</time>
      </trkpt>
      <trkpt lat="47.79131" lon="-3.4107">
        <ele>47.483558654785</ele>
        <time>2012-08-16T06:59:14Z</time>
      </trkpt>
      <trkpt lat="47.79123" lon="-3.41028">
        <ele>46.437789916992</ele>
        <time>2012-08-16T06:59:21Z</time>
      </trkpt>
      <trkpt lat="47.79119" lon="-3.41022">
        <ele>46.252342224121</ele>
        <time>2012-08-16T06:59:22Z</time>
      </trkpt>
      <trkpt lat="47.79092" lon="-3.40995">
        <ele>45.131629943848</ele>
        <time>2012-08-16T06:59:28Z</time>
      </trkpt>
      <trkpt lat="47.79066" lon="-3.4098">
        <ele>44.119697570801</ele>
        <time>2012-08-16T06:59:33Z</time>
      </trkpt>
      <trkpt lat="47.79036" lon="-3.40965">
        <ele>42.893177032471</ele>
        <time>2012-08-16T06:59:39Z</time>
      </trkpt>
      <trkpt lat="47.79005" lon="-3.40951">
        <ele>41.579109191895</ele>
        <time>2012-08-16T06:59:46Z</time>
      </trkpt>
      <trkpt lat="47.7897" lon="-3.40934">
        <ele>40.34984588623</ele>
        <time>2012-08-16T06:59:53Z</time>
      </trkpt>
      <trkpt lat="47.78964" lon="-3.40931">
        <ele>40.096332550049</ele>
        <time>2012-08-16T06:59:54Z</time>
      </trkpt>
      <trkpt lat="47.78951" lon="-3.40916">
        <ele>39.22257232666</ele>
        <time>2012-08-16T06:59:58Z</time>
      </trkpt>
      <trkpt lat="47.78939" lon="-3.40894">
        <ele>38.076778411865</ele>
        <time>2012-08-16T07:00:04Z</time>
      </trkpt>
      <trkpt lat="47.78936" lon="-3.40876">
        <ele>37.320159912109</ele>
        <time>2012-08-16T07:00:07Z</time>
      </trkpt>
      <trkpt lat="47.78931" lon="-3.40868">
        <ele>36.85737991333</ele>
        <time>2012-08-16T07:00:11Z</time>
      </trkpt>
      <trkpt lat="47.78928" lon="-3.40869">
        <ele>36.774356842041</ele>
        <time>2012-08-16T07:00:18Z</time>
      </trkpt>
      <trkpt lat="47.78928" lon="-3.4087">
        <ele>36.777713775635</ele>
        <time>2012-08-16T07:00:25Z</time>
      </trkpt>
      <trkpt lat="47.78909" lon="-3.40859">
        <ele>35.900043487549</ele>
        <time>2012-08-16T07:00:31Z</time>
      </trkpt>
      <trkpt lat="47.78889" lon="-3.4085">
        <ele>35.543418884277</ele>
        <time>2012-08-16T07:00:35Z</time>
      </trkpt>
      <trkpt lat="47.78883" lon="-3.40849">
        <ele>35.491413116455</ele>
        <time>2012-08-16T07:00:36Z</time>
      </trkpt>
      <trkpt lat="47.78865" lon="-3.40848">
        <ele>35.427097320557</ele>
        <time>2012-08-16T07:00:39Z</time>
      </trkpt>
      <trkpt lat="47.78841" lon="-3.40846">
        <ele>35.325553894043</ele>
        <time>2012-08-16T07:00:43Z</time>
      </trkpt>
      <trkpt lat="47.78819" lon="-3.40835">
        <ele>36.251129150391</ele>
        <time>2012-08-16T07:00:47Z</time>
      </trkpt>
      <trkpt lat="47.7881" lon="-3.40826">
        <ele>36.731609344482</ele>
        <time>2012-08-16T07:00:49Z</time>
      </trkpt>
      <trkpt lat="47.78789" lon="-3.40816">
        <ele>38.013038635254</ele>
        <time>2012-08-16T07:00:54Z</time>
      </trkpt>
      <trkpt lat="47.78778" lon="-3.40811">
        <ele>38.524318695068</ele>
        <time>2012-08-16T07:00:57Z</time>
      </trkpt>
      <trkpt lat="47.78767" lon="-3.40806">
        <ele>39.117084503174</ele>
        <time>2012-08-16T07:01:01Z</time>
      </trkpt>
      <trkpt lat="47.78759" lon="-3.40811">
        <ele>39.97269821167</ele>
        <time>2012-08-16T07:01:05Z</time>
      </trkpt>
      <trkpt lat="47.78757" lon="-3.40811">
        <ele>40.107597351074</ele>
        <time>2012-08-16T07:01:06Z</time>
      </trkpt>
      <trkpt lat="47.78745" lon="-3.40817">
        <ele>41.684078216553</ele>
        <time>2012-08-16T07:01:11Z</time>
      </trkpt>
      <trkpt lat="47.78734" lon="-3.40828">
        <ele>43.572277069092</ele>
        <time>2012-08-16T07:01:16Z</time>
      </trkpt>
      <trkpt lat="47.78728" lon="-3.40836">
        <ele>44.795154571533</ele>
        <time>2012-08-16T07:01:20Z</time>
      </trkpt>
      <trkpt lat="47.7872" lon="-3.40838">
        <ele>45.712467193604</ele>
        <time>2012-08-16T07:01:24Z</time>
      </trkpt>
      <trkpt lat="47.78716" lon="-3.40839">
        <ele>46.357707977295</ele>
        <time>2012-08-16T07:01:26Z</time>
      </trkpt>
      <trkpt lat="47.78701" lon="-3.40842">
        <ele>48.185459136963</ele>
        <time>2012-08-16T07:01:31Z</time>
      </trkpt>
      <trkpt lat="47.7869" lon="-3.40837">
        <ele>49.363952636719</ele>
        <time>2012-08-16T07:01:34Z</time>
      </trkpt>
      <trkpt lat="47.78676" lon="-3.40819">
        <ele>49.76781463623</ele>
        <time>2012-08-16T07:01:39Z</time>
      </trkpt>
      <trkpt lat="47.78662" lon="-3.40813">
        <ele>50.104808807373</ele>
        <time>2012-08-16T07:01:43Z</time>
      </trkpt>
      <trkpt lat="47.78656" lon="-3.4081">
        <ele>49.506881713867</ele>
        <time>2012-08-16T07:01:45Z</time>
      </trkpt>
      <trkpt lat="47.78641" lon="-3.40802">
        <ele>48.043224334717</ele>
        <time>2012-08-16T07:01:51Z</time>
      </trkpt>
      <trkpt lat="47.78632" lon="-3.40785">
        <ele>46.341567993164</ele>
        <time>2012-08-16T07:01:55Z</time>
      </trkpt>
      <trkpt lat="47.78637" lon="-3.40772">
        <ele>45.629405975342</ele>
        <time>2012-08-16T07:01:59Z</time>
      </trkpt>
      <trkpt lat="47.78643" lon="-3.40764">
        <ele>45.221172332764</ele>
        <time>2012-08-16T07:02:01Z</time>
      </trkpt>
      <trkpt lat="47.78638" lon="-3.40725">
        <ele>41.860565185547</ele>
        <time>2012-08-16T07:02:06Z</time>
      </trkpt>
      <trkpt lat="47.78627" lon="-3.40714">
        <ele>40.75212097168</ele>
        <time>2012-08-16T07:02:08Z</time>
      </trkpt>
      <trkpt lat="47.78589" lon="-3.40673">
        <ele>37.393257141113</ele>
        <time>2012-08-16T07:02:16Z</time>
      </trkpt>
      <trkpt lat="47.78566" lon="-3.4065">
        <ele>36.495136260986</ele>
        <time>2012-08-16T07:02:20Z</time>
      </trkpt>
      <trkpt lat="47.78549" lon="-3.40623">
        <ele>35.847278594971</ele>
        <time>2012-08-16T07:02:24Z</time>
      </trkpt>
      <trkpt lat="47.78546" lon="-3.40613">
        <ele>35.652656555176</ele>
        <time>2012-08-16T07:02:26Z</time>
      </trkpt>
      <trkpt lat="47.7854" lon="-3.4059">
        <ele>35.195430755615</ele>
        <time>2012-08-16T07:02:31Z</time>
      </trkpt>
      <trkpt lat="47.78531" lon="-3.40574">
        <ele>35.208160400391</ele>
        <time>2012-08-16T07:02:35Z</time>
      </trkpt>
      <trkpt lat="47.78522" lon="-3.40566">
        <ele>35.415210723877</ele>
        <time>2012-08-16T07:02:38Z</time>
      </trkpt>
      <trkpt lat="47.78523" lon="-3.40551">
        <ele>35.334163665771</ele>
        <time>2012-08-16T07:02:42Z</time>
      </trkpt>
      <trkpt lat="47.78532" lon="-3.40508">
        <ele>34.870960235596</ele>
        <time>2012-08-16T07:02:49Z</time>
      </trkpt>
      <trkpt lat="47.78534" lon="-3.40502">
        <ele>34.800678253174</ele>
        <time>2012-08-16T07:02:50Z</time>
      </trkpt>
      <trkpt lat="47.78547" lon="-3.40495">
        <ele>34.442234039307</ele>
        <time>2012-08-16T07:02:54Z</time>
      </trkpt>
      <trkpt lat="47.78551" lon="-3.40496">
        <ele>34.269340515137</ele>
        <time>2012-08-16T07:02:55Z</time>
      </trkpt>
      <trkpt lat="47.78559" lon="-3.40498">
        <ele>33.925678253174</ele>
        <time>2012-08-16T07:02:57Z</time>
      </trkpt>
      <trkpt lat="47.78579" lon="-3.40495">
        <ele>33.332656860352</ele>
        <time>2012-08-16T07:03:01Z</time>
      </trkpt>
      <trkpt lat="47.78597" lon="-3.40499">
        <ele>33.203815460205</ele>
        <time>2012-08-16T07:03:05Z</time>
      </trkpt>
      <trkpt lat="47.78613" lon="-3.40499">
        <ele>33.377811431885</ele>
        <time>2012-08-16T07:03:08Z</time>
      </trkpt>
      <trkpt lat="47.78638" lon="-3.40505">
        <ele>33.603073120117</ele>
        <time>2012-08-16T07:03:13Z</time>
      </trkpt>
      <trkpt lat="47.78665" lon="-3.40495">
        <ele>34.039775848389</ele>
        <time>2012-08-16T07:03:18Z</time>
      </trkpt>
      <trkpt lat="47.78677" lon="-3.40468">
        <ele>34.383983612061</ele>
        <time>2012-08-16T07:03:22Z</time>
      </trkpt>
      <trkpt lat="47.78677" lon="-3.40464">
        <ele>34.435768127441</ele>
        <time>2012-08-16T07:03:24Z</time>
      </trkpt>
      <trkpt lat="47.78671" lon="-3.40446">
        <ele>34.645481109619</ele>
        <time>2012-08-16T07:03:30Z</time>
      </trkpt>
      <trkpt lat="47.78659" lon="-3.40423">
        <ele>35.008369445801</ele>
        <time>2012-08-16T07:03:35Z</time>
      </trkpt>
      <trkpt lat="47.7865" lon="-3.40392">
        <ele>35.547798156738</ele>
        <time>2012-08-16T07:03:40Z</time>
      </trkpt>
      <trkpt lat="47.78645" lon="-3.40374">
        <ele>35.901851654053</ele>
        <time>2012-08-16T07:03:43Z</time>
      </trkpt>
      <trkpt lat="47.78643" lon="-3.40348">
        <ele>36.328773498535</ele>
        <time>2012-08-16T07:03:47Z</time>
      </trkpt>
      <trkpt lat="47.78643" lon="-3.40337">
        <ele>36.521240234375</ele>
        <time>2012-08-16T07:03:49Z</time>
      </trkpt>
      <trkpt lat="47.78646" lon="-3.40311">
        <ele>36.768730163574</ele>
        <time>2012-08-16T07:03:54Z</time>
      </trkpt>
      <trkpt lat="47.78643" lon="-3.40301">
        <ele>36.946399688721</ele>
        <time>2012-08-16T07:03:56Z</time>
      </trkpt>
      <trkpt lat="47.78634" lon="-3.40269">
        <ele>37.544639587402</ele>
        <time>2012-08-16T07:04:02Z</time>
      </trkpt>
      <trkpt lat="47.78625" lon="-3.40263">
        <ele>37.856491088867</ele>
        <time>2012-08-16T07:04:06Z</time>
      </trkpt>
      <trkpt lat="47.78616" lon="-3.40243">
        <ele>38.17431640625</ele>
        <time>2012-08-16T07:04:11Z</time>
      </trkpt>
      <trkpt lat="47.78607" lon="-3.40214">
        <ele>38.305564880371</ele>
        <time>2012-08-16T07:04:16Z</time>
      </trkpt>
      <trkpt lat="47.78601" lon="-3.40195">
        <ele>38.432521820068</ele>
        <time>2012-08-16T07:04:20Z</time>
      </trkpt>
      <trkpt lat="47.78593" lon="-3.40181">
        <ele>38.657157897949</ele>
        <time>2012-08-16T07:04:24Z</time>
      </trkpt>
      <trkpt lat="47.78587" lon="-3.40169">
        <ele>38.85717010498</ele>
        <time>2012-08-16T07:04:28Z</time>
      </trkpt>
      <trkpt lat="47.78583" lon="-3.40157">
        <ele>39.00280380249</ele>
        <time>2012-08-16T07:04:32Z</time>
      </trkpt>
      <trkpt lat="47.78582" lon="-3.40153">
        <ele>39.021308898926</ele>
        <time>2012-08-16T07:04:33Z</time>
      </trkpt>
      <trkpt lat="47.78584" lon="-3.40134">
        <ele>38.974678039551</ele>
        <time>2012-08-16T07:04:37Z</time>
      </trkpt>
      <trkpt lat="47.78577" lon="-3.40117">
        <ele>39.156108856201</ele>
        <time>2012-08-16T07:04:41Z</time>
      </trkpt>
      <trkpt lat="47.78576" lon="-3.40113">
        <ele>39.194087982178</ele>
        <time>2012-08-16T07:04:42Z</time>
      </trkpt>
      <trkpt lat="47.78572" lon="-3.40092">
        <ele>39.363746643066</ele>
        <time>2012-08-16T07:04:48Z</time>
      </trkpt>
      <trkpt lat="47.78572" lon="-3.40081">
        <ele>39.319324493408</ele>
        <time>2012-08-16T07:04:51Z</time>
      </trkpt>
      <trkpt lat="47.78567" lon="-3.40069">
        <ele>39.084148406982</ele>
        <time>2012-08-16T07:04:56Z</time>
      </trkpt>
      <trkpt lat="47.78565" lon="-3.40062">
        <ele>38.899612426758</ele>
        <time>2012-08-16T07:05:03Z</time>
      </trkpt>
      <trkpt lat="47.78563" lon="-3.40059">
        <ele>38.838672637939</ele>
        <time>2012-08-16T07:05:05Z</time>
      </trkpt>
      <trkpt lat="47.78563" lon="-3.4004">
        <ele>38.171768188477</ele>
        <time>2012-08-16T07:05:11Z</time>
      </trkpt>
      <trkpt lat="47.78561" lon="-3.40022">
        <ele>37.593269348145</ele>
        <time>2012-08-16T07:05:16Z</time>
      </trkpt>
      <trkpt lat="47.78558" lon="-3.39996">
        <ele>36.681606292725</ele>
        <time>2012-08-16T07:05:20Z</time>
      </trkpt>
      <trkpt lat="47.78558" lon="-3.39987">
        <ele>36.175270080566</ele>
        <time>2012-08-16T07:05:21Z</time>
      </trkpt>
      <trkpt lat="47.78556" lon="-3.3996">
        <ele>34.714530944824</ele>
        <time>2012-08-16T07:05:24Z</time>
      </trkpt>
      <trkpt lat="47.78556" lon="-3.39942">
        <ele>33.723052978516</ele>
        <time>2012-08-16T07:05:26Z</time>
      </trkpt>
      <trkpt lat="47.78555" lon="-3.39924">
        <ele>32.771919250488</ele>
        <time>2012-08-16T07:05:28Z</time>
      </trkpt>
      <trkpt lat="47.78553" lon="-3.39898">
        <ele>32.680648803711</ele>
        <time>2012-08-16T07:05:32Z</time>
      </trkpt>
      <trkpt lat="47.78555" lon="-3.39877">
        <ele>32.981086730957</ele>
        <time>2012-08-16T07:05:35Z</time>
      </trkpt>
      <trkpt lat="47.7856" lon="-3.39863">
        <ele>33.09757232666</ele>
        <time>2012-08-16T07:05:37Z</time>
      </trkpt>
      <trkpt lat="47.78561" lon="-3.39838">
        <ele>33.480644226074</ele>
        <time>2012-08-16T07:05:41Z</time>
      </trkpt>
      <trkpt lat="47.78553" lon="-3.39834">
        <ele>33.721706390381</ele>
        <time>2012-08-16T07:05:44Z</time>
      </trkpt>
      <trkpt lat="47.78542" lon="-3.39831">
        <ele>33.984130859375</ele>
        <time>2012-08-16T07:05:49Z</time>
      </trkpt>
      <trkpt lat="47.78531" lon="-3.39828">
        <ele>34.249633789062</ele>
        <time>2012-08-16T07:05:53Z</time>
      </trkpt>
      <trkpt lat="47.78527" lon="-3.39828">
        <ele>34.350341796875</ele>
        <time>2012-08-16T07:05:54Z</time>
      </trkpt>
      <trkpt lat="47.78518" lon="-3.39825">
        <ele>34.560913085938</ele>
        <time>2012-08-16T07:05:57Z</time>
      </trkpt>
      <trkpt lat="47.78513" lon="-3.39825">
        <ele>34.6982421875</ele>
        <time>2012-08-16T07:05:59Z</time>
      </trkpt>
      <trkpt lat="47.78503" lon="-3.39825">
        <ele>34.927124023438</ele>
        <time>2012-08-16T07:06:04Z</time>
      </trkpt>
      <trkpt lat="47.78488" lon="-3.39827">
        <ele>36.125576019287</ele>
        <time>2012-08-16T07:06:10Z</time>
      </trkpt>
      <trkpt lat="47.78468" lon="-3.39831">
        <ele>38.032524108887</ele>
        <time>2012-08-16T07:06:15Z</time>
      </trkpt>
      <trkpt lat="47.78449" lon="-3.39837">
        <ele>39.765399932861</ele>
        <time>2012-08-16T07:06:21Z</time>
      </trkpt>
      <trkpt lat="47.78434" lon="-3.39829">
        <ele>41.263320922852</ele>
        <time>2012-08-16T07:06:26Z</time>
      </trkpt>
      <trkpt lat="47.78422" lon="-3.39817">
        <ele>42.290161132812</ele>
        <time>2012-08-16T07:06:31Z</time>
      </trkpt>
      <trkpt lat="47.78415" lon="-3.39803">
        <ele>42.725677490234</ele>
        <time>2012-08-16T07:06:36Z</time>
      </trkpt>
      <trkpt lat="47.78402" lon="-3.39792">
        <ele>43.450187683105</ele>
        <time>2012-08-16T07:06:42Z</time>
      </trkpt>
      <trkpt lat="47.78394" lon="-3.39778">
        <ele>43.810333251953</ele>
        <time>2012-08-16T07:06:47Z</time>
      </trkpt>
      <trkpt lat="47.78383" lon="-3.39772">
        <ele>44.378723144531</ele>
        <time>2012-08-16T07:06:51Z</time>
      </trkpt>
      <trkpt lat="47.78376" lon="-3.39749">
        <ele>44.408813476562</ele>
        <time>2012-08-16T07:06:57Z</time>
      </trkpt>
      <trkpt lat="47.78371" lon="-3.39715">
        <ele>43.513885498047</ele>
        <time>2012-08-16T07:07:03Z</time>
      </trkpt>
      <trkpt lat="47.78368" lon="-3.39679">
        <ele>42.323413848877</ele>
        <time>2012-08-16T07:07:09Z</time>
      </trkpt>
      <trkpt lat="47.78368" lon="-3.39647">
        <ele>42.077590942383</ele>
        <time>2012-08-16T07:07:14Z</time>
      </trkpt>
      <trkpt lat="47.78357" lon="-3.39625">
        <ele>42.635791778564</ele>
        <time>2012-08-16T07:07:19Z</time>
      </trkpt>
      <trkpt lat="47.78351" lon="-3.39607">
        <ele>42.826313018799</ele>
        <time>2012-08-16T07:07:24Z</time>
      </trkpt>
      <trkpt lat="47.78365" lon="-3.39601">
        <ele>42.505187988281</ele>
        <time>2012-08-16T07:07:29Z</time>
      </trkpt>
      <trkpt lat="47.78364" lon="-3.39591">
        <ele>42.587921142578</ele>
        <time>2012-08-16T07:07:31Z</time>
      </trkpt>
      <trkpt lat="47.78368" lon="-3.39554">
        <ele>41.277038574219</ele>
        <time>2012-08-16T07:07:36Z</time>
      </trkpt>
      <trkpt lat="47.78368" lon="-3.39521">
        <ele>39.768646240234</ele>
        <time>2012-08-16T07:07:41Z</time>
      </trkpt>
      <trkpt lat="47.78376" lon="-3.3952">
        <ele>39.860481262207</ele>
        <time>2012-08-16T07:07:44Z</time>
      </trkpt>
      <trkpt lat="47.78395" lon="-3.39517">
        <ele>40.042018890381</ele>
        <time>2012-08-16T07:07:49Z</time>
      </trkpt>
      <trkpt lat="47.78405" lon="-3.39518">
        <ele>40.235774993896</ele>
        <time>2012-08-16T07:07:51Z</time>
      </trkpt>
      <trkpt lat="47.78444" lon="-3.3951">
        <ele>38.355884552002</ele>
        <time>2012-08-16T07:07:57Z</time>
      </trkpt>
      <trkpt lat="47.78464" lon="-3.39501">
        <ele>36.652366638184</ele>
        <time>2012-08-16T07:08:00Z</time>
      </trkpt>
      <trkpt lat="47.78477" lon="-3.39493">
        <ele>35.567401885986</ele>
        <time>2012-08-16T07:08:02Z</time>
      </trkpt>
      <trkpt lat="47.78498" lon="-3.39511">
        <ele>34.680187225342</ele>
        <time>2012-08-16T07:08:07Z</time>
      </trkpt>
      <trkpt lat="47.78521" lon="-3.3954">
        <ele>35.448497772217</ele>
        <time>2012-08-16T07:08:11Z</time>
      </trkpt>
      <trkpt lat="47.78533" lon="-3.39539">
        <ele>35.125759124756</ele>
        <time>2012-08-16T07:08:14Z</time>
      </trkpt>
      <trkpt lat="47.78545" lon="-3.39533">
        <ele>34.744857788086</ele>
        <time>2012-08-16T07:08:18Z</time>
      </trkpt>
      <trkpt lat="47.78559" lon="-3.39529">
        <ele>34.398727416992</ele>
        <time>2012-08-16T07:08:23Z</time>
      </trkpt>
      <trkpt lat="47.78568" lon="-3.39527">
        <ele>34.237995147705</ele>
        <time>2012-08-16T07:08:26Z</time>
      </trkpt>
      <trkpt lat="47.78576" lon="-3.39521">
        <ele>34.0950050354</ele>
        <time>2012-08-16T07:08:29Z</time>
      </trkpt>
      <trkpt lat="47.78576" lon="-3.39511">
        <ele>34.044460296631</ele>
        <time>2012-08-16T07:08:33Z</time>
      </trkpt>
      <trkpt lat="47.78569" lon="-3.39505">
        <ele>34.043785095215</ele>
        <time>2012-08-16T07:08:37Z</time>
      </trkpt>
      <trkpt lat="47.7856" lon="-3.39493">
        <ele>34.092262268066</ele>
        <time>2012-08-16T07:08:42Z</time>
      </trkpt>
      <trkpt lat="47.78546" lon="-3.39462">
        <ele>34.304172515869</ele>
        <time>2012-08-16T07:08:48Z</time>
      </trkpt>
      <trkpt lat="47.78526" lon="-3.3943">
        <ele>33.932079315186</ele>
        <time>2012-08-16T07:08:54Z</time>
      </trkpt>
      <trkpt lat="47.78512" lon="-3.39405">
        <ele>33.501667022705</ele>
        <time>2012-08-16T07:08:59Z</time>
      </trkpt>
      <trkpt lat="47.78498" lon="-3.39382">
        <ele>33.086288452148</ele>
        <time>2012-08-16T07:09:04Z</time>
      </trkpt>
      <trkpt lat="47.78485" lon="-3.39351">
        <ele>33.473602294922</ele>
        <time>2012-08-16T07:09:09Z</time>
      </trkpt>
      <trkpt lat="47.78477" lon="-3.39329">
        <ele>33.568214416504</ele>
        <time>2012-08-16T07:09:12Z</time>
      </trkpt>
      <trkpt lat="47.78467" lon="-3.39291">
        <ele>33.602195739746</ele>
        <time>2012-08-16T07:09:16Z</time>
      </trkpt>
      <trkpt lat="47.78465" lon="-3.39282">
        <ele>33.507362365723</ele>
        <time>2012-08-16T07:09:17Z</time>
      </trkpt>
      <trkpt lat="47.78449" lon="-3.39255">
        <ele>32.666030883789</ele>
        <time>2012-08-16T07:09:22Z</time>
      </trkpt>
      <trkpt lat="47.78444" lon="-3.39247">
        <ele>32.288272857666</ele>
        <time>2012-08-16T07:09:24Z</time>
      </trkpt>
      <trkpt lat="47.78434" lon="-3.39233">
        <ele>31.733402252197</ele>
        <time>2012-08-16T07:09:28Z</time>
      </trkpt>
      <trkpt lat="47.78423" lon="-3.39217">
        <ele>30.996854782104</ele>
        <time>2012-08-16T07:09:32Z</time>
      </trkpt>
      <trkpt lat="47.7841" lon="-3.39197">
        <ele>30.442394256592</ele>
        <time>2012-08-16T07:09:36Z</time>
      </trkpt>
      <trkpt lat="47.78403" lon="-3.39183">
        <ele>30.11301612854</ele>
        <time>2012-08-16T07:09:38Z</time>
      </trkpt>
      <trkpt lat="47.78397" lon="-3.39143">
        <ele>29.040761947632</ele>
        <time>2012-08-16T07:09:43Z</time>
      </trkpt>
      <trkpt lat="47.78397" lon="-3.39135">
        <ele>28.909084320068</ele>
        <time>2012-08-16T07:09:44Z</time>
      </trkpt>
      <trkpt lat="47.78395" lon="-3.39112">
        <ele>28.300140380859</ele>
        <time>2012-08-16T07:09:47Z</time>
      </trkpt>
      <trkpt lat="47.78391" lon="-3.39087">
        <ele>27.31972694397</ele>
        <time>2012-08-16T07:09:50Z</time>
      </trkpt>
      <trkpt lat="47.78394" lon="-3.39064">
        <ele>27.998184204102</ele>
        <time>2012-08-16T07:09:54Z</time>
      </trkpt>
      <trkpt lat="47.78402" lon="-3.39042">
        <ele>29.36003112793</ele>
        <time>2012-08-16T07:09:58Z</time>
      </trkpt>
      <trkpt lat="47.78419" lon="-3.39011">
        <ele>31.940498352051</ele>
        <time>2012-08-16T07:10:03Z</time>
      </trkpt>
      <trkpt lat="47.78427" lon="-3.38988">
        <ele>32.949886322021</ele>
        <time>2012-08-16T07:10:06Z</time>
      </trkpt>
      <trkpt lat="47.78431" lon="-3.38968">
        <ele>33.203506469727</ele>
        <time>2012-08-16T07:10:09Z</time>
      </trkpt>
      <trkpt lat="47.78426" lon="-3.38956">
        <ele>32.715480804443</ele>
        <time>2012-08-16T07:10:13Z</time>
      </trkpt>
      <trkpt lat="47.78412" lon="-3.38958">
        <ele>31.597663879394</ele>
        <time>2012-08-16T07:10:16Z</time>
      </trkpt>
      <trkpt lat="47.78396" lon="-3.38958">
        <ele>30.290458679199</ele>
        <time>2012-08-16T07:10:18Z</time>
      </trkpt>
      <trkpt lat="47.78382" lon="-3.38958">
        <ele>29.107223510742</ele>
        <time>2012-08-16T07:10:20Z</time>
      </trkpt>
      <trkpt lat="47.78358" lon="-3.38966">
        <ele>26.78244972229</ele>
        <time>2012-08-16T07:10:23Z</time>
      </trkpt>
      <trkpt lat="47.78326" lon="-3.38955">
        <ele>24.359283447266</ele>
        <time>2012-08-16T07:10:28Z</time>
      </trkpt>
      <trkpt lat="47.7831" lon="-3.38931">
        <ele>23.844299316406</ele>
        <time>2012-08-16T07:10:33Z</time>
      </trkpt>
      <trkpt lat="47.78315" lon="-3.38908">
        <ele>24.774393081665</ele>
        <time>2012-08-16T07:10:36Z</time>
      </trkpt>
      <trkpt lat="47.78321" lon="-3.38884">
        <ele>24.831695556641</ele>
        <time>2012-08-16T07:10:39Z</time>
      </trkpt>
      <trkpt lat="47.78327" lon="-3.38846">
        <ele>24.099697113037</ele>
        <time>2012-08-16T07:10:44Z</time>
      </trkpt>
      <trkpt lat="47.78328" lon="-3.38833">
        <ele>23.752449035644</ele>
        <time>2012-08-16T07:10:46Z</time>
      </trkpt>
      <trkpt lat="47.78334" lon="-3.38809">
        <ele>23.219161987305</ele>
        <time>2012-08-16T07:10:50Z</time>
      </trkpt>
      <trkpt lat="47.78338" lon="-3.38776">
        <ele>22.385746002197</ele>
        <time>2012-08-16T07:10:57Z</time>
      </trkpt>
      <trkpt lat="47.78341" lon="-3.38757">
        <ele>21.974044799805</ele>
        <time>2012-08-16T07:11:01Z</time>
      </trkpt>
      <trkpt lat="47.78348" lon="-3.38733">
        <ele>21.384449005127</ele>
        <time>2012-08-16T07:11:06Z</time>
      </trkpt>
      <trkpt lat="47.7836" lon="-3.38706">
        <ele>21.128765106201</ele>
        <time>2012-08-16T07:11:11Z</time>
      </trkpt>
      <trkpt lat="47.78382" lon="-3.38672">
        <ele>21.486511230469</ele>
        <time>2012-08-16T07:11:17Z</time>
      </trkpt>
      <trkpt lat="47.78386" lon="-3.38665">
        <ele>21.504526138306</ele>
        <time>2012-08-16T07:11:18Z</time>
      </trkpt>
      <trkpt lat="47.78401" lon="-3.3864">
        <ele>20.335042953491</ele>
        <time>2012-08-16T07:11:22Z</time>
      </trkpt>
      <trkpt lat="47.78433" lon="-3.38621">
        <ele>19.645132064819</ele>
        <time>2012-08-16T07:11:27Z</time>
      </trkpt>
      <trkpt lat="47.78437" lon="-3.38622">
        <ele>19.913515090942</ele>
        <time>2012-08-16T07:11:28Z</time>
      </trkpt>
      <trkpt lat="47.78444" lon="-3.38625">
        <ele>20.683317184448</ele>
        <time>2012-08-16T07:11:30Z</time>
      </trkpt>
      <trkpt lat="47.78454" lon="-3.38629">
        <ele>21.541954040527</ele>
        <time>2012-08-16T07:11:33Z</time>
      </trkpt>
      <trkpt lat="47.78466" lon="-3.38631">
        <ele>22.198280334473</ele>
        <time>2012-08-16T07:11:38Z</time>
      </trkpt>
      <trkpt lat="47.78471" lon="-3.3863">
        <ele>22.263463973999</ele>
        <time>2012-08-16T07:11:40Z</time>
      </trkpt>
      <trkpt lat="47.78487" lon="-3.38634">
        <ele>23.365713119507</ele>
        <time>2012-08-16T07:11:46Z</time>
      </trkpt>
      <trkpt lat="47.78503" lon="-3.38641">
        <ele>24.430673599243</ele>
        <time>2012-08-16T07:11:52Z</time>
      </trkpt>
      <trkpt lat="47.78517" lon="-3.38645">
        <ele>24.594345092773</ele>
        <time>2012-08-16T07:11:57Z</time>
      </trkpt>
      <trkpt lat="47.78528" lon="-3.38656">
        <ele>25.472160339356</ele>
        <time>2012-08-16T07:12:02Z</time>
      </trkpt>
      <trkpt lat="47.78531" lon="-3.38662">
        <ele>26.067279815674</ele>
        <time>2012-08-16T07:12:04Z</time>
      </trkpt>
      <trkpt lat="47.78545" lon="-3.38674">
        <ele>27.021253585815</ele>
        <time>2012-08-16T07:12:10Z</time>
      </trkpt>
      <trkpt lat="47.78559" lon="-3.38688">
        <ele>28.059778213501</ele>
        <time>2012-08-16T07:12:16Z</time>
      </trkpt>
      <trkpt lat="47.78574" lon="-3.38702">
        <ele>29.311660766602</ele>
        <time>2012-08-16T07:12:22Z</time>
      </trkpt>
      <trkpt lat="47.78585" lon="-3.38712">
        <ele>30.254816055298</ele>
        <time>2012-08-16T07:12:27Z</time>
      </trkpt>
      <trkpt lat="47.78609" lon="-3.38727">
        <ele>30.7409324646</ele>
        <time>2012-08-16T07:12:34Z</time>
      </trkpt>
      <trkpt lat="47.78623" lon="-3.38735">
        <ele>31.009822845459</ele>
        <time>2012-08-16T07:12:39Z</time>
      </trkpt>
      <trkpt lat="47.78639" lon="-3.38741">
        <ele>30.993062973023</ele>
        <time>2012-08-16T07:12:44Z</time>
      </trkpt>
      <trkpt lat="47.78651" lon="-3.38749">
        <ele>31.449962615967</ele>
        <time>2012-08-16T07:12:49Z</time>
      </trkpt>
      <trkpt lat="47.78667" lon="-3.38758">
        <ele>31.523178100586</ele>
        <time>2012-08-16T07:12:55Z</time>
      </trkpt>
      <trkpt lat="47.7868" lon="-3.38765">
        <ele>31.557510375977</ele>
        <time>2012-08-16T07:13:00Z</time>
      </trkpt>
      <trkpt lat="47.78683" lon="-3.38764">
        <ele>31.430480957031</ele>
        <time>2012-08-16T07:13:01Z</time>
      </trkpt>
      <trkpt lat="47.78693" lon="-3.38767">
        <ele>31.310317993164</ele>
        <time>2012-08-16T07:13:05Z</time>
      </trkpt>
      <trkpt lat="47.78698" lon="-3.3876">
        <ele>30.616806030273</ele>
        <time>2012-08-16T07:13:07Z</time>
      </trkpt>
      <trkpt lat="47.78698" lon="-3.38754">
        <ele>30.113838195801</ele>
        <time>2012-08-16T07:13:08Z</time>
      </trkpt>
      <trkpt lat="47.78703" lon="-3.38704">
        <ele>24.930202484131</ele>
        <time>2012-08-16T07:13:13Z</time>
      </trkpt>
      <trkpt lat="47.78705" lon="-3.38681">
        <ele>22.469526290894</ele>
        <time>2012-08-16T07:13:15Z</time>
      </trkpt>
      <trkpt lat="47.78711" lon="-3.38652">
        <ele>20.133575439453</ele>
        <time>2012-08-16T07:13:18Z</time>
      </trkpt>
      <trkpt lat="47.78711" lon="-3.38613">
        <ele>17.850662231445</ele>
        <time>2012-08-16T07:13:22Z</time>
      </trkpt>
      <trkpt lat="47.787" lon="-3.38546">
        <ele>14.796214103699</ele>
        <time>2012-08-16T07:13:29Z</time>
      </trkpt>
      <trkpt lat="47.78696" lon="-3.38516">
        <ele>14.049136161804</ele>
        <time>2012-08-16T07:13:32Z</time>
      </trkpt>
      <trkpt lat="47.78695" lon="-3.38449">
        <ele>12.042162895203</ele>
        <time>2012-08-16T07:13:38Z</time>
      </trkpt>
      <trkpt lat="47.78693" lon="-3.38427">
        <ele>11.330761909485</ele>
        <time>2012-08-16T07:13:40Z</time>
      </trkpt>
      <trkpt lat="47.78692" lon="-3.38403">
        <ele>9.906626701355</ele>
        <time>2012-08-16T07:13:43Z</time>
      </trkpt>
      <trkpt lat="47.7868" lon="-3.38392">
        <ele>8.7908363342285</ele>
        <time>2012-08-16T07:13:47Z</time>
      </trkpt>
      <trkpt lat="47.78685" lon="-3.38387">
        <ele>8.4866752624512</ele>
        <time>2012-08-16T07:13:49Z</time>
      </trkpt>
      <trkpt lat="47.78695" lon="-3.38392">
        <ele>9.0137767791748</ele>
        <time>2012-08-16T07:13:52Z</time>
      </trkpt>
      <trkpt lat="47.78706" lon="-3.38396">
        <ele>9.4822807312012</ele>
        <time>2012-08-16T07:13:56Z</time>
      </trkpt>
      <trkpt lat="47.78708" lon="-3.38397">
        <ele>9.5626735687256</ele>
        <time>2012-08-16T07:13:58Z</time>
      </trkpt>
      <trkpt lat="47.78711" lon="-3.38399">
        <ele>9.7661418914795</ele>
        <time>2012-08-16T07:14:03Z</time>
      </trkpt>
      <trkpt lat="47.78715" lon="-3.38398">
        <ele>9.7163753509522</ele>
        <time>2012-08-16T07:14:08Z</time>
      </trkpt>
      <trkpt lat="47.78718" lon="-3.38396">
        <ele>9.6324987411499</ele>
        <time>2012-08-16T07:14:11Z</time>
      </trkpt>
      <trkpt lat="47.78724" lon="-3.38406">
        <ele>10.309973716736</ele>
        <time>2012-08-16T07:14:16Z</time>
      </trkpt>
      <trkpt lat="47.78728" lon="-3.38421">
        <ele>11.160677909851</ele>
        <time>2012-08-16T07:14:21Z</time>
      </trkpt>
      <trkpt lat="47.78725" lon="-3.38433">
        <ele>11.665959358215</ele>
        <time>2012-08-16T07:14:25Z</time>
      </trkpt>
      <trkpt lat="47.78727" lon="-3.38448">
        <ele>12.294105529785</ele>
        <time>2012-08-16T07:14:30Z</time>
      </trkpt>
      <trkpt lat="47.78727" lon="-3.38451">
        <ele>12.410268783569</ele>
        <time>2012-08-16T07:14:31Z</time>
      </trkpt>
      <trkpt lat="47.78731" lon="-3.38452">
        <ele>12.496534347534</ele>
        <time>2012-08-16T07:14:33Z</time>
      </trkpt>
      <trkpt lat="47.78738" lon="-3.38461">
        <ele>12.959320068359</ele>
        <time>2012-08-16T07:14:38Z</time>
      </trkpt>
      <trkpt lat="47.78743" lon="-3.38462">
        <ele>13.091808319092</ele>
        <time>2012-08-16T07:14:42Z</time>
      </trkpt>
      <trkpt lat="47.78746" lon="-3.38459">
        <ele>13.004658699036</ele>
        <time>2012-08-16T07:14:46Z</time>
      </trkpt>
      <trkpt lat="47.78752" lon="-3.38458">
        <ele>13.025145530701</ele>
        <time>2012-08-16T07:14:58Z</time>
      </trkpt>
      <trkpt lat="47.78757" lon="-3.38453">
        <ele>12.953155517578</ele>
        <time>2012-08-16T07:15:05Z</time>
      </trkpt>
      <trkpt lat="47.78766" lon="-3.38452">
        <ele>13.214733123779</ele>
        <time>2012-08-16T07:15:11Z</time>
      </trkpt>
      <trkpt lat="47.78769" lon="-3.3845">
        <ele>13.217310905457</ele>
        <time>2012-08-16T07:15:14Z</time>
      </trkpt>
      <trkpt lat="47.78775" lon="-3.38451">
        <ele>13.468179702759</ele>
        <time>2012-08-16T07:15:21Z</time>
      </trkpt>
      <trkpt lat="47.78778" lon="-3.38452">
        <ele>13.63374042511</ele>
        <time>2012-08-16T07:15:27Z</time>
      </trkpt>
      <trkpt lat="47.78779" lon="-3.38452">
        <ele>13.65444278717</ele>
        <time>2012-08-16T07:15:33Z</time>
      </trkpt>
      <trkpt lat="47.78783" lon="-3.38451">
        <ele>13.737416267395</ele>
        <time>2012-08-16T07:15:37Z</time>
      </trkpt>
      <trkpt lat="47.7879" lon="-3.38447">
        <ele>13.850567817688</ele>
        <time>2012-08-16T07:15:42Z</time>
      </trkpt>
      <trkpt lat="47.78791" lon="-3.38443">
        <ele>13.766684532166</ele>
        <time>2012-08-16T07:15:48Z</time>
      </trkpt>
      <trkpt lat="47.78792" lon="-3.38441">
        <ele>13.748644828796</ele>
        <time>2012-08-16T07:15:49Z</time>
      </trkpt>
      <trkpt lat="47.78794" lon="-3.38429">
        <ele>13.487491607666</ele>
        <time>2012-08-16T07:15:54Z</time>
      </trkpt>
      <trkpt lat="47.78794" lon="-3.38422">
        <ele>13.256107330322</ele>
        <time>2012-08-16T07:15:56Z</time>
      </trkpt>
      <trkpt lat="47.78813" lon="-3.38384">
        <ele>13.059504508972</ele>
        <time>2012-08-16T07:16:03Z</time>
      </trkpt>
      <trkpt lat="47.78827" lon="-3.38357">
        <ele>13.184115409851</ele>
        <time>2012-08-16T07:16:09Z</time>
      </trkpt>
      <trkpt lat="47.7884" lon="-3.38335">
        <ele>13.865287780762</ele>
        <time>2012-08-16T07:16:16Z</time>
      </trkpt>
      <trkpt lat="47.78853" lon="-3.3834">
        <ele>15.553863525391</ele>
        <time>2012-08-16T07:16:22Z</time>
      </trkpt>
      <trkpt lat="47.7887" lon="-3.38354">
        <ele>17.86270904541</ele>
        <time>2012-08-16T07:16:29Z</time>
      </trkpt>
      <trkpt lat="47.78886" lon="-3.38368">
        <ele>20.203598022461</ele>
        <time>2012-08-16T07:16:37Z</time>
      </trkpt>
      <trkpt lat="47.789" lon="-3.38384">
        <ele>22.242935180664</ele>
        <time>2012-08-16T07:16:44Z</time>
      </trkpt>
      <trkpt lat="47.78912" lon="-3.38403">
        <ele>24.158676147461</ele>
        <time>2012-08-16T07:16:51Z</time>
      </trkpt>
      <trkpt lat="47.78928" lon="-3.38417">
        <ele>25.948493957519</ele>
        <time>2012-08-16T07:16:59Z</time>
      </trkpt>
      <trkpt lat="47.78942" lon="-3.38428">
        <ele>26.853149414062</ele>
        <time>2012-08-16T07:17:06Z</time>
      </trkpt>
      <trkpt lat="47.78958" lon="-3.38441">
        <ele>27.857940673828</ele>
        <time>2012-08-16T07:17:14Z</time>
      </trkpt>
      <trkpt lat="47.78976" lon="-3.38456">
        <ele>29.044120788574</ele>
        <time>2012-08-16T07:17:23Z</time>
      </trkpt>
      <trkpt lat="47.78995" lon="-3.38469">
        <ele>30.306404113769</ele>
        <time>2012-08-16T07:17:31Z</time>
      </trkpt>
      <trkpt lat="47.79009" lon="-3.38465">
        <ele>31.396286010742</ele>
        <time>2012-08-16T07:17:36Z</time>
      </trkpt>
      <trkpt lat="47.7903" lon="-3.38451">
        <ele>33.23673248291</ele>
        <time>2012-08-16T07:17:44Z</time>
      </trkpt>
      <trkpt lat="47.79052" lon="-3.38451">
        <ele>34.7607421875</ele>
        <time>2012-08-16T07:17:52Z</time>
      </trkpt>
      <trkpt lat="47.79076" lon="-3.38455">
        <ele>36.167289733887</ele>
        <time>2012-08-16T07:18:01Z</time>
      </trkpt>
      <trkpt lat="47.79095" lon="-3.38459">
        <ele>36.28352355957</ele>
        <time>2012-08-16T07:18:07Z</time>
      </trkpt>
      <trkpt lat="47.79126" lon="-3.38457">
        <ele>35.783031463623</ele>
        <time>2012-08-16T07:18:16Z</time>
      </trkpt>
      <trkpt lat="47.79148" lon="-3.38453">
        <ele>35.587169647217</ele>
        <time>2012-08-16T07:18:22Z</time>
      </trkpt>
      <trkpt lat="47.79169" lon="-3.38454">
        <ele>35.147113800049</ele>
        <time>2012-08-16T07:18:27Z</time>
      </trkpt>
      <trkpt lat="47.79201" lon="-3.3845">
        <ele>34.512985229492</ele>
        <time>2012-08-16T07:18:32Z</time>
      </trkpt>
      <trkpt lat="47.79217" lon="-3.38447">
        <ele>34.194137573242</ele>
        <time>2012-08-16T07:18:34Z</time>
      </trkpt>
      <trkpt lat="47.79264" lon="-3.38451">
        <ele>33.06721496582</ele>
        <time>2012-08-16T07:18:40Z</time>
      </trkpt>
      <trkpt lat="47.79283" lon="-3.38454">
        <ele>32.880859375</ele>
        <time>2012-08-16T07:18:43Z</time>
      </trkpt>
      <trkpt lat="47.79313" lon="-3.38459">
        <ele>32.619335174561</ele>
        <time>2012-08-16T07:18:49Z</time>
      </trkpt>
      <trkpt lat="47.79322" lon="-3.38457">
        <ele>32.583415985107</ele>
        <time>2012-08-16T07:18:51Z</time>
      </trkpt>
      <trkpt lat="47.7934" lon="-3.38456">
        <ele>32.478244781494</ele>
        <time>2012-08-16T07:18:55Z</time>
      </trkpt>
      <trkpt lat="47.79354" lon="-3.38456">
        <ele>32.371887207031</ele>
        <time>2012-08-16T07:18:58Z</time>
      </trkpt>
      <trkpt lat="47.79372" lon="-3.38454">
        <ele>32.201942443848</ele>
        <time>2012-08-16T07:19:02Z</time>
      </trkpt>
      <trkpt lat="47.79391" lon="-3.38448">
        <ele>31.847640991211</ele>
        <time>2012-08-16T07:19:06Z</time>
      </trkpt>
      <trkpt lat="47.79409" lon="-3.38443">
        <ele>31.397941589356</ele>
        <time>2012-08-16T07:19:10Z</time>
      </trkpt>
      <trkpt lat="47.79438" lon="-3.38433">
        <ele>25.691995620727</ele>
        <time>2012-08-16T07:19:15Z</time>
      </trkpt>
      <trkpt lat="47.79447" lon="-3.38432">
        <ele>23.367378234863</ele>
        <time>2012-08-16T07:19:17Z</time>
      </trkpt>
      <trkpt lat="47.79452" lon="-3.38438">
        <ele>23.00315284729</ele>
        <time>2012-08-16T07:19:21Z</time>
      </trkpt>
      <trkpt lat="47.79455" lon="-3.38444">
        <ele>23.219743728638</ele>
        <time>2012-08-16T07:19:23Z</time>
      </trkpt>
      <trkpt lat="47.79473" lon="-3.38466">
        <ele>23.691347122192</ele>
        <time>2012-08-16T07:19:29Z</time>
      </trkpt>
      <trkpt lat="47.79487" lon="-3.38476">
        <ele>24.013074874878</ele>
        <time>2012-08-16T07:19:32Z</time>
      </trkpt>
      <trkpt lat="47.79505" lon="-3.38497">
        <ele>26.837863922119</ele>
        <time>2012-08-16T07:19:37Z</time>
      </trkpt>
      <trkpt lat="47.79516" lon="-3.38513">
        <ele>25.807262420654</ele>
        <time>2012-08-16T07:19:41Z</time>
      </trkpt>
      <trkpt lat="47.79526" lon="-3.38523">
        <ele>24.433248519898</ele>
        <time>2012-08-16T07:19:44Z</time>
      </trkpt>
      <trkpt lat="47.79548" lon="-3.38554">
        <ele>23.833221435547</ele>
        <time>2012-08-16T07:19:51Z</time>
      </trkpt>
      <trkpt lat="47.79553" lon="-3.38563">
        <ele>24.463537216186</ele>
        <time>2012-08-16T07:19:53Z</time>
      </trkpt>
      <trkpt lat="47.79562" lon="-3.38578">
        <ele>25.409097671509</ele>
        <time>2012-08-16T07:19:56Z</time>
      </trkpt>
      <trkpt lat="47.79573" lon="-3.38595">
        <ele>26.417406082153</ele>
        <time>2012-08-16T07:20:00Z</time>
      </trkpt>
      <trkpt lat="47.79578" lon="-3.38605">
        <ele>27.085248947144</ele>
        <time>2012-08-16T07:20:02Z</time>
      </trkpt>
      <trkpt lat="47.79583" lon="-3.38627">
        <ele>29.78396987915</ele>
        <time>2012-08-16T07:20:06Z</time>
      </trkpt>
      <trkpt lat="47.79594" lon="-3.38648">
        <ele>30.119770050049</ele>
        <time>2012-08-16T07:20:10Z</time>
      </trkpt>
      <trkpt lat="47.79609" lon="-3.38663">
        <ele>28.435171127319</ele>
        <time>2012-08-16T07:20:14Z</time>
      </trkpt>
      <trkpt lat="47.79621" lon="-3.3869">
        <ele>27.570869445801</ele>
        <time>2012-08-16T07:20:20Z</time>
      </trkpt>
      <trkpt lat="47.7962" lon="-3.38713">
        <ele>29.768857955933</ele>
        <time>2012-08-16T07:20:24Z</time>
      </trkpt>
      <trkpt lat="47.7962" lon="-3.38718">
        <ele>30.186218261719</ele>
        <time>2012-08-16T07:20:25Z</time>
      </trkpt>
      <trkpt lat="47.79624" lon="-3.38752">
        <ele>32.338962554932</ele>
        <time>2012-08-16T07:20:31Z</time>
      </trkpt>
      <trkpt lat="47.79645" lon="-3.38788">
        <ele>30.173036575317</ele>
        <time>2012-08-16T07:20:37Z</time>
      </trkpt>
      <trkpt lat="47.79652" lon="-3.38798">
        <ele>29.740837097168</ele>
        <time>2012-08-16T07:20:39Z</time>
      </trkpt>
      <trkpt lat="47.79674" lon="-3.38825">
        <ele>28.329135894775</ele>
        <time>2012-08-16T07:20:45Z</time>
      </trkpt>
      <trkpt lat="47.79681" lon="-3.38837">
        <ele>27.72576713562</ele>
        <time>2012-08-16T07:20:47Z</time>
      </trkpt>
      <trkpt lat="47.79694" lon="-3.38863">
        <ele>27.267581939697</ele>
        <time>2012-08-16T07:20:52Z</time>
      </trkpt>
      <trkpt lat="47.7972" lon="-3.38887">
        <ele>25.730073928833</ele>
        <time>2012-08-16T07:20:58Z</time>
      </trkpt>
      <trkpt lat="47.79733" lon="-3.38896">
        <ele>25.249448776245</ele>
        <time>2012-08-16T07:21:01Z</time>
      </trkpt>
      <trkpt lat="47.79753" lon="-3.38915">
        <ele>26.165260314941</ele>
        <time>2012-08-16T07:21:07Z</time>
      </trkpt>
      <trkpt lat="47.79756" lon="-3.38919">
        <ele>26.078554153442</ele>
        <time>2012-08-16T07:21:08Z</time>
      </trkpt>
      <trkpt lat="47.7977" lon="-3.38932">
        <ele>24.541204452515</ele>
        <time>2012-08-16T07:21:13Z</time>
      </trkpt>
      <trkpt lat="47.79774" lon="-3.38934">
        <ele>24.228481292725</ele>
        <time>2012-08-16T07:21:14Z</time>
      </trkpt>
      <trkpt lat="47.79794" lon="-3.3895">
        <ele>22.948335647583</ele>
        <time>2012-08-16T07:21:19Z</time>
      </trkpt>
      <trkpt lat="47.79816" lon="-3.38961">
        <ele>21.791793823242</ele>
        <time>2012-08-16T07:21:23Z</time>
      </trkpt>
      <trkpt lat="47.79834" lon="-3.38969">
        <ele>21.315988540649</ele>
        <time>2012-08-16T07:21:27Z</time>
      </trkpt>
      <trkpt lat="47.79854" lon="-3.38979">
        <ele>22.440811157227</ele>
        <time>2012-08-16T07:21:32Z</time>
      </trkpt>
      <trkpt lat="47.79866" lon="-3.38986">
        <ele>22.930780410767</ele>
        <time>2012-08-16T07:21:35Z</time>
      </trkpt>
      <trkpt lat="47.79888" lon="-3.39">
        <ele>23.738037109375</ele>
        <time>2012-08-16T07:21:41Z</time>
      </trkpt>
      <trkpt lat="47.799" lon="-3.39016">
        <ele>24.053789138794</ele>
        <time>2012-08-16T07:21:45Z</time>
      </trkpt>
      <trkpt lat="47.79908" lon="-3.3903">
        <ele>24.310920715332</ele>
        <time>2012-08-16T07:21:49Z</time>
      </trkpt>
      <trkpt lat="47.79916" lon="-3.39027">
        <ele>23.308038711548</ele>
        <time>2012-08-16T07:21:53Z</time>
      </trkpt>
      <trkpt lat="47.79926" lon="-3.39015">
        <ele>21.634201049805</ele>
        <time>2012-08-16T07:21:57Z</time>
      </trkpt>
      <trkpt lat="47.79946" lon="-3.39003">
        <ele>18.949226379394</ele>
        <time>2012-08-16T07:22:02Z</time>
      </trkpt>
      <trkpt lat="47.79955" lon="-3.39001">
        <ele>17.909797668457</ele>
        <time>2012-08-16T07:22:04Z</time>
      </trkpt>
      <trkpt lat="47.79974" lon="-3.38988">
        <ele>15.046486854553</ele>
        <time>2012-08-16T07:22:08Z</time>
      </trkpt>
      <trkpt lat="47.79986" lon="-3.38973">
        <ele>12.903323173523</ele>
        <time>2012-08-16T07:22:11Z</time>
      </trkpt>
      <trkpt lat="47.79997" lon="-3.38966">
        <ele>11.643036842346</ele>
        <time>2012-08-16T07:22:13Z</time>
      </trkpt>
      <trkpt lat="47.80031" lon="-3.38941">
        <ele>8.3876638412476</ele>
        <time>2012-08-16T07:22:20Z</time>
      </trkpt>
      <trkpt lat="47.80047" lon="-3.38949">
        <ele>7.9640531539917</ele>
        <time>2012-08-16T07:22:24Z</time>
      </trkpt>
      <trkpt lat="47.80055" lon="-3.38967">
        <ele>8.4990282058716</ele>
        <time>2012-08-16T07:22:27Z</time>
      </trkpt>
      <trkpt lat="47.80071" lon="-3.38978">
        <ele>8.2884788513184</ele>
        <time>2012-08-16T07:22:32Z</time>
      </trkpt>
      <trkpt lat="47.8008" lon="-3.38975">
        <ele>7.6575808525085</ele>
        <time>2012-08-16T07:22:34Z</time>
      </trkpt>
      <trkpt lat="47.80127" lon="-3.38954">
        <ele>7.8134880065918</ele>
        <time>2012-08-16T07:22:45Z</time>
      </trkpt>
      <trkpt lat="47.80136" lon="-3.38953">
        <ele>8.0666885375977</ele>
        <time>2012-08-16T07:22:48Z</time>
      </trkpt>
      <trkpt lat="47.80146" lon="-3.38941">
        <ele>7.7522621154785</ele>
        <time>2012-08-16T07:22:52Z</time>
      </trkpt>
      <trkpt lat="47.80167" lon="-3.38902">
        <ele>6.86794090271</ele>
        <time>2012-08-16T07:22:58Z</time>
      </trkpt>
      <trkpt lat="47.80174" lon="-3.38889">
        <ele>7.5739517211914</ele>
        <time>2012-08-16T07:23:00Z</time>
      </trkpt>
      <trkpt lat="47.80187" lon="-3.38872">
        <ele>8.7831106185913</ele>
        <time>2012-08-16T07:23:04Z</time>
      </trkpt>
      <trkpt lat="47.80198" lon="-3.3887">
        <ele>9.8791408538818</ele>
        <time>2012-08-16T07:23:08Z</time>
      </trkpt>
      <trkpt lat="47.80203" lon="-3.38871">
        <ele>10.554375648498</ele>
        <time>2012-08-16T07:23:11Z</time>
      </trkpt>
      <trkpt lat="47.8021" lon="-3.38876">
        <ele>11.532066345215</ele>
        <time>2012-08-16T07:23:15Z</time>
      </trkpt>
      <trkpt lat="47.80214" lon="-3.38881">
        <ele>12.078193664551</ele>
        <time>2012-08-16T07:23:17Z</time>
      </trkpt>
      <trkpt lat="47.80223" lon="-3.38889">
        <ele>13.43736076355</ele>
        <time>2012-08-16T07:23:21Z</time>
      </trkpt>
      <trkpt lat="47.80231" lon="-3.38904">
        <ele>14.95255947113</ele>
        <time>2012-08-16T07:23:26Z</time>
      </trkpt>
      <trkpt lat="47.80241" lon="-3.38926">
        <ele>16.727300643921</ele>
        <time>2012-08-16T07:23:33Z</time>
      </trkpt>
      <trkpt lat="47.80245" lon="-3.3893">
        <ele>17.214015960693</ele>
        <time>2012-08-16T07:23:35Z</time>
      </trkpt>
      <trkpt lat="47.8025" lon="-3.38943">
        <ele>17.666522979736</ele>
        <time>2012-08-16T07:23:39Z</time>
      </trkpt>
      <trkpt lat="47.80259" lon="-3.38955">
        <ele>18.10684967041</ele>
        <time>2012-08-16T07:23:44Z</time>
      </trkpt>
      <trkpt lat="47.80269" lon="-3.38968">
        <ele>18.759700775146</ele>
        <time>2012-08-16T07:23:50Z</time>
      </trkpt>
      <trkpt lat="47.80278" lon="-3.38971">
        <ele>19.427001953125</ele>
        <time>2012-08-16T07:23:54Z</time>
      </trkpt>
      <trkpt lat="47.80291" lon="-3.38972">
        <ele>20.446750640869</ele>
        <time>2012-08-16T07:24:00Z</time>
      </trkpt>
      <trkpt lat="47.80303" lon="-3.38973">
        <ele>21.378911972046</ele>
        <time>2012-08-16T07:24:05Z</time>
      </trkpt>
      <trkpt lat="47.80315" lon="-3.38982">
        <ele>22.597984313965</ele>
        <time>2012-08-16T07:24:11Z</time>
      </trkpt>
      <trkpt lat="47.8032" lon="-3.38998">
        <ele>23.694890975952</ele>
        <time>2012-08-16T07:24:16Z</time>
      </trkpt>
      <trkpt lat="47.8032" lon="-3.39022">
        <ele>23.5862865448</ele>
        <time>2012-08-16T07:24:21Z</time>
      </trkpt>
      <trkpt lat="47.80325" lon="-3.39047">
        <ele>24.013778686523</ele>
        <time>2012-08-16T07:24:26Z</time>
      </trkpt>
      <trkpt lat="47.80337" lon="-3.39057">
        <ele>24.396091461182</ele>
        <time>2012-08-16T07:24:30Z</time>
      </trkpt>
      <trkpt lat="47.80352" lon="-3.39073">
        <ele>21.664184570312</ele>
        <time>2012-08-16T07:24:35Z</time>
      </trkpt>
      <trkpt lat="47.8036" lon="-3.39093">
        <ele>19.696311950684</ele>
        <time>2012-08-16T07:24:39Z</time>
      </trkpt>
      <trkpt lat="47.80361" lon="-3.39115">
        <ele>18.138484954834</ele>
        <time>2012-08-16T07:24:43Z</time>
      </trkpt>
      <trkpt lat="47.80357" lon="-3.39145">
        <ele>17.036991119385</ele>
        <time>2012-08-16T07:24:48Z</time>
      </trkpt>
      <trkpt lat="47.80352" lon="-3.39164">
        <ele>16.868190765381</ele>
        <time>2012-08-16T07:24:52Z</time>
      </trkpt>
      <trkpt lat="47.80347" lon="-3.39186">
        <ele>17.271638870239</ele>
        <time>2012-08-16T07:24:57Z</time>
      </trkpt>
      <trkpt lat="47.80345" lon="-3.39194">
        <ele>17.660844802856</ele>
        <time>2012-08-16T07:24:59Z</time>
      </trkpt>
      <trkpt lat="47.80339" lon="-3.39205">
        <ele>18.614656448364</ele>
        <time>2012-08-16T07:25:03Z</time>
      </trkpt>
      <trkpt lat="47.80335" lon="-3.39222">
        <ele>19.072946548462</ele>
        <time>2012-08-16T07:25:07Z</time>
      </trkpt>
      <trkpt lat="47.80333" lon="-3.39226">
        <ele>19.283851623535</ele>
        <time>2012-08-16T07:25:08Z</time>
      </trkpt>
      <trkpt lat="47.80322" lon="-3.39245">
        <ele>18.382648468018</ele>
        <time>2012-08-16T07:25:12Z</time>
      </trkpt>
      <trkpt lat="47.80318" lon="-3.39267">
        <ele>19.353330612183</ele>
        <time>2012-08-16T07:25:16Z</time>
      </trkpt>
      <trkpt lat="47.80319" lon="-3.39285">
        <ele>20.789505004883</ele>
        <time>2012-08-16T07:25:21Z</time>
      </trkpt>
      <trkpt lat="47.80326" lon="-3.39291">
        <ele>21.844650268555</ele>
        <time>2012-08-16T07:25:25Z</time>
      </trkpt>
      <trkpt lat="47.80347" lon="-3.39305">
        <ele>21.597362518311</ele>
        <time>2012-08-16T07:25:32Z</time>
      </trkpt>
      <trkpt lat="47.80359" lon="-3.39322">
        <ele>21.515283584595</ele>
        <time>2012-08-16T07:25:36Z</time>
      </trkpt>
      <trkpt lat="47.8037" lon="-3.39335">
        <ele>21.266237258911</ele>
        <time>2012-08-16T07:25:40Z</time>
      </trkpt>
      <trkpt lat="47.80383" lon="-3.39352">
        <ele>21.51615524292</ele>
        <time>2012-08-16T07:25:45Z</time>
      </trkpt>
      <trkpt lat="47.80401" lon="-3.39372">
        <ele>22.196781158447</ele>
        <time>2012-08-16T07:25:51Z</time>
      </trkpt>
      <trkpt lat="47.8041" lon="-3.39378">
        <ele>22.485172271729</ele>
        <time>2012-08-16T07:25:53Z</time>
      </trkpt>
      <trkpt lat="47.80424" lon="-3.39391">
        <ele>23.384983062744</ele>
        <time>2012-08-16T07:25:58Z</time>
      </trkpt>
      <trkpt lat="47.80442" lon="-3.39401">
        <ele>24.018640518189</ele>
        <time>2012-08-16T07:26:04Z</time>
      </trkpt>
      <trkpt lat="47.80461" lon="-3.39412">
        <ele>25.005260467529</ele>
        <time>2012-08-16T07:26:09Z</time>
      </trkpt>
      <trkpt lat="47.80464" lon="-3.39414">
        <ele>25.234468460083</ele>
        <time>2012-08-16T07:26:10Z</time>
      </trkpt>
      <trkpt lat="47.80474" lon="-3.39429">
        <ele>27.579391479492</ele>
        <time>2012-08-16T07:26:14Z</time>
      </trkpt>
      <trkpt lat="47.80493" lon="-3.39438">
        <ele>28.456777572632</ele>
        <time>2012-08-16T07:26:19Z</time>
      </trkpt>
      <trkpt lat="47.80502" lon="-3.39442">
        <ele>28.860916137695</ele>
        <time>2012-08-16T07:26:21Z</time>
      </trkpt>
      <trkpt lat="47.8051" lon="-3.39444">
        <ele>28.36784362793</ele>
        <time>2012-08-16T07:26:23Z</time>
      </trkpt>
      <trkpt lat="47.80526" lon="-3.39444">
        <ele>26.606698989868</ele>
        <time>2012-08-16T07:26:27Z</time>
      </trkpt>
      <trkpt lat="47.80533" lon="-3.39446">
        <ele>26.113010406494</ele>
        <time>2012-08-16T07:26:29Z</time>
      </trkpt>
      <trkpt lat="47.8055" lon="-3.39454">
        <ele>25.759113311768</ele>
        <time>2012-08-16T07:26:33Z</time>
      </trkpt>
      <trkpt lat="47.80565" lon="-3.39463">
        <ele>26.091356277466</ele>
        <time>2012-08-16T07:26:37Z</time>
      </trkpt>
      <trkpt lat="47.80575" lon="-3.39471">
        <ele>26.950868606567</ele>
        <time>2012-08-16T07:26:40Z</time>
      </trkpt>
      <trkpt lat="47.80584" lon="-3.39487">
        <ele>29.678701400757</ele>
        <time>2012-08-16T07:26:44Z</time>
      </trkpt>
      <trkpt lat="47.80589" lon="-3.39493">
        <ele>30.231595993042</ele>
        <time>2012-08-16T07:26:46Z</time>
      </trkpt>
      <trkpt lat="47.80596" lon="-3.39495">
        <ele>29.438564300537</ele>
        <time>2012-08-16T07:26:48Z</time>
      </trkpt>
      <trkpt lat="47.80613" lon="-3.39502">
        <ele>27.572265625</ele>
        <time>2012-08-16T07:26:53Z</time>
      </trkpt>
      <trkpt lat="47.80619" lon="-3.39504">
        <ele>26.721397399902</ele>
        <time>2012-08-16T07:26:55Z</time>
      </trkpt>
      <trkpt lat="47.80641" lon="-3.3951">
        <ele>23.298755645752</ele>
        <time>2012-08-16T07:27:00Z</time>
      </trkpt>
      <trkpt lat="47.80649" lon="-3.39515">
        <ele>22.396389007568</ele>
        <time>2012-08-16T07:27:02Z</time>
      </trkpt>
      <trkpt lat="47.8066" lon="-3.39533">
        <ele>22.550025939941</ele>
        <time>2012-08-16T07:27:06Z</time>
      </trkpt>
      <trkpt lat="47.80664" lon="-3.39545">
        <ele>23.428932189941</ele>
        <time>2012-08-16T07:27:08Z</time>
      </trkpt>
      <trkpt lat="47.80668" lon="-3.39564">
        <ele>25.058555603027</ele>
        <time>2012-08-16T07:27:11Z</time>
      </trkpt>
      <trkpt lat="47.8067" lon="-3.39587">
        <ele>26.791797637939</ele>
        <time>2012-08-16T07:27:15Z</time>
      </trkpt>
      <trkpt lat="47.80671" lon="-3.39614">
        <ele>25.641923904419</ele>
        <time>2012-08-16T07:27:20Z</time>
      </trkpt>
      <trkpt lat="47.80666" lon="-3.3965">
        <ele>25.868753433227</ele>
        <time>2012-08-16T07:27:25Z</time>
      </trkpt>
      <trkpt lat="47.8066" lon="-3.39676">
        <ele>26.074338912964</ele>
        <time>2012-08-16T07:27:30Z</time>
      </trkpt>
      <trkpt lat="47.80651" lon="-3.39706">
        <ele>26.382850646973</ele>
        <time>2012-08-16T07:27:36Z</time>
      </trkpt>
      <trkpt lat="47.80645" lon="-3.39732">
        <ele>25.910881042481</ele>
        <time>2012-08-16T07:27:41Z</time>
      </trkpt>
      <trkpt lat="47.80654" lon="-3.39754">
        <ele>22.846174240112</ele>
        <time>2012-08-16T07:27:45Z</time>
      </trkpt>
      <trkpt lat="47.80659" lon="-3.3976">
        <ele>22.076486587524</ele>
        <time>2012-08-16T07:27:46Z</time>
      </trkpt>
      <trkpt lat="47.8067" lon="-3.39764">
        <ele>20.357702255249</ele>
        <time>2012-08-16T07:27:48Z</time>
      </trkpt>
      <trkpt lat="47.8068" lon="-3.39776">
        <ele>19.493116378784</ele>
        <time>2012-08-16T07:27:51Z</time>
      </trkpt>
      <trkpt lat="47.80691" lon="-3.39772">
        <ele>17.794214248657</ele>
        <time>2012-08-16T07:27:55Z</time>
      </trkpt>
      <trkpt lat="47.80709" lon="-3.39787">
        <ele>15.931555747986</ele>
        <time>2012-08-16T07:28:00Z</time>
      </trkpt>
      <trkpt lat="47.80715" lon="-3.39799">
        <ele>15.613056182861</ele>
        <time>2012-08-16T07:28:02Z</time>
      </trkpt>
      <trkpt lat="47.80722" lon="-3.39842">
        <ele>17.419019699097</ele>
        <time>2012-08-16T07:28:07Z</time>
      </trkpt>
      <trkpt lat="47.80733" lon="-3.39873">
        <ele>19.942459106445</ele>
        <time>2012-08-16T07:28:11Z</time>
      </trkpt>
      <trkpt lat="47.80738" lon="-3.39878">
        <ele>19.942157745361</ele>
        <time>2012-08-16T07:28:12Z</time>
      </trkpt>
      <trkpt lat="47.80751" lon="-3.39889">
        <ele>19.943143844604</ele>
        <time>2012-08-16T07:28:15Z</time>
      </trkpt>
      <trkpt lat="47.80772" lon="-3.39901">
        <ele>19.600770950317</ele>
        <time>2012-08-16T07:28:19Z</time>
      </trkpt>
      <trkpt lat="47.8078" lon="-3.39906">
        <ele>19.515705108643</ele>
        <time>2012-08-16T07:28:21Z</time>
      </trkpt>
      <trkpt lat="47.80794" lon="-3.39911">
        <ele>18.947217941284</ele>
        <time>2012-08-16T07:28:24Z</time>
      </trkpt>
      <trkpt lat="47.80808" lon="-3.39925">
        <ele>20.092081069946</ele>
        <time>2012-08-16T07:28:29Z</time>
      </trkpt>
      <trkpt lat="47.80811" lon="-3.39928">
        <ele>20.458957672119</ele>
        <time>2012-08-16T07:28:30Z</time>
      </trkpt>
      <trkpt lat="47.80827" lon="-3.39938">
        <ele>21.004198074341</ele>
        <time>2012-08-16T07:28:35Z</time>
      </trkpt>
      <trkpt lat="47.8084" lon="-3.39942">
        <ele>19.999048233032</ele>
        <time>2012-08-16T07:28:38Z</time>
      </trkpt>
      <trkpt lat="47.80859" lon="-3.39951">
        <ele>18.172142028809</ele>
        <time>2012-08-16T07:28:43Z</time>
      </trkpt>
      <trkpt lat="47.80874" lon="-3.39955">
        <ele>15.872627258301</ele>
        <time>2012-08-16T07:28:47Z</time>
      </trkpt>
      <trkpt lat="47.8089" lon="-3.39974">
        <ele>15.274676322937</ele>
        <time>2012-08-16T07:28:52Z</time>
      </trkpt>
      <trkpt lat="47.80897" lon="-3.39997">
        <ele>16.666507720947</ele>
        <time>2012-08-16T07:28:56Z</time>
      </trkpt>
      <trkpt lat="47.80902" lon="-3.40023">
        <ele>16.952703475952</ele>
        <time>2012-08-16T07:29:00Z</time>
      </trkpt>
      <trkpt lat="47.80902" lon="-3.4003">
        <ele>17.242630004883</ele>
        <time>2012-08-16T07:29:01Z</time>
      </trkpt>
      <trkpt lat="47.80904" lon="-3.40059">
        <ele>18.551986694336</ele>
        <time>2012-08-16T07:29:05Z</time>
      </trkpt>
      <trkpt lat="47.80906" lon="-3.40074">
        <ele>18.857740402222</ele>
        <time>2012-08-16T07:29:07Z</time>
      </trkpt>
      <trkpt lat="47.80907" lon="-3.401">
        <ele>18.34313583374</ele>
        <time>2012-08-16T07:29:10Z</time>
      </trkpt>
      <trkpt lat="47.80907" lon="-3.40127">
        <ele>17.627140045166</ele>
        <time>2012-08-16T07:29:13Z</time>
      </trkpt>
      <trkpt lat="47.80905" lon="-3.40143">
        <ele>17.72286605835</ele>
        <time>2012-08-16T07:29:15Z</time>
      </trkpt>
      <trkpt lat="47.80895" lon="-3.40183">
        <ele>19.147270202637</ele>
        <time>2012-08-16T07:29:20Z</time>
      </trkpt>
      <trkpt lat="47.80879" lon="-3.40237">
        <ele>20.614974975586</ele>
        <time>2012-08-16T07:29:27Z</time>
      </trkpt>
      <trkpt lat="47.8086" lon="-3.40285">
        <ele>22.554082870483</ele>
        <time>2012-08-16T07:29:34Z</time>
      </trkpt>
      <trkpt lat="47.80842" lon="-3.40322">
        <ele>22.144472122192</ele>
        <time>2012-08-16T07:29:40Z</time>
      </trkpt>
      <trkpt lat="47.80828" lon="-3.40352">
        <ele>21.50731086731</ele>
        <time>2012-08-16T07:29:45Z</time>
      </trkpt>
      <trkpt lat="47.80824" lon="-3.40366">
        <ele>21.003639221191</ele>
        <time>2012-08-16T07:29:47Z</time>
      </trkpt>
      <trkpt lat="47.80814" lon="-3.4039">
        <ele>19.971599578857</ele>
        <time>2012-08-16T07:29:51Z</time>
      </trkpt>
      <trkpt lat="47.80809" lon="-3.40408">
        <ele>18.687496185303</ele>
        <time>2012-08-16T07:29:54Z</time>
      </trkpt>
      <trkpt lat="47.80807" lon="-3.4043">
        <ele>17.334350585938</ele>
        <time>2012-08-16T07:29:59Z</time>
      </trkpt>
      <trkpt lat="47.80813" lon="-3.40433">
        <ele>16.309532165527</ele>
        <time>2012-08-16T07:30:01Z</time>
      </trkpt>
      <trkpt lat="47.80833" lon="-3.40437">
        <ele>13.362106323242</ele>
        <time>2012-08-16T07:30:05Z</time>
      </trkpt>
      <trkpt lat="47.80873" lon="-3.4045">
        <ele>15.503087997437</ele>
        <time>2012-08-16T07:30:13Z</time>
      </trkpt>
      <trkpt lat="47.80889" lon="-3.40453">
        <ele>16.672475814819</ele>
        <time>2012-08-16T07:30:16Z</time>
      </trkpt>
      <trkpt lat="47.8091" lon="-3.40443">
        <ele>17.543113708496</ele>
        <time>2012-08-16T07:30:21Z</time>
      </trkpt>
      <trkpt lat="47.80913" lon="-3.40439">
        <ele>17.413463592529</ele>
        <time>2012-08-16T07:30:22Z</time>
      </trkpt>
      <trkpt lat="47.8093" lon="-3.40406">
        <ele>17.566524505615</ele>
        <time>2012-08-16T07:30:28Z</time>
      </trkpt>
      <trkpt lat="47.8095" lon="-3.40376">
        <ele>17.914958953857</ele>
        <time>2012-08-16T07:30:33Z</time>
      </trkpt>
      <trkpt lat="47.80978" lon="-3.40346">
        <ele>19.230274200439</ele>
        <time>2012-08-16T07:30:39Z</time>
      </trkpt>
      <trkpt lat="47.81004" lon="-3.40328">
        <ele>20.650398254394</ele>
        <time>2012-08-16T07:30:45Z</time>
      </trkpt>
      <trkpt lat="47.81032" lon="-3.40308">
        <ele>21.388923645019</ele>
        <time>2012-08-16T07:30:52Z</time>
      </trkpt>
      <trkpt lat="47.81036" lon="-3.40305">
        <ele>21.557493209839</ele>
        <time>2012-08-16T07:30:53Z</time>
      </trkpt>
      <trkpt lat="47.81055" lon="-3.40303">
        <ele>23.795948028564</ele>
        <time>2012-08-16T07:30:58Z</time>
      </trkpt>
      <trkpt lat="47.81065" lon="-3.4032">
        <ele>27.12815284729</ele>
        <time>2012-08-16T07:31:02Z</time>
      </trkpt>
      <trkpt lat="47.81068" lon="-3.40328">
        <ele>28.592048645019</ele>
        <time>2012-08-16T07:31:04Z</time>
      </trkpt>
      <trkpt lat="47.8108" lon="-3.40358">
        <ele>31.896120071411</ele>
        <time>2012-08-16T07:31:10Z</time>
      </trkpt>
      <trkpt lat="47.81094" lon="-3.40386">
        <ele>33.865417480469</ele>
        <time>2012-08-16T07:31:16Z</time>
      </trkpt>
      <trkpt lat="47.81107" lon="-3.40412">
        <ele>35.139766693115</ele>
        <time>2012-08-16T07:31:22Z</time>
      </trkpt>
      <trkpt lat="47.81124" lon="-3.40434">
        <ele>36.005218505859</ele>
        <time>2012-08-16T07:31:29Z</time>
      </trkpt>
      <trkpt lat="47.81132" lon="-3.40455">
        <ele>36.539615631104</ele>
        <time>2012-08-16T07:31:34Z</time>
      </trkpt>
      <trkpt lat="47.81145" lon="-3.40493">
        <ele>36.913017272949</ele>
        <time>2012-08-16T07:31:42Z</time>
      </trkpt>
      <trkpt lat="47.81155" lon="-3.40528">
        <ele>37.921035766602</ele>
        <time>2012-08-16T07:31:49Z</time>
      </trkpt>
      <trkpt lat="47.81163" lon="-3.40555">
        <ele>38.795364379883</ele>
        <time>2012-08-16T07:31:54Z</time>
      </trkpt>
      <trkpt lat="47.81178" lon="-3.40583">
        <ele>39.579135894775</ele>
        <time>2012-08-16T07:32:00Z</time>
      </trkpt>
      <trkpt lat="47.81181" lon="-3.40588">
        <ele>39.776741027832</ele>
        <time>2012-08-16T07:32:01Z</time>
      </trkpt>
      <trkpt lat="47.8119" lon="-3.40608">
        <ele>40.313423156738</ele>
        <time>2012-08-16T07:32:05Z</time>
      </trkpt>
      <trkpt lat="47.81212" lon="-3.40641">
        <ele>39.911254882812</ele>
        <time>2012-08-16T07:32:13Z</time>
      </trkpt>
      <trkpt lat="47.81223" lon="-3.40666">
        <ele>39.281078338623</ele>
        <time>2012-08-16T07:32:18Z</time>
      </trkpt>
      <trkpt lat="47.81226" lon="-3.40691">
        <ele>39.17956161499</ele>
        <time>2012-08-16T07:32:23Z</time>
      </trkpt>
      <trkpt lat="47.81233" lon="-3.40731">
        <ele>38.791893005371</ele>
        <time>2012-08-16T07:32:30Z</time>
      </trkpt>
      <trkpt lat="47.81245" lon="-3.40766">
        <ele>37.513320922852</ele>
        <time>2012-08-16T07:32:36Z</time>
      </trkpt>
      <trkpt lat="47.81254" lon="-3.40773">
        <ele>36.877292633057</ele>
        <time>2012-08-16T07:32:40Z</time>
      </trkpt>
      <trkpt lat="47.81262" lon="-3.40769">
        <ele>36.640060424805</ele>
        <time>2012-08-16T07:32:42Z</time>
      </trkpt>
      <trkpt lat="47.81293" lon="-3.40759">
        <ele>35.569026947021</ele>
        <time>2012-08-16T07:32:49Z</time>
      </trkpt>
      <trkpt lat="47.8133" lon="-3.40756">
        <ele>34.265769958496</ele>
        <time>2012-08-16T07:32:57Z</time>
      </trkpt>
      <trkpt lat="47.81347" lon="-3.40756">
        <ele>34.12606048584</ele>
        <time>2012-08-16T07:33:01Z</time>
      </trkpt>
      <trkpt lat="47.81367" lon="-3.4076">
        <ele>34.142612457275</ele>
        <time>2012-08-16T07:33:07Z</time>
      </trkpt>
      <trkpt lat="47.81376" lon="-3.40759">
        <ele>34.10941696167</ele>
        <time>2012-08-16T07:33:11Z</time>
      </trkpt>
      <trkpt lat="47.81386" lon="-3.4076">
        <ele>34.093059539795</ele>
        <time>2012-08-16T07:33:15Z</time>
      </trkpt>
      <trkpt lat="47.81395" lon="-3.40758">
        <ele>34.050685882568</ele>
        <time>2012-08-16T07:33:19Z</time>
      </trkpt>
      <trkpt lat="47.81402" lon="-3.40757">
        <ele>34.029602050781</ele>
        <time>2012-08-16T07:33:21Z</time>
      </trkpt>
      <trkpt lat="47.81433" lon="-3.40748">
        <ele>34.470035552979</ele>
        <time>2012-08-16T07:33:29Z</time>
      </trkpt>
      <trkpt lat="47.8145" lon="-3.40743">
        <ele>35.014450073242</ele>
        <time>2012-08-16T07:33:34Z</time>
      </trkpt>
      <trkpt lat="47.81465" lon="-3.40739">
        <ele>35.472499847412</ele>
        <time>2012-08-16T07:33:39Z</time>
      </trkpt>
      <trkpt lat="47.81488" lon="-3.40733">
        <ele>36.160751342773</ele>
        <time>2012-08-16T07:33:45Z</time>
      </trkpt>
      <trkpt lat="47.81506" lon="-3.40727">
        <ele>36.792274475098</ele>
        <time>2012-08-16T07:33:50Z</time>
      </trkpt>
      <trkpt lat="47.81519" lon="-3.4072">
        <ele>37.555492401123</ele>
        <time>2012-08-16T07:33:54Z</time>
      </trkpt>
      <trkpt lat="47.81536" lon="-3.40714">
        <ele>38.423377990723</ele>
        <time>2012-08-16T07:33:59Z</time>
      </trkpt>
      <trkpt lat="47.81555" lon="-3.40708">
        <ele>39.310291290283</ele>
        <time>2012-08-16T07:34:04Z</time>
      </trkpt>
      <trkpt lat="47.81574" lon="-3.40701">
        <ele>40.211196899414</ele>
        <time>2012-08-16T07:34:09Z</time>
      </trkpt>
      <trkpt lat="47.81598" lon="-3.40693">
        <ele>40.795558929443</ele>
        <time>2012-08-16T07:34:14Z</time>
      </trkpt>
      <trkpt lat="47.81603" lon="-3.40692">
        <ele>40.840675354004</ele>
        <time>2012-08-16T07:34:15Z</time>
      </trkpt>
      <trkpt lat="47.81628" lon="-3.40682">
        <ele>41.011985778809</ele>
        <time>2012-08-16T07:34:20Z</time>
      </trkpt>
      <trkpt lat="47.81649" lon="-3.40675">
        <ele>41.06042098999</ele>
        <time>2012-08-16T07:34:25Z</time>
      </trkpt>
      <trkpt lat="47.81662" lon="-3.4067">
        <ele>41.031143188477</ele>
        <time>2012-08-16T07:34:28Z</time>
      </trkpt>
      <trkpt lat="47.81685" lon="-3.40664">
        <ele>40.285175323486</ele>
        <time>2012-08-16T07:34:32Z</time>
      </trkpt>
      <trkpt lat="47.81716" lon="-3.40661">
        <ele>39.172981262207</ele>
        <time>2012-08-16T07:34:38Z</time>
      </trkpt>
      <trkpt lat="47.81754" lon="-3.40663">
        <ele>37.953857421875</ele>
        <time>2012-08-16T07:34:44Z</time>
      </trkpt>
      <trkpt lat="47.81776" lon="-3.40665">
        <ele>37.669681549072</ele>
        <time>2012-08-16T07:34:48Z</time>
      </trkpt>
      <trkpt lat="47.81798" lon="-3.40667">
        <ele>37.421936035156</ele>
        <time>2012-08-16T07:34:52Z</time>
      </trkpt>
      <trkpt lat="47.81829" lon="-3.40673">
        <ele>37.046569824219</ele>
        <time>2012-08-16T07:34:57Z</time>
      </trkpt>
      <trkpt lat="47.81849" lon="-3.40676">
        <ele>36.008712768555</ele>
        <time>2012-08-16T07:35:00Z</time>
      </trkpt>
      <trkpt lat="47.81865" lon="-3.40692">
        <ele>35.442096710205</ele>
        <time>2012-08-16T07:35:02Z</time>
      </trkpt>
      <trkpt lat="47.819" lon="-3.40701">
        <ele>34.160533905029</ele>
        <time>2012-08-16T07:35:08Z</time>
      </trkpt>
      <trkpt lat="47.81932" lon="-3.40706">
        <ele>32.903831481934</ele>
        <time>2012-08-16T07:35:14Z</time>
      </trkpt>
      <trkpt lat="47.81944" lon="-3.40708">
        <ele>32.351081848145</ele>
        <time>2012-08-16T07:35:16Z</time>
      </trkpt>
      <trkpt lat="47.81962" lon="-3.40718">
        <ele>31.967704772949</ele>
        <time>2012-08-16T07:35:20Z</time>
      </trkpt>
      <trkpt lat="47.81971" lon="-3.40721">
        <ele>31.642692565918</ele>
        <time>2012-08-16T07:35:23Z</time>
      </trkpt>
      <trkpt lat="47.81979" lon="-3.40722">
        <ele>31.276481628418</ele>
        <time>2012-08-16T07:35:27Z</time>
      </trkpt>
      <trkpt lat="47.81995" lon="-3.40729">
        <ele>30.736892700195</ele>
        <time>2012-08-16T07:35:32Z</time>
      </trkpt>
      <trkpt lat="47.81998" lon="-3.40729">
        <ele>30.654495239258</ele>
        <time>2012-08-16T07:35:33Z</time>
      </trkpt>
      <trkpt lat="47.82007" lon="-3.40731">
        <ele>30.212423324585</ele>
        <time>2012-08-16T07:35:37Z</time>
      </trkpt>
      <trkpt lat="47.82036" lon="-3.4075">
        <ele>29.377239227295</ele>
        <time>2012-08-16T07:35:44Z</time>
      </trkpt>
      <trkpt lat="47.82064" lon="-3.40772">
        <ele>26.517351150513</ele>
        <time>2012-08-16T07:35:50Z</time>
      </trkpt>
      <trkpt lat="47.82102" lon="-3.40806">
        <ele>23.996713638306</ele>
        <time>2012-08-16T07:35:58Z</time>
      </trkpt>
      <trkpt lat="47.82135" lon="-3.40839">
        <ele>23.380506515503</ele>
        <time>2012-08-16T07:36:04Z</time>
      </trkpt>
      <trkpt lat="47.82141" lon="-3.40846">
        <ele>23.175056457519</ele>
        <time>2012-08-16T07:36:05Z</time>
      </trkpt>
      <trkpt lat="47.82167" lon="-3.40872">
        <ele>22.629287719727</ele>
        <time>2012-08-16T07:36:10Z</time>
      </trkpt>
      <trkpt lat="47.82197" lon="-3.40902">
        <ele>22.796552658081</ele>
        <time>2012-08-16T07:36:16Z</time>
      </trkpt>
      <trkpt lat="47.82211" lon="-3.40915">
        <ele>23.166246414185</ele>
        <time>2012-08-16T07:36:19Z</time>
      </trkpt>
      <trkpt lat="47.82222" lon="-3.40924">
        <ele>23.767517089844</ele>
        <time>2012-08-16T07:36:21Z</time>
      </trkpt>
      <trkpt lat="47.82254" lon="-3.40958">
        <ele>25.562055587769</ele>
        <time>2012-08-16T07:36:28Z</time>
      </trkpt>
      <trkpt lat="47.82281" lon="-3.40991">
        <ele>26.612501144409</ele>
        <time>2012-08-16T07:36:34Z</time>
      </trkpt>
      <trkpt lat="47.82311" lon="-3.41019">
        <ele>27.137575149536</ele>
        <time>2012-08-16T07:36:40Z</time>
      </trkpt>
      <trkpt lat="47.82325" lon="-3.4103">
        <ele>27.167892456055</ele>
        <time>2012-08-16T07:36:43Z</time>
      </trkpt>
      <trkpt lat="47.82349" lon="-3.41041">
        <ele>27.027046203613</ele>
        <time>2012-08-16T07:36:48Z</time>
      </trkpt>
      <trkpt lat="47.82359" lon="-3.41043">
        <ele>26.96696472168</ele>
        <time>2012-08-16T07:36:50Z</time>
      </trkpt>
      <trkpt lat="47.82384" lon="-3.41039">
        <ele>27.063095092773</ele>
        <time>2012-08-16T07:36:55Z</time>
      </trkpt>
      <trkpt lat="47.82389" lon="-3.41036">
        <ele>27.124893188477</ele>
        <time>2012-08-16T07:36:56Z</time>
      </trkpt>
      <trkpt lat="47.82397" lon="-3.41032">
        <ele>27.239334106445</ele>
        <time>2012-08-16T07:36:58Z</time>
      </trkpt>
      <trkpt lat="47.82428" lon="-3.41018">
        <ele>26.963180541992</ele>
        <time>2012-08-16T07:37:04Z</time>
      </trkpt>
      <trkpt lat="47.82443" lon="-3.41012">
        <ele>26.215808868408</ele>
        <time>2012-08-16T07:37:07Z</time>
      </trkpt>
      <trkpt lat="47.8246" lon="-3.41003">
        <ele>25.358779907227</ele>
        <time>2012-08-16T07:37:11Z</time>
      </trkpt>
      <trkpt lat="47.82483" lon="-3.40994">
        <ele>23.951860427856</ele>
        <time>2012-08-16T07:37:16Z</time>
      </trkpt>
      <trkpt lat="47.825" lon="-3.40984">
        <ele>22.999771118164</ele>
        <time>2012-08-16T07:37:22Z</time>
      </trkpt>
      <trkpt lat="47.8252" lon="-3.40974">
        <ele>23.064888000488</ele>
        <time>2012-08-16T07:37:27Z</time>
      </trkpt>
      <trkpt lat="47.82542" lon="-3.40962">
        <ele>23.408927917481</ele>
        <time>2012-08-16T07:37:32Z</time>
      </trkpt>
      <trkpt lat="47.82554" lon="-3.40958">
        <ele>23.670782089233</ele>
        <time>2012-08-16T07:37:35Z</time>
      </trkpt>
      <trkpt lat="47.82569" lon="-3.40952">
        <ele>24.089225769043</ele>
        <time>2012-08-16T07:37:39Z</time>
      </trkpt>
      <trkpt lat="47.82592" lon="-3.40939">
        <ele>25.042325973511</ele>
        <time>2012-08-16T07:37:45Z</time>
      </trkpt>
      <trkpt lat="47.82608" lon="-3.40932">
        <ele>25.612287521362</ele>
        <time>2012-08-16T07:37:49Z</time>
      </trkpt>
      <trkpt lat="47.82624" lon="-3.40924">
        <ele>26.16558265686</ele>
        <time>2012-08-16T07:37:53Z</time>
      </trkpt>
      <trkpt lat="47.82633" lon="-3.40919">
        <ele>26.480295181274</ele>
        <time>2012-08-16T07:37:55Z</time>
      </trkpt>
      <trkpt lat="47.82658" lon="-3.4091">
        <ele>27.12483215332</ele>
        <time>2012-08-16T07:38:01Z</time>
      </trkpt>
      <trkpt lat="47.82686" lon="-3.40895">
        <ele>27.505464553833</ele>
        <time>2012-08-16T07:38:08Z</time>
      </trkpt>
      <trkpt lat="47.82708" lon="-3.40883">
        <ele>27.512634277344</ele>
        <time>2012-08-16T07:38:14Z</time>
      </trkpt>
      <trkpt lat="47.82728" lon="-3.40874">
        <ele>27.407861709595</ele>
        <time>2012-08-16T07:38:18Z</time>
      </trkpt>
      <trkpt lat="47.82767" lon="-3.40855">
        <ele>27.27067565918</ele>
        <time>2012-08-16T07:38:26Z</time>
      </trkpt>
      <trkpt lat="47.82795" lon="-3.40839">
        <ele>27.325607299805</ele>
        <time>2012-08-16T07:38:32Z</time>
      </trkpt>
      <trkpt lat="47.82821" lon="-3.40818">
        <ele>27.651220321655</ele>
        <time>2012-08-16T07:38:38Z</time>
      </trkpt>
      <trkpt lat="47.82848" lon="-3.40782">
        <ele>28.223529815674</ele>
        <time>2012-08-16T07:38:45Z</time>
      </trkpt>
      <trkpt lat="47.82858" lon="-3.40766">
        <ele>28.288814544678</ele>
        <time>2012-08-16T07:38:48Z</time>
      </trkpt>
      <trkpt lat="47.82881" lon="-3.40735">
        <ele>27.94097328186</ele>
        <time>2012-08-16T07:38:54Z</time>
      </trkpt>
      <trkpt lat="47.82908" lon="-3.40694">
        <ele>28.135955810547</ele>
        <time>2012-08-16T07:39:01Z</time>
      </trkpt>
      <trkpt lat="47.82937" lon="-3.40651">
        <ele>29.287830352783</ele>
        <time>2012-08-16T07:39:09Z</time>
      </trkpt>
      <trkpt lat="47.82967" lon="-3.40607">
        <ele>30.031600952148</ele>
        <time>2012-08-16T07:39:17Z</time>
      </trkpt>
      <trkpt lat="47.83" lon="-3.40559">
        <ele>31.289173126221</ele>
        <time>2012-08-16T07:39:26Z</time>
      </trkpt>
      <trkpt lat="47.83027" lon="-3.40517">
        <ele>32.426429748535</ele>
        <time>2012-08-16T07:39:34Z</time>
      </trkpt>
      <trkpt lat="47.83052" lon="-3.40479">
        <ele>33.658058166504</ele>
        <time>2012-08-16T07:39:42Z</time>
      </trkpt>
      <trkpt lat="47.8307" lon="-3.40452">
        <ele>34.737701416016</ele>
        <time>2012-08-16T07:39:48Z</time>
      </trkpt>
      <trkpt lat="47.8308" lon="-3.40434">
        <ele>35.45255279541</ele>
        <time>2012-08-16T07:39:52Z</time>
      </trkpt>
      <trkpt lat="47.83103" lon="-3.40413">
        <ele>36.522525787354</ele>
        <time>2012-08-16T07:39:59Z</time>
      </trkpt>
      <trkpt lat="47.83128" lon="-3.40398">
        <ele>37.416744232178</ele>
        <time>2012-08-16T07:40:06Z</time>
      </trkpt>
      <trkpt lat="47.83155" lon="-3.40392">
        <ele>38.258125305176</ele>
        <time>2012-08-16T07:40:13Z</time>
      </trkpt>
      <trkpt lat="47.83177" lon="-3.40392">
        <ele>39.048408508301</ele>
        <time>2012-08-16T07:40:19Z</time>
      </trkpt>
      <trkpt lat="47.832" lon="-3.40396">
        <ele>40.000576019287</ele>
        <time>2012-08-16T07:40:25Z</time>
      </trkpt>
      <trkpt lat="47.8322" lon="-3.40405">
        <ele>40.747200012207</ele>
        <time>2012-08-16T07:40:30Z</time>
      </trkpt>
      <trkpt lat="47.83248" lon="-3.40415">
        <ele>41.906986236572</ele>
        <time>2012-08-16T07:40:37Z</time>
      </trkpt>
      <trkpt lat="47.83252" lon="-3.40417">
        <ele>42.040256500244</ele>
        <time>2012-08-16T07:40:38Z</time>
      </trkpt>
      <trkpt lat="47.83279" lon="-3.4043">
        <ele>42.531494140625</ele>
        <time>2012-08-16T07:40:45Z</time>
      </trkpt>
      <trkpt lat="47.83321" lon="-3.40447">
        <ele>43.327430725098</ele>
        <time>2012-08-16T07:40:55Z</time>
      </trkpt>
      <trkpt lat="47.83362" lon="-3.40465">
        <ele>43.956859588623</ele>
        <time>2012-08-16T07:41:05Z</time>
      </trkpt>
      <trkpt lat="47.83374" lon="-3.40471">
        <ele>44.145862579346</ele>
        <time>2012-08-16T07:41:08Z</time>
      </trkpt>
      <trkpt lat="47.83385" lon="-3.40475">
        <ele>44.364990234375</ele>
        <time>2012-08-16T07:41:11Z</time>
      </trkpt>
      <trkpt lat="47.83401" lon="-3.40483">
        <ele>44.67342376709</ele>
        <time>2012-08-16T07:41:16Z</time>
      </trkpt>
      <trkpt lat="47.83421" lon="-3.40486">
        <ele>45.034378051758</ele>
        <time>2012-08-16T07:41:22Z</time>
      </trkpt>
      <trkpt lat="47.83433" lon="-3.40496">
        <ele>45.178897857666</ele>
        <time>2012-08-16T07:41:26Z</time>
      </trkpt>
      <trkpt lat="47.83455" lon="-3.40508">
        <ele>45.365505218506</ele>
        <time>2012-08-16T07:41:31Z</time>
      </trkpt>
      <trkpt lat="47.83484" lon="-3.40523">
        <ele>45.540027618408</ele>
        <time>2012-08-16T07:41:37Z</time>
      </trkpt>
      <trkpt lat="47.83522" lon="-3.40542">
        <ele>45.228870391846</ele>
        <time>2012-08-16T07:41:45Z</time>
      </trkpt>
      <trkpt lat="47.83551" lon="-3.40556">
        <ele>44.928409576416</ele>
        <time>2012-08-16T07:41:51Z</time>
      </trkpt>
      <trkpt lat="47.83572" lon="-3.40565">
        <ele>44.836387634277</ele>
        <time>2012-08-16T07:41:56Z</time>
      </trkpt>
      <trkpt lat="47.83593" lon="-3.4057">
        <ele>44.50129699707</ele>
        <time>2012-08-16T07:42:01Z</time>
      </trkpt>
      <trkpt lat="47.83605" lon="-3.4057">
        <ele>44.057266235352</ele>
        <time>2012-08-16T07:42:05Z</time>
      </trkpt>
      <trkpt lat="47.83633" lon="-3.40584">
        <ele>43.225799560547</ele>
        <time>2012-08-16T07:42:12Z</time>
      </trkpt>
      <trkpt lat="47.83669" lon="-3.40605">
        <ele>42.232021331787</ele>
        <time>2012-08-16T07:42:19Z</time>
      </trkpt>
      <trkpt lat="47.837" lon="-3.40627">
        <ele>42.126163482666</ele>
        <time>2012-08-16T07:42:25Z</time>
      </trkpt>
      <trkpt lat="47.83732" lon="-3.40658">
        <ele>42.108997344971</ele>
        <time>2012-08-16T07:42:32Z</time>
      </trkpt>
      <trkpt lat="47.83762" lon="-3.40684">
        <ele>42.632175445557</ele>
        <time>2012-08-16T07:42:39Z</time>
      </trkpt>
      <trkpt lat="47.83782" lon="-3.40701">
        <ele>43.284786224365</ele>
        <time>2012-08-16T07:42:44Z</time>
      </trkpt>
      <trkpt lat="47.8381" lon="-3.40727">
        <ele>43.841217041016</ele>
        <time>2012-08-16T07:42:51Z</time>
      </trkpt>
      <trkpt lat="47.83837" lon="-3.40752">
        <ele>44.018630981445</ele>
        <time>2012-08-16T07:42:58Z</time>
      </trkpt>
      <trkpt lat="47.83877" lon="-3.40787">
        <ele>44.446353912354</ele>
        <time>2012-08-16T07:43:08Z</time>
      </trkpt>
      <trkpt lat="47.83881" lon="-3.40791">
        <ele>44.489555358887</ele>
        <time>2012-08-16T07:43:09Z</time>
      </trkpt>
      <trkpt lat="47.83899" lon="-3.40809">
        <ele>44.702415466309</ele>
        <time>2012-08-16T07:43:14Z</time>
      </trkpt>
      <trkpt lat="47.83923" lon="-3.40832">
        <ele>45.206363677979</ele>
        <time>2012-08-16T07:43:20Z</time>
      </trkpt>
      <trkpt lat="47.83945" lon="-3.40851">
        <ele>46.1750831604</ele>
        <time>2012-08-16T07:43:25Z</time>
      </trkpt>
      <trkpt lat="47.83964" lon="-3.40866">
        <ele>46.866535186768</ele>
        <time>2012-08-16T07:43:29Z</time>
      </trkpt>
      <trkpt lat="47.83992" lon="-3.4088">
        <ele>47.75464630127</ele>
        <time>2012-08-16T07:43:35Z</time>
      </trkpt>
      <trkpt lat="47.84024" lon="-3.40886">
        <ele>48.791873931885</ele>
        <time>2012-08-16T07:43:42Z</time>
      </trkpt>
      <trkpt lat="47.84055" lon="-3.40881">
        <ele>49.898273468018</ele>
        <time>2012-08-16T07:43:49Z</time>
      </trkpt>
      <trkpt lat="47.84076" lon="-3.40872">
        <ele>50.804119110107</ele>
        <time>2012-08-16T07:43:55Z</time>
      </trkpt>
      <trkpt lat="47.84083" lon="-3.40869">
        <ele>51.142108917236</ele>
        <time>2012-08-16T07:43:58Z</time>
      </trkpt>
      <trkpt lat="47.84089" lon="-3.40868">
        <ele>51.265808105469</ele>
        <time>2012-08-16T07:44:02Z</time>
      </trkpt>
      <trkpt lat="47.84092" lon="-3.40884">
        <ele>50.944965362549</ele>
        <time>2012-08-16T07:44:06Z</time>
      </trkpt>
      <trkpt lat="47.84092" lon="-3.40894">
        <ele>50.720115661621</ele>
        <time>2012-08-16T07:44:08Z</time>
      </trkpt>
      <trkpt lat="47.84096" lon="-3.40951">
        <ele>51.354034423828</ele>
        <time>2012-08-16T07:44:17Z</time>
      </trkpt>
      <trkpt lat="47.84098" lon="-3.41012">
        <ele>52.96422958374</ele>
        <time>2012-08-16T07:44:26Z</time>
      </trkpt>
      <trkpt lat="47.84101" lon="-3.41071">
        <ele>53.64200592041</ele>
        <time>2012-08-16T07:44:35Z</time>
      </trkpt>
      <trkpt lat="47.84103" lon="-3.41106">
        <ele>53.289241790771</ele>
        <time>2012-08-16T07:44:40Z</time>
      </trkpt>
      <trkpt lat="47.84113" lon="-3.41118">
        <ele>52.950832366943</ele>
        <time>2012-08-16T07:44:44Z</time>
      </trkpt>
      <trkpt lat="47.84117" lon="-3.41117">
        <ele>52.941177368164</ele>
        <time>2012-08-16T07:44:45Z</time>
      </trkpt>
      <trkpt lat="47.84152" lon="-3.41108">
        <ele>52.831439971924</ele>
        <time>2012-08-16T07:44:53Z</time>
      </trkpt>
      <trkpt lat="47.84161" lon="-3.41105">
        <ele>52.795791625977</ele>
        <time>2012-08-16T07:44:55Z</time>
      </trkpt>
      <trkpt lat="47.84198" lon="-3.41091">
        <ele>53.274951934814</ele>
        <time>2012-08-16T07:45:02Z</time>
      </trkpt>
      <trkpt lat="47.84225" lon="-3.41079">
        <ele>53.722713470459</ele>
        <time>2012-08-16T07:45:08Z</time>
      </trkpt>
      <trkpt lat="47.84253" lon="-3.41065">
        <ele>54.200847625732</ele>
        <time>2012-08-16T07:45:13Z</time>
      </trkpt>
      <trkpt lat="47.84285" lon="-3.41049">
        <ele>54.163543701172</ele>
        <time>2012-08-16T07:45:19Z</time>
      </trkpt>
      <trkpt lat="47.84314" lon="-3.41037">
        <ele>54.204814910889</ele>
        <time>2012-08-16T07:45:24Z</time>
      </trkpt>
      <trkpt lat="47.84345" lon="-3.41033">
        <ele>54.061485290527</ele>
        <time>2012-08-16T07:45:29Z</time>
      </trkpt>
      <trkpt lat="47.84369" lon="-3.41033">
        <ele>53.790260314941</ele>
        <time>2012-08-16T07:45:33Z</time>
      </trkpt>
      <trkpt lat="47.84384" lon="-3.41047">
        <ele>53.266693115234</ele>
        <time>2012-08-16T07:45:37Z</time>
      </trkpt>
      <trkpt lat="47.84388" lon="-3.41067">
        <ele>52.730537414551</ele>
        <time>2012-08-16T07:45:40Z</time>
      </trkpt>
      <trkpt lat="47.84409" lon="-3.4112">
        <ele>52.09716796875</ele>
        <time>2012-08-16T07:45:48Z</time>
      </trkpt>
      <trkpt lat="47.84424" lon="-3.41162">
        <ele>51.83324432373</ele>
        <time>2012-08-16T07:45:54Z</time>
      </trkpt>
      <trkpt lat="47.84443" lon="-3.4122">
        <ele>51.999744415283</ele>
        <time>2012-08-16T07:46:02Z</time>
      </trkpt>
      <trkpt lat="47.84456" lon="-3.41265">
        <ele>51.955814361572</ele>
        <time>2012-08-16T07:46:08Z</time>
      </trkpt>
      <trkpt lat="47.84472" lon="-3.41349">
        <ele>51.016014099121</ele>
        <time>2012-08-16T07:46:19Z</time>
      </trkpt>
      <trkpt lat="47.84477" lon="-3.41403">
        <ele>49.829921722412</ele>
        <time>2012-08-16T07:46:26Z</time>
      </trkpt>
      <trkpt lat="47.8448" lon="-3.41451">
        <ele>49.47314453125</ele>
        <time>2012-08-16T07:46:32Z</time>
      </trkpt>
      <trkpt lat="47.84487" lon="-3.41519">
        <ele>49.238758087158</ele>
        <time>2012-08-16T07:46:40Z</time>
      </trkpt>
      <trkpt lat="47.84501" lon="-3.41562">
        <ele>48.992431640625</ele>
        <time>2012-08-16T07:46:46Z</time>
      </trkpt>
      <trkpt lat="47.84526" lon="-3.4163">
        <ele>49.246467590332</ele>
        <time>2012-08-16T07:46:55Z</time>
      </trkpt>
      <trkpt lat="47.84551" lon="-3.41697">
        <ele>49.246620178223</ele>
        <time>2012-08-16T07:47:04Z</time>
      </trkpt>
      <trkpt lat="47.84575" lon="-3.41771">
        <ele>48.775150299072</ele>
        <time>2012-08-16T07:47:14Z</time>
      </trkpt>
      <trkpt lat="47.84594" lon="-3.4185">
        <ele>47.388412475586</ele>
        <time>2012-08-16T07:47:24Z</time>
      </trkpt>
      <trkpt lat="47.84612" lon="-3.41926">
        <ele>45.613605499268</ele>
        <time>2012-08-16T07:47:33Z</time>
      </trkpt>
      <trkpt lat="47.84618" lon="-3.41975">
        <ele>45.303024291992</ele>
        <time>2012-08-16T07:47:38Z</time>
      </trkpt>
      <trkpt lat="47.84608" lon="-3.42046">
        <ele>45.614391326904</ele>
        <time>2012-08-16T07:47:45Z</time>
      </trkpt>
      <trkpt lat="47.84602" lon="-3.42088">
        <ele>46.020969390869</ele>
        <time>2012-08-16T07:47:49Z</time>
      </trkpt>
      <trkpt lat="47.84592" lon="-3.42134">
        <ele>45.611747741699</ele>
        <time>2012-08-16T07:47:53Z</time>
      </trkpt>
      <trkpt lat="47.8457" lon="-3.42167">
        <ele>45.157516479492</ele>
        <time>2012-08-16T07:47:57Z</time>
      </trkpt>
      <trkpt lat="47.84537" lon="-3.42209">
        <ele>44.933929443359</ele>
        <time>2012-08-16T07:48:03Z</time>
      </trkpt>
      <trkpt lat="47.84498" lon="-3.42273">
        <ele>42.693489074707</ele>
        <time>2012-08-16T07:48:11Z</time>
      </trkpt>
      <trkpt lat="47.84468" lon="-3.42329">
        <ele>41.301231384277</ele>
        <time>2012-08-16T07:48:18Z</time>
      </trkpt>
      <trkpt lat="47.84434" lon="-3.42384">
        <ele>41.14603805542</ele>
        <time>2012-08-16T07:48:25Z</time>
      </trkpt>
      <trkpt lat="47.84417" lon="-3.42425">
        <ele>41.09481048584</ele>
        <time>2012-08-16T07:48:30Z</time>
      </trkpt>
      <trkpt lat="47.84405" lon="-3.42463">
        <ele>41.184276580811</ele>
        <time>2012-08-16T07:48:35Z</time>
      </trkpt>
      <trkpt lat="47.84402" lon="-3.42478">
        <ele>41.192058563232</ele>
        <time>2012-08-16T07:48:37Z</time>
      </trkpt>
      <trkpt lat="47.84403" lon="-3.42534">
        <ele>40.865100860596</ele>
        <time>2012-08-16T07:48:44Z</time>
      </trkpt>
      <trkpt lat="47.84407" lon="-3.42572">
        <ele>40.547592163086</ele>
        <time>2012-08-16T07:48:49Z</time>
      </trkpt>
      <trkpt lat="47.84412" lon="-3.42646">
        <ele>40.743041992188</ele>
        <time>2012-08-16T07:48:58Z</time>
      </trkpt>
      <trkpt lat="47.84415" lon="-3.42707">
        <ele>39.980003356934</ele>
        <time>2012-08-16T07:49:05Z</time>
      </trkpt>
      <trkpt lat="47.84413" lon="-3.42772">
        <ele>38.608348846436</ele>
        <time>2012-08-16T07:49:12Z</time>
      </trkpt>
      <trkpt lat="47.8441" lon="-3.42849">
        <ele>37.400230407715</ele>
        <time>2012-08-16T07:49:20Z</time>
      </trkpt>
      <trkpt lat="47.84409" lon="-3.42869">
        <ele>36.900501251221</ele>
        <time>2012-08-16T07:49:22Z</time>
      </trkpt>
      <trkpt lat="47.84408" lon="-3.4289">
        <ele>36.399280548096</ele>
        <time>2012-08-16T07:49:24Z</time>
      </trkpt>
      <trkpt lat="47.84406" lon="-3.42954">
        <ele>35.799819946289</ele>
        <time>2012-08-16T07:49:30Z</time>
      </trkpt>
      <trkpt lat="47.84406" lon="-3.43037">
        <ele>35.928466796875</ele>
        <time>2012-08-16T07:49:37Z</time>
      </trkpt>
      <trkpt lat="47.84411" lon="-3.4307">
        <ele>35.989753723145</ele>
        <time>2012-08-16T07:49:40Z</time>
      </trkpt>
      <trkpt lat="47.84422" lon="-3.43127">
        <ele>36.454551696777</ele>
        <time>2012-08-16T07:49:46Z</time>
      </trkpt>
      <trkpt lat="47.84433" lon="-3.43186">
        <ele>36.652698516846</ele>
        <time>2012-08-16T07:49:53Z</time>
      </trkpt>
      <trkpt lat="47.84441" lon="-3.43226">
        <ele>36.629817962646</ele>
        <time>2012-08-16T07:49:58Z</time>
      </trkpt>
      <trkpt lat="47.84452" lon="-3.43298">
        <ele>37.147956848145</ele>
        <time>2012-08-16T07:50:07Z</time>
      </trkpt>
      <trkpt lat="47.84457" lon="-3.43355">
        <ele>37.642322540283</ele>
        <time>2012-08-16T07:50:14Z</time>
      </trkpt>
      <trkpt lat="47.84457" lon="-3.4338">
        <ele>37.788822174072</ele>
        <time>2012-08-16T07:50:17Z</time>
      </trkpt>
      <trkpt lat="47.84447" lon="-3.43434">
        <ele>38.557304382324</ele>
        <time>2012-08-16T07:50:24Z</time>
      </trkpt>
      <trkpt lat="47.84431" lon="-3.43482">
        <ele>40.236011505127</ele>
        <time>2012-08-16T07:50:31Z</time>
      </trkpt>
      <trkpt lat="47.8442" lon="-3.43509">
        <ele>41.17110824585</ele>
        <time>2012-08-16T07:50:35Z</time>
      </trkpt>
      <trkpt lat="47.8441" lon="-3.43527">
        <ele>41.579853057861</ele>
        <time>2012-08-16T07:50:38Z</time>
      </trkpt>
      <trkpt lat="47.84389" lon="-3.43548">
        <ele>42.01342010498</ele>
        <time>2012-08-16T07:50:43Z</time>
      </trkpt>
      <trkpt lat="47.84359" lon="-3.43563">
        <ele>42.330261230469</ele>
        <time>2012-08-16T07:50:50Z</time>
      </trkpt>
      <trkpt lat="47.84341" lon="-3.43568">
        <ele>42.454750061035</ele>
        <time>2012-08-16T07:50:54Z</time>
      </trkpt>
      <trkpt lat="47.84319" lon="-3.43584">
        <ele>42.483692169189</ele>
        <time>2012-08-16T07:50:59Z</time>
      </trkpt>
      <trkpt lat="47.84299" lon="-3.43622">
        <ele>41.286067962646</ele>
        <time>2012-08-16T07:51:05Z</time>
      </trkpt>
      <trkpt lat="47.84298" lon="-3.43652">
        <ele>40.916996002197</ele>
        <time>2012-08-16T07:51:09Z</time>
      </trkpt>
      <trkpt lat="47.84311" lon="-3.43659">
        <ele>41.284065246582</ele>
        <time>2012-08-16T07:51:12Z</time>
      </trkpt>
      <trkpt lat="47.84353" lon="-3.43678">
        <ele>41.991073608398</ele>
        <time>2012-08-16T07:51:23Z</time>
      </trkpt>
      <trkpt lat="47.84383" lon="-3.43692">
        <ele>42.162300109863</ele>
        <time>2012-08-16T07:51:30Z</time>
      </trkpt>
      <trkpt lat="47.84399" lon="-3.43699">
        <ele>42.321846008301</ele>
        <time>2012-08-16T07:51:34Z</time>
      </trkpt>
      <trkpt lat="47.84414" lon="-3.43708">
        <ele>42.446887969971</ele>
        <time>2012-08-16T07:51:39Z</time>
      </trkpt>
      <trkpt lat="47.84413" lon="-3.43708">
        <ele>42.43648147583</ele>
        <time>2012-08-16T07:51:46Z</time>
      </trkpt>
      <trkpt lat="47.84414" lon="-3.43708">
        <ele>42.457878112793</ele>
        <time>2012-08-16T07:51:48Z</time>
      </trkpt>
      <trkpt lat="47.84422" lon="-3.43712">
        <ele>42.255741119385</ele>
        <time>2012-08-16T07:51:53Z</time>
      </trkpt>
      <trkpt lat="47.84439" lon="-3.43719">
        <ele>41.563659667969</ele>
        <time>2012-08-16T07:51:58Z</time>
      </trkpt>
      <trkpt lat="47.84471" lon="-3.43734">
        <ele>40.243869781494</ele>
        <time>2012-08-16T07:52:04Z</time>
      </trkpt>
      <trkpt lat="47.84506" lon="-3.43746">
        <ele>39.184951782227</ele>
        <time>2012-08-16T07:52:09Z</time>
      </trkpt>
      <trkpt lat="47.84549" lon="-3.43755">
        <ele>40.073204040527</ele>
        <time>2012-08-16T07:52:15Z</time>
      </trkpt>
      <trkpt lat="47.84577" lon="-3.43762">
        <ele>40.696220397949</ele>
        <time>2012-08-16T07:52:20Z</time>
      </trkpt>
      <trkpt lat="47.84587" lon="-3.43764">
        <ele>40.903442382812</ele>
        <time>2012-08-16T07:52:22Z</time>
      </trkpt>
      <trkpt lat="47.84609" lon="-3.43771">
        <ele>41.289474487305</ele>
        <time>2012-08-16T07:52:27Z</time>
      </trkpt>
      <trkpt lat="47.84618" lon="-3.43774">
        <ele>41.423561096191</ele>
        <time>2012-08-16T07:52:29Z</time>
      </trkpt>
      <trkpt lat="47.84646" lon="-3.4378">
        <ele>41.877853393555</ele>
        <time>2012-08-16T07:52:35Z</time>
      </trkpt>
      <trkpt lat="47.84681" lon="-3.43788">
        <ele>42.076461791992</ele>
        <time>2012-08-16T07:52:42Z</time>
      </trkpt>
      <trkpt lat="47.84731" lon="-3.43801">
        <ele>41.780059814453</ele>
        <time>2012-08-16T07:52:51Z</time>
      </trkpt>
      <trkpt lat="47.84784" lon="-3.43815">
        <ele>42.177234649658</ele>
        <time>2012-08-16T07:53:00Z</time>
      </trkpt>
      <trkpt lat="47.84813" lon="-3.43823">
        <ele>42.657760620117</ele>
        <time>2012-08-16T07:53:05Z</time>
      </trkpt>
      <trkpt lat="47.84834" lon="-3.43845">
        <ele>42.581851959229</ele>
        <time>2012-08-16T07:53:10Z</time>
      </trkpt>
      <trkpt lat="47.84862" lon="-3.43895">
        <ele>41.808071136475</ele>
        <time>2012-08-16T07:53:18Z</time>
      </trkpt>
      <trkpt lat="47.84901" lon="-3.43962">
        <ele>43.148918151855</ele>
        <time>2012-08-16T07:53:28Z</time>
      </trkpt>
      <trkpt lat="47.84927" lon="-3.44002">
        <ele>44.086673736572</ele>
        <time>2012-08-16T07:53:34Z</time>
      </trkpt>
      <trkpt lat="47.84943" lon="-3.44029">
        <ele>43.732002258301</ele>
        <time>2012-08-16T07:53:38Z</time>
      </trkpt>
      <trkpt lat="47.84967" lon="-3.44073">
        <ele>43.385681152344</ele>
        <time>2012-08-16T07:53:45Z</time>
      </trkpt>
      <trkpt lat="47.84974" lon="-3.44085">
        <ele>43.404037475586</ele>
        <time>2012-08-16T07:53:47Z</time>
      </trkpt>
      <trkpt lat="47.84987" lon="-3.44108">
        <ele>44.177757263184</ele>
        <time>2012-08-16T07:53:51Z</time>
      </trkpt>
      <trkpt lat="47.85004" lon="-3.44138">
        <ele>45.428539276123</ele>
        <time>2012-08-16T07:53:57Z</time>
      </trkpt>
      <trkpt lat="47.85022" lon="-3.4417">
        <ele>46.6067237854</ele>
        <time>2012-08-16T07:54:03Z</time>
      </trkpt>
      <trkpt lat="47.85041" lon="-3.44203">
        <ele>47.64469909668</ele>
        <time>2012-08-16T07:54:09Z</time>
      </trkpt>
      <trkpt lat="47.85073" lon="-3.44254">
        <ele>48.915802001953</ele>
        <time>2012-08-16T07:54:19Z</time>
      </trkpt>
      <trkpt lat="47.85084" lon="-3.44275">
        <ele>49.307510375977</ele>
        <time>2012-08-16T07:54:23Z</time>
      </trkpt>
      <trkpt lat="47.85091" lon="-3.44306">
        <ele>49.766704559326</ele>
        <time>2012-08-16T07:54:28Z</time>
      </trkpt>
      <trkpt lat="47.85094" lon="-3.44364">
        <ele>49.895080566406</ele>
        <time>2012-08-16T07:54:37Z</time>
      </trkpt>
      <trkpt lat="47.85102" lon="-3.44381">
        <ele>50.049957275391</ele>
        <time>2012-08-16T07:54:41Z</time>
      </trkpt>
      <trkpt lat="47.85106" lon="-3.4438">
        <ele>50.177837371826</ele>
        <time>2012-08-16T07:54:42Z</time>
      </trkpt>
      <trkpt lat="47.85139" lon="-3.44362">
        <ele>51.007217407227</ele>
        <time>2012-08-16T07:54:50Z</time>
      </trkpt>
      <trkpt lat="47.85174" lon="-3.44343">
        <ele>51.221382141113</ele>
        <time>2012-08-16T07:54:58Z</time>
      </trkpt>
      <trkpt lat="47.85219" lon="-3.4432">
        <ele>50.94206237793</ele>
        <time>2012-08-16T07:55:08Z</time>
      </trkpt>
      <trkpt lat="47.85242" lon="-3.4431">
        <ele>50.972843170166</ele>
        <time>2012-08-16T07:55:13Z</time>
      </trkpt>
      <trkpt lat="47.85285" lon="-3.44294">
        <ele>51.995849609375</ele>
        <time>2012-08-16T07:55:22Z</time>
      </trkpt>
      <trkpt lat="47.85326" lon="-3.44278">
        <ele>54.039165496826</ele>
        <time>2012-08-16T07:55:31Z</time>
      </trkpt>
      <trkpt lat="47.85359" lon="-3.44268">
        <ele>53.587726593018</ele>
        <time>2012-08-16T07:55:39Z</time>
      </trkpt>
      <trkpt lat="47.85366" lon="-3.44266">
        <ele>53.285865783691</ele>
        <time>2012-08-16T07:55:41Z</time>
      </trkpt>
      <trkpt lat="47.854" lon="-3.44269">
        <ele>51.395149230957</ele>
        <time>2012-08-16T07:55:50Z</time>
      </trkpt>
      <trkpt lat="47.85427" lon="-3.44273">
        <ele>50.153011322021</ele>
        <time>2012-08-16T07:55:55Z</time>
      </trkpt>
      <trkpt lat="47.85457" lon="-3.44277">
        <ele>49.217319488525</ele>
        <time>2012-08-16T07:55:59Z</time>
      </trkpt>
      <trkpt lat="47.85511" lon="-3.44284">
        <ele>48.255249023438</ele>
        <time>2012-08-16T07:56:05Z</time>
      </trkpt>
      <trkpt lat="47.85569" lon="-3.44291">
        <ele>49.656005859375</ele>
        <time>2012-08-16T07:56:12Z</time>
      </trkpt>
      <trkpt lat="47.85608" lon="-3.44296">
        <ele>51.875514984131</ele>
        <time>2012-08-16T07:56:18Z</time>
      </trkpt>
      <trkpt lat="47.85637" lon="-3.44299">
        <ele>53.979396820068</ele>
        <time>2012-08-16T07:56:24Z</time>
      </trkpt>
      <trkpt lat="47.85658" lon="-3.44302">
        <ele>55.459781646729</ele>
        <time>2012-08-16T07:56:29Z</time>
      </trkpt>
      <trkpt lat="47.85674" lon="-3.44304">
        <ele>56.598957061768</ele>
        <time>2012-08-16T07:56:33Z</time>
      </trkpt>
      <trkpt lat="47.85691" lon="-3.44306">
        <ele>57.734497070312</ele>
        <time>2012-08-16T07:56:37Z</time>
      </trkpt>
      <trkpt lat="47.85712" lon="-3.44308">
        <ele>59.13525390625</ele>
        <time>2012-08-16T07:56:42Z</time>
      </trkpt>
      <trkpt lat="47.85725" lon="-3.4431">
        <ele>60.009010314941</ele>
        <time>2012-08-16T07:56:45Z</time>
      </trkpt>
      <trkpt lat="47.85762" lon="-3.44315">
        <ele>62.565048217773</ele>
        <time>2012-08-16T07:56:54Z</time>
      </trkpt>
      <trkpt lat="47.85799" lon="-3.4432">
        <ele>65.000061035156</ele>
        <time>2012-08-16T07:57:03Z</time>
      </trkpt>
      <trkpt lat="47.85827" lon="-3.44318">
        <ele>67.108924865723</ele>
        <time>2012-08-16T07:57:10Z</time>
      </trkpt>
      <trkpt lat="47.85848" lon="-3.44318">
        <ele>68.001953125</ele>
        <time>2012-08-16T07:57:16Z</time>
      </trkpt>
      <trkpt lat="47.85878" lon="-3.44357">
        <ele>67.482460021973</ele>
        <time>2012-08-16T07:57:26Z</time>
      </trkpt>
      <trkpt lat="47.85884" lon="-3.44366">
        <ele>67.331703186035</ele>
        <time>2012-08-16T07:57:28Z</time>
      </trkpt>
      <trkpt lat="47.85888" lon="-3.44388">
        <ele>66.787910461426</ele>
        <time>2012-08-16T07:57:32Z</time>
      </trkpt>
      <trkpt lat="47.85881" lon="-3.44424">
        <ele>66.013542175293</ele>
        <time>2012-08-16T07:57:39Z</time>
      </trkpt>
      <trkpt lat="47.85876" lon="-3.44457">
        <ele>66.017066955566</ele>
        <time>2012-08-16T07:57:45Z</time>
      </trkpt>
      <trkpt lat="47.85871" lon="-3.44492">
        <ele>65.907653808594</ele>
        <time>2012-08-16T07:57:52Z</time>
      </trkpt>
      <trkpt lat="47.85865" lon="-3.44532">
        <ele>65.760498046875</ele>
        <time>2012-08-16T07:58:00Z</time>
      </trkpt>
      <trkpt lat="47.85862" lon="-3.44566">
        <ele>65.678100585938</ele>
        <time>2012-08-16T07:58:07Z</time>
      </trkpt>
      <trkpt lat="47.8586" lon="-3.446">
        <ele>65.909934997559</ele>
        <time>2012-08-16T07:58:14Z</time>
      </trkpt>
      <trkpt lat="47.85858" lon="-3.44644">
        <ele>66.622016906738</ele>
        <time>2012-08-16T07:58:23Z</time>
      </trkpt>
      <trkpt lat="47.85855" lon="-3.44678">
        <ele>67.161888122559</ele>
        <time>2012-08-16T07:58:30Z</time>
      </trkpt>
      <trkpt lat="47.85855" lon="-3.447">
        <ele>67.487258911133</ele>
        <time>2012-08-16T07:58:35Z</time>
      </trkpt>
      <trkpt lat="47.85866" lon="-3.44706">
        <ele>67.382949829102</ele>
        <time>2012-08-16T07:58:40Z</time>
      </trkpt>
      <trkpt lat="47.85886" lon="-3.44705">
        <ele>67.048210144043</ele>
        <time>2012-08-16T07:58:46Z</time>
      </trkpt>
      <trkpt lat="47.85904" lon="-3.44705">
        <ele>66.751159667969</ele>
        <time>2012-08-16T07:58:51Z</time>
      </trkpt>
      <trkpt lat="47.85927" lon="-3.44717">
        <ele>65.893508911133</ele>
        <time>2012-08-16T07:58:56Z</time>
      </trkpt>
      <trkpt lat="47.85932" lon="-3.44721">
        <ele>65.622573852539</ele>
        <time>2012-08-16T07:58:57Z</time>
      </trkpt>
      <trkpt lat="47.85949" lon="-3.44757">
        <ele>64.214683532715</ele>
        <time>2012-08-16T07:59:02Z</time>
      </trkpt>
      <trkpt lat="47.85952" lon="-3.44774">
        <ele>63.435626983643</ele>
        <time>2012-08-16T07:59:04Z</time>
      </trkpt>
      <trkpt lat="47.85952" lon="-3.44812">
        <ele>62.08980178833</ele>
        <time>2012-08-16T07:59:08Z</time>
      </trkpt>
      <trkpt lat="47.8595" lon="-3.44844">
        <ele>61.15788269043</ele>
        <time>2012-08-16T07:59:11Z</time>
      </trkpt>
      <trkpt lat="47.85952" lon="-3.44892">
        <ele>59.917343139648</ele>
        <time>2012-08-16T07:59:15Z</time>
      </trkpt>
      <trkpt lat="47.85954" lon="-3.44917">
        <ele>59.232986450195</ele>
        <time>2012-08-16T07:59:17Z</time>
      </trkpt>
      <trkpt lat="47.85955" lon="-3.4494">
        <ele>58.726165771484</ele>
        <time>2012-08-16T07:59:19Z</time>
      </trkpt>
      <trkpt lat="47.85957" lon="-3.44992">
        <ele>57.665054321289</ele>
        <time>2012-08-16T07:59:24Z</time>
      </trkpt>
      <trkpt lat="47.85957" lon="-3.45011">
        <ele>57.436107635498</ele>
        <time>2012-08-16T07:59:26Z</time>
      </trkpt>
      <trkpt lat="47.85961" lon="-3.45021">
        <ele>57.396389007568</ele>
        <time>2012-08-16T07:59:30Z</time>
      </trkpt>
      <trkpt lat="47.85971" lon="-3.45013">
        <ele>57.439743041992</ele>
        <time>2012-08-16T07:59:35Z</time>
      </trkpt>
      <trkpt lat="47.85978" lon="-3.45017">
        <ele>57.494140625</ele>
        <time>2012-08-16T07:59:40Z</time>
      </trkpt>
      <trkpt lat="47.85979" lon="-3.45023">
        <ele>57.603591918945</ele>
        <time>2012-08-16T07:59:42Z</time>
      </trkpt>
      <trkpt lat="47.85992" lon="-3.45038">
        <ele>58.14909362793</ele>
        <time>2012-08-16T07:59:47Z</time>
      </trkpt>
      <trkpt lat="47.85993" lon="-3.4504">
        <ele>58.258720397949</ele>
        <time>2012-08-16T07:59:48Z</time>
      </trkpt>
      <trkpt lat="47.85989" lon="-3.45057">
        <ele>58.577362060547</ele>
        <time>2012-08-16T07:59:53Z</time>
      </trkpt>
      <trkpt lat="47.85979" lon="-3.45075">
        <ele>58.370025634766</ele>
        <time>2012-08-16T07:59:58Z</time>
      </trkpt>
      <trkpt lat="47.85977" lon="-3.45079">
        <ele>58.29479598999</ele>
        <time>2012-08-16T07:59:59Z</time>
      </trkpt>
      <trkpt lat="47.85975" lon="-3.45088">
        <ele>58.294044494629</ele>
        <time>2012-08-16T08:00:01Z</time>
      </trkpt>
      <trkpt lat="47.85976" lon="-3.45099">
        <ele>58.639083862305</ele>
        <time>2012-08-16T08:00:05Z</time>
      </trkpt>
      <trkpt lat="47.85979" lon="-3.4511">
        <ele>59.139762878418</ele>
        <time>2012-08-16T08:00:10Z</time>
      </trkpt>
      <trkpt lat="47.85981" lon="-3.45117">
        <ele>59.421859741211</ele>
        <time>2012-08-16T08:00:12Z</time>
      </trkpt>
      <trkpt lat="47.85978" lon="-3.45132">
        <ele>59.610687255859</ele>
        <time>2012-08-16T08:00:16Z</time>
      </trkpt>
      <trkpt lat="47.85978" lon="-3.45137">
        <ele>59.677635192871</ele>
        <time>2012-08-16T08:00:18Z</time>
      </trkpt>
      <trkpt lat="47.85976" lon="-3.45142">
        <ele>59.665618896484</ele>
        <time>2012-08-16T08:00:20Z</time>
      </trkpt>
      <trkpt lat="47.85976" lon="-3.45152">
        <ele>59.955154418945</ele>
        <time>2012-08-16T08:00:24Z</time>
      </trkpt>
      <trkpt lat="47.8598" lon="-3.45159">
        <ele>60.391746520996</ele>
        <time>2012-08-16T08:00:28Z</time>
      </trkpt>
      <trkpt lat="47.85978" lon="-3.45174">
        <ele>60.70715713501</ele>
        <time>2012-08-16T08:00:32Z</time>
      </trkpt>
      <trkpt lat="47.85971" lon="-3.45191">
        <ele>61.102222442627</ele>
        <time>2012-08-16T08:00:38Z</time>
      </trkpt>
      <trkpt lat="47.8597" lon="-3.45194">
        <ele>61.206287384033</ele>
        <time>2012-08-16T08:00:39Z</time>
      </trkpt>
      <trkpt lat="47.85973" lon="-3.45214">
        <ele>62.302242279053</ele>
        <time>2012-08-16T08:00:44Z</time>
      </trkpt>
      <trkpt lat="47.85983" lon="-3.4522">
        <ele>63.080188751221</ele>
        <time>2012-08-16T08:00:49Z</time>
      </trkpt>
      <trkpt lat="47.85987" lon="-3.45222">
        <ele>63.370544433594</ele>
        <time>2012-08-16T08:00:51Z</time>
      </trkpt>
      <trkpt lat="47.8599" lon="-3.45239">
        <ele>64.182922363281</ele>
        <time>2012-08-16T08:00:56Z</time>
      </trkpt>
      <trkpt lat="47.85987" lon="-3.45248">
        <ele>64.436584472656</ele>
        <time>2012-08-16T08:00:59Z</time>
      </trkpt>
      <trkpt lat="47.85979" lon="-3.45264">
        <ele>64.977912902832</ele>
        <time>2012-08-16T08:01:05Z</time>
      </trkpt>
      <trkpt lat="47.85977" lon="-3.45278">
        <ele>65.579292297363</ele>
        <time>2012-08-16T08:01:09Z</time>
      </trkpt>
      <trkpt lat="47.85979" lon="-3.45288">
        <ele>66.17268371582</ele>
        <time>2012-08-16T08:01:13Z</time>
      </trkpt>
      <trkpt lat="47.85981" lon="-3.45292">
        <ele>66.48998260498</ele>
        <time>2012-08-16T08:01:15Z</time>
      </trkpt>
      <trkpt lat="47.85985" lon="-3.45307">
        <ele>67.503486633301</ele>
        <time>2012-08-16T08:01:20Z</time>
      </trkpt>
      <trkpt lat="47.85988" lon="-3.45322">
        <ele>68.52001953125</ele>
        <time>2012-08-16T08:01:24Z</time>
      </trkpt>
      <trkpt lat="47.85983" lon="-3.45342">
        <ele>68.762474060059</ele>
        <time>2012-08-16T08:01:31Z</time>
      </trkpt>
      <trkpt lat="47.85981" lon="-3.45346">
        <ele>68.665321350098</ele>
        <time>2012-08-16T08:01:32Z</time>
      </trkpt>
      <trkpt lat="47.85971" lon="-3.45368">
        <ele>68.035469055176</ele>
        <time>2012-08-16T08:01:38Z</time>
      </trkpt>
      <trkpt lat="47.85955" lon="-3.45377">
        <ele>67.047584533691</ele>
        <time>2012-08-16T08:01:43Z</time>
      </trkpt>
      <trkpt lat="47.85939" lon="-3.45378">
        <ele>66.000946044922</ele>
        <time>2012-08-16T08:01:48Z</time>
      </trkpt>
      <trkpt lat="47.85929" lon="-3.45369">
        <ele>65.236602783203</ele>
        <time>2012-08-16T08:01:52Z</time>
      </trkpt>
      <trkpt lat="47.85918" lon="-3.45358">
        <ele>64.365531921387</ele>
        <time>2012-08-16T08:01:56Z</time>
      </trkpt>
      <trkpt lat="47.85905" lon="-3.4536">
        <ele>64.358406066895</ele>
        <time>2012-08-16T08:01:59Z</time>
      </trkpt>
      <trkpt lat="47.85892" lon="-3.45355">
        <ele>64.338638305664</ele>
        <time>2012-08-16T08:02:02Z</time>
      </trkpt>
      <trkpt lat="47.85876" lon="-3.45362">
        <ele>64.506195068359</ele>
        <time>2012-08-16T08:02:05Z</time>
      </trkpt>
      <trkpt lat="47.85857" lon="-3.45372">
        <ele>64.800109863281</ele>
        <time>2012-08-16T08:02:09Z</time>
      </trkpt>
      <trkpt lat="47.85851" lon="-3.4539">
        <ele>65.2158203125</ele>
        <time>2012-08-16T08:02:12Z</time>
      </trkpt>
      <trkpt lat="47.85849" lon="-3.45403">
        <ele>65.508697509766</ele>
        <time>2012-08-16T08:02:14Z</time>
      </trkpt>
      <trkpt lat="47.85848" lon="-3.45429">
        <ele>65.723594665527</ele>
        <time>2012-08-16T08:02:18Z</time>
      </trkpt>
      <trkpt lat="47.85843" lon="-3.45491">
        <ele>65.19701385498</ele>
        <time>2012-08-16T08:02:27Z</time>
      </trkpt>
      <trkpt lat="47.85841" lon="-3.45505">
        <ele>64.836349487305</ele>
        <time>2012-08-16T08:02:29Z</time>
      </trkpt>
      <trkpt lat="47.85834" lon="-3.45556">
        <ele>61.660049438477</ele>
        <time>2012-08-16T08:02:36Z</time>
      </trkpt>
      <trkpt lat="47.85835" lon="-3.45609">
        <ele>59.798290252686</ele>
        <time>2012-08-16T08:02:42Z</time>
      </trkpt>
      <trkpt lat="47.85835" lon="-3.45627">
        <ele>59.610893249512</ele>
        <time>2012-08-16T08:02:44Z</time>
      </trkpt>
      <trkpt lat="47.85835" lon="-3.45655">
        <ele>59.228660583496</ele>
        <time>2012-08-16T08:02:47Z</time>
      </trkpt>
      <trkpt lat="47.85834" lon="-3.4568">
        <ele>59.349617004395</ele>
        <time>2012-08-16T08:02:50Z</time>
      </trkpt>
      <trkpt lat="47.85826" lon="-3.45734">
        <ele>60.453830718994</ele>
        <time>2012-08-16T08:02:57Z</time>
      </trkpt>
      <trkpt lat="47.85821" lon="-3.45761">
        <ele>61.174446105957</ele>
        <time>2012-08-16T08:03:01Z</time>
      </trkpt>
      <trkpt lat="47.85817" lon="-3.45797">
        <ele>62.50630569458</ele>
        <time>2012-08-16T08:03:07Z</time>
      </trkpt>
      <trkpt lat="47.85806" lon="-3.4582">
        <ele>62.837993621826</ele>
        <time>2012-08-16T08:03:12Z</time>
      </trkpt>
      <trkpt lat="47.85795" lon="-3.45832">
        <ele>62.65442276001</ele>
        <time>2012-08-16T08:03:15Z</time>
      </trkpt>
      <trkpt lat="47.85778" lon="-3.4586">
        <ele>62.504070281982</ele>
        <time>2012-08-16T08:03:20Z</time>
      </trkpt>
      <trkpt lat="47.85769" lon="-3.45877">
        <ele>62.42822265625</ele>
        <time>2012-08-16T08:03:23Z</time>
      </trkpt>
      <trkpt lat="47.85756" lon="-3.45915">
        <ele>62.449764251709</ele>
        <time>2012-08-16T08:03:29Z</time>
      </trkpt>
      <trkpt lat="47.85741" lon="-3.45954">
        <ele>61.501567840576</ele>
        <time>2012-08-16T08:03:35Z</time>
      </trkpt>
      <trkpt lat="47.85728" lon="-3.45994">
        <ele>60.725830078125</ele>
        <time>2012-08-16T08:03:41Z</time>
      </trkpt>
      <trkpt lat="47.85722" lon="-3.46044">
        <ele>59.770244598389</ele>
        <time>2012-08-16T08:03:48Z</time>
      </trkpt>
      <trkpt lat="47.85723" lon="-3.46103">
        <ele>58.788280487061</ele>
        <time>2012-08-16T08:03:56Z</time>
      </trkpt>
      <trkpt lat="47.8573" lon="-3.46164">
        <ele>57.111186981201</ele>
        <time>2012-08-16T08:04:04Z</time>
      </trkpt>
      <trkpt lat="47.85736" lon="-3.46226">
        <ele>55.112243652344</ele>
        <time>2012-08-16T08:04:11Z</time>
      </trkpt>
      <trkpt lat="47.85737" lon="-3.46237">
        <ele>54.709167480469</ele>
        <time>2012-08-16T08:04:13Z</time>
      </trkpt>
      <trkpt lat="47.85732" lon="-3.46246">
        <ele>54.08561706543</ele>
        <time>2012-08-16T08:04:16Z</time>
      </trkpt>
      <trkpt lat="47.85728" lon="-3.46249">
        <ele>53.755382537842</ele>
        <time>2012-08-16T08:04:17Z</time>
      </trkpt>
      <trkpt lat="47.85701" lon="-3.46268">
        <ele>51.451122283936</ele>
        <time>2012-08-16T08:04:22Z</time>
      </trkpt>
      <trkpt lat="47.85673" lon="-3.46291">
        <ele>48.525279998779</ele>
        <time>2012-08-16T08:04:26Z</time>
      </trkpt>
      <trkpt lat="47.85627" lon="-3.46336">
        <ele>44.113525390625</ele>
        <time>2012-08-16T08:04:32Z</time>
      </trkpt>
      <trkpt lat="47.85574" lon="-3.46388">
        <ele>42</ele>
        <time>2012-08-16T08:04:39Z</time>
      </trkpt>
      <trkpt lat="47.85517" lon="-3.4644">
        <ele>41.668834686279</ele>
        <time>2012-08-16T08:04:47Z</time>
      </trkpt>
      <trkpt lat="47.8548" lon="-3.46457">
        <ele>42.099403381348</ele>
        <time>2012-08-16T08:04:52Z</time>
      </trkpt>
      <trkpt lat="47.85451" lon="-3.46467">
        <ele>42.814121246338</ele>
        <time>2012-08-16T08:04:57Z</time>
      </trkpt>
      <trkpt lat="47.85435" lon="-3.46471">
        <ele>43.182102203369</ele>
        <time>2012-08-16T08:05:00Z</time>
      </trkpt>
      <trkpt lat="47.85421" lon="-3.46474">
        <ele>43.526279449463</ele>
        <time>2012-08-16T08:05:03Z</time>
      </trkpt>
      <trkpt lat="47.8541" lon="-3.46475">
        <ele>43.980377197266</ele>
        <time>2012-08-16T08:05:05Z</time>
      </trkpt>
      <trkpt lat="47.85395" lon="-3.46478">
        <ele>44.856742858887</ele>
        <time>2012-08-16T08:05:08Z</time>
      </trkpt>
      <trkpt lat="47.85381" lon="-3.4648">
        <ele>45.717559814453</ele>
        <time>2012-08-16T08:05:11Z</time>
      </trkpt>
      <trkpt lat="47.85372" lon="-3.46481">
        <ele>46.317455291748</ele>
        <time>2012-08-16T08:05:13Z</time>
      </trkpt>
      <trkpt lat="47.85353" lon="-3.46484">
        <ele>47.521003723145</ele>
        <time>2012-08-16T08:05:17Z</time>
      </trkpt>
      <trkpt lat="47.85332" lon="-3.46486">
        <ele>48.832527160645</ele>
        <time>2012-08-16T08:05:22Z</time>
      </trkpt>
      <trkpt lat="47.85307" lon="-3.46492">
        <ele>48.901477813721</ele>
        <time>2012-08-16T08:05:28Z</time>
      </trkpt>
      <trkpt lat="47.85278" lon="-3.46504">
        <ele>48.925071716309</ele>
        <time>2012-08-16T08:05:35Z</time>
      </trkpt>
      <trkpt lat="47.85244" lon="-3.46519">
        <ele>48.646743774414</ele>
        <time>2012-08-16T08:05:43Z</time>
      </trkpt>
      <trkpt lat="47.85201" lon="-3.46541">
        <ele>47.628440856934</ele>
        <time>2012-08-16T08:05:52Z</time>
      </trkpt>
      <trkpt lat="47.85169" lon="-3.46553">
        <ele>47.035678863525</ele>
        <time>2012-08-16T08:05:59Z</time>
      </trkpt>
      <trkpt lat="47.85126" lon="-3.46558">
        <ele>46.851654052734</ele>
        <time>2012-08-16T08:06:08Z</time>
      </trkpt>
      <trkpt lat="47.85091" lon="-3.46558">
        <ele>46.725238800049</ele>
        <time>2012-08-16T08:06:15Z</time>
      </trkpt>
      <trkpt lat="47.85055" lon="-3.46542">
        <ele>45.500171661377</ele>
        <time>2012-08-16T08:06:22Z</time>
      </trkpt>
      <trkpt lat="47.85044" lon="-3.46536">
        <ele>44.942638397217</ele>
        <time>2012-08-16T08:06:24Z</time>
      </trkpt>
      <trkpt lat="47.85024" lon="-3.46544">
        <ele>44.433982849121</ele>
        <time>2012-08-16T08:06:28Z</time>
      </trkpt>
      <trkpt lat="47.85022" lon="-3.46557">
        <ele>44.757247924805</ele>
        <time>2012-08-16T08:06:30Z</time>
      </trkpt>
      <trkpt lat="47.85023" lon="-3.46564">
        <ele>44.980728149414</ele>
        <time>2012-08-16T08:06:31Z</time>
      </trkpt>
      <trkpt lat="47.85027" lon="-3.46613">
        <ele>45.655517578125</ele>
        <time>2012-08-16T08:06:38Z</time>
      </trkpt>
      <trkpt lat="47.85029" lon="-3.46627">
        <ele>45.701293945312</ele>
        <time>2012-08-16T08:06:40Z</time>
      </trkpt>
      <trkpt lat="47.85024" lon="-3.46653">
        <ele>45.582275390625</ele>
        <time>2012-08-16T08:06:44Z</time>
      </trkpt>
      <trkpt lat="47.85014" lon="-3.46655">
        <ele>45.325927734375</ele>
        <time>2012-08-16T08:06:46Z</time>
      </trkpt>
      <trkpt lat="47.84997" lon="-3.46641">
        <ele>44.819705963135</ele>
        <time>2012-08-16T08:06:49Z</time>
      </trkpt>
      <trkpt lat="47.84953" lon="-3.46592">
        <ele>42.678840637207</ele>
        <time>2012-08-16T08:06:56Z</time>
      </trkpt>
      <trkpt lat="47.84919" lon="-3.46577">
        <ele>41.02640914917</ele>
        <time>2012-08-16T08:07:00Z</time>
      </trkpt>
      <trkpt lat="47.849" lon="-3.46577">
        <ele>39.101345062256</ele>
        <time>2012-08-16T08:07:02Z</time>
      </trkpt>
      <trkpt lat="47.8484" lon="-3.46591">
        <ele>32.627014160156</ele>
        <time>2012-08-16T08:07:08Z</time>
      </trkpt>
      <trkpt lat="47.8482" lon="-3.46598">
        <ele>31.449354171753</ele>
        <time>2012-08-16T08:07:10Z</time>
      </trkpt>
      <trkpt lat="47.8481" lon="-3.46602">
        <ele>31.094303131104</ele>
        <time>2012-08-16T08:07:11Z</time>
      </trkpt>
      <trkpt lat="47.848" lon="-3.46607">
        <ele>30.708089828491</ele>
        <time>2012-08-16T08:07:12Z</time>
      </trkpt>
      <trkpt lat="47.84768" lon="-3.46637">
        <ele>28.789922714233</ele>
        <time>2012-08-16T08:07:16Z</time>
      </trkpt>
      <trkpt lat="47.84732" lon="-3.46686">
        <ele>28.158477783203</ele>
        <time>2012-08-16T08:07:22Z</time>
      </trkpt>
      <trkpt lat="47.84711" lon="-3.46714">
        <ele>29.711441040039</ele>
        <time>2012-08-16T08:07:26Z</time>
      </trkpt>
      <trkpt lat="47.84684" lon="-3.46746">
        <ele>31.596282958984</ele>
        <time>2012-08-16T08:07:32Z</time>
      </trkpt>
      <trkpt lat="47.84668" lon="-3.46766">
        <ele>32.558631896973</ele>
        <time>2012-08-16T08:07:36Z</time>
      </trkpt>
      <trkpt lat="47.84653" lon="-3.46786">
        <ele>32.889213562012</ele>
        <time>2012-08-16T08:07:40Z</time>
      </trkpt>
      <trkpt lat="47.84637" lon="-3.46806">
        <ele>33.067157745361</ele>
        <time>2012-08-16T08:07:44Z</time>
      </trkpt>
      <trkpt lat="47.84622" lon="-3.46826">
        <ele>33.170749664307</ele>
        <time>2012-08-16T08:07:48Z</time>
      </trkpt>
      <trkpt lat="47.84596" lon="-3.46869">
        <ele>32.883548736572</ele>
        <time>2012-08-16T08:07:55Z</time>
      </trkpt>
      <trkpt lat="47.84578" lon="-3.46916">
        <ele>32.812023162842</ele>
        <time>2012-08-16T08:08:01Z</time>
      </trkpt>
      <trkpt lat="47.84563" lon="-3.46966">
        <ele>34.196186065674</ele>
        <time>2012-08-16T08:08:08Z</time>
      </trkpt>
      <trkpt lat="47.84548" lon="-3.46994">
        <ele>34.888660430908</ele>
        <time>2012-08-16T08:08:12Z</time>
      </trkpt>
      <trkpt lat="47.84538" lon="-3.47006">
        <ele>34.941184997559</ele>
        <time>2012-08-16T08:08:14Z</time>
      </trkpt>
      <trkpt lat="47.84521" lon="-3.47021">
        <ele>34.569438934326</ele>
        <time>2012-08-16T08:08:17Z</time>
      </trkpt>
      <trkpt lat="47.84497" lon="-3.47031">
        <ele>33.869731903076</ele>
        <time>2012-08-16T08:08:21Z</time>
      </trkpt>
      <trkpt lat="47.84455" lon="-3.4703">
        <ele>31.679397583008</ele>
        <time>2012-08-16T08:08:27Z</time>
      </trkpt>
      <trkpt lat="47.84423" lon="-3.47043">
        <ele>30.358289718628</ele>
        <time>2012-08-16T08:08:31Z</time>
      </trkpt>
      <trkpt lat="47.84417" lon="-3.47051">
        <ele>30.229969024658</ele>
        <time>2012-08-16T08:08:32Z</time>
      </trkpt>
      <trkpt lat="47.84385" lon="-3.47092">
        <ele>33.857292175293</ele>
        <time>2012-08-16T08:08:37Z</time>
      </trkpt>
      <trkpt lat="47.84374" lon="-3.47108">
        <ele>35.822814941406</ele>
        <time>2012-08-16T08:08:39Z</time>
      </trkpt>
      <trkpt lat="47.84367" lon="-3.47148">
        <ele>39.235443115234</ele>
        <time>2012-08-16T08:08:43Z</time>
      </trkpt>
      <trkpt lat="47.84371" lon="-3.47167">
        <ele>40.319301605225</ele>
        <time>2012-08-16T08:08:45Z</time>
      </trkpt>
      <trkpt lat="47.84381" lon="-3.47227">
        <ele>41.104190826416</ele>
        <time>2012-08-16T08:08:52Z</time>
      </trkpt>
      <trkpt lat="47.84383" lon="-3.47248">
        <ele>41.537559509277</ele>
        <time>2012-08-16T08:08:55Z</time>
      </trkpt>
      <trkpt lat="47.84386" lon="-3.47274">
        <ele>41.959957122803</ele>
        <time>2012-08-16T08:08:58Z</time>
      </trkpt>
      <trkpt lat="47.84389" lon="-3.47298">
        <ele>42.2619972229</ele>
        <time>2012-08-16T08:09:01Z</time>
      </trkpt>
      <trkpt lat="47.84391" lon="-3.47317">
        <ele>42.509727478027</ele>
        <time>2012-08-16T08:09:03Z</time>
      </trkpt>
      <trkpt lat="47.84398" lon="-3.47379">
        <ele>41.955814361572</ele>
        <time>2012-08-16T08:09:10Z</time>
      </trkpt>
      <trkpt lat="47.84404" lon="-3.47415">
        <ele>41.046836853027</ele>
        <time>2012-08-16T08:09:15Z</time>
      </trkpt>
      <trkpt lat="47.84406" lon="-3.47428">
        <ele>40.142002105713</ele>
        <time>2012-08-16T08:09:17Z</time>
      </trkpt>
      <trkpt lat="47.84408" lon="-3.47466">
        <ele>37.404396057129</ele>
        <time>2012-08-16T08:09:22Z</time>
      </trkpt>
      <trkpt lat="47.84399" lon="-3.47501">
        <ele>36.105480194092</ele>
        <time>2012-08-16T08:09:27Z</time>
      </trkpt>
      <trkpt lat="47.84396" lon="-3.47507">
        <ele>36.383163452148</ele>
        <time>2012-08-16T08:09:28Z</time>
      </trkpt>
      <trkpt lat="47.84369" lon="-3.47547">
        <ele>38.799549102783</ele>
        <time>2012-08-16T08:09:36Z</time>
      </trkpt>
      <trkpt lat="47.84346" lon="-3.47594">
        <ele>40.125553131104</ele>
        <time>2012-08-16T08:09:44Z</time>
      </trkpt>
      <trkpt lat="47.84329" lon="-3.4765">
        <ele>38.492561340332</ele>
        <time>2012-08-16T08:09:52Z</time>
      </trkpt>
      <trkpt lat="47.84325" lon="-3.47664">
        <ele>38.105922698975</ele>
        <time>2012-08-16T08:09:54Z</time>
      </trkpt>
      <trkpt lat="47.84319" lon="-3.47683">
        <ele>38.00626373291</ele>
        <time>2012-08-16T08:09:57Z</time>
      </trkpt>
      <trkpt lat="47.84297" lon="-3.47719">
        <ele>38.063919067383</ele>
        <time>2012-08-16T08:10:03Z</time>
      </trkpt>
      <trkpt lat="47.84267" lon="-3.47758">
        <ele>37.640941619873</ele>
        <time>2012-08-16T08:10:10Z</time>
      </trkpt>
      <trkpt lat="47.8424" lon="-3.47803">
        <ele>37.117553710938</ele>
        <time>2012-08-16T08:10:17Z</time>
      </trkpt>
      <trkpt lat="47.84217" lon="-3.47864">
        <ele>36.664619445801</ele>
        <time>2012-08-16T08:10:25Z</time>
      </trkpt>
      <trkpt lat="47.84198" lon="-3.47923">
        <ele>36.869171142578</ele>
        <time>2012-08-16T08:10:33Z</time>
      </trkpt>
      <trkpt lat="47.8418" lon="-3.4798">
        <ele>37.124656677246</ele>
        <time>2012-08-16T08:10:41Z</time>
      </trkpt>
      <trkpt lat="47.84154" lon="-3.48058">
        <ele>37.357036590576</ele>
        <time>2012-08-16T08:10:52Z</time>
      </trkpt>
      <trkpt lat="47.84132" lon="-3.48123">
        <ele>36.9973487854</ele>
        <time>2012-08-16T08:11:01Z</time>
      </trkpt>
      <trkpt lat="47.84105" lon="-3.48206">
        <ele>37.828418731689</ele>
        <time>2012-08-16T08:11:12Z</time>
      </trkpt>
      <trkpt lat="47.84083" lon="-3.48275">
        <ele>39.684276580811</ele>
        <time>2012-08-16T08:11:22Z</time>
      </trkpt>
      <trkpt lat="47.84065" lon="-3.48327">
        <ele>43.54810333252</ele>
        <time>2012-08-16T08:11:30Z</time>
      </trkpt>
      <trkpt lat="47.8405" lon="-3.48373">
        <ele>46.129177093506</ele>
        <time>2012-08-16T08:11:37Z</time>
      </trkpt>
      <trkpt lat="47.84037" lon="-3.48411">
        <ele>47.388416290283</ele>
        <time>2012-08-16T08:11:43Z</time>
      </trkpt>
      <trkpt lat="47.84019" lon="-3.48458">
        <ele>47.69605255127</ele>
        <time>2012-08-16T08:11:51Z</time>
      </trkpt>
      <trkpt lat="47.84007" lon="-3.48493">
        <ele>47.135887145996</ele>
        <time>2012-08-16T08:11:57Z</time>
      </trkpt>
      <trkpt lat="47.83982" lon="-3.48548">
        <ele>44.561210632324</ele>
        <time>2012-08-16T08:12:06Z</time>
      </trkpt>
      <trkpt lat="47.83952" lon="-3.48594">
        <ele>41.977512359619</ele>
        <time>2012-08-16T08:12:14Z</time>
      </trkpt>
      <trkpt lat="47.8392" lon="-3.48629">
        <ele>40.379398345947</ele>
        <time>2012-08-16T08:12:21Z</time>
      </trkpt>
      <trkpt lat="47.83881" lon="-3.48656">
        <ele>40.724803924561</ele>
        <time>2012-08-16T08:12:28Z</time>
      </trkpt>
      <trkpt lat="47.8384" lon="-3.48674">
        <ele>41.486560821533</ele>
        <time>2012-08-16T08:12:36Z</time>
      </trkpt>
      <trkpt lat="47.83786" lon="-3.48689">
        <ele>40.926467895508</ele>
        <time>2012-08-16T08:12:47Z</time>
      </trkpt>
      <trkpt lat="47.83734" lon="-3.48701">
        <ele>41.154136657715</ele>
        <time>2012-08-16T08:12:57Z</time>
      </trkpt>
      <trkpt lat="47.83683" lon="-3.48707">
        <ele>42.933406829834</ele>
        <time>2012-08-16T08:13:07Z</time>
      </trkpt>
      <trkpt lat="47.83645" lon="-3.48707">
        <ele>42.995281219482</ele>
        <time>2012-08-16T08:13:15Z</time>
      </trkpt>
      <trkpt lat="47.8361" lon="-3.48712">
        <ele>42.093486785889</ele>
        <time>2012-08-16T08:13:23Z</time>
      </trkpt>
      <trkpt lat="47.83574" lon="-3.48721">
        <ele>41.236064910889</ele>
        <time>2012-08-16T08:13:31Z</time>
      </trkpt>
      <trkpt lat="47.8353" lon="-3.48737">
        <ele>40.514801025391</ele>
        <time>2012-08-16T08:13:40Z</time>
      </trkpt>
      <trkpt lat="47.83484" lon="-3.48753">
        <ele>40.140201568604</ele>
        <time>2012-08-16T08:13:48Z</time>
      </trkpt>
      <trkpt lat="47.83425" lon="-3.48774">
        <ele>40.840839385986</ele>
        <time>2012-08-16T08:13:57Z</time>
      </trkpt>
      <trkpt lat="47.83378" lon="-3.4879">
        <ele>42.367771148682</ele>
        <time>2012-08-16T08:14:04Z</time>
      </trkpt>
      <trkpt lat="47.83339" lon="-3.48805">
        <ele>44.107971191406</ele>
        <time>2012-08-16T08:14:11Z</time>
      </trkpt>
      <trkpt lat="47.833" lon="-3.48819">
        <ele>45.064781188965</ele>
        <time>2012-08-16T08:14:19Z</time>
      </trkpt>
      <trkpt lat="47.83254" lon="-3.48836">
        <ele>45.918327331543</ele>
        <time>2012-08-16T08:14:29Z</time>
      </trkpt>
      <trkpt lat="47.83218" lon="-3.48849">
        <ele>45.882171630859</ele>
        <time>2012-08-16T08:14:37Z</time>
      </trkpt>
      <trkpt lat="47.83174" lon="-3.48865">
        <ele>45.965789794922</ele>
        <time>2012-08-16T08:14:46Z</time>
      </trkpt>
      <trkpt lat="47.83114" lon="-3.48887">
        <ele>46.407943725586</ele>
        <time>2012-08-16T08:14:58Z</time>
      </trkpt>
      <trkpt lat="47.83067" lon="-3.48905">
        <ele>46.689086914062</ele>
        <time>2012-08-16T08:15:08Z</time>
      </trkpt>
      <trkpt lat="47.83022" lon="-3.48922">
        <ele>46.258544921875</ele>
        <time>2012-08-16T08:15:17Z</time>
      </trkpt>
      <trkpt lat="47.82965" lon="-3.48943">
        <ele>46</ele>
        <time>2012-08-16T08:15:28Z</time>
      </trkpt>
      <trkpt lat="47.82904" lon="-3.48963">
        <ele>46.065052032471</ele>
        <time>2012-08-16T08:15:39Z</time>
      </trkpt>
      <trkpt lat="47.82861" lon="-3.48971">
        <ele>46.23376083374</ele>
        <time>2012-08-16T08:15:47Z</time>
      </trkpt>
      <trkpt lat="47.82815" lon="-3.48979">
        <ele>47.088760375977</ele>
        <time>2012-08-16T08:15:56Z</time>
      </trkpt>
      <trkpt lat="47.82779" lon="-3.48985">
        <ele>48.690795898438</ele>
        <time>2012-08-16T08:16:04Z</time>
      </trkpt>
      <trkpt lat="47.82736" lon="-3.48993">
        <ele>50.170104980469</ele>
        <time>2012-08-16T08:16:14Z</time>
      </trkpt>
      <trkpt lat="47.82695" lon="-3.49001">
        <ele>50.682033538818</ele>
        <time>2012-08-16T08:16:24Z</time>
      </trkpt>
      <trkpt lat="47.82654" lon="-3.49009">
        <ele>51.024478912354</ele>
        <time>2012-08-16T08:16:34Z</time>
      </trkpt>
      <trkpt lat="47.82618" lon="-3.49015">
        <ele>50.555644989014</ele>
        <time>2012-08-16T08:16:43Z</time>
      </trkpt>
      <trkpt lat="47.82588" lon="-3.4902">
        <ele>50.086231231689</ele>
        <time>2012-08-16T08:16:50Z</time>
      </trkpt>
      <trkpt lat="47.82543" lon="-3.49032">
        <ele>48.83837890625</ele>
        <time>2012-08-16T08:17:00Z</time>
      </trkpt>
      <trkpt lat="47.82508" lon="-3.49052">
        <ele>47.642658233643</ele>
        <time>2012-08-16T08:17:07Z</time>
      </trkpt>
      <trkpt lat="47.82471" lon="-3.49085">
        <ele>46.315185546875</ele>
        <time>2012-08-16T08:17:14Z</time>
      </trkpt>
      <trkpt lat="47.82453" lon="-3.49112">
        <ele>45.875732421875</ele>
        <time>2012-08-16T08:17:18Z</time>
      </trkpt>
      <trkpt lat="47.82439" lon="-3.49145">
        <ele>45.546142578125</ele>
        <time>2012-08-16T08:17:22Z</time>
      </trkpt>
      <trkpt lat="47.82432" lon="-3.49181">
        <ele>45.038864135742</ele>
        <time>2012-08-16T08:17:26Z</time>
      </trkpt>
      <trkpt lat="47.82434" lon="-3.49213">
        <ele>44.325897216797</ele>
        <time>2012-08-16T08:17:30Z</time>
      </trkpt>
      <trkpt lat="47.82439" lon="-3.49216">
        <ele>44.363090515137</ele>
        <time>2012-08-16T08:17:31Z</time>
      </trkpt>
      <trkpt lat="47.82478" lon="-3.49234">
        <ele>44.860336303711</ele>
        <time>2012-08-16T08:17:38Z</time>
      </trkpt>
      <trkpt lat="47.82483" lon="-3.49237">
        <ele>44.90210723877</ele>
        <time>2012-08-16T08:17:39Z</time>
      </trkpt>
      <trkpt lat="47.82529" lon="-3.4928">
        <ele>45.43542098999</ele>
        <time>2012-08-16T08:17:48Z</time>
      </trkpt>
      <trkpt lat="47.82554" lon="-3.49309">
        <ele>45.886783599854</ele>
        <time>2012-08-16T08:17:53Z</time>
      </trkpt>
      <trkpt lat="47.82582" lon="-3.49343">
        <ele>46.687427520752</ele>
        <time>2012-08-16T08:17:59Z</time>
      </trkpt>
      <trkpt lat="47.8261" lon="-3.49374">
        <ele>47.327224731445</ele>
        <time>2012-08-16T08:18:05Z</time>
      </trkpt>
      <trkpt lat="47.8264" lon="-3.49406">
        <ele>47.96752166748</ele>
        <time>2012-08-16T08:18:11Z</time>
      </trkpt>
      <trkpt lat="47.82679" lon="-3.49441">
        <ele>49.414073944092</ele>
        <time>2012-08-16T08:18:19Z</time>
      </trkpt>
      <trkpt lat="47.82696" lon="-3.49457">
        <ele>49.504734039307</ele>
        <time>2012-08-16T08:18:23Z</time>
      </trkpt>
      <trkpt lat="47.82701" lon="-3.49474">
        <ele>49.377914428711</ele>
        <time>2012-08-16T08:18:26Z</time>
      </trkpt>
      <trkpt lat="47.82699" lon="-3.4948">
        <ele>49.361907958984</ele>
        <time>2012-08-16T08:18:27Z</time>
      </trkpt>
      <trkpt lat="47.82684" lon="-3.49514">
        <ele>48.605003356934</ele>
        <time>2012-08-16T08:18:33Z</time>
      </trkpt>
      <trkpt lat="47.82665" lon="-3.49552">
        <ele>46.132278442383</ele>
        <time>2012-08-16T08:18:40Z</time>
      </trkpt>
      <trkpt lat="47.8265" lon="-3.49583">
        <ele>43.436447143555</ele>
        <time>2012-08-16T08:18:45Z</time>
      </trkpt>
      <trkpt lat="47.82647" lon="-3.49589">
        <ele>43.027347564697</ele>
        <time>2012-08-16T08:18:47Z</time>
      </trkpt>
      <trkpt lat="47.82645" lon="-3.4959">
        <ele>42.955139160156</ele>
        <time>2012-08-16T08:18:49Z</time>
      </trkpt>
      <trkpt lat="47.82645" lon="-3.49588">
        <ele>43.044715881348</ele>
        <time>2012-08-16T08:18:54Z</time>
      </trkpt>
      <trkpt lat="47.82644" lon="-3.49586">
        <ele>43.065547943115</ele>
        <time>2012-08-16T08:19:01Z</time>
      </trkpt>
      <trkpt lat="47.82645" lon="-3.49587">
        <ele>43.096927642822</ele>
        <time>2012-08-16T08:26:56Z</time>
      </trkpt>
      <trkpt lat="47.82635" lon="-3.49611">
        <ele>41.771961212158</ele>
        <time>2012-08-16T08:27:01Z</time>
      </trkpt>
      <trkpt lat="47.82618" lon="-3.49647">
        <ele>40.081134796143</ele>
        <time>2012-08-16T08:27:06Z</time>
      </trkpt>
      <trkpt lat="47.82587" lon="-3.49715">
        <ele>39.541969299316</ele>
        <time>2012-08-16T08:27:15Z</time>
      </trkpt>
      <trkpt lat="47.82577" lon="-3.49737">
        <ele>39.996242523193</ele>
        <time>2012-08-16T08:27:19Z</time>
      </trkpt>
      <trkpt lat="47.82571" lon="-3.49752">
        <ele>40.426372528076</ele>
        <time>2012-08-16T08:27:22Z</time>
      </trkpt>
      <trkpt lat="47.82565" lon="-3.49768">
        <ele>41.416942596436</ele>
        <time>2012-08-16T08:27:25Z</time>
      </trkpt>
      <trkpt lat="47.82562" lon="-3.49779">
        <ele>42.09684753418</ele>
        <time>2012-08-16T08:27:27Z</time>
      </trkpt>
      <trkpt lat="47.82558" lon="-3.49797">
        <ele>43.08878326416</ele>
        <time>2012-08-16T08:27:30Z</time>
      </trkpt>
      <trkpt lat="47.82557" lon="-3.49803">
        <ele>43.404266357422</ele>
        <time>2012-08-16T08:27:31Z</time>
      </trkpt>
      <trkpt lat="47.82554" lon="-3.49826">
        <ele>44.645683288574</ele>
        <time>2012-08-16T08:27:35Z</time>
      </trkpt>
      <trkpt lat="47.82553" lon="-3.49881">
        <ele>46.432411193848</ele>
        <time>2012-08-16T08:27:44Z</time>
      </trkpt>
      <trkpt lat="47.82559" lon="-3.49943">
        <ele>46.963977813721</ele>
        <time>2012-08-16T08:27:54Z</time>
      </trkpt>
      <trkpt lat="47.82565" lon="-3.49987">
        <ele>45.77783203125</ele>
        <time>2012-08-16T08:28:00Z</time>
      </trkpt>
      <trkpt lat="47.82563" lon="-3.50021">
        <ele>44.683345794678</ele>
        <time>2012-08-16T08:28:04Z</time>
      </trkpt>
      <trkpt lat="47.82554" lon="-3.50047">
        <ele>43.850490570068</ele>
        <time>2012-08-16T08:28:08Z</time>
      </trkpt>
      <trkpt lat="47.82565" lon="-3.50063">
        <ele>43.569248199463</ele>
        <time>2012-08-16T08:28:11Z</time>
      </trkpt>
      <trkpt lat="47.8257" lon="-3.50067">
        <ele>43.503437042236</ele>
        <time>2012-08-16T08:28:12Z</time>
      </trkpt>
      <trkpt lat="47.8259" lon="-3.50078">
        <ele>43.287796020508</ele>
        <time>2012-08-16T08:28:16Z</time>
      </trkpt>
      <trkpt lat="47.82619" lon="-3.50081">
        <ele>43.491798400879</ele>
        <time>2012-08-16T08:28:21Z</time>
      </trkpt>
      <trkpt lat="47.82636" lon="-3.50098">
        <ele>43.504905700684</ele>
        <time>2012-08-16T08:28:25Z</time>
      </trkpt>
      <trkpt lat="47.82639" lon="-3.50105">
        <ele>43.491062164307</ele>
        <time>2012-08-16T08:28:26Z</time>
      </trkpt>
      <trkpt lat="47.82658" lon="-3.50167">
        <ele>43.688171386719</ele>
        <time>2012-08-16T08:28:34Z</time>
      </trkpt>
      <trkpt lat="47.82673" lon="-3.50217">
        <ele>44.070007324219</ele>
        <time>2012-08-16T08:28:40Z</time>
      </trkpt>
      <trkpt lat="47.82679" lon="-3.50269">
        <ele>44.397472381592</ele>
        <time>2012-08-16T08:28:46Z</time>
      </trkpt>
      <trkpt lat="47.82676" lon="-3.50332">
        <ele>45.193939208984</ele>
        <time>2012-08-16T08:28:54Z</time>
      </trkpt>
      <trkpt lat="47.82668" lon="-3.50385">
        <ele>45.657283782959</ele>
        <time>2012-08-16T08:29:01Z</time>
      </trkpt>
      <trkpt lat="47.82661" lon="-3.50447">
        <ele>46.411014556885</ele>
        <time>2012-08-16T08:29:09Z</time>
      </trkpt>
      <trkpt lat="47.82658" lon="-3.50489">
        <ele>47.169055938721</ele>
        <time>2012-08-16T08:29:14Z</time>
      </trkpt>
      <trkpt lat="47.82655" lon="-3.50542">
        <ele>48.569835662842</ele>
        <time>2012-08-16T08:29:20Z</time>
      </trkpt>
      <trkpt lat="47.82646" lon="-3.50576">
        <ele>48.819511413574</ele>
        <time>2012-08-16T08:29:24Z</time>
      </trkpt>
      <trkpt lat="47.82627" lon="-3.50612">
        <ele>47.34623336792</ele>
        <time>2012-08-16T08:29:29Z</time>
      </trkpt>
      <trkpt lat="47.82612" lon="-3.5066">
        <ele>46.657085418701</ele>
        <time>2012-08-16T08:29:35Z</time>
      </trkpt>
      <trkpt lat="47.826" lon="-3.50734">
        <ele>45.355701446533</ele>
        <time>2012-08-16T08:29:44Z</time>
      </trkpt>
      <trkpt lat="47.82592" lon="-3.50778">
        <ele>44.692928314209</ele>
        <time>2012-08-16T08:29:50Z</time>
      </trkpt>
      <trkpt lat="47.82583" lon="-3.50843">
        <ele>43.884056091309</ele>
        <time>2012-08-16T08:29:58Z</time>
      </trkpt>
      <trkpt lat="47.82572" lon="-3.50927">
        <ele>42.822841644287</ele>
        <time>2012-08-16T08:30:08Z</time>
      </trkpt>
      <trkpt lat="47.82568" lon="-3.50958">
        <ele>42.379611968994</ele>
        <time>2012-08-16T08:30:12Z</time>
      </trkpt>
      <trkpt lat="47.82564" lon="-3.50987">
        <ele>42.085773468018</ele>
        <time>2012-08-16T08:30:16Z</time>
      </trkpt>
      <trkpt lat="47.82553" lon="-3.51012">
        <ele>42.483280181885</ele>
        <time>2012-08-16T08:30:20Z</time>
      </trkpt>
      <trkpt lat="47.82541" lon="-3.51022">
        <ele>43.168529510498</ele>
        <time>2012-08-16T08:30:23Z</time>
      </trkpt>
      <trkpt lat="47.82532" lon="-3.51024">
        <ele>43.636005401611</ele>
        <time>2012-08-16T08:30:25Z</time>
      </trkpt>
      <trkpt lat="47.82496" lon="-3.51029">
        <ele>45.200977325439</ele>
        <time>2012-08-16T08:30:33Z</time>
      </trkpt>
      <trkpt lat="47.82481" lon="-3.51032">
        <ele>44.616268157959</ele>
        <time>2012-08-16T08:30:36Z</time>
      </trkpt>
      <trkpt lat="47.82458" lon="-3.51053">
        <ele>43.826679229736</ele>
        <time>2012-08-16T08:30:41Z</time>
      </trkpt>
      <trkpt lat="47.82432" lon="-3.51104">
        <ele>42.400199890137</ele>
        <time>2012-08-16T08:30:48Z</time>
      </trkpt>
      <trkpt lat="47.82417" lon="-3.51164">
        <ele>41.031002044678</ele>
        <time>2012-08-16T08:30:54Z</time>
      </trkpt>
      <trkpt lat="47.824" lon="-3.51229">
        <ele>37.808841705322</ele>
        <time>2012-08-16T08:31:00Z</time>
      </trkpt>
      <trkpt lat="47.82397" lon="-3.51241">
        <ele>37.334846496582</ele>
        <time>2012-08-16T08:31:01Z</time>
      </trkpt>
      <trkpt lat="47.82386" lon="-3.5129">
        <ele>37.408885955811</ele>
        <time>2012-08-16T08:31:05Z</time>
      </trkpt>
      <trkpt lat="47.82374" lon="-3.51352">
        <ele>38.893611907959</ele>
        <time>2012-08-16T08:31:11Z</time>
      </trkpt>
      <trkpt lat="47.82367" lon="-3.51396">
        <ele>40.157096862793</ele>
        <time>2012-08-16T08:31:16Z</time>
      </trkpt>
      <trkpt lat="47.8236" lon="-3.51447">
        <ele>40.947593688965</ele>
        <time>2012-08-16T08:31:23Z</time>
      </trkpt>
      <trkpt lat="47.82355" lon="-3.51483">
        <ele>40.871181488037</ele>
        <time>2012-08-16T08:31:28Z</time>
      </trkpt>
      <trkpt lat="47.82352" lon="-3.51525">
        <ele>40.973297119141</ele>
        <time>2012-08-16T08:31:34Z</time>
      </trkpt>
      <trkpt lat="47.82351" lon="-3.51577">
        <ele>41.36372756958</ele>
        <time>2012-08-16T08:31:42Z</time>
      </trkpt>
      <trkpt lat="47.82349" lon="-3.51621">
        <ele>42.80920791626</ele>
        <time>2012-08-16T08:31:49Z</time>
      </trkpt>
      <trkpt lat="47.82346" lon="-3.51679">
        <ele>44.92525100708</ele>
        <time>2012-08-16T08:31:58Z</time>
      </trkpt>
      <trkpt lat="47.82343" lon="-3.51736">
        <ele>46.939868927002</ele>
        <time>2012-08-16T08:32:07Z</time>
      </trkpt>
      <trkpt lat="47.82342" lon="-3.51754">
        <ele>47.515079498291</ele>
        <time>2012-08-16T08:32:10Z</time>
      </trkpt>
      <trkpt lat="47.82339" lon="-3.51772">
        <ele>47.835258483887</ele>
        <time>2012-08-16T08:32:15Z</time>
      </trkpt>
      <trkpt lat="47.82332" lon="-3.51772">
        <ele>47.408142089844</ele>
        <time>2012-08-16T08:32:17Z</time>
      </trkpt>
      <trkpt lat="47.82313" lon="-3.51766">
        <ele>45.608497619629</ele>
        <time>2012-08-16T08:32:21Z</time>
      </trkpt>
      <trkpt lat="47.82297" lon="-3.51783">
        <ele>44.584003448486</ele>
        <time>2012-08-16T08:32:25Z</time>
      </trkpt>
      <trkpt lat="47.82295" lon="-3.51798">
        <ele>44.65714263916</ele>
        <time>2012-08-16T08:32:27Z</time>
      </trkpt>
      <trkpt lat="47.82292" lon="-3.51848">
        <ele>45.757572174072</ele>
        <time>2012-08-16T08:32:34Z</time>
      </trkpt>
      <trkpt lat="47.82289" lon="-3.51908">
        <ele>48.291572570801</ele>
        <time>2012-08-16T08:32:43Z</time>
      </trkpt>
      <trkpt lat="47.82287" lon="-3.51955">
        <ele>49.533779144287</ele>
        <time>2012-08-16T08:32:50Z</time>
      </trkpt>
      <trkpt lat="47.82286" lon="-3.52028">
        <ele>50.388008117676</ele>
        <time>2012-08-16T08:33:00Z</time>
      </trkpt>
      <trkpt lat="47.82289" lon="-3.52086">
        <ele>50.294662475586</ele>
        <time>2012-08-16T08:33:07Z</time>
      </trkpt>
      <trkpt lat="47.82303" lon="-3.52142">
        <ele>50.39079284668</ele>
        <time>2012-08-16T08:33:14Z</time>
      </trkpt>
      <trkpt lat="47.82327" lon="-3.52219">
        <ele>50.253105163574</ele>
        <time>2012-08-16T08:33:23Z</time>
      </trkpt>
      <trkpt lat="47.82335" lon="-3.52246">
        <ele>49.35661315918</ele>
        <time>2012-08-16T08:33:26Z</time>
      </trkpt>
      <trkpt lat="47.82351" lon="-3.52302">
        <ele>46.724758148193</ele>
        <time>2012-08-16T08:33:32Z</time>
      </trkpt>
      <trkpt lat="47.82376" lon="-3.52371">
        <ele>45.887046813965</ele>
        <time>2012-08-16T08:33:40Z</time>
      </trkpt>
      <trkpt lat="47.82386" lon="-3.52403">
        <ele>46.015232086182</ele>
        <time>2012-08-16T08:33:44Z</time>
      </trkpt>
      <trkpt lat="47.82416" lon="-3.52484">
        <ele>46.348167419434</ele>
        <time>2012-08-16T08:33:54Z</time>
      </trkpt>
      <trkpt lat="47.82447" lon="-3.52565">
        <ele>46.944480895996</ele>
        <time>2012-08-16T08:34:04Z</time>
      </trkpt>
      <trkpt lat="47.82476" lon="-3.52622">
        <ele>47.106941223145</ele>
        <time>2012-08-16T08:34:12Z</time>
      </trkpt>
      <trkpt lat="47.8248" lon="-3.52629">
        <ele>47.007400512695</ele>
        <time>2012-08-16T08:34:13Z</time>
      </trkpt>
      <trkpt lat="47.82504" lon="-3.52673">
        <ele>45.736968994141</ele>
        <time>2012-08-16T08:34:19Z</time>
      </trkpt>
      <trkpt lat="47.82532" lon="-3.52733">
        <ele>43.389656066895</ele>
        <time>2012-08-16T08:34:26Z</time>
      </trkpt>
      <trkpt lat="47.82564" lon="-3.52799">
        <ele>43.189865112305</ele>
        <time>2012-08-16T08:34:33Z</time>
      </trkpt>
      <trkpt lat="47.82601" lon="-3.52876">
        <ele>44.837646484375</ele>
        <time>2012-08-16T08:34:41Z</time>
      </trkpt>
      <trkpt lat="47.82605" lon="-3.52884">
        <ele>45.0390625</ele>
        <time>2012-08-16T08:34:42Z</time>
      </trkpt>
      <trkpt lat="47.82625" lon="-3.52922">
        <ele>45.9912109375</ele>
        <time>2012-08-16T08:34:47Z</time>
      </trkpt>
      <trkpt lat="47.82641" lon="-3.52962">
        <ele>46.76025390625</ele>
        <time>2012-08-16T08:34:52Z</time>
      </trkpt>
      <trkpt lat="47.82647" lon="-3.52998">
        <ele>47.034912109375</ele>
        <time>2012-08-16T08:34:57Z</time>
      </trkpt>
      <trkpt lat="47.82643" lon="-3.53042">
        <ele>46.583889007568</ele>
        <time>2012-08-16T08:35:03Z</time>
      </trkpt>
      <trkpt lat="47.8264" lon="-3.53079">
        <ele>46.11674118042</ele>
        <time>2012-08-16T08:35:08Z</time>
      </trkpt>
      <trkpt lat="47.82634" lon="-3.53139">
        <ele>46.343692779541</ele>
        <time>2012-08-16T08:35:16Z</time>
      </trkpt>
      <trkpt lat="47.82628" lon="-3.53207">
        <ele>46.417369842529</ele>
        <time>2012-08-16T08:35:24Z</time>
      </trkpt>
      <trkpt lat="47.82624" lon="-3.5325">
        <ele>46.473846435547</ele>
        <time>2012-08-16T08:35:29Z</time>
      </trkpt>
      <trkpt lat="47.82621" lon="-3.53278">
        <ele>45.652610778809</ele>
        <time>2012-08-16T08:35:32Z</time>
      </trkpt>
      <trkpt lat="47.82613" lon="-3.53328">
        <ele>43.924247741699</ele>
        <time>2012-08-16T08:35:37Z</time>
      </trkpt>
      <trkpt lat="47.82607" lon="-3.53386">
        <ele>41.632755279541</ele>
        <time>2012-08-16T08:35:42Z</time>
      </trkpt>
      <trkpt lat="47.82601" lon="-3.53455">
        <ele>39.925903320312</ele>
        <time>2012-08-16T08:35:48Z</time>
      </trkpt>
      <trkpt lat="47.82596" lon="-3.53513">
        <ele>39.752452850342</ele>
        <time>2012-08-16T08:35:54Z</time>
      </trkpt>
      <trkpt lat="47.82592" lon="-3.53568">
        <ele>41.048397064209</ele>
        <time>2012-08-16T08:36:01Z</time>
      </trkpt>
      <trkpt lat="47.82595" lon="-3.53594">
        <ele>41.697525024414</ele>
        <time>2012-08-16T08:36:05Z</time>
      </trkpt>
      <trkpt lat="47.826" lon="-3.53602">
        <ele>42.023300170898</ele>
        <time>2012-08-16T08:36:07Z</time>
      </trkpt>
      <trkpt lat="47.82601" lon="-3.53622">
        <ele>42.169624328613</ele>
        <time>2012-08-16T08:36:11Z</time>
      </trkpt>
      <trkpt lat="47.82593" lon="-3.53643">
        <ele>41.648082733154</ele>
        <time>2012-08-16T08:36:15Z</time>
      </trkpt>
      <trkpt lat="47.82589" lon="-3.53658">
        <ele>41.371078491211</ele>
        <time>2012-08-16T08:36:17Z</time>
      </trkpt>
      <trkpt lat="47.82584" lon="-3.53687">
        <ele>39.808483123779</ele>
        <time>2012-08-16T08:36:21Z</time>
      </trkpt>
      <trkpt lat="47.82584" lon="-3.53701">
        <ele>38.987255096436</ele>
        <time>2012-08-16T08:36:25Z</time>
      </trkpt>
      <trkpt lat="47.82585" lon="-3.53732">
        <ele>37.229434967041</ele>
        <time>2012-08-16T08:36:31Z</time>
      </trkpt>
      <trkpt lat="47.82579" lon="-3.53753">
        <ele>35.402256011963</ele>
        <time>2012-08-16T08:36:36Z</time>
      </trkpt>
      <trkpt lat="47.82561" lon="-3.53761">
        <ele>33.318237304688</ele>
        <time>2012-08-16T08:36:42Z</time>
      </trkpt>
      <trkpt lat="47.82546" lon="-3.53775">
        <ele>30.449989318848</ele>
        <time>2012-08-16T08:36:46Z</time>
      </trkpt>
      <trkpt lat="47.82536" lon="-3.53801">
        <ele>25.99857711792</ele>
        <time>2012-08-16T08:36:49Z</time>
      </trkpt>
      <trkpt lat="47.82529" lon="-3.53833">
        <ele>20.8851146698</ele>
        <time>2012-08-16T08:36:54Z</time>
      </trkpt>
      <trkpt lat="47.82526" lon="-3.53844">
        <ele>18.727958679199</ele>
        <time>2012-08-16T08:37:00Z</time>
      </trkpt>
      <trkpt lat="47.82526" lon="-3.5385">
        <ele>17.792976379394</ele>
        <time>2012-08-16T08:37:02Z</time>
      </trkpt>
      <trkpt lat="47.82525" lon="-3.53858">
        <ele>16.405380249023</ele>
        <time>2012-08-16T08:37:06Z</time>
      </trkpt>
      <trkpt lat="47.82521" lon="-3.53867">
        <ele>14.530265808106</ele>
        <time>2012-08-16T08:37:11Z</time>
      </trkpt>
      <trkpt lat="47.82518" lon="-3.53867">
        <ele>14.378059387207</ele>
        <time>2012-08-16T08:37:12Z</time>
      </trkpt>
      <trkpt lat="47.82514" lon="-3.53868">
        <ele>14.058197021484</ele>
        <time>2012-08-16T08:37:14Z</time>
      </trkpt>
      <trkpt lat="47.82504" lon="-3.53869">
        <ele>13.225067138672</ele>
        <time>2012-08-16T08:37:20Z</time>
      </trkpt>
      <trkpt lat="47.82504" lon="-3.53869">
        <ele>13.261116027832</ele>
        <time>2012-08-16T08:37:24Z</time>
      </trkpt>
      <trkpt lat="47.82502" lon="-3.53868">
        <ele>13.276565551758</ele>
        <time>2012-08-16T08:37:34Z</time>
      </trkpt>
      <trkpt lat="47.82502" lon="-3.53874">
        <ele>12.20539855957</ele>
        <time>2012-08-16T08:37:47Z</time>
      </trkpt>
      <trkpt lat="47.825" lon="-3.53875">
        <ele>11.968505859375</ele>
        <time>2012-08-16T08:37:53Z</time>
      </trkpt>
      <trkpt lat="47.82494" lon="-3.53876">
        <ele>11.67299747467</ele>
        <time>2012-08-16T08:37:58Z</time>
      </trkpt>
      <trkpt lat="47.82479" lon="-3.53877">
        <ele>11.200771331787</ele>
        <time>2012-08-16T08:38:03Z</time>
      </trkpt>
      <trkpt lat="47.82459" lon="-3.53874">
        <ele>11.125796318054</ele>
        <time>2012-08-16T08:38:08Z</time>
      </trkpt>
      <trkpt lat="47.82439" lon="-3.53872">
        <ele>10.921785354614</ele>
        <time>2012-08-16T08:38:13Z</time>
      </trkpt>
      <trkpt lat="47.82426" lon="-3.5387">
        <ele>10.902586936951</ele>
        <time>2012-08-16T08:38:16Z</time>
      </trkpt>
      <trkpt lat="47.82412" lon="-3.53864">
        <ele>11.180773735046</ele>
        <time>2012-08-16T08:38:19Z</time>
      </trkpt>
      <trkpt lat="47.82398" lon="-3.5385">
        <ele>11.899192810059</ele>
        <time>2012-08-16T08:38:23Z</time>
      </trkpt>
      <trkpt lat="47.8238" lon="-3.53826">
        <ele>13.043416023254</ele>
        <time>2012-08-16T08:38:29Z</time>
      </trkpt>
      <trkpt lat="47.82368" lon="-3.5381">
        <ele>13.609087944031</ele>
        <time>2012-08-16T08:38:34Z</time>
      </trkpt>
      <trkpt lat="47.8236" lon="-3.53797">
        <ele>14.135707855225</ele>
        <time>2012-08-16T08:38:38Z</time>
      </trkpt>
      <trkpt lat="47.82356" lon="-3.53792">
        <ele>14.316024780273</ele>
        <time>2012-08-16T08:38:40Z</time>
      </trkpt>
      <trkpt lat="47.82346" lon="-3.53792">
        <ele>12.989263534546</ele>
        <time>2012-08-16T08:38:44Z</time>
      </trkpt>
      <trkpt lat="47.82333" lon="-3.53773">
        <ele>13.451958656311</ele>
        <time>2012-08-16T08:38:48Z</time>
      </trkpt>
      <trkpt lat="47.82311" lon="-3.53742">
        <ele>13.366021156311</ele>
        <time>2012-08-16T08:38:52Z</time>
      </trkpt>
      <trkpt lat="47.82296" lon="-3.53728">
        <ele>12.082007408142</ele>
        <time>2012-08-16T08:38:55Z</time>
      </trkpt>
      <trkpt lat="47.82285" lon="-3.53712">
        <ele>11.115494728088</ele>
        <time>2012-08-16T08:39:00Z</time>
      </trkpt>
      <trkpt lat="47.82276" lon="-3.53688">
        <ele>10.867108345032</ele>
        <time>2012-08-16T08:39:07Z</time>
      </trkpt>
      <trkpt lat="47.82273" lon="-3.53674">
        <ele>11.021912574768</ele>
        <time>2012-08-16T08:39:10Z</time>
      </trkpt>
      <trkpt lat="47.8228" lon="-3.53645">
        <ele>13.417983055115</ele>
        <time>2012-08-16T08:39:19Z</time>
      </trkpt>
      <trkpt lat="47.82286" lon="-3.5363">
        <ele>14.854333877563</ele>
        <time>2012-08-16T08:39:23Z</time>
      </trkpt>
      <trkpt lat="47.8229" lon="-3.53614">
        <ele>16.027910232544</ele>
        <time>2012-08-16T08:39:28Z</time>
      </trkpt>
      <trkpt lat="47.82295" lon="-3.53597">
        <ele>17.211212158203</ele>
        <time>2012-08-16T08:39:33Z</time>
      </trkpt>
      <trkpt lat="47.82301" lon="-3.5358">
        <ele>18.554019927979</ele>
        <time>2012-08-16T08:39:38Z</time>
      </trkpt>
      <trkpt lat="47.82302" lon="-3.53577">
        <ele>18.752298355102</ele>
        <time>2012-08-16T08:39:45Z</time>
      </trkpt>
      <trkpt lat="47.8231" lon="-3.53575">
        <ele>19.967306137085</ele>
        <time>2012-08-16T08:39:52Z</time>
      </trkpt>
      <trkpt lat="47.82313" lon="-3.53571">
        <ele>20.607067108154</ele>
        <time>2012-08-16T08:39:57Z</time>
      </trkpt>
      <trkpt lat="47.82315" lon="-3.5357">
        <ele>20.895484924316</ele>
        <time>2012-08-16T08:39:59Z</time>
      </trkpt>
      <trkpt lat="47.82323" lon="-3.5356">
        <ele>22.292051315308</ele>
        <time>2012-08-16T08:40:05Z</time>
      </trkpt>
      <trkpt lat="47.82325" lon="-3.53556">
        <ele>22.662094116211</ele>
        <time>2012-08-16T08:40:07Z</time>
      </trkpt>
      <trkpt lat="47.82323" lon="-3.53541">
        <ele>22.941967010498</ele>
        <time>2012-08-16T08:40:13Z</time>
      </trkpt>
      <trkpt lat="47.82323" lon="-3.53539">
        <ele>23.028066635132</ele>
        <time>2012-08-16T08:40:15Z</time>
      </trkpt>
      <trkpt lat="47.82318" lon="-3.53534">
        <ele>22.668249130249</ele>
        <time>2012-08-16T08:40:20Z</time>
      </trkpt>
      <trkpt lat="47.82309" lon="-3.5353">
        <ele>21.931705474854</ele>
        <time>2012-08-16T08:40:25Z</time>
      </trkpt>
      <trkpt lat="47.82307" lon="-3.53529">
        <ele>21.788097381592</ele>
        <time>2012-08-16T08:40:26Z</time>
      </trkpt>
      <trkpt lat="47.82301" lon="-3.53527">
        <ele>21.243604660034</ele>
        <time>2012-08-16T08:40:29Z</time>
      </trkpt>
      <trkpt lat="47.82293" lon="-3.53537">
        <ele>19.901536941528</ele>
        <time>2012-08-16T08:40:34Z</time>
      </trkpt>
      <trkpt lat="47.82283" lon="-3.53552">
        <ele>17.921058654785</ele>
        <time>2012-08-16T08:40:38Z</time>
      </trkpt>
      <trkpt lat="47.82276" lon="-3.53566">
        <ele>15.964398384094</ele>
        <time>2012-08-16T08:40:43Z</time>
      </trkpt>
      <trkpt lat="47.82267" lon="-3.53575">
        <ele>14.112508773804</ele>
        <time>2012-08-16T08:40:47Z</time>
      </trkpt>
      <trkpt lat="47.82259" lon="-3.53585">
        <ele>12.278925895691</ele>
        <time>2012-08-16T08:40:52Z</time>
      </trkpt>
      <trkpt lat="47.82254" lon="-3.53582">
        <ele>11.609030723572</ele>
        <time>2012-08-16T08:40:56Z</time>
      </trkpt>
      <trkpt lat="47.82246" lon="-3.53563">
        <ele>12.481027603149</ele>
        <time>2012-08-16T08:41:01Z</time>
      </trkpt>
      <trkpt lat="47.8224" lon="-3.53538">
        <ele>13.742890357971</ele>
        <time>2012-08-16T08:41:06Z</time>
      </trkpt>
      <trkpt lat="47.82227" lon="-3.53517">
        <ele>13.145223617554</ele>
        <time>2012-08-16T08:41:11Z</time>
      </trkpt>
      <trkpt lat="47.82217" lon="-3.53503">
        <ele>12.054067611694</ele>
        <time>2012-08-16T08:41:15Z</time>
      </trkpt>
      <trkpt lat="47.82212" lon="-3.5349">
        <ele>11.885047912598</ele>
        <time>2012-08-16T08:41:18Z</time>
      </trkpt>
      <trkpt lat="47.82218" lon="-3.53478">
        <ele>13.854310035706</ele>
        <time>2012-08-16T08:41:24Z</time>
      </trkpt>
      <trkpt lat="47.82219" lon="-3.53477">
        <ele>14.20768737793</ele>
        <time>2012-08-16T08:41:26Z</time>
      </trkpt>
      <trkpt lat="47.82227" lon="-3.53468">
        <ele>16.014005661011</ele>
        <time>2012-08-16T08:41:31Z</time>
      </trkpt>
      <trkpt lat="47.82233" lon="-3.53458">
        <ele>17.64354133606</ele>
        <time>2012-08-16T08:41:35Z</time>
      </trkpt>
      <trkpt lat="47.82239" lon="-3.53441">
        <ele>19.471416473389</ele>
        <time>2012-08-16T08:41:40Z</time>
      </trkpt>
      <trkpt lat="47.82241" lon="-3.53432">
        <ele>20.196905136108</ele>
        <time>2012-08-16T08:41:42Z</time>
      </trkpt>
      <trkpt lat="47.8224" lon="-3.53421">
        <ele>20.53104019165</ele>
        <time>2012-08-16T08:41:45Z</time>
      </trkpt>
      <trkpt lat="47.82235" lon="-3.53421">
        <ele>19.761852264404</ele>
        <time>2012-08-16T08:41:49Z</time>
      </trkpt>
      <trkpt lat="47.82232" lon="-3.53423">
        <ele>19.296522140503</ele>
        <time>2012-08-16T08:41:50Z</time>
      </trkpt>
      <trkpt lat="47.82211" lon="-3.53441">
        <ele>15.142502784729</ele>
        <time>2012-08-16T08:41:56Z</time>
      </trkpt>
      <trkpt lat="47.82197" lon="-3.53446">
        <ele>12.577888488769</ele>
        <time>2012-08-16T08:41:59Z</time>
      </trkpt>
      <trkpt lat="47.82179" lon="-3.53432">
        <ele>11.160799026489</ele>
        <time>2012-08-16T08:42:04Z</time>
      </trkpt>
      <trkpt lat="47.82177" lon="-3.53426">
        <ele>11.379182815552</ele>
        <time>2012-08-16T08:42:05Z</time>
      </trkpt>
      <trkpt lat="47.82169" lon="-3.53402">
        <ele>13.357930183411</ele>
        <time>2012-08-16T08:42:09Z</time>
      </trkpt>
      <trkpt lat="47.82151" lon="-3.53371">
        <ele>15.667848587036</ele>
        <time>2012-08-16T08:42:15Z</time>
      </trkpt>
      <trkpt lat="47.82133" lon="-3.53336">
        <ele>17.428701400757</ele>
        <time>2012-08-16T08:42:22Z</time>
      </trkpt>
      <trkpt lat="47.82113" lon="-3.53315">
        <ele>17.286071777344</ele>
        <time>2012-08-16T08:42:27Z</time>
      </trkpt>
      <trkpt lat="47.82092" lon="-3.5329">
        <ele>17.59391784668</ele>
        <time>2012-08-16T08:42:32Z</time>
      </trkpt>
      <trkpt lat="47.82067" lon="-3.53265">
        <ele>18.974779129028</ele>
        <time>2012-08-16T08:42:39Z</time>
      </trkpt>
      <trkpt lat="47.82046" lon="-3.53247">
        <ele>20.746793746948</ele>
        <time>2012-08-16T08:42:45Z</time>
      </trkpt>
      <trkpt lat="47.8203" lon="-3.53238">
        <ele>21.509336471558</ele>
        <time>2012-08-16T08:42:51Z</time>
      </trkpt>
      <trkpt lat="47.82029" lon="-3.53238">
        <ele>21.459642410278</ele>
        <time>2012-08-16T08:42:56Z</time>
      </trkpt>
      <trkpt lat="47.82023" lon="-3.53234">
        <ele>21.969968795776</ele>
        <time>2012-08-16T08:43:05Z</time>
      </trkpt>
      <trkpt lat="47.82022" lon="-3.5323">
        <ele>22.503877639771</ele>
        <time>2012-08-16T08:43:13Z</time>
      </trkpt>
      <trkpt lat="47.82021" lon="-3.53225">
        <ele>23.418760299683</ele>
        <time>2012-08-16T08:43:17Z</time>
      </trkpt>
      <trkpt lat="47.82017" lon="-3.53207">
        <ele>26.496892929077</ele>
        <time>2012-08-16T08:43:23Z</time>
      </trkpt>
      <trkpt lat="47.82015" lon="-3.53201">
        <ele>27.468898773193</ele>
        <time>2012-08-16T08:43:25Z</time>
      </trkpt>
      <trkpt lat="47.82014" lon="-3.53196">
        <ele>28.220043182373</ele>
        <time>2012-08-16T08:43:27Z</time>
      </trkpt>
      <trkpt lat="47.82002" lon="-3.53186">
        <ele>29.596984863281</ele>
        <time>2012-08-16T08:43:33Z</time>
      </trkpt>
      <trkpt lat="47.82" lon="-3.53183">
        <ele>30.097799301148</ele>
        <time>2012-08-16T08:43:37Z</time>
      </trkpt>
      <trkpt lat="47.81994" lon="-3.53177">
        <ele>31.546304702759</ele>
        <time>2012-08-16T08:43:45Z</time>
      </trkpt>
      <trkpt lat="47.81992" lon="-3.53175">
        <ele>31.982303619385</ele>
        <time>2012-08-16T08:43:51Z</time>
      </trkpt>
      <trkpt lat="47.8199" lon="-3.53171">
        <ele>32.778182983398</ele>
        <time>2012-08-16T08:43:56Z</time>
      </trkpt>
      <trkpt lat="47.81987" lon="-3.53165">
        <ele>33.888492584229</ele>
        <time>2012-08-16T08:44:01Z</time>
      </trkpt>
      <trkpt lat="47.81984" lon="-3.53159">
        <ele>34.420852661133</ele>
        <time>2012-08-16T08:44:05Z</time>
      </trkpt>
      <trkpt lat="47.81979" lon="-3.53154">
        <ele>34.954410552979</ele>
        <time>2012-08-16T08:44:12Z</time>
      </trkpt>
      <trkpt lat="47.81976" lon="-3.53154">
        <ele>35.114624023438</ele>
        <time>2012-08-16T08:44:19Z</time>
      </trkpt>
      <trkpt lat="47.81974" lon="-3.53152">
        <ele>35.335762023926</ele>
        <time>2012-08-16T08:44:26Z</time>
      </trkpt>
      <trkpt lat="47.81976" lon="-3.5315">
        <ele>35.36360168457</ele>
        <time>2012-08-16T08:44:34Z</time>
      </trkpt>
      <trkpt lat="47.81977" lon="-3.53152">
        <ele>35.228317260742</ele>
        <time>2012-08-16T08:44:41Z</time>
      </trkpt>
      <trkpt lat="47.81978" lon="-3.53152">
        <ele>35.131954193115</ele>
        <time>2012-08-16T08:44:44Z</time>
      </trkpt>
      <trkpt lat="47.81979" lon="-3.53152">
        <ele>35.103565216064</ele>
        <time>2012-08-16T08:44:49Z</time>
      </trkpt>
      <trkpt lat="47.81978" lon="-3.53147">
        <ele>35.421928405762</ele>
        <time>2012-08-16T08:44:54Z</time>
      </trkpt>
      <trkpt lat="47.81979" lon="-3.53148">
        <ele>35.334072113037</ele>
        <time>2012-08-16T08:44:57Z</time>
      </trkpt>
      <trkpt lat="47.81981" lon="-3.5315">
        <ele>35.09948348999</ele>
        <time>2012-08-16T08:45:00Z</time>
      </trkpt>
      <trkpt lat="47.81979" lon="-3.53145">
        <ele>35.474414825439</ele>
        <time>2012-08-16T08:45:12Z</time>
      </trkpt>
      <trkpt lat="47.81979" lon="-3.53147">
        <ele>35.39644241333</ele>
        <time>2012-08-16T08:45:15Z</time>
      </trkpt>
      <trkpt lat="47.81979" lon="-3.53147">
        <ele>35.384159088135</ele>
        <time>2012-08-16T08:45:16Z</time>
      </trkpt>
      <trkpt lat="47.81979" lon="-3.53147">
        <ele>35.372016906738</ele>
        <time>2012-08-16T08:45:17Z</time>
      </trkpt>
      <trkpt lat="47.81979" lon="-3.53147">
        <ele>35.376064300537</ele>
        <time>2012-08-16T08:45:19Z</time>
      </trkpt>
      <trkpt lat="47.81976" lon="-3.5315">
        <ele>35.368900299072</ele>
        <time>2012-08-16T08:45:24Z</time>
      </trkpt>
      <trkpt lat="47.81973" lon="-3.53152">
        <ele>35.378280639648</ele>
        <time>2012-08-16T08:45:30Z</time>
      </trkpt>
      <trkpt lat="47.81973" lon="-3.53155">
        <ele>35.211006164551</ele>
        <time>2012-08-16T08:45:33Z</time>
      </trkpt>
      <trkpt lat="47.81967" lon="-3.53164">
        <ele>35.083923339844</ele>
        <time>2012-08-16T08:45:39Z</time>
      </trkpt>
      <trkpt lat="47.81961" lon="-3.53173">
        <ele>34.388957977295</ele>
        <time>2012-08-16T08:45:43Z</time>
      </trkpt>
      <trkpt lat="47.81958" lon="-3.53177">
        <ele>33.969463348389</ele>
        <time>2012-08-16T08:45:45Z</time>
      </trkpt>
      <trkpt lat="47.81952" lon="-3.53185">
        <ele>33.380130767822</ele>
        <time>2012-08-16T08:45:48Z</time>
      </trkpt>
      <trkpt lat="47.81949" lon="-3.53192">
        <ele>32.667812347412</ele>
        <time>2012-08-16T08:45:50Z</time>
      </trkpt>
      <trkpt lat="47.81942" lon="-3.53215">
        <ele>30.165946960449</ele>
        <time>2012-08-16T08:45:54Z</time>
      </trkpt>
      <trkpt lat="47.81932" lon="-3.53239">
        <ele>28.296754837036</ele>
        <time>2012-08-16T08:45:57Z</time>
      </trkpt>
      <trkpt lat="47.81908" lon="-3.53258">
        <ele>28.938009262085</ele>
        <time>2012-08-16T08:46:01Z</time>
      </trkpt>
      <trkpt lat="47.81902" lon="-3.53263">
        <ele>29.030830383301</ele>
        <time>2012-08-16T08:46:02Z</time>
      </trkpt>
      <trkpt lat="47.81888" lon="-3.53278">
        <ele>29.056562423706</ele>
        <time>2012-08-16T08:46:05Z</time>
      </trkpt>
      <trkpt lat="47.81876" lon="-3.53297">
        <ele>28.785097122192</ele>
        <time>2012-08-16T08:46:09Z</time>
      </trkpt>
      <trkpt lat="47.81865" lon="-3.5331">
        <ele>29.167110443115</ele>
        <time>2012-08-16T08:46:13Z</time>
      </trkpt>
      <trkpt lat="47.81853" lon="-3.53323">
        <ele>30.223482131958</ele>
        <time>2012-08-16T08:46:18Z</time>
      </trkpt>
      <trkpt lat="47.81845" lon="-3.53329">
        <ele>31.036981582642</ele>
        <time>2012-08-16T08:46:22Z</time>
      </trkpt>
      <trkpt lat="47.81846" lon="-3.53338">
        <ele>29.802644729614</ele>
        <time>2012-08-16T08:46:28Z</time>
      </trkpt>
      <trkpt lat="47.81845" lon="-3.53353">
        <ele>27.635375976562</ele>
        <time>2012-08-16T08:46:32Z</time>
      </trkpt>
      <trkpt lat="47.81844" lon="-3.53358">
        <ele>27.071367263794</ele>
        <time>2012-08-16T08:46:33Z</time>
      </trkpt>
      <trkpt lat="47.81842" lon="-3.53368">
        <ele>26.05027961731</ele>
        <time>2012-08-16T08:46:35Z</time>
      </trkpt>
      <trkpt lat="47.81833" lon="-3.53382">
        <ele>25.373781204224</ele>
        <time>2012-08-16T08:46:39Z</time>
      </trkpt>
      <trkpt lat="47.81823" lon="-3.53403">
        <ele>23.080604553223</ele>
        <time>2012-08-16T08:46:44Z</time>
      </trkpt>
      <trkpt lat="47.8181" lon="-3.53417">
        <ele>22.559005737305</ele>
        <time>2012-08-16T08:46:49Z</time>
      </trkpt>
      <trkpt lat="47.81805" lon="-3.53431">
        <ele>20.667297363281</ele>
        <time>2012-08-16T08:46:54Z</time>
      </trkpt>
      <trkpt lat="47.81803" lon="-3.53435">
        <ele>20.163185119629</ele>
        <time>2012-08-16T08:46:56Z</time>
      </trkpt>
      <trkpt lat="47.81794" lon="-3.53448">
        <ele>18.967849731445</ele>
        <time>2012-08-16T08:47:02Z</time>
      </trkpt>
      <trkpt lat="47.81787" lon="-3.53458">
        <ele>18.012268066406</ele>
        <time>2012-08-16T08:47:06Z</time>
      </trkpt>
      <trkpt lat="47.81787" lon="-3.53463">
        <ele>17.181999206543</ele>
        <time>2012-08-16T08:47:13Z</time>
      </trkpt>
      <trkpt lat="47.81792" lon="-3.53463">
        <ele>16.704780578613</ele>
        <time>2012-08-16T08:47:18Z</time>
      </trkpt>
      <trkpt lat="47.81791" lon="-3.53469">
        <ele>15.762931823731</ele>
        <time>2012-08-16T08:47:26Z</time>
      </trkpt>
      <trkpt lat="47.81786" lon="-3.53474">
        <ele>15.459091186523</ele>
        <time>2012-08-16T08:47:30Z</time>
      </trkpt>
      <trkpt lat="47.81785" lon="-3.53474">
        <ele>15.647918701172</ele>
        <time>2012-08-16T08:47:36Z</time>
      </trkpt>
      <trkpt lat="47.81783" lon="-3.53477">
        <ele>15.241081237793</ele>
        <time>2012-08-16T08:47:41Z</time>
      </trkpt>
      <trkpt lat="47.81779" lon="-3.53485">
        <ele>14.344436645508</ele>
        <time>2012-08-16T08:47:45Z</time>
      </trkpt>
      <trkpt lat="47.81775" lon="-3.5349">
        <ele>13.915283203125</ele>
        <time>2012-08-16T08:47:52Z</time>
      </trkpt>
      <trkpt lat="47.8177" lon="-3.53493">
        <ele>13.965065002441</ele>
        <time>2012-08-16T08:47:56Z</time>
      </trkpt>
      <trkpt lat="47.81766" lon="-3.53495">
        <ele>14.086944580078</ele>
        <time>2012-08-16T08:48:01Z</time>
      </trkpt>
      <trkpt lat="47.81759" lon="-3.53502">
        <ele>13.69766330719</ele>
        <time>2012-08-16T08:48:08Z</time>
      </trkpt>
      <trkpt lat="47.81754" lon="-3.53504">
        <ele>13.902625083923</ele>
        <time>2012-08-16T08:48:12Z</time>
      </trkpt>
      <trkpt lat="47.81744" lon="-3.53512">
        <ele>13.21907043457</ele>
        <time>2012-08-16T08:48:18Z</time>
      </trkpt>
      <trkpt lat="47.81741" lon="-3.53516">
        <ele>12.652311325073</ele>
        <time>2012-08-16T08:48:21Z</time>
      </trkpt>
      <trkpt lat="47.81738" lon="-3.5352">
        <ele>12.041723251343</ele>
        <time>2012-08-16T08:48:25Z</time>
      </trkpt>
      <trkpt lat="47.81736" lon="-3.53521">
        <ele>11.928024291992</ele>
        <time>2012-08-16T08:48:27Z</time>
      </trkpt>
      <trkpt lat="47.81731" lon="-3.53528">
        <ele>10.972730636597</ele>
        <time>2012-08-16T08:48:34Z</time>
      </trkpt>
      <trkpt lat="47.81729" lon="-3.5353">
        <ele>10.700530052185</ele>
        <time>2012-08-16T08:48:36Z</time>
      </trkpt>
      <trkpt lat="47.81715" lon="-3.53533">
        <ele>10.627910614014</ele>
        <time>2012-08-16T08:48:44Z</time>
      </trkpt>
      <trkpt lat="47.81708" lon="-3.53539">
        <ele>9.8417615890503</ele>
        <time>2012-08-16T08:48:48Z</time>
      </trkpt>
      <trkpt lat="47.81699" lon="-3.53554">
        <ele>8.0439748764038</ele>
        <time>2012-08-16T08:48:51Z</time>
      </trkpt>
      <trkpt lat="47.81684" lon="-3.53561">
        <ele>7.3869638442993</ele>
        <time>2012-08-16T08:48:55Z</time>
      </trkpt>
      <trkpt lat="47.81673" lon="-3.53567">
        <ele>6.9692764282227</ele>
        <time>2012-08-16T08:48:59Z</time>
      </trkpt>
      <trkpt lat="47.81658" lon="-3.53572">
        <ele>6.6947059631348</ele>
        <time>2012-08-16T08:49:04Z</time>
      </trkpt>
      <trkpt lat="47.81638" lon="-3.53583">
        <ele>5.7321081161499</ele>
        <time>2012-08-16T08:49:09Z</time>
      </trkpt>
      <trkpt lat="47.81617" lon="-3.53585">
        <ele>6.1159753799439</ele>
        <time>2012-08-16T08:49:14Z</time>
      </trkpt>
      <trkpt lat="47.81614" lon="-3.53584">
        <ele>6.2386727333069</ele>
        <time>2012-08-16T08:49:15Z</time>
      </trkpt>
      <trkpt lat="47.81595" lon="-3.53575">
        <ele>7.5924553871155</ele>
        <time>2012-08-16T08:49:21Z</time>
      </trkpt>
      <trkpt lat="47.81585" lon="-3.53561">
        <ele>9.1552419662476</ele>
        <time>2012-08-16T08:49:25Z</time>
      </trkpt>
      <trkpt lat="47.81581" lon="-3.53552">
        <ele>9.9137601852417</ele>
        <time>2012-08-16T08:49:27Z</time>
      </trkpt>
      <trkpt lat="47.81554" lon="-3.53541">
        <ele>9.6241912841797</ele>
        <time>2012-08-16T08:49:34Z</time>
      </trkpt>
      <trkpt lat="47.81537" lon="-3.5353">
        <ele>9.5903577804565</ele>
        <time>2012-08-16T08:49:39Z</time>
      </trkpt>
      <trkpt lat="47.81519" lon="-3.53515">
        <ele>9.4651193618774</ele>
        <time>2012-08-16T08:49:44Z</time>
      </trkpt>
      <trkpt lat="47.81495" lon="-3.53499">
        <ele>8.7864933013916</ele>
        <time>2012-08-16T08:49:49Z</time>
      </trkpt>
      <trkpt lat="47.81491" lon="-3.53496">
        <ele>8.723747253418</ele>
        <time>2012-08-16T08:49:50Z</time>
      </trkpt>
      <trkpt lat="47.8147" lon="-3.53484">
        <ele>8.1779851913452</ele>
        <time>2012-08-16T08:49:55Z</time>
      </trkpt>
      <trkpt lat="47.81466" lon="-3.53472">
        <ele>8.6588191986084</ele>
        <time>2012-08-16T08:49:57Z</time>
      </trkpt>
      <trkpt lat="47.81457" lon="-3.53447">
        <ele>9.670768737793</ele>
        <time>2012-08-16T08:50:01Z</time>
      </trkpt>
      <trkpt lat="47.81442" lon="-3.53424">
        <ele>9.5639867782593</ele>
        <time>2012-08-16T08:50:06Z</time>
      </trkpt>
      <trkpt lat="47.81433" lon="-3.53411">
        <ele>9.4660625457764</ele>
        <time>2012-08-16T08:50:10Z</time>
      </trkpt>
      <trkpt lat="47.81426" lon="-3.53403">
        <ele>9.4760551452637</ele>
        <time>2012-08-16T08:50:12Z</time>
      </trkpt>
      <trkpt lat="47.81415" lon="-3.53382">
        <ele>10.201718330383</ele>
        <time>2012-08-16T08:50:15Z</time>
      </trkpt>
      <trkpt lat="47.81406" lon="-3.53355">
        <ele>11.588186264038</ele>
        <time>2012-08-16T08:50:19Z</time>
      </trkpt>
      <trkpt lat="47.81401" lon="-3.53342">
        <ele>11.961482048035</ele>
        <time>2012-08-16T08:50:21Z</time>
      </trkpt>
      <trkpt lat="47.81394" lon="-3.5332">
        <ele>12.190776824951</ele>
        <time>2012-08-16T08:50:25Z</time>
      </trkpt>
      <trkpt lat="47.8139" lon="-3.533">
        <ele>12.230400085449</ele>
        <time>2012-08-16T08:50:29Z</time>
      </trkpt>
      <trkpt lat="47.81381" lon="-3.53266">
        <ele>11.931429862976</ele>
        <time>2012-08-16T08:50:35Z</time>
      </trkpt>
      <trkpt lat="47.81375" lon="-3.5325">
        <ele>11.46333694458</ele>
        <time>2012-08-16T08:50:38Z</time>
      </trkpt>
      <trkpt lat="47.81371" lon="-3.5324">
        <ele>10.979529380798</ele>
        <time>2012-08-16T08:50:40Z</time>
      </trkpt>
      <trkpt lat="47.81363" lon="-3.53213">
        <ele>10.219066619873</ele>
        <time>2012-08-16T08:50:45Z</time>
      </trkpt>
      <trkpt lat="47.81363" lon="-3.53187">
        <ele>10.580185890198</ele>
        <time>2012-08-16T08:50:50Z</time>
      </trkpt>
      <trkpt lat="47.81364" lon="-3.53184">
        <ele>10.884593963623</ele>
        <time>2012-08-16T08:50:51Z</time>
      </trkpt>
      <trkpt lat="47.81369" lon="-3.53172">
        <ele>11.967226982117</ele>
        <time>2012-08-16T08:50:54Z</time>
      </trkpt>
      <trkpt lat="47.8137" lon="-3.53153">
        <ele>13.216958999634</ele>
        <time>2012-08-16T08:50:58Z</time>
      </trkpt>
      <trkpt lat="47.81363" lon="-3.53141">
        <ele>12.956329345703</ele>
        <time>2012-08-16T08:51:02Z</time>
      </trkpt>
      <trkpt lat="47.81352" lon="-3.53129">
        <ele>11.951730728149</ele>
        <time>2012-08-16T08:51:07Z</time>
      </trkpt>
      <trkpt lat="47.81349" lon="-3.53124">
        <ele>11.788649559021</ele>
        <time>2012-08-16T08:51:09Z</time>
      </trkpt>
      <trkpt lat="47.81345" lon="-3.5311">
        <ele>12.14301109314</ele>
        <time>2012-08-16T08:51:14Z</time>
      </trkpt>
      <trkpt lat="47.81344" lon="-3.53103">
        <ele>12.43915271759</ele>
        <time>2012-08-16T08:51:17Z</time>
      </trkpt>
      <trkpt lat="47.81338" lon="-3.53073">
        <ele>13.607441902161</ele>
        <time>2012-08-16T08:51:23Z</time>
      </trkpt>
      <trkpt lat="47.81336" lon="-3.53056">
        <ele>14.505256652832</ele>
        <time>2012-08-16T08:51:27Z</time>
      </trkpt>
      <trkpt lat="47.81336" lon="-3.53053">
        <ele>14.717095375061</ele>
        <time>2012-08-16T08:51:28Z</time>
      </trkpt>
      <trkpt lat="47.81339" lon="-3.53048">
        <ele>15.492396354675</ele>
        <time>2012-08-16T08:51:33Z</time>
      </trkpt>
      <trkpt lat="47.8134" lon="-3.53047">
        <ele>15.91809463501</ele>
        <time>2012-08-16T08:51:39Z</time>
      </trkpt>
      <trkpt lat="47.81343" lon="-3.53044">
        <ele>16.740262985229</ele>
        <time>2012-08-16T08:51:45Z</time>
      </trkpt>
      <trkpt lat="47.81345" lon="-3.53042">
        <ele>17.113376617432</ele>
        <time>2012-08-16T08:51:51Z</time>
      </trkpt>
      <trkpt lat="47.81347" lon="-3.53043">
        <ele>17.452110290527</ele>
        <time>2012-08-16T08:51:58Z</time>
      </trkpt>
      <trkpt lat="47.8135" lon="-3.53046">
        <ele>17.954236984253</ele>
        <time>2012-08-16T08:52:04Z</time>
      </trkpt>
      <trkpt lat="47.81353" lon="-3.53053">
        <ele>17.875028610229</ele>
        <time>2012-08-16T08:52:10Z</time>
      </trkpt>
      <trkpt lat="47.81355" lon="-3.53056">
        <ele>18.118236541748</ele>
        <time>2012-08-16T08:52:14Z</time>
      </trkpt>
      <trkpt lat="47.81361" lon="-3.53059">
        <ele>18.882186889648</ele>
        <time>2012-08-16T08:52:21Z</time>
      </trkpt>
      <trkpt lat="47.81365" lon="-3.53061">
        <ele>19.489479064941</ele>
        <time>2012-08-16T08:52:27Z</time>
      </trkpt>
      <trkpt lat="47.81372" lon="-3.53065">
        <ele>20.455055236816</ele>
        <time>2012-08-16T08:52:35Z</time>
      </trkpt>
      <trkpt lat="47.81373" lon="-3.53061">
        <ele>21.042461395264</ele>
        <time>2012-08-16T08:52:40Z</time>
      </trkpt>
      <trkpt lat="47.81372" lon="-3.53052">
        <ele>21.582496643066</ele>
        <time>2012-08-16T08:52:46Z</time>
      </trkpt>
      <trkpt lat="47.81372" lon="-3.53045">
        <ele>22.169347763061</ele>
        <time>2012-08-16T08:52:52Z</time>
      </trkpt>
      <trkpt lat="47.81372" lon="-3.5304">
        <ele>22.625381469727</ele>
        <time>2012-08-16T08:52:58Z</time>
      </trkpt>
      <trkpt lat="47.81376" lon="-3.53036">
        <ele>23.605739593506</ele>
        <time>2012-08-16T08:53:04Z</time>
      </trkpt>
      <trkpt lat="47.81377" lon="-3.5303">
        <ele>24.445764541626</ele>
        <time>2012-08-16T08:53:09Z</time>
      </trkpt>
      <trkpt lat="47.81379" lon="-3.53024">
        <ele>25.206504821777</ele>
        <time>2012-08-16T08:53:14Z</time>
      </trkpt>
      <trkpt lat="47.81379" lon="-3.53014">
        <ele>26.210521697998</ele>
        <time>2012-08-16T08:53:21Z</time>
      </trkpt>
      <trkpt lat="47.81382" lon="-3.53011">
        <ele>27.026344299316</ele>
        <time>2012-08-16T08:53:28Z</time>
      </trkpt>
      <trkpt lat="47.81388" lon="-3.53004">
        <ele>28.863412857056</ele>
        <time>2012-08-16T08:53:33Z</time>
      </trkpt>
      <trkpt lat="47.81403" lon="-3.52999">
        <ele>32.155269622803</ele>
        <time>2012-08-16T08:53:39Z</time>
      </trkpt>
      <trkpt lat="47.81412" lon="-3.52997">
        <ele>34.162631988525</ele>
        <time>2012-08-16T08:53:43Z</time>
      </trkpt>
      <trkpt lat="47.81424" lon="-3.52989">
        <ele>35.324291229248</ele>
        <time>2012-08-16T08:53:49Z</time>
      </trkpt>
      <trkpt lat="47.81438" lon="-3.52981">
        <ele>35.589431762695</ele>
        <time>2012-08-16T08:53:55Z</time>
      </trkpt>
      <trkpt lat="47.81458" lon="-3.52971">
        <ele>35.842594146729</ele>
        <time>2012-08-16T08:54:02Z</time>
      </trkpt>
      <trkpt lat="47.81467" lon="-3.52967">
        <ele>35.920066833496</ele>
        <time>2012-08-16T08:54:06Z</time>
      </trkpt>
      <trkpt lat="47.81478" lon="-3.52978">
        <ele>35.875949859619</ele>
        <time>2012-08-16T08:54:11Z</time>
      </trkpt>
      <trkpt lat="47.81479" lon="-3.52981">
        <ele>35.85912322998</ele>
        <time>2012-08-16T08:54:12Z</time>
      </trkpt>
      <trkpt lat="47.81493" lon="-3.53012">
        <ele>35.80835723877</ele>
        <time>2012-08-16T08:54:19Z</time>
      </trkpt>
      <trkpt lat="47.81509" lon="-3.53027">
        <ele>36.412220001221</ele>
        <time>2012-08-16T08:54:24Z</time>
      </trkpt>
      <trkpt lat="47.81531" lon="-3.53046">
        <ele>37.742118835449</ele>
        <time>2012-08-16T08:54:30Z</time>
      </trkpt>
      <trkpt lat="47.81544" lon="-3.53055">
        <ele>38.621971130371</ele>
        <time>2012-08-16T08:54:34Z</time>
      </trkpt>
      <trkpt lat="47.81573" lon="-3.53079">
        <ele>41.141288757324</ele>
        <time>2012-08-16T08:54:43Z</time>
      </trkpt>
      <trkpt lat="47.81592" lon="-3.53092">
        <ele>41.767887115479</ele>
        <time>2012-08-16T08:54:49Z</time>
      </trkpt>
      <trkpt lat="47.81609" lon="-3.53096">
        <ele>41.817726135254</ele>
        <time>2012-08-16T08:54:54Z</time>
      </trkpt>
      <trkpt lat="47.81619" lon="-3.53081">
        <ele>42.379634857178</ele>
        <time>2012-08-16T08:54:58Z</time>
      </trkpt>
      <trkpt lat="47.81628" lon="-3.53051">
        <ele>41.991992950439</ele>
        <time>2012-08-16T08:55:04Z</time>
      </trkpt>
      <trkpt lat="47.81627" lon="-3.53014">
        <ele>41.343597412109</ele>
        <time>2012-08-16T08:55:10Z</time>
      </trkpt>
      <trkpt lat="47.81626" lon="-3.52963">
        <ele>41.482242584229</ele>
        <time>2012-08-16T08:55:18Z</time>
      </trkpt>
      <trkpt lat="47.81625" lon="-3.52917">
        <ele>41.976341247559</ele>
        <time>2012-08-16T08:55:25Z</time>
      </trkpt>
      <trkpt lat="47.81623" lon="-3.52856">
        <ele>42.969501495361</ele>
        <time>2012-08-16T08:55:34Z</time>
      </trkpt>
      <trkpt lat="47.81622" lon="-3.5281">
        <ele>43.407524108887</ele>
        <time>2012-08-16T08:55:41Z</time>
      </trkpt>
      <trkpt lat="47.81621" lon="-3.52751">
        <ele>43.59086227417</ele>
        <time>2012-08-16T08:55:49Z</time>
      </trkpt>
      <trkpt lat="47.81621" lon="-3.52702">
        <ele>43.372215270996</ele>
        <time>2012-08-16T08:55:56Z</time>
      </trkpt>
      <trkpt lat="47.81624" lon="-3.5266">
        <ele>43.316024780273</ele>
        <time>2012-08-16T08:56:02Z</time>
      </trkpt>
      <trkpt lat="47.81628" lon="-3.52615">
        <ele>42.836948394775</ele>
        <time>2012-08-16T08:56:08Z</time>
      </trkpt>
      <trkpt lat="47.81629" lon="-3.52607">
        <ele>42.721130371094</ele>
        <time>2012-08-16T08:56:09Z</time>
      </trkpt>
      <trkpt lat="47.81629" lon="-3.52595">
        <ele>42.489860534668</ele>
        <time>2012-08-16T08:56:11Z</time>
      </trkpt>
      <trkpt lat="47.81616" lon="-3.52591">
        <ele>41.459476470947</ele>
        <time>2012-08-16T08:56:14Z</time>
      </trkpt>
      <trkpt lat="47.81605" lon="-3.52595">
        <ele>40.715915679932</ele>
        <time>2012-08-16T08:56:16Z</time>
      </trkpt>
      <trkpt lat="47.8156" lon="-3.52609">
        <ele>38.092624664307</ele>
        <time>2012-08-16T08:56:23Z</time>
      </trkpt>
      <trkpt lat="47.81511" lon="-3.52626">
        <ele>35.611438751221</ele>
        <time>2012-08-16T08:56:30Z</time>
      </trkpt>
      <trkpt lat="47.81464" lon="-3.52641">
        <ele>32.863159179688</ele>
        <time>2012-08-16T08:56:36Z</time>
      </trkpt>
      <trkpt lat="47.81424" lon="-3.52655">
        <ele>30.43701171875</ele>
        <time>2012-08-16T08:56:40Z</time>
      </trkpt>
      <trkpt lat="47.81374" lon="-3.52636">
        <ele>25.470191955566</ele>
        <time>2012-08-16T08:56:44Z</time>
      </trkpt>
      <trkpt lat="47.81341" lon="-3.52596">
        <ele>19.761648178101</ele>
        <time>2012-08-16T08:56:47Z</time>
      </trkpt>
      <trkpt lat="47.81332" lon="-3.52582">
        <ele>17.940889358521</ele>
        <time>2012-08-16T08:56:48Z</time>
      </trkpt>
      <trkpt lat="47.81299" lon="-3.52517">
        <ele>18.397380828857</ele>
        <time>2012-08-16T08:56:52Z</time>
      </trkpt>
      <trkpt lat="47.81284" lon="-3.5249">
        <ele>19.041763305664</ele>
        <time>2012-08-16T08:56:54Z</time>
      </trkpt>
      <trkpt lat="47.81253" lon="-3.52473">
        <ele>17.866893768311</ele>
        <time>2012-08-16T08:56:57Z</time>
      </trkpt>
      <trkpt lat="47.8123" lon="-3.52438">
        <ele>17.219318389893</ele>
        <time>2012-08-16T08:57:01Z</time>
      </trkpt>
      <trkpt lat="47.81216" lon="-3.52399">
        <ele>18.029644012451</ele>
        <time>2012-08-16T08:57:06Z</time>
      </trkpt>
      <trkpt lat="47.81211" lon="-3.52389">
        <ele>18.464794158936</ele>
        <time>2012-08-16T08:57:08Z</time>
      </trkpt>
      <trkpt lat="47.81209" lon="-3.52379">
        <ele>19.027042388916</ele>
        <time>2012-08-16T08:57:11Z</time>
      </trkpt>
      <trkpt lat="47.81207" lon="-3.5237">
        <ele>19.545782089233</ele>
        <time>2012-08-16T08:57:14Z</time>
      </trkpt>
      <trkpt lat="47.81205" lon="-3.52364">
        <ele>19.880842208862</ele>
        <time>2012-08-16T08:57:16Z</time>
      </trkpt>
      <trkpt lat="47.81201" lon="-3.5235">
        <ele>20.631874084473</ele>
        <time>2012-08-16T08:57:20Z</time>
      </trkpt>
      <trkpt lat="47.81199" lon="-3.52344">
        <ele>20.985399246216</ele>
        <time>2012-08-16T08:57:22Z</time>
      </trkpt>
      <trkpt lat="47.81187" lon="-3.52325">
        <ele>21.834215164185</ele>
        <time>2012-08-16T08:57:27Z</time>
      </trkpt>
      <trkpt lat="47.81172" lon="-3.52304">
        <ele>22.218158721924</ele>
        <time>2012-08-16T08:57:32Z</time>
      </trkpt>
      <trkpt lat="47.81147" lon="-3.52271">
        <ele>21.632490158081</ele>
        <time>2012-08-16T08:57:41Z</time>
      </trkpt>
      <trkpt lat="47.81133" lon="-3.52254">
        <ele>21.355506896973</ele>
        <time>2012-08-16T08:57:47Z</time>
      </trkpt>
      <trkpt lat="47.81119" lon="-3.52239">
        <ele>21.461280822754</ele>
        <time>2012-08-16T08:57:52Z</time>
      </trkpt>
      <trkpt lat="47.81099" lon="-3.52218">
        <ele>22.369171142578</ele>
        <time>2012-08-16T08:57:59Z</time>
      </trkpt>
      <trkpt lat="47.81075" lon="-3.52192">
        <ele>24.89933013916</ele>
        <time>2012-08-16T08:58:07Z</time>
      </trkpt>
      <trkpt lat="47.81054" lon="-3.52169">
        <ele>27.35408782959</ele>
        <time>2012-08-16T08:58:15Z</time>
      </trkpt>
      <trkpt lat="47.81044" lon="-3.52156">
        <ele>28.745372772217</ele>
        <time>2012-08-16T08:58:20Z</time>
      </trkpt>
      <trkpt lat="47.81037" lon="-3.52141">
        <ele>30.418710708618</ele>
        <time>2012-08-16T08:58:25Z</time>
      </trkpt>
      <trkpt lat="47.81034" lon="-3.52124">
        <ele>32.525856018066</ele>
        <time>2012-08-16T08:58:30Z</time>
      </trkpt>
      <trkpt lat="47.81038" lon="-3.52097">
        <ele>35.64635848999</ele>
        <time>2012-08-16T08:58:37Z</time>
      </trkpt>
      <trkpt lat="47.81041" lon="-3.52082">
        <ele>37.045757293701</ele>
        <time>2012-08-16T08:58:41Z</time>
      </trkpt>
      <trkpt lat="47.81034" lon="-3.52071">
        <ele>37.324642181396</ele>
        <time>2012-08-16T08:58:45Z</time>
      </trkpt>
      <trkpt lat="47.81009" lon="-3.52058">
        <ele>38.51948928833</ele>
        <time>2012-08-16T08:58:54Z</time>
      </trkpt>
      <trkpt lat="47.80991" lon="-3.52048">
        <ele>39.154232025146</ele>
        <time>2012-08-16T08:59:01Z</time>
      </trkpt>
      <trkpt lat="47.80974" lon="-3.52038">
        <ele>39.485851287842</ele>
        <time>2012-08-16T08:59:07Z</time>
      </trkpt>
      <trkpt lat="47.80956" lon="-3.52028">
        <ele>39.882591247559</ele>
        <time>2012-08-16T08:59:13Z</time>
      </trkpt>
      <trkpt lat="47.80929" lon="-3.52014">
        <ele>40.557132720947</ele>
        <time>2012-08-16T08:59:21Z</time>
      </trkpt>
      <trkpt lat="47.80909" lon="-3.51999">
        <ele>41.302993774414</ele>
        <time>2012-08-16T08:59:27Z</time>
      </trkpt>
      <trkpt lat="47.80872" lon="-3.5197">
        <ele>42.98327255249</ele>
        <time>2012-08-16T08:59:38Z</time>
      </trkpt>
      <trkpt lat="47.80841" lon="-3.51946">
        <ele>44.381454467773</ele>
        <time>2012-08-16T08:59:47Z</time>
      </trkpt>
      <trkpt lat="47.80804" lon="-3.51919">
        <ele>44.603847503662</ele>
        <time>2012-08-16T08:59:57Z</time>
      </trkpt>
      <trkpt lat="47.80769" lon="-3.51888">
        <ele>44.750816345215</ele>
        <time>2012-08-16T09:00:06Z</time>
      </trkpt>
      <trkpt lat="47.8074" lon="-3.51857">
        <ele>44.935478210449</ele>
        <time>2012-08-16T09:00:14Z</time>
      </trkpt>
      <trkpt lat="47.80719" lon="-3.51832">
        <ele>44.497566223145</ele>
        <time>2012-08-16T09:00:20Z</time>
      </trkpt>
      <trkpt lat="47.80699" lon="-3.51808">
        <ele>43.748363494873</ele>
        <time>2012-08-16T09:00:26Z</time>
      </trkpt>
      <trkpt lat="47.80682" lon="-3.51799">
        <ele>43.052005767822</ele>
        <time>2012-08-16T09:00:32Z</time>
      </trkpt>
      <trkpt lat="47.80674" lon="-3.51796">
        <ele>42.763591766357</ele>
        <time>2012-08-16T09:00:35Z</time>
      </trkpt>
      <trkpt lat="47.80666" lon="-3.51791">
        <ele>42.317165374756</ele>
        <time>2012-08-16T09:00:37Z</time>
      </trkpt>
      <trkpt lat="47.80651" lon="-3.51787">
        <ele>39.835914611816</ele>
        <time>2012-08-16T09:00:40Z</time>
      </trkpt>
      <trkpt lat="47.80636" lon="-3.51781">
        <ele>37.215812683105</ele>
        <time>2012-08-16T09:00:43Z</time>
      </trkpt>
      <trkpt lat="47.80611" lon="-3.51771">
        <ele>32.901588439941</ele>
        <time>2012-08-16T09:00:47Z</time>
      </trkpt>
      <trkpt lat="47.80594" lon="-3.51746">
        <ele>30.134376525879</ele>
        <time>2012-08-16T09:00:51Z</time>
      </trkpt>
      <trkpt lat="47.80582" lon="-3.51711">
        <ele>30.59440612793</ele>
        <time>2012-08-16T09:00:56Z</time>
      </trkpt>
      <trkpt lat="47.8057" lon="-3.51679">
        <ele>30.307527542114</ele>
        <time>2012-08-16T09:01:01Z</time>
      </trkpt>
      <trkpt lat="47.80556" lon="-3.51633">
        <ele>29.946798324585</ele>
        <time>2012-08-16T09:01:07Z</time>
      </trkpt>
      <trkpt lat="47.80544" lon="-3.51597">
        <ele>29.277105331421</ele>
        <time>2012-08-16T09:01:11Z</time>
      </trkpt>
      <trkpt lat="47.80537" lon="-3.5157">
        <ele>28.483240127564</ele>
        <time>2012-08-16T09:01:14Z</time>
      </trkpt>
      <trkpt lat="47.80536" lon="-3.51537">
        <ele>28.580478668213</ele>
        <time>2012-08-16T09:01:17Z</time>
      </trkpt>
      <trkpt lat="47.80542" lon="-3.51481">
        <ele>29.879281997681</ele>
        <time>2012-08-16T09:01:22Z</time>
      </trkpt>
      <trkpt lat="47.80565" lon="-3.51431">
        <ele>31.860485076904</ele>
        <time>2012-08-16T09:01:27Z</time>
      </trkpt>
      <trkpt lat="47.80586" lon="-3.51392">
        <ele>30.923463821411</ele>
        <time>2012-08-16T09:01:31Z</time>
      </trkpt>
      <trkpt lat="47.80603" lon="-3.51337">
        <ele>28.396064758301</ele>
        <time>2012-08-16T09:01:36Z</time>
      </trkpt>
      <trkpt lat="47.80611" lon="-3.51264">
        <ele>27.988639831543</ele>
        <time>2012-08-16T09:01:42Z</time>
      </trkpt>
      <trkpt lat="47.80615" lon="-3.5117">
        <ele>27.795707702637</ele>
        <time>2012-08-16T09:01:50Z</time>
      </trkpt>
      <trkpt lat="47.80614" lon="-3.51158">
        <ele>27.706787109375</ele>
        <time>2012-08-16T09:01:51Z</time>
      </trkpt>
      <trkpt lat="47.80606" lon="-3.51115">
        <ele>27.125982284546</ele>
        <time>2012-08-16T09:01:55Z</time>
      </trkpt>
      <trkpt lat="47.8059" lon="-3.51078">
        <ele>26.707401275635</ele>
        <time>2012-08-16T09:01:59Z</time>
      </trkpt>
      <trkpt lat="47.80573" lon="-3.51036">
        <ele>29.975149154663</ele>
        <time>2012-08-16T09:02:05Z</time>
      </trkpt>
      <trkpt lat="47.80566" lon="-3.51015">
        <ele>31.8101978302</ele>
        <time>2012-08-16T09:02:08Z</time>
      </trkpt>
      <trkpt lat="47.80566" lon="-3.51002">
        <ele>32.605354309082</ele>
        <time>2012-08-16T09:02:10Z</time>
      </trkpt>
      <trkpt lat="47.80563" lon="-3.50989">
        <ele>33.152645111084</ele>
        <time>2012-08-16T09:02:12Z</time>
      </trkpt>
      <trkpt lat="47.80561" lon="-3.50964">
        <ele>33.811443328857</ele>
        <time>2012-08-16T09:02:16Z</time>
      </trkpt>
      <trkpt lat="47.8056" lon="-3.50952">
        <ele>34.049438476562</ele>
        <time>2012-08-16T09:02:18Z</time>
      </trkpt>
      <trkpt lat="47.80558" lon="-3.50921">
        <ele>34.755592346191</ele>
        <time>2012-08-16T09:02:24Z</time>
      </trkpt>
      <trkpt lat="47.80556" lon="-3.50917">
        <ele>34.963962554932</ele>
        <time>2012-08-16T09:02:25Z</time>
      </trkpt>
      <trkpt lat="47.80539" lon="-3.50914">
        <ele>36.273567199707</ele>
        <time>2012-08-16T09:02:31Z</time>
      </trkpt>
      <trkpt lat="47.8053" lon="-3.50917">
        <ele>36.850517272949</ele>
        <time>2012-08-16T09:02:35Z</time>
      </trkpt>
      <trkpt lat="47.80522" lon="-3.50929">
        <ele>37.328838348389</ele>
        <time>2012-08-16T09:02:39Z</time>
      </trkpt>
      <trkpt lat="47.80515" lon="-3.50947">
        <ele>37.825607299805</ele>
        <time>2012-08-16T09:02:44Z</time>
      </trkpt>
      <trkpt lat="47.80508" lon="-3.50966">
        <ele>38.306491851807</ele>
        <time>2012-08-16T09:02:50Z</time>
      </trkpt>
      <trkpt lat="47.80507" lon="-3.50982">
        <ele>38.407619476318</ele>
        <time>2012-08-16T09:02:54Z</time>
      </trkpt>
      <trkpt lat="47.8051" lon="-3.51012">
        <ele>37.612186431885</ele>
        <time>2012-08-16T09:03:00Z</time>
      </trkpt>
      <trkpt lat="47.80511" lon="-3.51034">
        <ele>36.626113891602</ele>
        <time>2012-08-16T09:03:03Z</time>
      </trkpt>
      <trkpt lat="47.80508" lon="-3.51077">
        <ele>35.245128631592</ele>
        <time>2012-08-16T09:03:07Z</time>
      </trkpt>
      <trkpt lat="47.80502" lon="-3.51101">
        <ele>35.805168151855</ele>
        <time>2012-08-16T09:03:09Z</time>
      </trkpt>
      <trkpt lat="47.80479" lon="-3.51138">
        <ele>36.577724456787</ele>
        <time>2012-08-16T09:03:12Z</time>
      </trkpt>
      <trkpt lat="47.80477" lon="-3.51167">
        <ele>36.582099914551</ele>
        <time>2012-08-16T09:03:16Z</time>
      </trkpt>
      <trkpt lat="47.80481" lon="-3.51191">
        <ele>37.919330596924</ele>
        <time>2012-08-16T09:03:20Z</time>
      </trkpt>
      <trkpt lat="47.80485" lon="-3.51206">
        <ele>38.506359100342</ele>
        <time>2012-08-16T09:03:23Z</time>
      </trkpt>
      <trkpt lat="47.80487" lon="-3.51216">
        <ele>38.966770172119</ele>
        <time>2012-08-16T09:03:25Z</time>
      </trkpt>
      <trkpt lat="47.80488" lon="-3.51253">
        <ele>40.465034484863</ele>
        <time>2012-08-16T09:03:31Z</time>
      </trkpt>
      <trkpt lat="47.80486" lon="-3.51278">
        <ele>39.478622436523</ele>
        <time>2012-08-16T09:03:35Z</time>
      </trkpt>
      <trkpt lat="47.80481" lon="-3.51305">
        <ele>39.109546661377</ele>
        <time>2012-08-16T09:03:39Z</time>
      </trkpt>
      <trkpt lat="47.80475" lon="-3.51351">
        <ele>38.244800567627</ele>
        <time>2012-08-16T09:03:46Z</time>
      </trkpt>
      <trkpt lat="47.80474" lon="-3.51371">
        <ele>37.233882904053</ele>
        <time>2012-08-16T09:03:49Z</time>
      </trkpt>
      <trkpt lat="47.8047" lon="-3.51393">
        <ele>36.830280303955</ele>
        <time>2012-08-16T09:03:52Z</time>
      </trkpt>
      <trkpt lat="47.80455" lon="-3.51425">
        <ele>38.802806854248</ele>
        <time>2012-08-16T09:03:57Z</time>
      </trkpt>
      <trkpt lat="47.8045" lon="-3.51436">
        <ele>39.615783691406</ele>
        <time>2012-08-16T09:03:59Z</time>
      </trkpt>
      <trkpt lat="47.80437" lon="-3.51469">
        <ele>40.737277984619</ele>
        <time>2012-08-16T09:04:05Z</time>
      </trkpt>
      <trkpt lat="47.80431" lon="-3.51484">
        <ele>41.019393920898</ele>
        <time>2012-08-16T09:04:08Z</time>
      </trkpt>
      <trkpt lat="47.80422" lon="-3.51503">
        <ele>41.469699859619</ele>
        <time>2012-08-16T09:04:12Z</time>
      </trkpt>
      <trkpt lat="47.80414" lon="-3.51525">
        <ele>41.948078155518</ele>
        <time>2012-08-16T09:04:16Z</time>
      </trkpt>
      <trkpt lat="47.80407" lon="-3.51548">
        <ele>42.045352935791</ele>
        <time>2012-08-16T09:04:21Z</time>
      </trkpt>
      <trkpt lat="47.80404" lon="-3.51588">
        <ele>40.570068359375</ele>
        <time>2012-08-16T09:04:29Z</time>
      </trkpt>
      <trkpt lat="47.80404" lon="-3.51619">
        <ele>40.783779144287</ele>
        <time>2012-08-16T09:04:35Z</time>
      </trkpt>
      <trkpt lat="47.80405" lon="-3.51634">
        <ele>40.858001708984</ele>
        <time>2012-08-16T09:04:39Z</time>
      </trkpt>
      <trkpt lat="47.80397" lon="-3.51658">
        <ele>42.082614898682</ele>
        <time>2012-08-16T09:04:45Z</time>
      </trkpt>
      <trkpt lat="47.80387" lon="-3.51674">
        <ele>42.452690124512</ele>
        <time>2012-08-16T09:04:50Z</time>
      </trkpt>
      <trkpt lat="47.80369" lon="-3.51691">
        <ele>41.793579101562</ele>
        <time>2012-08-16T09:04:57Z</time>
      </trkpt>
      <trkpt lat="47.80354" lon="-3.51703">
        <ele>40.749294281006</ele>
        <time>2012-08-16T09:05:03Z</time>
      </trkpt>
      <trkpt lat="47.80336" lon="-3.51707">
        <ele>40.615173339844</ele>
        <time>2012-08-16T09:05:08Z</time>
      </trkpt>
      <trkpt lat="47.80316" lon="-3.51706">
        <ele>40.953895568848</ele>
        <time>2012-08-16T09:05:13Z</time>
      </trkpt>
      <trkpt lat="47.80308" lon="-3.51706">
        <ele>40.887901306152</ele>
        <time>2012-08-16T09:05:15Z</time>
      </trkpt>
      <trkpt lat="47.80294" lon="-3.51702">
        <ele>41.765789031982</ele>
        <time>2012-08-16T09:05:18Z</time>
      </trkpt>
      <trkpt lat="47.80282" lon="-3.51697">
        <ele>42.564239501953</ele>
        <time>2012-08-16T09:05:21Z</time>
      </trkpt>
      <trkpt lat="47.80262" lon="-3.51692">
        <ele>43.481647491455</ele>
        <time>2012-08-16T09:05:26Z</time>
      </trkpt>
      <trkpt lat="47.80258" lon="-3.51691">
        <ele>43.718368530273</ele>
        <time>2012-08-16T09:05:27Z</time>
      </trkpt>
      <trkpt lat="47.80233" lon="-3.51692">
        <ele>44.395496368408</ele>
        <time>2012-08-16T09:05:32Z</time>
      </trkpt>
      <trkpt lat="47.80199" lon="-3.51697">
        <ele>45.626235961914</ele>
        <time>2012-08-16T09:05:37Z</time>
      </trkpt>
      <trkpt lat="47.80195" lon="-3.51698">
        <ele>45.755840301514</ele>
        <time>2012-08-16T09:05:38Z</time>
      </trkpt>
      <trkpt lat="47.8018" lon="-3.51695">
        <ele>46.861938476562</ele>
        <time>2012-08-16T09:05:41Z</time>
      </trkpt>
      <trkpt lat="47.80176" lon="-3.51692">
        <ele>47.284496307373</ele>
        <time>2012-08-16T09:05:42Z</time>
      </trkpt>
      <trkpt lat="47.80157" lon="-3.51686">
        <ele>47.311241149902</ele>
        <time>2012-08-16T09:05:46Z</time>
      </trkpt>
      <trkpt lat="47.80142" lon="-3.51678">
        <ele>46.285461425781</ele>
        <time>2012-08-16T09:05:50Z</time>
      </trkpt>
      <trkpt lat="47.80129" lon="-3.51677">
        <ele>45.1506690979</ele>
        <time>2012-08-16T09:05:54Z</time>
      </trkpt>
      <trkpt lat="47.8013" lon="-3.51683">
        <ele>45.089950561523</ele>
        <time>2012-08-16T09:05:56Z</time>
      </trkpt>
      <trkpt lat="47.80132" lon="-3.51702">
        <ele>44.816181182861</ele>
        <time>2012-08-16T09:06:00Z</time>
      </trkpt>
      <trkpt lat="47.80129" lon="-3.51724">
        <ele>44.204536437988</ele>
        <time>2012-08-16T09:06:04Z</time>
      </trkpt>
      <trkpt lat="47.80124" lon="-3.5174">
        <ele>43.627159118652</ele>
        <time>2012-08-16T09:06:08Z</time>
      </trkpt>
      <trkpt lat="47.80115" lon="-3.51758">
        <ele>42.378570556641</ele>
        <time>2012-08-16T09:06:11Z</time>
      </trkpt>
      <trkpt lat="47.80098" lon="-3.51789">
        <ele>38.808013916016</ele>
        <time>2012-08-16T09:06:15Z</time>
      </trkpt>
      <trkpt lat="47.80076" lon="-3.51813">
        <ele>35.884479522705</ele>
        <time>2012-08-16T09:06:19Z</time>
      </trkpt>
      <trkpt lat="47.80056" lon="-3.5183">
        <ele>33.459537506104</ele>
        <time>2012-08-16T09:06:22Z</time>
      </trkpt>
      <trkpt lat="47.80047" lon="-3.51833">
        <ele>32.708255767822</ele>
        <time>2012-08-16T09:06:24Z</time>
      </trkpt>
      <trkpt lat="47.80035" lon="-3.51827">
        <ele>33.120624542236</ele>
        <time>2012-08-16T09:06:28Z</time>
      </trkpt>
      <trkpt lat="47.80026" lon="-3.51819">
        <ele>34.18000793457</ele>
        <time>2012-08-16T09:06:31Z</time>
      </trkpt>
      <trkpt lat="47.80015" lon="-3.51808">
        <ele>35.652179718018</ele>
        <time>2012-08-16T09:06:36Z</time>
      </trkpt>
      <trkpt lat="47.8" lon="-3.51798">
        <ele>37.426891326904</ele>
        <time>2012-08-16T09:06:42Z</time>
      </trkpt>
      <trkpt lat="47.79998" lon="-3.51797">
        <ele>37.599468231201</ele>
        <time>2012-08-16T09:06:43Z</time>
      </trkpt>
      <trkpt lat="47.79985" lon="-3.51795">
        <ele>38.637317657471</ele>
        <time>2012-08-16T09:06:49Z</time>
      </trkpt>
      <trkpt lat="47.79968" lon="-3.51798">
        <ele>39.176383972168</ele>
        <time>2012-08-16T09:06:55Z</time>
      </trkpt>
      <trkpt lat="47.79954" lon="-3.51799">
        <ele>39.810306549072</ele>
        <time>2012-08-16T09:07:00Z</time>
      </trkpt>
      <trkpt lat="47.79941" lon="-3.51802">
        <ele>39.930667877197</ele>
        <time>2012-08-16T09:07:04Z</time>
      </trkpt>
      <trkpt lat="47.79925" lon="-3.51806">
        <ele>40.173084259033</ele>
        <time>2012-08-16T09:07:09Z</time>
      </trkpt>
      <trkpt lat="47.79899" lon="-3.51815">
        <ele>40.981227874756</ele>
        <time>2012-08-16T09:07:14Z</time>
      </trkpt>
      <trkpt lat="47.79894" lon="-3.51818">
        <ele>41.185863494873</ele>
        <time>2012-08-16T09:07:15Z</time>
      </trkpt>
      <trkpt lat="47.7986" lon="-3.51842">
        <ele>41.834777832031</ele>
        <time>2012-08-16T09:07:22Z</time>
      </trkpt>
      <trkpt lat="47.79846" lon="-3.51854">
        <ele>41.083717346191</ele>
        <time>2012-08-16T09:07:25Z</time>
      </trkpt>
      <trkpt lat="47.79827" lon="-3.51868">
        <ele>41.038505554199</ele>
        <time>2012-08-16T09:07:29Z</time>
      </trkpt>
      <trkpt lat="47.79811" lon="-3.51878">
        <ele>41.293243408203</ele>
        <time>2012-08-16T09:07:32Z</time>
      </trkpt>
      <trkpt lat="47.79787" lon="-3.51888">
        <ele>42.861038208008</ele>
        <time>2012-08-16T09:07:35Z</time>
      </trkpt>
      <trkpt lat="47.79761" lon="-3.51895">
        <ele>45.818256378174</ele>
        <time>2012-08-16T09:07:39Z</time>
      </trkpt>
      <trkpt lat="47.79757" lon="-3.51896">
        <ele>46.249519348145</ele>
        <time>2012-08-16T09:07:40Z</time>
      </trkpt>
      <trkpt lat="47.79753" lon="-3.51898">
        <ele>46.626724243164</ele>
        <time>2012-08-16T09:07:41Z</time>
      </trkpt>
      <trkpt lat="47.7974" lon="-3.51905">
        <ele>47.082164764404</ele>
        <time>2012-08-16T09:07:45Z</time>
      </trkpt>
      <trkpt lat="47.79733" lon="-3.51912">
        <ele>47.000579833984</ele>
        <time>2012-08-16T09:07:47Z</time>
      </trkpt>
      <trkpt lat="47.79724" lon="-3.51919">
        <ele>47.034873962402</ele>
        <time>2012-08-16T09:07:49Z</time>
      </trkpt>
      <trkpt lat="47.7971" lon="-3.51931">
        <ele>46.053283691406</ele>
        <time>2012-08-16T09:07:52Z</time>
      </trkpt>
      <trkpt lat="47.79701" lon="-3.5194">
        <ele>45.603157043457</ele>
        <time>2012-08-16T09:07:54Z</time>
      </trkpt>
      <trkpt lat="47.79686" lon="-3.51958">
        <ele>44.415283203125</ele>
        <time>2012-08-16T09:07:58Z</time>
      </trkpt>
      <trkpt lat="47.79673" lon="-3.51978">
        <ele>43.126758575439</ele>
        <time>2012-08-16T09:08:02Z</time>
      </trkpt>
      <trkpt lat="47.79664" lon="-3.51986">
        <ele>42.940937042236</ele>
        <time>2012-08-16T09:08:05Z</time>
      </trkpt>
      <trkpt lat="47.7965" lon="-3.51998">
        <ele>41.025310516357</ele>
        <time>2012-08-16T09:08:10Z</time>
      </trkpt>
      <trkpt lat="47.79634" lon="-3.5202">
        <ele>38.668800354004</ele>
        <time>2012-08-16T09:08:14Z</time>
      </trkpt>
      <trkpt lat="47.79618" lon="-3.52052">
        <ele>36.104682922363</ele>
        <time>2012-08-16T09:08:18Z</time>
      </trkpt>
      <trkpt lat="47.79599" lon="-3.52112">
        <ele>34.08447265625</ele>
        <time>2012-08-16T09:08:24Z</time>
      </trkpt>
      <trkpt lat="47.79592" lon="-3.52136">
        <ele>34.262012481689</ele>
        <time>2012-08-16T09:08:26Z</time>
      </trkpt>
      <trkpt lat="47.79589" lon="-3.52198">
        <ele>32.829086303711</ele>
        <time>2012-08-16T09:08:31Z</time>
      </trkpt>
      <trkpt lat="47.79589" lon="-3.52211">
        <ele>32.096851348877</ele>
        <time>2012-08-16T09:08:32Z</time>
      </trkpt>
      <trkpt lat="47.79604" lon="-3.52254">
        <ele>26.399019241333</ele>
        <time>2012-08-16T09:08:36Z</time>
      </trkpt>
      <trkpt lat="47.79605" lon="-3.52262">
        <ele>25.385141372681</ele>
        <time>2012-08-16T09:08:37Z</time>
      </trkpt>
      <trkpt lat="47.79608" lon="-3.52299">
        <ele>22.324625015259</ele>
        <time>2012-08-16T09:08:41Z</time>
      </trkpt>
      <trkpt lat="47.79605" lon="-3.5234">
        <ele>20.510860443115</ele>
        <time>2012-08-16T09:08:45Z</time>
      </trkpt>
      <trkpt lat="47.79601" lon="-3.52355">
        <ele>20.301877975464</ele>
        <time>2012-08-16T09:08:49Z</time>
      </trkpt>
      <trkpt lat="47.79601" lon="-3.52357">
        <ele>20.008764266968</ele>
        <time>2012-08-16T09:08:55Z</time>
      </trkpt>
      <trkpt lat="47.79603" lon="-3.52358">
        <ele>19.401655197144</ele>
        <time>2012-08-16T09:09:00Z</time>
      </trkpt>
      <trkpt lat="47.79605" lon="-3.5236">
        <ele>18.853296279907</ele>
        <time>2012-08-16T09:09:02Z</time>
      </trkpt>
      <trkpt lat="47.79607" lon="-3.52367">
        <ele>17.851919174194</ele>
        <time>2012-08-16T09:09:07Z</time>
      </trkpt>
      <trkpt lat="47.79606" lon="-3.52371">
        <ele>17.617572784424</ele>
        <time>2012-08-16T09:09:11Z</time>
      </trkpt>
      <trkpt lat="47.79607" lon="-3.52374">
        <ele>17.28493309021</ele>
        <time>2012-08-16T09:09:14Z</time>
      </trkpt>
      <trkpt lat="47.79608" lon="-3.52377">
        <ele>16.765449523926</ele>
        <time>2012-08-16T09:09:27Z</time>
      </trkpt>
      <trkpt lat="47.79607" lon="-3.5238">
        <ele>16.573980331421</ele>
        <time>2012-08-16T09:09:35Z</time>
      </trkpt>
      <trkpt lat="47.79607" lon="-3.52378">
        <ele>16.751996994019</ele>
        <time>2012-08-16T09:09:41Z</time>
      </trkpt>
      <trkpt lat="47.79606" lon="-3.52374">
        <ele>17.436452865601</ele>
        <time>2012-08-16T09:09:47Z</time>
      </trkpt>
      <trkpt lat="47.79603" lon="-3.52373">
        <ele>18.20477104187</ele>
        <time>2012-08-16T09:09:53Z</time>
      </trkpt>
      <trkpt lat="47.79597" lon="-3.52375">
        <ele>19.301750183106</ele>
        <time>2012-08-16T09:10:00Z</time>
      </trkpt>
      <trkpt lat="47.79594" lon="-3.52376">
        <ele>19.832794189453</ele>
        <time>2012-08-16T09:10:03Z</time>
      </trkpt>
      <trkpt lat="47.79591" lon="-3.52383">
        <ele>20.009706497192</ele>
        <time>2012-08-16T09:10:08Z</time>
      </trkpt>
      <trkpt lat="47.79597" lon="-3.5238">
        <ele>18.857164382935</ele>
        <time>2012-08-16T09:10:11Z</time>
      </trkpt>
      <trkpt lat="47.79604" lon="-3.52377">
        <ele>17.714366912842</ele>
        <time>2012-08-16T09:10:13Z</time>
      </trkpt>
      <trkpt lat="47.79641" lon="-3.5236">
        <ele>9.8980484008789</ele>
        <time>2012-08-16T09:10:21Z</time>
      </trkpt>
      <trkpt lat="47.79673" lon="-3.52347">
        <ele>3.5906713008881</ele>
        <time>2012-08-16T09:10:27Z</time>
      </trkpt>
      <trkpt lat="47.79719" lon="-3.5233">
        <ele>1.5577836036682</ele>
        <time>2012-08-16T09:10:36Z</time>
      </trkpt>
      <trkpt lat="47.79775" lon="-3.52309">
        <ele>3.3153784275055</ele>
        <time>2012-08-16T09:10:46Z</time>
      </trkpt>
      <trkpt lat="47.79832" lon="-3.52288">
        <ele>9.0159101486206</ele>
        <time>2012-08-16T09:10:55Z</time>
      </trkpt>
      <trkpt lat="47.79874" lon="-3.52278">
        <ele>13.067702293396</ele>
        <time>2012-08-16T09:11:02Z</time>
      </trkpt>
      <trkpt lat="47.79902" lon="-3.5228">
        <ele>16.495265960693</ele>
        <time>2012-08-16T09:11:08Z</time>
      </trkpt>
      <trkpt lat="47.79932" lon="-3.5229">
        <ele>19.661987304688</ele>
        <time>2012-08-16T09:11:16Z</time>
      </trkpt>
      <trkpt lat="47.79944" lon="-3.52296">
        <ele>20.406185150146</ele>
        <time>2012-08-16T09:11:19Z</time>
      </trkpt>
      <trkpt lat="47.79972" lon="-3.52317">
        <ele>22.696887969971</ele>
        <time>2012-08-16T09:11:27Z</time>
      </trkpt>
      <trkpt lat="47.79999" lon="-3.52349">
        <ele>25.897397994995</ele>
        <time>2012-08-16T09:11:36Z</time>
      </trkpt>
      <trkpt lat="47.80017" lon="-3.52384">
        <ele>29.536659240723</ele>
        <time>2012-08-16T09:11:44Z</time>
      </trkpt>
      <trkpt lat="47.80034" lon="-3.52427">
        <ele>33.692108154297</ele>
        <time>2012-08-16T09:11:53Z</time>
      </trkpt>
      <trkpt lat="47.80041" lon="-3.5246">
        <ele>34.015113830566</ele>
        <time>2012-08-16T09:11:59Z</time>
      </trkpt>
      <trkpt lat="47.80045" lon="-3.52514">
        <ele>34.61417388916</ele>
        <time>2012-08-16T09:12:09Z</time>
      </trkpt>
      <trkpt lat="47.80046" lon="-3.52545">
        <ele>34.793087005615</ele>
        <time>2012-08-16T09:12:15Z</time>
      </trkpt>
      <trkpt lat="47.80047" lon="-3.52594">
        <ele>34.83757019043</ele>
        <time>2012-08-16T09:12:24Z</time>
      </trkpt>
      <trkpt lat="47.80048" lon="-3.5265">
        <ele>33.972263336182</ele>
        <time>2012-08-16T09:12:34Z</time>
      </trkpt>
      <trkpt lat="47.80047" lon="-3.52708">
        <ele>34.950679779053</ele>
        <time>2012-08-16T09:12:45Z</time>
      </trkpt>
      <trkpt lat="47.80048" lon="-3.52754">
        <ele>36.283489227295</ele>
        <time>2012-08-16T09:12:52Z</time>
      </trkpt>
      <trkpt lat="47.80048" lon="-3.52779">
        <ele>37.196224212646</ele>
        <time>2012-08-16T09:12:56Z</time>
      </trkpt>
      <trkpt lat="47.80049" lon="-3.5283">
        <ele>39.126472473145</ele>
        <time>2012-08-16T09:13:04Z</time>
      </trkpt>
      <trkpt lat="47.80049" lon="-3.5289">
        <ele>39.916526794434</ele>
        <time>2012-08-16T09:13:11Z</time>
      </trkpt>
      <trkpt lat="47.8005" lon="-3.52962">
        <ele>40.527355194092</ele>
        <time>2012-08-16T09:13:19Z</time>
      </trkpt>
      <trkpt lat="47.8005" lon="-3.53016">
        <ele>40.802490234375</ele>
        <time>2012-08-16T09:13:25Z</time>
      </trkpt>
      <trkpt lat="47.80057" lon="-3.53037">
        <ele>40.628540039062</ele>
        <time>2012-08-16T09:13:28Z</time>
      </trkpt>
      <trkpt lat="47.80069" lon="-3.53029">
        <ele>40.353881835938</ele>
        <time>2012-08-16T09:13:30Z</time>
      </trkpt>
      <trkpt lat="47.80079" lon="-3.53004">
        <ele>40.106689453125</ele>
        <time>2012-08-16T09:13:33Z</time>
      </trkpt>
      <trkpt lat="47.80087" lon="-3.52971">
        <ele>39.479206085205</ele>
        <time>2012-08-16T09:13:36Z</time>
      </trkpt>
      <trkpt lat="47.80095" lon="-3.52945">
        <ele>38.770530700684</ele>
        <time>2012-08-16T09:13:38Z</time>
      </trkpt>
      <trkpt lat="47.80122" lon="-3.52894">
        <ele>36.635684967041</ele>
        <time>2012-08-16T09:13:42Z</time>
      </trkpt>
      <trkpt lat="47.80157" lon="-3.52843">
        <ele>32.97412109375</ele>
        <time>2012-08-16T09:13:46Z</time>
      </trkpt>
      <trkpt lat="47.80183" lon="-3.52804">
        <ele>29.256145477295</ele>
        <time>2012-08-16T09:13:49Z</time>
      </trkpt>
      <trkpt lat="47.80225" lon="-3.52772">
        <ele>24.852880477905</ele>
        <time>2012-08-16T09:13:53Z</time>
      </trkpt>
      <trkpt lat="47.80289" lon="-3.52736">
        <ele>20.279418945312</ele>
        <time>2012-08-16T09:13:59Z</time>
      </trkpt>
      <trkpt lat="47.80332" lon="-3.52695">
        <ele>16.935565948486</ele>
        <time>2012-08-16T09:14:04Z</time>
      </trkpt>
      <trkpt lat="47.80341" lon="-3.52693">
        <ele>15.656363487244</ele>
        <time>2012-08-16T09:14:05Z</time>
      </trkpt>
      <trkpt lat="47.8036" lon="-3.52701">
        <ele>12.606932640076</ele>
        <time>2012-08-16T09:14:07Z</time>
      </trkpt>
      <trkpt lat="47.80374" lon="-3.52712">
        <ele>10.6574010849</ele>
        <time>2012-08-16T09:14:10Z</time>
      </trkpt>
      <trkpt lat="47.80389" lon="-3.52717">
        <ele>8.7854318618774</ele>
        <time>2012-08-16T09:14:13Z</time>
      </trkpt>
      <trkpt lat="47.80396" lon="-3.52718">
        <ele>7.982017993927</ele>
        <time>2012-08-16T09:14:14Z</time>
      </trkpt>
      <trkpt lat="47.80402" lon="-3.5272">
        <ele>7.2537031173706</ele>
        <time>2012-08-16T09:14:15Z</time>
      </trkpt>
      <trkpt lat="47.80409" lon="-3.52721">
        <ele>6.4939608573914</ele>
        <time>2012-08-16T09:14:16Z</time>
      </trkpt>
      <trkpt lat="47.8045" lon="-3.52727">
        <ele>7.2209296226502</ele>
        <time>2012-08-16T09:14:22Z</time>
      </trkpt>
      <trkpt lat="47.80464" lon="-3.52726">
        <ele>7.6958103179932</ele>
        <time>2012-08-16T09:14:24Z</time>
      </trkpt>
      <trkpt lat="47.80507" lon="-3.52727">
        <ele>10.077575683594</ele>
        <time>2012-08-16T09:14:31Z</time>
      </trkpt>
      <trkpt lat="47.80537" lon="-3.52721">
        <ele>13.487885475159</ele>
        <time>2012-08-16T09:14:37Z</time>
      </trkpt>
      <trkpt lat="47.80544" lon="-3.52718">
        <ele>14.282462120056</ele>
        <time>2012-08-16T09:14:39Z</time>
      </trkpt>
      <trkpt lat="47.80553" lon="-3.52716">
        <ele>15.274030685425</ele>
        <time>2012-08-16T09:14:41Z</time>
      </trkpt>
      <trkpt lat="47.80577" lon="-3.52709">
        <ele>17.767509460449</ele>
        <time>2012-08-16T09:14:47Z</time>
      </trkpt>
      <trkpt lat="47.80597" lon="-3.527">
        <ele>19.721906661987</ele>
        <time>2012-08-16T09:14:52Z</time>
      </trkpt>
      <trkpt lat="47.8061" lon="-3.52693">
        <ele>20.884420394898</ele>
        <time>2012-08-16T09:14:55Z</time>
      </trkpt>
      <trkpt lat="47.80635" lon="-3.52686">
        <ele>23.410009384155</ele>
        <time>2012-08-16T09:15:00Z</time>
      </trkpt>
      <trkpt lat="47.8064" lon="-3.52685">
        <ele>23.89139175415</ele>
        <time>2012-08-16T09:15:01Z</time>
      </trkpt>
      <trkpt lat="47.80654" lon="-3.52684">
        <ele>25.353422164917</ele>
        <time>2012-08-16T09:15:04Z</time>
      </trkpt>
      <trkpt lat="47.80674" lon="-3.52678">
        <ele>26.573886871338</ele>
        <time>2012-08-16T09:15:08Z</time>
      </trkpt>
      <trkpt lat="47.80691" lon="-3.52668">
        <ele>26.352157592773</ele>
        <time>2012-08-16T09:15:12Z</time>
      </trkpt>
      <trkpt lat="47.80703" lon="-3.52664">
        <ele>26.432912826538</ele>
        <time>2012-08-16T09:15:15Z</time>
      </trkpt>
      <trkpt lat="47.80717" lon="-3.52659">
        <ele>26.409557342529</ele>
        <time>2012-08-16T09:15:18Z</time>
      </trkpt>
      <trkpt lat="47.80727" lon="-3.52657">
        <ele>26.594970703125</ele>
        <time>2012-08-16T09:15:20Z</time>
      </trkpt>
      <trkpt lat="47.80743" lon="-3.52652">
        <ele>26.61446762085</ele>
        <time>2012-08-16T09:15:23Z</time>
      </trkpt>
      <trkpt lat="47.8076" lon="-3.52647">
        <ele>26.756076812744</ele>
        <time>2012-08-16T09:15:26Z</time>
      </trkpt>
      <trkpt lat="47.80768" lon="-3.52642">
        <ele>26.433992385864</ele>
        <time>2012-08-16T09:15:28Z</time>
      </trkpt>
      <trkpt lat="47.80782" lon="-3.5263">
        <ele>25.283624649048</ele>
        <time>2012-08-16T09:15:33Z</time>
      </trkpt>
      <trkpt lat="47.80806" lon="-3.52615">
        <ele>24.157676696777</ele>
        <time>2012-08-16T09:15:39Z</time>
      </trkpt>
      <trkpt lat="47.80811" lon="-3.52614">
        <ele>24.153121948242</ele>
        <time>2012-08-16T09:15:40Z</time>
      </trkpt>
      <trkpt lat="47.80834" lon="-3.52604">
        <ele>23.538686752319</ele>
        <time>2012-08-16T09:15:44Z</time>
      </trkpt>
      <trkpt lat="47.80866" lon="-3.52591">
        <ele>22.995363235474</ele>
        <time>2012-08-16T09:15:50Z</time>
      </trkpt>
      <trkpt lat="47.80885" lon="-3.52583">
        <ele>23.073583602905</ele>
        <time>2012-08-16T09:15:54Z</time>
      </trkpt>
      <trkpt lat="47.80905" lon="-3.5259">
        <ele>24.841997146606</ele>
        <time>2012-08-16T09:15:59Z</time>
      </trkpt>
      <trkpt lat="47.80913" lon="-3.526">
        <ele>26.074449539185</ele>
        <time>2012-08-16T09:16:02Z</time>
      </trkpt>
      <trkpt lat="47.80914" lon="-3.52603">
        <ele>26.322998046875</ele>
        <time>2012-08-16T09:16:03Z</time>
      </trkpt>
      <trkpt lat="47.80935" lon="-3.52631">
        <ele>25.143398284912</ele>
        <time>2012-08-16T09:16:10Z</time>
      </trkpt>
      <trkpt lat="47.80946" lon="-3.52651">
        <ele>24.451107025146</ele>
        <time>2012-08-16T09:16:15Z</time>
      </trkpt>
      <trkpt lat="47.80956" lon="-3.52669">
        <ele>24.208148956299</ele>
        <time>2012-08-16T09:16:20Z</time>
      </trkpt>
      <trkpt lat="47.80962" lon="-3.52692">
        <ele>26.196989059448</ele>
        <time>2012-08-16T09:16:25Z</time>
      </trkpt>
      <trkpt lat="47.80964" lon="-3.52709">
        <ele>27.990678787231</ele>
        <time>2012-08-16T09:16:29Z</time>
      </trkpt>
      <trkpt lat="47.80965" lon="-3.52724">
        <ele>29.645395278931</ele>
        <time>2012-08-16T09:16:33Z</time>
      </trkpt>
      <trkpt lat="47.8097" lon="-3.52734">
        <ele>30.267416000366</ele>
        <time>2012-08-16T09:16:36Z</time>
      </trkpt>
      <trkpt lat="47.80974" lon="-3.52753">
        <ele>31.991510391235</ele>
        <time>2012-08-16T09:16:42Z</time>
      </trkpt>
      <trkpt lat="47.8098" lon="-3.52769">
        <ele>32.47681427002</ele>
        <time>2012-08-16T09:16:47Z</time>
      </trkpt>
      <trkpt lat="47.80987" lon="-3.52785">
        <ele>32.923069000244</ele>
        <time>2012-08-16T09:16:52Z</time>
      </trkpt>
      <trkpt lat="47.80991" lon="-3.52798">
        <ele>33.629920959473</ele>
        <time>2012-08-16T09:16:56Z</time>
      </trkpt>
      <trkpt lat="47.80996" lon="-3.52822">
        <ele>35.368907928467</ele>
        <time>2012-08-16T09:17:02Z</time>
      </trkpt>
      <trkpt lat="47.81" lon="-3.52842">
        <ele>36.597450256348</ele>
        <time>2012-08-16T09:17:07Z</time>
      </trkpt>
      <trkpt lat="47.81001" lon="-3.52863">
        <ele>37.779541015625</ele>
        <time>2012-08-16T09:17:12Z</time>
      </trkpt>
      <trkpt lat="47.80997" lon="-3.52882">
        <ele>39.750007629395</ele>
        <time>2012-08-16T09:17:17Z</time>
      </trkpt>
      <trkpt lat="47.80991" lon="-3.52897">
        <ele>41.111072540283</ele>
        <time>2012-08-16T09:17:21Z</time>
      </trkpt>
      <trkpt lat="47.80983" lon="-3.52908">
        <ele>42.320236206055</ele>
        <time>2012-08-16T09:17:25Z</time>
      </trkpt>
      <trkpt lat="47.8097" lon="-3.52921">
        <ele>43.581287384033</ele>
        <time>2012-08-16T09:17:30Z</time>
      </trkpt>
      <trkpt lat="47.80959" lon="-3.52934">
        <ele>44.502025604248</ele>
        <time>2012-08-16T09:17:35Z</time>
      </trkpt>
      <trkpt lat="47.80944" lon="-3.52949">
        <ele>45.603130340576</ele>
        <time>2012-08-16T09:17:40Z</time>
      </trkpt>
      <trkpt lat="47.80931" lon="-3.52959">
        <ele>46.395904541016</ele>
        <time>2012-08-16T09:17:45Z</time>
      </trkpt>
      <trkpt lat="47.80918" lon="-3.52972">
        <ele>47.257808685303</ele>
        <time>2012-08-16T09:17:50Z</time>
      </trkpt>
      <trkpt lat="47.80908" lon="-3.52983">
        <ele>47.812538146973</ele>
        <time>2012-08-16T09:17:54Z</time>
      </trkpt>
      <trkpt lat="47.80895" lon="-3.52998">
        <ele>48.476753234863</ele>
        <time>2012-08-16T09:17:59Z</time>
      </trkpt>
      <trkpt lat="47.8088" lon="-3.53013">
        <ele>49.275001525879</ele>
        <time>2012-08-16T09:18:03Z</time>
      </trkpt>
      <trkpt lat="47.80868" lon="-3.53036">
        <ele>50.27844619751</ele>
        <time>2012-08-16T09:18:08Z</time>
      </trkpt>
      <trkpt lat="47.80859" lon="-3.5306">
        <ele>51.316379547119</ele>
        <time>2012-08-16T09:18:13Z</time>
      </trkpt>
      <trkpt lat="47.80848" lon="-3.53089">
        <ele>52.575099945068</ele>
        <time>2012-08-16T09:18:19Z</time>
      </trkpt>
      <trkpt lat="47.80844" lon="-3.53104">
        <ele>53.052532196045</ele>
        <time>2012-08-16T09:18:22Z</time>
      </trkpt>
      <trkpt lat="47.80837" lon="-3.53129">
        <ele>53.906894683838</ele>
        <time>2012-08-16T09:18:27Z</time>
      </trkpt>
      <trkpt lat="47.80828" lon="-3.53151">
        <ele>54.685424804688</ele>
        <time>2012-08-16T09:18:32Z</time>
      </trkpt>
      <trkpt lat="47.80818" lon="-3.53177">
        <ele>54.596523284912</ele>
        <time>2012-08-16T09:18:38Z</time>
      </trkpt>
      <trkpt lat="47.80806" lon="-3.53196">
        <ele>53.675029754639</ele>
        <time>2012-08-16T09:18:42Z</time>
      </trkpt>
      <trkpt lat="47.80797" lon="-3.53213">
        <ele>52.913619995117</ele>
        <time>2012-08-16T09:18:46Z</time>
      </trkpt>
      <trkpt lat="47.80775" lon="-3.53238">
        <ele>51.99987411499</ele>
        <time>2012-08-16T09:18:53Z</time>
      </trkpt>
      <trkpt lat="47.80763" lon="-3.53251">
        <ele>51.651920318604</ele>
        <time>2012-08-16T09:18:57Z</time>
      </trkpt>
      <trkpt lat="47.80749" lon="-3.53262">
        <ele>51.390506744385</ele>
        <time>2012-08-16T09:19:01Z</time>
      </trkpt>
      <trkpt lat="47.80725" lon="-3.53282">
        <ele>49.427299499512</ele>
        <time>2012-08-16T09:19:06Z</time>
      </trkpt>
      <trkpt lat="47.80716" lon="-3.53304">
        <ele>48.434078216553</ele>
        <time>2012-08-16T09:19:10Z</time>
      </trkpt>
      <trkpt lat="47.80716" lon="-3.53332">
        <ele>47.629295349121</ele>
        <time>2012-08-16T09:19:14Z</time>
      </trkpt>
      <trkpt lat="47.80725" lon="-3.53358">
        <ele>46.823238372803</ele>
        <time>2012-08-16T09:19:18Z</time>
      </trkpt>
      <trkpt lat="47.80732" lon="-3.53369">
        <ele>46.507381439209</ele>
        <time>2012-08-16T09:19:20Z</time>
      </trkpt>
      <trkpt lat="47.80751" lon="-3.53396">
        <ele>45.760612487793</ele>
        <time>2012-08-16T09:19:25Z</time>
      </trkpt>
      <trkpt lat="47.80778" lon="-3.53438">
        <ele>45.340682983398</ele>
        <time>2012-08-16T09:19:32Z</time>
      </trkpt>
      <trkpt lat="47.80801" lon="-3.53478">
        <ele>46.243854522705</ele>
        <time>2012-08-16T09:19:38Z</time>
      </trkpt>
      <trkpt lat="47.80814" lon="-3.53497">
        <ele>46.999000549316</ele>
        <time>2012-08-16T09:19:41Z</time>
      </trkpt>
      <trkpt lat="47.80833" lon="-3.53529">
        <ele>47.96826171875</ele>
        <time>2012-08-16T09:19:46Z</time>
      </trkpt>
      <trkpt lat="47.80843" lon="-3.53545">
        <ele>48.181854248047</ele>
        <time>2012-08-16T09:19:48Z</time>
      </trkpt>
      <trkpt lat="47.80865" lon="-3.53586">
        <ele>49.177185058594</ele>
        <time>2012-08-16T09:19:54Z</time>
      </trkpt>
      <trkpt lat="47.80877" lon="-3.53606">
        <ele>49.953956604004</ele>
        <time>2012-08-16T09:19:58Z</time>
      </trkpt>
      <trkpt lat="47.8089" lon="-3.53628">
        <ele>50.762649536133</ele>
        <time>2012-08-16T09:20:03Z</time>
      </trkpt>
      <trkpt lat="47.80898" lon="-3.53637">
        <ele>51.100688934326</ele>
        <time>2012-08-16T09:20:05Z</time>
      </trkpt>
      <trkpt lat="47.80915" lon="-3.53654">
        <ele>51.81867980957</ele>
        <time>2012-08-16T09:20:09Z</time>
      </trkpt>
      <trkpt lat="47.80943" lon="-3.53684">
        <ele>51.784454345703</ele>
        <time>2012-08-16T09:20:15Z</time>
      </trkpt>
      <trkpt lat="47.80952" lon="-3.53693">
        <ele>51.569305419922</ele>
        <time>2012-08-16T09:20:17Z</time>
      </trkpt>
      <trkpt lat="47.80968" lon="-3.53712">
        <ele>51.0634765625</ele>
        <time>2012-08-16T09:20:21Z</time>
      </trkpt>
      <trkpt lat="47.80994" lon="-3.53743">
        <ele>50.178848266602</ele>
        <time>2012-08-16T09:20:27Z</time>
      </trkpt>
      <trkpt lat="47.81022" lon="-3.53776">
        <ele>49.415481567383</ele>
        <time>2012-08-16T09:20:33Z</time>
      </trkpt>
      <trkpt lat="47.81053" lon="-3.53816">
        <ele>48.768898010254</ele>
        <time>2012-08-16T09:20:40Z</time>
      </trkpt>
      <trkpt lat="47.81079" lon="-3.53849">
        <ele>48.357933044434</ele>
        <time>2012-08-16T09:20:45Z</time>
      </trkpt>
      <trkpt lat="47.81109" lon="-3.53889">
        <ele>46.979248046875</ele>
        <time>2012-08-16T09:20:51Z</time>
      </trkpt>
      <trkpt lat="47.81141" lon="-3.53933">
        <ele>46</ele>
        <time>2012-08-16T09:20:58Z</time>
      </trkpt>
      <trkpt lat="47.81145" lon="-3.53939">
        <ele>46</ele>
        <time>2012-08-16T09:20:59Z</time>
      </trkpt>
      <trkpt lat="47.81176" lon="-3.53978">
        <ele>45.805110931396</ele>
        <time>2012-08-16T09:21:06Z</time>
      </trkpt>
      <trkpt lat="47.812" lon="-3.54014">
        <ele>45.345916748047</ele>
        <time>2012-08-16T09:21:12Z</time>
      </trkpt>
      <trkpt lat="47.81204" lon="-3.54021">
        <ele>45.332122802734</ele>
        <time>2012-08-16T09:21:13Z</time>
      </trkpt>
      <trkpt lat="47.81239" lon="-3.54064">
        <ele>45.590579986572</ele>
        <time>2012-08-16T09:21:20Z</time>
      </trkpt>
      <trkpt lat="47.81266" lon="-3.54092">
        <ele>46.572444915771</ele>
        <time>2012-08-16T09:21:26Z</time>
      </trkpt>
      <trkpt lat="47.81282" lon="-3.54105">
        <ele>47.407691955566</ele>
        <time>2012-08-16T09:21:30Z</time>
      </trkpt>
      <trkpt lat="47.8132" lon="-3.54131">
        <ele>50.15909576416</ele>
        <time>2012-08-16T09:21:37Z</time>
      </trkpt>
      <trkpt lat="47.81337" lon="-3.54139">
        <ele>51.248264312744</ele>
        <time>2012-08-16T09:21:41Z</time>
      </trkpt>
      <trkpt lat="47.81346" lon="-3.54143">
        <ele>51.179656982422</ele>
        <time>2012-08-16T09:21:43Z</time>
      </trkpt>
      <trkpt lat="47.81363" lon="-3.54146">
        <ele>50.859859466553</ele>
        <time>2012-08-16T09:21:47Z</time>
      </trkpt>
      <trkpt lat="47.81384" lon="-3.54154">
        <ele>50.608520507812</ele>
        <time>2012-08-16T09:21:52Z</time>
      </trkpt>
      <trkpt lat="47.81389" lon="-3.54167">
        <ele>50.975067138672</ele>
        <time>2012-08-16T09:21:54Z</time>
      </trkpt>
      <trkpt lat="47.81401" lon="-3.54207">
        <ele>49.405960083008</ele>
        <time>2012-08-16T09:21:59Z</time>
      </trkpt>
      <trkpt lat="47.8141" lon="-3.54228">
        <ele>48.65869140625</ele>
        <time>2012-08-16T09:22:02Z</time>
      </trkpt>
      <trkpt lat="47.81419" lon="-3.54246">
        <ele>48.132247924805</ele>
        <time>2012-08-16T09:22:05Z</time>
      </trkpt>
      <trkpt lat="47.81432" lon="-3.54282">
        <ele>48.455657958984</ele>
        <time>2012-08-16T09:22:10Z</time>
      </trkpt>
      <trkpt lat="47.81443" lon="-3.54311">
        <ele>49.551879882812</ele>
        <time>2012-08-16T09:22:15Z</time>
      </trkpt>
      <trkpt lat="47.81455" lon="-3.5433">
        <ele>51.042140960693</ele>
        <time>2012-08-16T09:22:21Z</time>
      </trkpt>
      <trkpt lat="47.81459" lon="-3.54336">
        <ele>51.586833953857</ele>
        <time>2012-08-16T09:22:23Z</time>
      </trkpt>
      <trkpt lat="47.81479" lon="-3.54358">
        <ele>54.245338439941</ele>
        <time>2012-08-16T09:22:30Z</time>
      </trkpt>
      <trkpt lat="47.81491" lon="-3.54382">
        <ele>56.088794708252</ele>
        <time>2012-08-16T09:22:35Z</time>
      </trkpt>
      <trkpt lat="47.81495" lon="-3.54393">
        <ele>56.792892456055</ele>
        <time>2012-08-16T09:22:37Z</time>
      </trkpt>
      <trkpt lat="47.81499" lon="-3.54403">
        <ele>57.574157714844</ele>
        <time>2012-08-16T09:22:39Z</time>
      </trkpt>
      <trkpt lat="47.81505" lon="-3.5442">
        <ele>58.217296600342</ele>
        <time>2012-08-16T09:22:42Z</time>
      </trkpt>
      <trkpt lat="47.81512" lon="-3.54442">
        <ele>58.171184539795</ele>
        <time>2012-08-16T09:22:47Z</time>
      </trkpt>
      <trkpt lat="47.81518" lon="-3.54444">
        <ele>58.543853759766</ele>
        <time>2012-08-16T09:22:50Z</time>
      </trkpt>
      <trkpt lat="47.81521" lon="-3.54456">
        <ele>58.551387786865</ele>
        <time>2012-08-16T09:22:54Z</time>
      </trkpt>
      <trkpt lat="47.81533" lon="-3.54474">
        <ele>59.125370025635</ele>
        <time>2012-08-16T09:22:59Z</time>
      </trkpt>
      <trkpt lat="47.81549" lon="-3.54489">
        <ele>60.195804595947</ele>
        <time>2012-08-16T09:23:03Z</time>
      </trkpt>
      <trkpt lat="47.81558" lon="-3.54499">
        <ele>60.870040893555</ele>
        <time>2012-08-16T09:23:06Z</time>
      </trkpt>
      <trkpt lat="47.81573" lon="-3.54509">
        <ele>62.055686950684</ele>
        <time>2012-08-16T09:23:11Z</time>
      </trkpt>
      <trkpt lat="47.81576" lon="-3.54512">
        <ele>62.246063232422</ele>
        <time>2012-08-16T09:23:12Z</time>
      </trkpt>
      <trkpt lat="47.81594" lon="-3.54534">
        <ele>62.586776733398</ele>
        <time>2012-08-16T09:23:18Z</time>
      </trkpt>
      <trkpt lat="47.8161" lon="-3.54555">
        <ele>62.334148406982</ele>
        <time>2012-08-16T09:23:23Z</time>
      </trkpt>
      <trkpt lat="47.81632" lon="-3.54589">
        <ele>61.945598602295</ele>
        <time>2012-08-16T09:23:29Z</time>
      </trkpt>
      <trkpt lat="47.81644" lon="-3.54609">
        <ele>61.640609741211</ele>
        <time>2012-08-16T09:23:32Z</time>
      </trkpt>
      <trkpt lat="47.81668" lon="-3.54649">
        <ele>60.277965545654</ele>
        <time>2012-08-16T09:23:38Z</time>
      </trkpt>
      <trkpt lat="47.81672" lon="-3.54657">
        <ele>59.630897521973</ele>
        <time>2012-08-16T09:23:39Z</time>
      </trkpt>
      <trkpt lat="47.81709" lon="-3.54706">
        <ele>52.594161987305</ele>
        <time>2012-08-16T09:23:45Z</time>
      </trkpt>
      <trkpt lat="47.81716" lon="-3.54714">
        <ele>51.12899017334</ele>
        <time>2012-08-16T09:23:46Z</time>
      </trkpt>
      <trkpt lat="47.81732" lon="-3.54748">
        <ele>46.578346252441</ele>
        <time>2012-08-16T09:23:50Z</time>
      </trkpt>
      <trkpt lat="47.81739" lon="-3.54752">
        <ele>45.264335632324</ele>
        <time>2012-08-16T09:23:54Z</time>
      </trkpt>
      <trkpt lat="47.81738" lon="-3.54741">
        <ele>46.264720916748</ele>
        <time>2012-08-16T09:23:56Z</time>
      </trkpt>
      <trkpt lat="47.81739" lon="-3.54713">
        <ele>48.47509765625</ele>
        <time>2012-08-16T09:24:02Z</time>
      </trkpt>
      <trkpt lat="47.81749" lon="-3.54691">
        <ele>49.080921173096</ele>
        <time>2012-08-16T09:24:08Z</time>
      </trkpt>
      <trkpt lat="47.81751" lon="-3.54688">
        <ele>49.095504760742</ele>
        <time>2012-08-16T09:24:09Z</time>
      </trkpt>
      <trkpt lat="47.81764" lon="-3.54672">
        <ele>49.586967468262</ele>
        <time>2012-08-16T09:24:14Z</time>
      </trkpt>
      <trkpt lat="47.8178" lon="-3.54653">
        <ele>49.329929351807</ele>
        <time>2012-08-16T09:24:18Z</time>
      </trkpt>
      <trkpt lat="47.81784" lon="-3.54649">
        <ele>49.199466705322</ele>
        <time>2012-08-16T09:24:19Z</time>
      </trkpt>
      <trkpt lat="47.818" lon="-3.5463">
        <ele>48.703365325928</ele>
        <time>2012-08-16T09:24:23Z</time>
      </trkpt>
      <trkpt lat="47.81806" lon="-3.54622">
        <ele>48.577194213867</ele>
        <time>2012-08-16T09:24:25Z</time>
      </trkpt>
      <trkpt lat="47.81817" lon="-3.54605">
        <ele>48.41926574707</ele>
        <time>2012-08-16T09:24:29Z</time>
      </trkpt>
      <trkpt lat="47.81829" lon="-3.54596">
        <ele>47.831325531006</ele>
        <time>2012-08-16T09:24:34Z</time>
      </trkpt>
      <trkpt lat="47.81835" lon="-3.54591">
        <ele>47.666076660156</ele>
        <time>2012-08-16T09:24:36Z</time>
      </trkpt>
      <trkpt lat="47.81847" lon="-3.54578">
        <ele>47.419326782227</ele>
        <time>2012-08-16T09:24:41Z</time>
      </trkpt>
      <trkpt lat="47.81856" lon="-3.54566">
        <ele>47.270095825195</ele>
        <time>2012-08-16T09:24:45Z</time>
      </trkpt>
      <trkpt lat="47.81865" lon="-3.54553">
        <ele>46.910820007324</ele>
        <time>2012-08-16T09:24:49Z</time>
      </trkpt>
      <trkpt lat="47.81879" lon="-3.54531">
        <ele>46.033836364746</ele>
        <time>2012-08-16T09:24:54Z</time>
      </trkpt>
      <trkpt lat="47.81897" lon="-3.54503">
        <ele>43.849224090576</ele>
        <time>2012-08-16T09:24:58Z</time>
      </trkpt>
      <trkpt lat="47.81913" lon="-3.54481">
        <ele>42.648082733154</ele>
        <time>2012-08-16T09:25:01Z</time>
      </trkpt>
      <trkpt lat="47.81935" lon="-3.54474">
        <ele>42.703887939453</ele>
        <time>2012-08-16T09:25:05Z</time>
      </trkpt>
      <trkpt lat="47.81939" lon="-3.54486">
        <ele>42.535259246826</ele>
        <time>2012-08-16T09:25:10Z</time>
      </trkpt>
      <trkpt lat="47.8193" lon="-3.54507">
        <ele>42.060325622559</ele>
        <time>2012-08-16T09:25:17Z</time>
      </trkpt>
      <trkpt lat="47.81927" lon="-3.54523">
        <ele>42.385326385498</ele>
        <time>2012-08-16T09:25:22Z</time>
      </trkpt>
      <trkpt lat="47.81926" lon="-3.54525">
        <ele>42.44055557251</ele>
        <time>2012-08-16T09:25:25Z</time>
      </trkpt>
      <trkpt lat="47.81928" lon="-3.54509">
        <ele>42.005802154541</ele>
        <time>2012-08-16T09:25:31Z</time>
      </trkpt>
      <trkpt lat="47.81931" lon="-3.54497">
        <ele>41.962387084961</ele>
        <time>2012-08-16T09:25:34Z</time>
      </trkpt>
      <trkpt lat="47.81943" lon="-3.54482">
        <ele>42.699649810791</ele>
        <time>2012-08-16T09:25:39Z</time>
      </trkpt>
      <trkpt lat="47.81947" lon="-3.54478">
        <ele>42.793823242188</ele>
        <time>2012-08-16T09:25:44Z</time>
      </trkpt>
      <trkpt lat="47.81947" lon="-3.54477">
        <ele>42.797698974609</ele>
        <time>2012-08-16T09:25:49Z</time>
      </trkpt>
      <trkpt lat="47.81963" lon="-3.54488">
        <ele>43.403480529785</ele>
        <time>2012-08-16T09:35:21Z</time>
      </trkpt>
      <trkpt lat="47.81964" lon="-3.54487">
        <ele>43.372505187988</ele>
        <time>2012-08-16T09:35:22Z</time>
      </trkpt>
      <trkpt lat="47.81964" lon="-3.54485">
        <ele>43.31489944458</ele>
        <time>2012-08-16T09:35:23Z</time>
      </trkpt>
      <trkpt lat="47.81968" lon="-3.5447">
        <ele>42.76639175415</ele>
        <time>2012-08-16T09:35:26Z</time>
      </trkpt>
      <trkpt lat="47.81979" lon="-3.54451">
        <ele>41.539031982422</ele>
        <time>2012-08-16T09:35:31Z</time>
      </trkpt>
      <trkpt lat="47.81989" lon="-3.5444">
        <ele>40.203105926514</ele>
        <time>2012-08-16T09:35:35Z</time>
      </trkpt>
      <trkpt lat="47.82005" lon="-3.54421">
        <ele>37.721832275391</ele>
        <time>2012-08-16T09:35:40Z</time>
      </trkpt>
      <trkpt lat="47.82018" lon="-3.54414">
        <ele>37.844715118408</ele>
        <time>2012-08-16T09:35:42Z</time>
      </trkpt>
      <trkpt lat="47.82031" lon="-3.54409">
        <ele>38.207809448242</ele>
        <time>2012-08-16T09:35:44Z</time>
      </trkpt>
      <trkpt lat="47.82066" lon="-3.54393">
        <ele>37.455192565918</ele>
        <time>2012-08-16T09:35:50Z</time>
      </trkpt>
      <trkpt lat="47.82077" lon="-3.54388">
        <ele>36.580917358398</ele>
        <time>2012-08-16T09:35:52Z</time>
      </trkpt>
      <trkpt lat="47.82104" lon="-3.54375">
        <ele>33.249050140381</ele>
        <time>2012-08-16T09:35:56Z</time>
      </trkpt>
      <trkpt lat="47.82137" lon="-3.54369">
        <ele>30.180976867676</ele>
        <time>2012-08-16T09:36:01Z</time>
      </trkpt>
      <trkpt lat="47.82143" lon="-3.54372">
        <ele>30.330497741699</ele>
        <time>2012-08-16T09:36:02Z</time>
      </trkpt>
      <trkpt lat="47.82154" lon="-3.54376">
        <ele>30.44907951355</ele>
        <time>2012-08-16T09:36:04Z</time>
      </trkpt>
      <trkpt lat="47.82196" lon="-3.54377">
        <ele>26.895713806152</ele>
        <time>2012-08-16T09:36:09Z</time>
      </trkpt>
      <trkpt lat="47.82229" lon="-3.54376">
        <ele>23.310497283936</ele>
        <time>2012-08-16T09:36:13Z</time>
      </trkpt>
      <trkpt lat="47.82237" lon="-3.54376">
        <ele>22.657571792602</ele>
        <time>2012-08-16T09:36:14Z</time>
      </trkpt>
      <trkpt lat="47.82266" lon="-3.54377">
        <ele>20.00422668457</ele>
        <time>2012-08-16T09:36:18Z</time>
      </trkpt>
      <trkpt lat="47.82293" lon="-3.54404">
        <ele>20.174659729004</ele>
        <time>2012-08-16T09:36:22Z</time>
      </trkpt>
      <trkpt lat="47.82305" lon="-3.54443">
        <ele>21.943895339966</ele>
        <time>2012-08-16T09:36:26Z</time>
      </trkpt>
      <trkpt lat="47.82317" lon="-3.54472">
        <ele>22.690608978271</ele>
        <time>2012-08-16T09:36:29Z</time>
      </trkpt>
      <trkpt lat="47.82329" lon="-3.54518">
        <ele>24.179374694824</ele>
        <time>2012-08-16T09:36:34Z</time>
      </trkpt>
      <trkpt lat="47.82337" lon="-3.54562">
        <ele>25.751091003418</ele>
        <time>2012-08-16T09:36:39Z</time>
      </trkpt>
      <trkpt lat="47.82341" lon="-3.54583">
        <ele>26.884365081787</ele>
        <time>2012-08-16T09:36:41Z</time>
      </trkpt>
      <trkpt lat="47.82355" lon="-3.54626">
        <ele>26.464538574219</ele>
        <time>2012-08-16T09:36:46Z</time>
      </trkpt>
      <trkpt lat="47.82356" lon="-3.54631">
        <ele>26.352777481079</ele>
        <time>2012-08-16T09:36:49Z</time>
      </trkpt>
      <trkpt lat="47.82358" lon="-3.54605">
        <ele>26.495611190796</ele>
        <time>2012-08-16T09:36:54Z</time>
      </trkpt>
      <trkpt lat="47.82364" lon="-3.54571">
        <ele>26.287376403809</ele>
        <time>2012-08-16T09:36:59Z</time>
      </trkpt>
      <trkpt lat="47.8237" lon="-3.54557">
        <ele>25.952970504761</ele>
        <time>2012-08-16T09:37:01Z</time>
      </trkpt>
      <trkpt lat="47.82386" lon="-3.54517">
        <ele>25.885904312134</ele>
        <time>2012-08-16T09:37:07Z</time>
      </trkpt>
      <trkpt lat="47.82388" lon="-3.54511">
        <ele>26.009124755859</ele>
        <time>2012-08-16T09:37:08Z</time>
      </trkpt>
      <trkpt lat="47.82395" lon="-3.54482">
        <ele>25.946514129639</ele>
        <time>2012-08-16T09:37:13Z</time>
      </trkpt>
      <trkpt lat="47.82396" lon="-3.54452">
        <ele>25.274875640869</ele>
        <time>2012-08-16T09:37:18Z</time>
      </trkpt>
      <trkpt lat="47.824" lon="-3.5442">
        <ele>25.099020004273</ele>
        <time>2012-08-16T09:37:24Z</time>
      </trkpt>
      <trkpt lat="47.824" lon="-3.5439">
        <ele>25.924890518189</ele>
        <time>2012-08-16T09:37:29Z</time>
      </trkpt>
      <trkpt lat="47.82398" lon="-3.54372">
        <ele>26.174421310425</ele>
        <time>2012-08-16T09:37:33Z</time>
      </trkpt>
      <trkpt lat="47.82395" lon="-3.54349">
        <ele>26.272062301636</ele>
        <time>2012-08-16T09:37:37Z</time>
      </trkpt>
      <trkpt lat="47.82384" lon="-3.54329">
        <ele>24.81600189209</ele>
        <time>2012-08-16T09:37:42Z</time>
      </trkpt>
      <trkpt lat="47.82378" lon="-3.54304">
        <ele>24.139236450195</ele>
        <time>2012-08-16T09:37:47Z</time>
      </trkpt>
      <trkpt lat="47.82367" lon="-3.54288">
        <ele>22.918460845947</ele>
        <time>2012-08-16T09:37:51Z</time>
      </trkpt>
      <trkpt lat="47.82364" lon="-3.54261">
        <ele>23.234502792358</ele>
        <time>2012-08-16T09:37:56Z</time>
      </trkpt>
      <trkpt lat="47.82375" lon="-3.54232">
        <ele>23.138496398926</ele>
        <time>2012-08-16T09:38:01Z</time>
      </trkpt>
      <trkpt lat="47.82388" lon="-3.54211">
        <ele>22.224187850952</ele>
        <time>2012-08-16T09:38:04Z</time>
      </trkpt>
      <trkpt lat="47.82412" lon="-3.54172">
        <ele>20.259265899658</ele>
        <time>2012-08-16T09:38:09Z</time>
      </trkpt>
      <trkpt lat="47.82448" lon="-3.54149">
        <ele>19.477159500122</ele>
        <time>2012-08-16T09:38:14Z</time>
      </trkpt>
      <trkpt lat="47.82496" lon="-3.54139">
        <ele>21.75966835022</ele>
        <time>2012-08-16T09:38:21Z</time>
      </trkpt>
      <trkpt lat="47.82509" lon="-3.54135">
        <ele>21.057298660278</ele>
        <time>2012-08-16T09:38:23Z</time>
      </trkpt>
      <trkpt lat="47.8252" lon="-3.54133">
        <ele>20.622146606445</ele>
        <time>2012-08-16T09:38:25Z</time>
      </trkpt>
      <trkpt lat="47.82545" lon="-3.54135">
        <ele>20.6136302948</ele>
        <time>2012-08-16T09:38:30Z</time>
      </trkpt>
      <trkpt lat="47.82566" lon="-3.54146">
        <ele>22.518535614014</ele>
        <time>2012-08-16T09:38:34Z</time>
      </trkpt>
      <trkpt lat="47.8258" lon="-3.54146">
        <ele>22.351188659668</ele>
        <time>2012-08-16T09:38:38Z</time>
      </trkpt>
      <trkpt lat="47.82586" lon="-3.54126">
        <ele>18.833093643189</ele>
        <time>2012-08-16T09:38:42Z</time>
      </trkpt>
      <trkpt lat="47.82601" lon="-3.54117">
        <ele>17.816919326782</ele>
        <time>2012-08-16T09:38:45Z</time>
      </trkpt>
      <trkpt lat="47.82612" lon="-3.54116">
        <ele>18.284914016724</ele>
        <time>2012-08-16T09:38:47Z</time>
      </trkpt>
      <trkpt lat="47.82642" lon="-3.54116">
        <ele>19.767107009888</ele>
        <time>2012-08-16T09:38:53Z</time>
      </trkpt>
      <trkpt lat="47.82663" lon="-3.54119">
        <ele>21.309720993042</ele>
        <time>2012-08-16T09:38:57Z</time>
      </trkpt>
      <trkpt lat="47.82685" lon="-3.54122">
        <ele>22.336013793945</ele>
        <time>2012-08-16T09:39:01Z</time>
      </trkpt>
      <trkpt lat="47.82714" lon="-3.54122">
        <ele>22.233016967773</ele>
        <time>2012-08-16T09:39:06Z</time>
      </trkpt>
      <trkpt lat="47.82729" lon="-3.54123">
        <ele>22.467620849609</ele>
        <time>2012-08-16T09:39:09Z</time>
      </trkpt>
      <trkpt lat="47.82761" lon="-3.54127">
        <ele>23.030853271484</ele>
        <time>2012-08-16T09:39:16Z</time>
      </trkpt>
      <trkpt lat="47.8278" lon="-3.54127">
        <ele>22.433431625366</ele>
        <time>2012-08-16T09:39:20Z</time>
      </trkpt>
      <trkpt lat="47.82792" lon="-3.54132">
        <ele>23.342779159546</ele>
        <time>2012-08-16T09:39:23Z</time>
      </trkpt>
      <trkpt lat="47.82804" lon="-3.54136">
        <ele>24.124485015869</ele>
        <time>2012-08-16T09:39:26Z</time>
      </trkpt>
      <trkpt lat="47.82827" lon="-3.54141">
        <ele>24.807411193848</ele>
        <time>2012-08-16T09:39:30Z</time>
      </trkpt>
      <trkpt lat="47.82852" lon="-3.54144">
        <ele>24.368171691894</ele>
        <time>2012-08-16T09:39:35Z</time>
      </trkpt>
      <trkpt lat="47.82861" lon="-3.54145">
        <ele>24.271879196167</ele>
        <time>2012-08-16T09:39:37Z</time>
      </trkpt>
      <trkpt lat="47.82869" lon="-3.54147">
        <ele>24.404817581177</ele>
        <time>2012-08-16T09:39:39Z</time>
      </trkpt>
      <trkpt lat="47.82876" lon="-3.54148">
        <ele>24.290098190308</ele>
        <time>2012-08-16T09:39:41Z</time>
      </trkpt>
      <trkpt lat="47.82891" lon="-3.54155">
        <ele>25.164459228516</ele>
        <time>2012-08-16T09:39:45Z</time>
      </trkpt>
      <trkpt lat="47.82908" lon="-3.5417">
        <ele>27.321041107178</ele>
        <time>2012-08-16T09:39:50Z</time>
      </trkpt>
      <trkpt lat="47.82922" lon="-3.54171">
        <ele>26.805158615112</ele>
        <time>2012-08-16T09:39:53Z</time>
      </trkpt>
      <trkpt lat="47.82939" lon="-3.54176">
        <ele>26.948106765747</ele>
        <time>2012-08-16T09:39:57Z</time>
      </trkpt>
      <trkpt lat="47.82963" lon="-3.54179">
        <ele>26.089673995972</ele>
        <time>2012-08-16T09:40:02Z</time>
      </trkpt>
      <trkpt lat="47.82967" lon="-3.54178">
        <ele>25.643043518066</ele>
        <time>2012-08-16T09:40:03Z</time>
      </trkpt>
      <trkpt lat="47.82982" lon="-3.54179">
        <ele>24.994007110596</ele>
        <time>2012-08-16T09:40:06Z</time>
      </trkpt>
      <trkpt lat="47.83006" lon="-3.54176">
        <ele>23.120506286621</ele>
        <time>2012-08-16T09:40:11Z</time>
      </trkpt>
      <trkpt lat="47.83028" lon="-3.54175">
        <ele>23.332696914673</ele>
        <time>2012-08-16T09:40:15Z</time>
      </trkpt>
      <trkpt lat="47.83052" lon="-3.54169">
        <ele>22.505023956299</ele>
        <time>2012-08-16T09:40:20Z</time>
      </trkpt>
      <trkpt lat="47.83061" lon="-3.54169">
        <ele>22.766925811768</ele>
        <time>2012-08-16T09:40:22Z</time>
      </trkpt>
      <trkpt lat="47.83073" lon="-3.5417">
        <ele>23.578603744507</ele>
        <time>2012-08-16T09:40:24Z</time>
      </trkpt>
      <trkpt lat="47.83087" lon="-3.54169">
        <ele>23.90585899353</ele>
        <time>2012-08-16T09:40:26Z</time>
      </trkpt>
      <trkpt lat="47.83111" lon="-3.54167">
        <ele>25.180395126343</ele>
        <time>2012-08-16T09:40:30Z</time>
      </trkpt>
      <trkpt lat="47.83141" lon="-3.54163">
        <ele>26.279703140259</ele>
        <time>2012-08-16T09:40:35Z</time>
      </trkpt>
      <trkpt lat="47.83157" lon="-3.54163">
        <ele>27.459625244141</ele>
        <time>2012-08-16T09:40:38Z</time>
      </trkpt>
      <trkpt lat="47.83174" lon="-3.54164">
        <ele>28.557640075684</ele>
        <time>2012-08-16T09:40:41Z</time>
      </trkpt>
      <trkpt lat="47.83186" lon="-3.54161">
        <ele>28.250583648682</ele>
        <time>2012-08-16T09:40:44Z</time>
      </trkpt>
      <trkpt lat="47.83207" lon="-3.5416">
        <ele>28.68864440918</ele>
        <time>2012-08-16T09:40:49Z</time>
      </trkpt>
      <trkpt lat="47.83225" lon="-3.54148">
        <ele>26.593759536743</ele>
        <time>2012-08-16T09:40:53Z</time>
      </trkpt>
      <trkpt lat="47.83243" lon="-3.54141">
        <ele>25.544055938721</ele>
        <time>2012-08-16T09:40:56Z</time>
      </trkpt>
      <trkpt lat="47.83253" lon="-3.54134">
        <ele>24.500045776367</ele>
        <time>2012-08-16T09:40:58Z</time>
      </trkpt>
      <trkpt lat="47.83263" lon="-3.5413">
        <ele>23.929061889648</ele>
        <time>2012-08-16T09:41:00Z</time>
      </trkpt>
      <trkpt lat="47.83279" lon="-3.54124">
        <ele>23.561115264893</ele>
        <time>2012-08-16T09:41:03Z</time>
      </trkpt>
      <trkpt lat="47.83295" lon="-3.54117">
        <ele>23.063730239868</ele>
        <time>2012-08-16T09:41:06Z</time>
      </trkpt>
      <trkpt lat="47.83319" lon="-3.54113">
        <ele>23.663623809814</ele>
        <time>2012-08-16T09:41:11Z</time>
      </trkpt>
      <trkpt lat="47.83327" lon="-3.54111">
        <ele>23.4909324646</ele>
        <time>2012-08-16T09:41:13Z</time>
      </trkpt>
      <trkpt lat="47.83363" lon="-3.54089">
        <ele>21.444259643555</ele>
        <time>2012-08-16T09:41:20Z</time>
      </trkpt>
      <trkpt lat="47.83368" lon="-3.54086">
        <ele>21.092702865601</ele>
        <time>2012-08-16T09:41:21Z</time>
      </trkpt>
      <trkpt lat="47.83389" lon="-3.54081">
        <ele>21.851902008057</ele>
        <time>2012-08-16T09:41:25Z</time>
      </trkpt>
      <trkpt lat="47.83414" lon="-3.54072">
        <ele>22.394769668579</ele>
        <time>2012-08-16T09:41:30Z</time>
      </trkpt>
      <trkpt lat="47.83423" lon="-3.54067">
        <ele>21.892061233521</ele>
        <time>2012-08-16T09:41:32Z</time>
      </trkpt>
      <trkpt lat="47.83438" lon="-3.54065">
        <ele>22.187753677368</ele>
        <time>2012-08-16T09:41:35Z</time>
      </trkpt>
      <trkpt lat="47.83457" lon="-3.54066">
        <ele>23.659395217896</ele>
        <time>2012-08-16T09:41:40Z</time>
      </trkpt>
      <trkpt lat="47.83487" lon="-3.54065">
        <ele>25.02600479126</ele>
        <time>2012-08-16T09:41:46Z</time>
      </trkpt>
      <trkpt lat="47.83498" lon="-3.54065">
        <ele>25.881212234497</ele>
        <time>2012-08-16T09:41:48Z</time>
      </trkpt>
      <trkpt lat="47.8352" lon="-3.54058">
        <ele>25.101673126221</ele>
        <time>2012-08-16T09:41:52Z</time>
      </trkpt>
      <trkpt lat="47.83541" lon="-3.54056">
        <ele>25.75532913208</ele>
        <time>2012-08-16T09:41:56Z</time>
      </trkpt>
      <trkpt lat="47.83551" lon="-3.54051">
        <ele>24.972537994385</ele>
        <time>2012-08-16T09:41:58Z</time>
      </trkpt>
      <trkpt lat="47.83565" lon="-3.5405">
        <ele>25.386789321899</ele>
        <time>2012-08-16T09:42:02Z</time>
      </trkpt>
      <trkpt lat="47.836" lon="-3.54034">
        <ele>23.124216079712</ele>
        <time>2012-08-16T09:42:09Z</time>
      </trkpt>
      <trkpt lat="47.83609" lon="-3.54026">
        <ele>21.870525360107</ele>
        <time>2012-08-16T09:42:11Z</time>
      </trkpt>
      <trkpt lat="47.83617" lon="-3.54021">
        <ele>21.14334487915</ele>
        <time>2012-08-16T09:42:13Z</time>
      </trkpt>
      <trkpt lat="47.83646" lon="-3.54012">
        <ele>21.796739578247</ele>
        <time>2012-08-16T09:42:19Z</time>
      </trkpt>
      <trkpt lat="47.8367" lon="-3.54006">
        <ele>22.462331771851</ele>
        <time>2012-08-16T09:42:24Z</time>
      </trkpt>
      <trkpt lat="47.83683" lon="-3.54002">
        <ele>21.891574859619</ele>
        <time>2012-08-16T09:42:29Z</time>
      </trkpt>
      <trkpt lat="47.83704" lon="-3.53989">
        <ele>20.179462432861</ele>
        <time>2012-08-16T09:42:35Z</time>
      </trkpt>
      <trkpt lat="47.83708" lon="-3.53987">
        <ele>19.971607208252</ele>
        <time>2012-08-16T09:42:36Z</time>
      </trkpt>
      <trkpt lat="47.83731" lon="-3.53984">
        <ele>20.226135253906</ele>
        <time>2012-08-16T09:42:41Z</time>
      </trkpt>
      <trkpt lat="47.83739" lon="-3.53969">
        <ele>18.386095046997</ele>
        <time>2012-08-16T09:42:45Z</time>
      </trkpt>
      <trkpt lat="47.83741" lon="-3.53957">
        <ele>16.849323272705</ele>
        <time>2012-08-16T09:42:47Z</time>
      </trkpt>
      <trkpt lat="47.8375" lon="-3.5394">
        <ele>15.070108413696</ele>
        <time>2012-08-16T09:42:50Z</time>
      </trkpt>
      <trkpt lat="47.8376" lon="-3.53935">
        <ele>15.703335762024</ele>
        <time>2012-08-16T09:42:53Z</time>
      </trkpt>
      <trkpt lat="47.83768" lon="-3.53928">
        <ele>16.024374008179</ele>
        <time>2012-08-16T09:42:56Z</time>
      </trkpt>
      <trkpt lat="47.83791" lon="-3.5392">
        <ele>18.748168945312</ele>
        <time>2012-08-16T09:43:01Z</time>
      </trkpt>
      <trkpt lat="47.83801" lon="-3.53924">
        <ele>20.480470657349</ele>
        <time>2012-08-16T09:43:03Z</time>
      </trkpt>
      <trkpt lat="47.83815" lon="-3.53923">
        <ele>22.630226135254</ele>
        <time>2012-08-16T09:43:08Z</time>
      </trkpt>
      <trkpt lat="47.8382" lon="-3.53903">
        <ele>21.267421722412</ele>
        <time>2012-08-16T09:43:11Z</time>
      </trkpt>
      <trkpt lat="47.83824" lon="-3.53867">
        <ele>17.660617828369</ele>
        <time>2012-08-16T09:43:15Z</time>
      </trkpt>
      <trkpt lat="47.83834" lon="-3.53829">
        <ele>14.767765045166</ele>
        <time>2012-08-16T09:43:20Z</time>
      </trkpt>
      <trkpt lat="47.83838" lon="-3.53806">
        <ele>14.110912322998</ele>
        <time>2012-08-16T09:43:24Z</time>
      </trkpt>
      <trkpt lat="47.83842" lon="-3.53791">
        <ele>14.211546897888</ele>
        <time>2012-08-16T09:43:27Z</time>
      </trkpt>
      <trkpt lat="47.83859" lon="-3.53762">
        <ele>15.715291023254</ele>
        <time>2012-08-16T09:43:34Z</time>
      </trkpt>
      <trkpt lat="47.83871" lon="-3.53745">
        <ele>16.593856811523</ele>
        <time>2012-08-16T09:43:38Z</time>
      </trkpt>
      <trkpt lat="47.83883" lon="-3.53729">
        <ele>17.071043014526</ele>
        <time>2012-08-16T09:43:43Z</time>
      </trkpt>
      <trkpt lat="47.83891" lon="-3.53717">
        <ele>17.036664962769</ele>
        <time>2012-08-16T09:43:47Z</time>
      </trkpt>
      <trkpt lat="47.83894" lon="-3.53715">
        <ele>17.299657821655</ele>
        <time>2012-08-16T09:43:48Z</time>
      </trkpt>
      <trkpt lat="47.8391" lon="-3.53705">
        <ele>18.429153442383</ele>
        <time>2012-08-16T09:43:54Z</time>
      </trkpt>
      <trkpt lat="47.83916" lon="-3.53701">
        <ele>18.731475830078</ele>
        <time>2012-08-16T09:43:56Z</time>
      </trkpt>
      <trkpt lat="47.83939" lon="-3.53689">
        <ele>20.886335372925</ele>
        <time>2012-08-16T09:44:02Z</time>
      </trkpt>
      <trkpt lat="47.83953" lon="-3.53678">
        <ele>21.889970779419</ele>
        <time>2012-08-16T09:44:06Z</time>
      </trkpt>
      <trkpt lat="47.83961" lon="-3.53662">
        <ele>20.965326309204</ele>
        <time>2012-08-16T09:44:10Z</time>
      </trkpt>
      <trkpt lat="47.83968" lon="-3.53631">
        <ele>19.305965423584</ele>
        <time>2012-08-16T09:44:16Z</time>
      </trkpt>
      <trkpt lat="47.83968" lon="-3.53614">
        <ele>17.604112625122</ele>
        <time>2012-08-16T09:44:20Z</time>
      </trkpt>
      <trkpt lat="47.83972" lon="-3.53599">
        <ele>16.781969070435</ele>
        <time>2012-08-16T09:44:24Z</time>
      </trkpt>
      <trkpt lat="47.83987" lon="-3.5357">
        <ele>16.731657028198</ele>
        <time>2012-08-16T09:44:31Z</time>
      </trkpt>
      <trkpt lat="47.8399" lon="-3.53562">
        <ele>16.686323165894</ele>
        <time>2012-08-16T09:44:34Z</time>
      </trkpt>
      <trkpt lat="47.84004" lon="-3.53552">
        <ele>18.236616134644</ele>
        <time>2012-08-16T09:44:39Z</time>
      </trkpt>
      <trkpt lat="47.8402" lon="-3.53542">
        <ele>20.731502532959</ele>
        <time>2012-08-16T09:44:45Z</time>
      </trkpt>
      <trkpt lat="47.84031" lon="-3.53536">
        <ele>22.395980834961</ele>
        <time>2012-08-16T09:44:50Z</time>
      </trkpt>
      <trkpt lat="47.84044" lon="-3.53529">
        <ele>24.20237159729</ele>
        <time>2012-08-16T09:44:55Z</time>
      </trkpt>
      <trkpt lat="47.84046" lon="-3.53528">
        <ele>24.567724227905</ele>
        <time>2012-08-16T09:44:56Z</time>
      </trkpt>
      <trkpt lat="47.84058" lon="-3.53515">
        <ele>25.408586502075</ele>
        <time>2012-08-16T09:45:02Z</time>
      </trkpt>
      <trkpt lat="47.84071" lon="-3.53499">
        <ele>25.503917694092</ele>
        <time>2012-08-16T09:45:08Z</time>
      </trkpt>
      <trkpt lat="47.84078" lon="-3.53484">
        <ele>24.672605514526</ele>
        <time>2012-08-16T09:45:13Z</time>
      </trkpt>
      <trkpt lat="47.84087" lon="-3.53467">
        <ele>23.474962234497</ele>
        <time>2012-08-16T09:45:18Z</time>
      </trkpt>
      <trkpt lat="47.84093" lon="-3.53457">
        <ele>23.034818649292</ele>
        <time>2012-08-16T09:45:22Z</time>
      </trkpt>
      <trkpt lat="47.84109" lon="-3.53455">
        <ele>25.529037475586</ele>
        <time>2012-08-16T09:45:27Z</time>
      </trkpt>
      <trkpt lat="47.84118" lon="-3.53455">
        <ele>27.229381561279</ele>
        <time>2012-08-16T09:45:32Z</time>
      </trkpt>
      <trkpt lat="47.84124" lon="-3.53457">
        <ele>28.513353347778</ele>
        <time>2012-08-16T09:45:35Z</time>
      </trkpt>
      <trkpt lat="47.84148" lon="-3.53456">
        <ele>32.657199859619</ele>
        <time>2012-08-16T09:45:40Z</time>
      </trkpt>
      <trkpt lat="47.84167" lon="-3.5345">
        <ele>34.728618621826</ele>
        <time>2012-08-16T09:45:45Z</time>
      </trkpt>
      <trkpt lat="47.84179" lon="-3.53437">
        <ele>33.136096954346</ele>
        <time>2012-08-16T09:45:49Z</time>
      </trkpt>
      <trkpt lat="47.84187" lon="-3.53425">
        <ele>31.563352584839</ele>
        <time>2012-08-16T09:45:51Z</time>
      </trkpt>
      <trkpt lat="47.84212" lon="-3.53401">
        <ele>29.386087417602</ele>
        <time>2012-08-16T09:45:54Z</time>
      </trkpt>
      <trkpt lat="47.84228" lon="-3.53382">
        <ele>26.972623825073</ele>
        <time>2012-08-16T09:45:56Z</time>
      </trkpt>
      <trkpt lat="47.84251" lon="-3.53351">
        <ele>23.122146606445</ele>
        <time>2012-08-16T09:45:59Z</time>
      </trkpt>
      <trkpt lat="47.84293" lon="-3.53288">
        <ele>17.074201583862</ele>
        <time>2012-08-16T09:46:05Z</time>
      </trkpt>
      <trkpt lat="47.84327" lon="-3.53262">
        <ele>15.03688621521</ele>
        <time>2012-08-16T09:46:09Z</time>
      </trkpt>
      <trkpt lat="47.84371" lon="-3.53249">
        <ele>16.571189880371</ele>
        <time>2012-08-16T09:46:13Z</time>
      </trkpt>
      <trkpt lat="47.8438" lon="-3.53246">
        <ele>17.083885192871</ele>
        <time>2012-08-16T09:46:14Z</time>
      </trkpt>
      <trkpt lat="47.84419" lon="-3.53219">
        <ele>17.471906661987</ele>
        <time>2012-08-16T09:46:19Z</time>
      </trkpt>
      <trkpt lat="47.84435" lon="-3.53197">
        <ele>16.363151550293</ele>
        <time>2012-08-16T09:46:22Z</time>
      </trkpt>
      <trkpt lat="47.84446" lon="-3.5317">
        <ele>14.443135261536</ele>
        <time>2012-08-16T09:46:25Z</time>
      </trkpt>
      <trkpt lat="47.84445" lon="-3.53135">
        <ele>15.180595397949</ele>
        <time>2012-08-16T09:46:29Z</time>
      </trkpt>
      <trkpt lat="47.84433" lon="-3.53127">
        <ele>14.193542480469</ele>
        <time>2012-08-16T09:46:32Z</time>
      </trkpt>
      <trkpt lat="47.84424" lon="-3.53118">
        <ele>13.566120147705</ele>
        <time>2012-08-16T09:46:34Z</time>
      </trkpt>
      <trkpt lat="47.84407" lon="-3.53099">
        <ele>12.387524604797</ele>
        <time>2012-08-16T09:46:37Z</time>
      </trkpt>
      <trkpt lat="47.84396" lon="-3.53084">
        <ele>11.709305763245</ele>
        <time>2012-08-16T09:46:39Z</time>
      </trkpt>
      <trkpt lat="47.84391" lon="-3.53076">
        <ele>11.712177276611</ele>
        <time>2012-08-16T09:46:40Z</time>
      </trkpt>
      <trkpt lat="47.8438" lon="-3.53062">
        <ele>11.295075416565</ele>
        <time>2012-08-16T09:46:42Z</time>
      </trkpt>
      <trkpt lat="47.84363" lon="-3.53034">
        <ele>10.483261108398</ele>
        <time>2012-08-16T09:46:46Z</time>
      </trkpt>
      <trkpt lat="47.8435" lon="-3.53012">
        <ele>9.3828620910644</ele>
        <time>2012-08-16T09:46:49Z</time>
      </trkpt>
      <trkpt lat="47.8434" lon="-3.52989">
        <ele>8.0498018264771</ele>
        <time>2012-08-16T09:46:52Z</time>
      </trkpt>
      <trkpt lat="47.84336" lon="-3.52953">
        <ele>7.5485558509827</ele>
        <time>2012-08-16T09:46:56Z</time>
      </trkpt>
      <trkpt lat="47.84339" lon="-3.52936">
        <ele>8.0295963287353</ele>
        <time>2012-08-16T09:46:58Z</time>
      </trkpt>
      <trkpt lat="47.84349" lon="-3.52904">
        <ele>9.18678855896</ele>
        <time>2012-08-16T09:47:03Z</time>
      </trkpt>
      <trkpt lat="47.84356" lon="-3.52891">
        <ele>9.6784906387329</ele>
        <time>2012-08-16T09:47:06Z</time>
      </trkpt>
      <trkpt lat="47.84371" lon="-3.52876">
        <ele>10.76411819458</ele>
        <time>2012-08-16T09:47:11Z</time>
      </trkpt>
      <trkpt lat="47.84376" lon="-3.52869">
        <ele>10.885873794556</ele>
        <time>2012-08-16T09:47:13Z</time>
      </trkpt>
      <trkpt lat="47.84393" lon="-3.52852">
        <ele>11.227579116821</ele>
        <time>2012-08-16T09:47:19Z</time>
      </trkpt>
      <trkpt lat="47.84405" lon="-3.52842">
        <ele>11.116077423096</ele>
        <time>2012-08-16T09:47:23Z</time>
      </trkpt>
      <trkpt lat="47.84417" lon="-3.5284">
        <ele>11.938325881958</ele>
        <time>2012-08-16T09:47:27Z</time>
      </trkpt>
      <trkpt lat="47.84428" lon="-3.52853">
        <ele>13.445611000061</ele>
        <time>2012-08-16T09:47:31Z</time>
      </trkpt>
      <trkpt lat="47.84448" lon="-3.52868">
        <ele>15.437214851379</ele>
        <time>2012-08-16T09:47:37Z</time>
      </trkpt>
      <trkpt lat="47.84462" lon="-3.5288">
        <ele>17.327199935913</ele>
        <time>2012-08-16T09:47:41Z</time>
      </trkpt>
      <trkpt lat="47.8448" lon="-3.52899">
        <ele>20.585556030273</ele>
        <time>2012-08-16T09:47:46Z</time>
      </trkpt>
      <trkpt lat="47.84491" lon="-3.52907">
        <ele>22.111309051514</ele>
        <time>2012-08-16T09:47:49Z</time>
      </trkpt>
      <trkpt lat="47.84509" lon="-3.52911">
        <ele>22.518997192383</ele>
        <time>2012-08-16T09:47:52Z</time>
      </trkpt>
      <trkpt lat="47.84521" lon="-3.52914">
        <ele>22.518711090088</ele>
        <time>2012-08-16T09:47:54Z</time>
      </trkpt>
      <trkpt lat="47.84541" lon="-3.52913">
        <ele>21.361713409424</ele>
        <time>2012-08-16T09:47:57Z</time>
      </trkpt>
      <trkpt lat="47.84558" lon="-3.52909">
        <ele>19.876842498779</ele>
        <time>2012-08-16T09:48:00Z</time>
      </trkpt>
      <trkpt lat="47.84578" lon="-3.52899">
        <ele>17.103939056396</ele>
        <time>2012-08-16T09:48:03Z</time>
      </trkpt>
      <trkpt lat="47.84604" lon="-3.52893">
        <ele>14.738233566284</ele>
        <time>2012-08-16T09:48:07Z</time>
      </trkpt>
      <trkpt lat="47.84615" lon="-3.52894">
        <ele>14.412294387817</ele>
        <time>2012-08-16T09:48:09Z</time>
      </trkpt>
      <trkpt lat="47.84641" lon="-3.5291">
        <ele>15.521869659424</ele>
        <time>2012-08-16T09:48:14Z</time>
      </trkpt>
      <trkpt lat="47.84647" lon="-3.52913">
        <ele>15.673564910889</ele>
        <time>2012-08-16T09:48:15Z</time>
      </trkpt>
      <trkpt lat="47.84671" lon="-3.52934">
        <ele>16.312747955322</ele>
        <time>2012-08-16T09:48:20Z</time>
      </trkpt>
      <trkpt lat="47.84684" lon="-3.52959">
        <ele>17.206125259399</ele>
        <time>2012-08-16T09:48:24Z</time>
      </trkpt>
      <trkpt lat="47.8469" lon="-3.52971">
        <ele>17.359245300293</ele>
        <time>2012-08-16T09:48:26Z</time>
      </trkpt>
      <trkpt lat="47.847" lon="-3.52991">
        <ele>17.62273979187</ele>
        <time>2012-08-16T09:48:29Z</time>
      </trkpt>
      <trkpt lat="47.84712" lon="-3.53033">
        <ele>19.497079849243</ele>
        <time>2012-08-16T09:48:35Z</time>
      </trkpt>
      <trkpt lat="47.84713" lon="-3.53039">
        <ele>19.766206741333</ele>
        <time>2012-08-16T09:48:36Z</time>
      </trkpt>
      <trkpt lat="47.84713" lon="-3.53062">
        <ele>22.045614242554</ele>
        <time>2012-08-16T09:48:41Z</time>
      </trkpt>
      <trkpt lat="47.84714" lon="-3.53084">
        <ele>23.910442352295</ele>
        <time>2012-08-16T09:48:46Z</time>
      </trkpt>
      <trkpt lat="47.84715" lon="-3.53087">
        <ele>24.06614112854</ele>
        <time>2012-08-16T09:48:47Z</time>
      </trkpt>
      <trkpt lat="47.84714" lon="-3.531">
        <ele>24.918712615967</ele>
        <time>2012-08-16T09:48:51Z</time>
      </trkpt>
      <trkpt lat="47.84713" lon="-3.53122">
        <ele>26.332954406738</ele>
        <time>2012-08-16T09:48:57Z</time>
      </trkpt>
      <trkpt lat="47.84715" lon="-3.53131">
        <ele>26.794998168945</ele>
        <time>2012-08-16T09:49:01Z</time>
      </trkpt>
      <trkpt lat="47.84713" lon="-3.53146">
        <ele>27.742336273193</ele>
        <time>2012-08-16T09:49:07Z</time>
      </trkpt>
      <trkpt lat="47.84707" lon="-3.5316">
        <ele>28.636720657349</ele>
        <time>2012-08-16T09:49:13Z</time>
      </trkpt>
      <trkpt lat="47.84703" lon="-3.53167">
        <ele>29.003952026367</ele>
        <time>2012-08-16T09:49:16Z</time>
      </trkpt>
      <trkpt lat="47.84697" lon="-3.5318">
        <ele>29.275419235229</ele>
        <time>2012-08-16T09:49:22Z</time>
      </trkpt>
      <trkpt lat="47.84688" lon="-3.53196">
        <ele>29.530349731445</ele>
        <time>2012-08-16T09:49:29Z</time>
      </trkpt>
      <trkpt lat="47.84692" lon="-3.53203">
        <ele>29.688163757324</ele>
        <time>2012-08-16T09:49:35Z</time>
      </trkpt>
      <trkpt lat="47.84697" lon="-3.53205">
        <ele>29.780675888061</ele>
        <time>2012-08-16T09:49:38Z</time>
      </trkpt>
      <trkpt lat="47.84708" lon="-3.53207">
        <ele>29.965202331543</ele>
        <time>2012-08-16T09:49:44Z</time>
      </trkpt>
      <trkpt lat="47.84721" lon="-3.53209">
        <ele>30.164928436279</ele>
        <time>2012-08-16T09:49:50Z</time>
      </trkpt>
      <trkpt lat="47.84726" lon="-3.53208">
        <ele>30.206672668457</ele>
        <time>2012-08-16T09:49:51Z</time>
      </trkpt>
      <trkpt lat="47.84738" lon="-3.53209">
        <ele>30.370946884155</ele>
        <time>2012-08-16T09:49:56Z</time>
      </trkpt>
      <trkpt lat="47.8475" lon="-3.5321">
        <ele>30.557956695557</ele>
        <time>2012-08-16T09:50:00Z</time>
      </trkpt>
      <trkpt lat="47.84761" lon="-3.53212">
        <ele>31.112537384033</ele>
        <time>2012-08-16T09:50:04Z</time>
      </trkpt>
      <trkpt lat="47.84775" lon="-3.53215">
        <ele>31.822011947632</ele>
        <time>2012-08-16T09:50:08Z</time>
      </trkpt>
      <trkpt lat="47.84794" lon="-3.53224">
        <ele>33.013229370117</ele>
        <time>2012-08-16T09:50:14Z</time>
      </trkpt>
      <trkpt lat="47.84809" lon="-3.53241">
        <ele>34.456317901611</ele>
        <time>2012-08-16T09:50:20Z</time>
      </trkpt>
      <trkpt lat="47.84824" lon="-3.5326">
        <ele>35.947360992432</ele>
        <time>2012-08-16T09:50:26Z</time>
      </trkpt>
      <trkpt lat="47.84839" lon="-3.53282">
        <ele>37.329696655273</ele>
        <time>2012-08-16T09:50:32Z</time>
      </trkpt>
      <trkpt lat="47.84847" lon="-3.53296">
        <ele>38.177135467529</ele>
        <time>2012-08-16T09:50:37Z</time>
      </trkpt>
      <trkpt lat="47.84856" lon="-3.53312">
        <ele>39.328151702881</ele>
        <time>2012-08-16T09:50:42Z</time>
      </trkpt>
      <trkpt lat="47.84874" lon="-3.53333">
        <ele>41.421977996826</ele>
        <time>2012-08-16T09:50:49Z</time>
      </trkpt>
      <trkpt lat="47.84885" lon="-3.53351">
        <ele>43.646728515625</ele>
        <time>2012-08-16T09:50:54Z</time>
      </trkpt>
      <trkpt lat="47.84896" lon="-3.53374">
        <ele>46.32299041748</ele>
        <time>2012-08-16T09:51:00Z</time>
      </trkpt>
      <trkpt lat="47.84896" lon="-3.53392">
        <ele>47.872772216797</ele>
        <time>2012-08-16T09:51:04Z</time>
      </trkpt>
      <trkpt lat="47.84887" lon="-3.53423">
        <ele>50.089046478271</ele>
        <time>2012-08-16T09:51:11Z</time>
      </trkpt>
      <trkpt lat="47.84879" lon="-3.53452">
        <ele>52.140727996826</ele>
        <time>2012-08-16T09:51:18Z</time>
      </trkpt>
      <trkpt lat="47.84874" lon="-3.53485">
        <ele>54.699573516846</ele>
        <time>2012-08-16T09:51:25Z</time>
      </trkpt>
      <trkpt lat="47.84878" lon="-3.53511">
        <ele>56.57975769043</ele>
        <time>2012-08-16T09:51:31Z</time>
      </trkpt>
      <trkpt lat="47.84888" lon="-3.53528">
        <ele>57.668090820312</ele>
        <time>2012-08-16T09:51:36Z</time>
      </trkpt>
      <trkpt lat="47.849" lon="-3.53549">
        <ele>58.952117919922</ele>
        <time>2012-08-16T09:51:42Z</time>
      </trkpt>
      <trkpt lat="47.84911" lon="-3.53569">
        <ele>60.162902832031</ele>
        <time>2012-08-16T09:51:48Z</time>
      </trkpt>
      <trkpt lat="47.84912" lon="-3.53572">
        <ele>60.367752075195</ele>
        <time>2012-08-16T09:51:49Z</time>
      </trkpt>
      <trkpt lat="47.84912" lon="-3.53594">
        <ele>61.026790618896</ele>
        <time>2012-08-16T09:51:54Z</time>
      </trkpt>
      <trkpt lat="47.84903" lon="-3.53623">
        <ele>61.303104400635</ele>
        <time>2012-08-16T09:52:00Z</time>
      </trkpt>
      <trkpt lat="47.84894" lon="-3.53651">
        <ele>61.703929901123</ele>
        <time>2012-08-16T09:52:06Z</time>
      </trkpt>
      <trkpt lat="47.84888" lon="-3.53679">
        <ele>62.337520599365</ele>
        <time>2012-08-16T09:52:12Z</time>
      </trkpt>
      <trkpt lat="47.84884" lon="-3.53704">
        <ele>62.980075836182</ele>
        <time>2012-08-16T09:52:18Z</time>
      </trkpt>
      <trkpt lat="47.84879" lon="-3.53719">
        <ele>63.304222106934</ele>
        <time>2012-08-16T09:52:22Z</time>
      </trkpt>
      <trkpt lat="47.84875" lon="-3.53739">
        <ele>63.749610900879</ele>
        <time>2012-08-16T09:52:27Z</time>
      </trkpt>
      <trkpt lat="47.84872" lon="-3.53781">
        <ele>64.181686401367</ele>
        <time>2012-08-16T09:52:36Z</time>
      </trkpt>
      <trkpt lat="47.84864" lon="-3.53815">
        <ele>64.640884399414</ele>
        <time>2012-08-16T09:52:43Z</time>
      </trkpt>
      <trkpt lat="47.84856" lon="-3.53835">
        <ele>65.138252258301</ele>
        <time>2012-08-16T09:52:47Z</time>
      </trkpt>
      <trkpt lat="47.84842" lon="-3.53865">
        <ele>65.293479919434</ele>
        <time>2012-08-16T09:52:52Z</time>
      </trkpt>
      <trkpt lat="47.84817" lon="-3.53896">
        <ele>65.057800292969</ele>
        <time>2012-08-16T09:52:58Z</time>
      </trkpt>
      <trkpt lat="47.84802" lon="-3.5392">
        <ele>64.665603637695</ele>
        <time>2012-08-16T09:53:02Z</time>
      </trkpt>
      <trkpt lat="47.84775" lon="-3.53969">
        <ele>64.922241210938</ele>
        <time>2012-08-16T09:53:09Z</time>
      </trkpt>
      <trkpt lat="47.84771" lon="-3.53976">
        <ele>64.968872070312</ele>
        <time>2012-08-16T09:53:10Z</time>
      </trkpt>
      <trkpt lat="47.84767" lon="-3.54015">
        <ele>65.16284942627</ele>
        <time>2012-08-16T09:53:15Z</time>
      </trkpt>
      <trkpt lat="47.84756" lon="-3.54059">
        <ele>65.48307800293</ele>
        <time>2012-08-16T09:53:21Z</time>
      </trkpt>
      <trkpt lat="47.84748" lon="-3.54104">
        <ele>65.779922485352</ele>
        <time>2012-08-16T09:53:27Z</time>
      </trkpt>
      <trkpt lat="47.8474" lon="-3.54153">
        <ele>65.392623901367</ele>
        <time>2012-08-16T09:53:33Z</time>
      </trkpt>
      <trkpt lat="47.84737" lon="-3.54169">
        <ele>65.241966247559</ele>
        <time>2012-08-16T09:53:35Z</time>
      </trkpt>
      <trkpt lat="47.84737" lon="-3.54204">
        <ele>64.339385986328</ele>
        <time>2012-08-16T09:53:39Z</time>
      </trkpt>
      <trkpt lat="47.84729" lon="-3.54253">
        <ele>63.17329788208</ele>
        <time>2012-08-16T09:53:45Z</time>
      </trkpt>
      <trkpt lat="47.8472" lon="-3.54282">
        <ele>62.462242126465</ele>
        <time>2012-08-16T09:53:49Z</time>
      </trkpt>
      <trkpt lat="47.84705" lon="-3.54326">
        <ele>61.22647857666</ele>
        <time>2012-08-16T09:53:55Z</time>
      </trkpt>
      <trkpt lat="47.84692" lon="-3.54363">
        <ele>60.509098052979</ele>
        <time>2012-08-16T09:54:00Z</time>
      </trkpt>
      <trkpt lat="47.84679" lon="-3.54404">
        <ele>59.544036865234</ele>
        <time>2012-08-16T09:54:05Z</time>
      </trkpt>
      <trkpt lat="47.84661" lon="-3.54456">
        <ele>58.647449493408</ele>
        <time>2012-08-16T09:54:11Z</time>
      </trkpt>
      <trkpt lat="47.84643" lon="-3.54515">
        <ele>58.741661071777</ele>
        <time>2012-08-16T09:54:17Z</time>
      </trkpt>
      <trkpt lat="47.84634" lon="-3.54564">
        <ele>59.143867492676</ele>
        <time>2012-08-16T09:54:22Z</time>
      </trkpt>
      <trkpt lat="47.8463" lon="-3.54616">
        <ele>59.758491516113</ele>
        <time>2012-08-16T09:54:28Z</time>
      </trkpt>
      <trkpt lat="47.8463" lon="-3.54657">
        <ele>60.029182434082</ele>
        <time>2012-08-16T09:54:33Z</time>
      </trkpt>
      <trkpt lat="47.84628" lon="-3.54716">
        <ele>60.213726043701</ele>
        <time>2012-08-16T09:54:41Z</time>
      </trkpt>
      <trkpt lat="47.84625" lon="-3.54746">
        <ele>60.473899841309</ele>
        <time>2012-08-16T09:54:46Z</time>
      </trkpt>
      <trkpt lat="47.84622" lon="-3.54781">
        <ele>59.676643371582</ele>
        <time>2012-08-16T09:54:52Z</time>
      </trkpt>
      <trkpt lat="47.84621" lon="-3.5482">
        <ele>58.374591827393</ele>
        <time>2012-08-16T09:54:59Z</time>
      </trkpt>
      <trkpt lat="47.8461" lon="-3.54832">
        <ele>59.141059875488</ele>
        <time>2012-08-16T09:55:04Z</time>
      </trkpt>
      <trkpt lat="47.84597" lon="-3.54837">
        <ele>60.53148651123</ele>
        <time>2012-08-16T09:55:09Z</time>
      </trkpt>
      <trkpt lat="47.84581" lon="-3.54838">
        <ele>62.053298950195</ele>
        <time>2012-08-16T09:55:13Z</time>
      </trkpt>
      <trkpt lat="47.84577" lon="-3.54838">
        <ele>62.301189422607</ele>
        <time>2012-08-16T09:55:14Z</time>
      </trkpt>
      <trkpt lat="47.84554" lon="-3.54838">
        <ele>63.663757324219</ele>
        <time>2012-08-16T09:55:19Z</time>
      </trkpt>
      <trkpt lat="47.84535" lon="-3.54837">
        <ele>64.821128845215</ele>
        <time>2012-08-16T09:55:23Z</time>
      </trkpt>
      <trkpt lat="47.84504" lon="-3.5484">
        <ele>66.560440063477</ele>
        <time>2012-08-16T09:55:30Z</time>
      </trkpt>
      <trkpt lat="47.84486" lon="-3.54843">
        <ele>67.040893554688</ele>
        <time>2012-08-16T09:55:34Z</time>
      </trkpt>
      <trkpt lat="47.84477" lon="-3.54845">
        <ele>67.210624694824</ele>
        <time>2012-08-16T09:55:36Z</time>
      </trkpt>
      <trkpt lat="47.84454" lon="-3.54862">
        <ele>67.465805053711</ele>
        <time>2012-08-16T09:55:42Z</time>
      </trkpt>
      <trkpt lat="47.8445" lon="-3.54866">
        <ele>67.510787963867</ele>
        <time>2012-08-16T09:55:43Z</time>
      </trkpt>
      <trkpt lat="47.84438" lon="-3.54883">
        <ele>67.572204589844</ele>
        <time>2012-08-16T09:55:47Z</time>
      </trkpt>
      <trkpt lat="47.84417" lon="-3.54912">
        <ele>68.025085449219</ele>
        <time>2012-08-16T09:55:53Z</time>
      </trkpt>
      <trkpt lat="47.84413" lon="-3.54917">
        <ele>68.075744628906</ele>
        <time>2012-08-16T09:55:54Z</time>
      </trkpt>
      <trkpt lat="47.84389" lon="-3.5496">
        <ele>67.460266113281</ele>
        <time>2012-08-16T09:56:02Z</time>
      </trkpt>
      <trkpt lat="47.8438" lon="-3.54985">
        <ele>67.424789428711</ele>
        <time>2012-08-16T09:56:07Z</time>
      </trkpt>
      <trkpt lat="47.84372" lon="-3.55002">
        <ele>67.701812744141</ele>
        <time>2012-08-16T09:56:10Z</time>
      </trkpt>
      <trkpt lat="47.84371" lon="-3.55014">
        <ele>67.460166931152</ele>
        <time>2012-08-16T09:56:12Z</time>
      </trkpt>
      <trkpt lat="47.84357" lon="-3.55054">
        <ele>67.144500732422</ele>
        <time>2012-08-16T09:56:19Z</time>
      </trkpt>
      <trkpt lat="47.84356" lon="-3.55054">
        <ele>67.18537902832</ele>
        <time>2012-08-16T09:56:20Z</time>
      </trkpt>
      <trkpt lat="47.84348" lon="-3.55061">
        <ele>67.359191894531</ele>
        <time>2012-08-16T09:56:23Z</time>
      </trkpt>
      <trkpt lat="47.84342" lon="-3.55066">
        <ele>67.420928955078</ele>
        <time>2012-08-16T09:56:25Z</time>
      </trkpt>
      <trkpt lat="47.84343" lon="-3.55073">
        <ele>67.098159790039</ele>
        <time>2012-08-16T09:56:29Z</time>
      </trkpt>
      <trkpt lat="47.84352" lon="-3.5508">
        <ele>66.449005126953</ele>
        <time>2012-08-16T09:56:33Z</time>
      </trkpt>
      <trkpt lat="47.84364" lon="-3.55089">
        <ele>65.640434265137</ele>
        <time>2012-08-16T09:56:38Z</time>
      </trkpt>
      <trkpt lat="47.84377" lon="-3.55097">
        <ele>65.077751159668</ele>
        <time>2012-08-16T09:56:42Z</time>
      </trkpt>
      <trkpt lat="47.84387" lon="-3.55113">
        <ele>64.740997314453</ele>
        <time>2012-08-16T09:56:46Z</time>
      </trkpt>
      <trkpt lat="47.84393" lon="-3.55134">
        <ele>64.790222167969</ele>
        <time>2012-08-16T09:56:50Z</time>
      </trkpt>
      <trkpt lat="47.84388" lon="-3.55141">
        <ele>64.485816955566</ele>
        <time>2012-08-16T09:56:53Z</time>
      </trkpt>
      <trkpt lat="47.84385" lon="-3.55139">
        <ele>64.353042602539</ele>
        <time>2012-08-16T09:56:55Z</time>
      </trkpt>
      <trkpt lat="47.84367" lon="-3.55125">
        <ele>64.04126739502</ele>
        <time>2012-08-16T09:57:00Z</time>
      </trkpt>
      <trkpt lat="47.8435" lon="-3.5513">
        <ele>63.189144134521</ele>
        <time>2012-08-16T09:57:04Z</time>
      </trkpt>
      <trkpt lat="47.84341" lon="-3.5513">
        <ele>62.797706604004</ele>
        <time>2012-08-16T09:57:08Z</time>
      </trkpt>
      <trkpt lat="47.84336" lon="-3.55134">
        <ele>62.228656768799</ele>
        <time>2012-08-16T09:57:10Z</time>
      </trkpt>
      <trkpt lat="47.84312" lon="-3.55159">
        <ele>59.140747070312</ele>
        <time>2012-08-16T09:57:17Z</time>
      </trkpt>
      <trkpt lat="47.84296" lon="-3.55172">
        <ele>58.023788452148</ele>
        <time>2012-08-16T09:57:21Z</time>
      </trkpt>
      <trkpt lat="47.84285" lon="-3.55182">
        <ele>57.514781951904</ele>
        <time>2012-08-16T09:57:24Z</time>
      </trkpt>
      <trkpt lat="47.84278" lon="-3.5519">
        <ele>57.113681793213</ele>
        <time>2012-08-16T09:57:26Z</time>
      </trkpt>
      <trkpt lat="47.84267" lon="-3.55205">
        <ele>56.30786895752</ele>
        <time>2012-08-16T09:57:30Z</time>
      </trkpt>
      <trkpt lat="47.84258" lon="-3.55216">
        <ele>55.566612243652</ele>
        <time>2012-08-16T09:57:33Z</time>
      </trkpt>
      <trkpt lat="47.84223" lon="-3.55251">
        <ele>55.606548309326</ele>
        <time>2012-08-16T09:57:42Z</time>
      </trkpt>
      <trkpt lat="47.84201" lon="-3.55272">
        <ele>56.095333099365</ele>
        <time>2012-08-16T09:57:47Z</time>
      </trkpt>
      <trkpt lat="47.84185" lon="-3.55288">
        <ele>56.240089416504</ele>
        <time>2012-08-16T09:57:51Z</time>
      </trkpt>
      <trkpt lat="47.84178" lon="-3.55296">
        <ele>56.264537811279</ele>
        <time>2012-08-16T09:57:53Z</time>
      </trkpt>
      <trkpt lat="47.84143" lon="-3.55331">
        <ele>56.501689910889</ele>
        <time>2012-08-16T09:58:01Z</time>
      </trkpt>
      <trkpt lat="47.84115" lon="-3.5536">
        <ele>57.767623901367</ele>
        <time>2012-08-16T09:58:07Z</time>
      </trkpt>
      <trkpt lat="47.8408" lon="-3.55393">
        <ele>59.535221099854</ele>
        <time>2012-08-16T09:58:15Z</time>
      </trkpt>
      <trkpt lat="47.84069" lon="-3.55405">
        <ele>60.272010803223</ele>
        <time>2012-08-16T09:58:18Z</time>
      </trkpt>
      <trkpt lat="47.84052" lon="-3.55425">
        <ele>61.704330444336</ele>
        <time>2012-08-16T09:58:23Z</time>
      </trkpt>
      <trkpt lat="47.84044" lon="-3.55432">
        <ele>62.379020690918</ele>
        <time>2012-08-16T09:58:25Z</time>
      </trkpt>
      <trkpt lat="47.8403" lon="-3.55446">
        <ele>63.627040863037</ele>
        <time>2012-08-16T09:58:29Z</time>
      </trkpt>
      <trkpt lat="47.84005" lon="-3.55462">
        <ele>65.585403442383</ele>
        <time>2012-08-16T09:58:34Z</time>
      </trkpt>
      <trkpt lat="47.83992" lon="-3.55481">
        <ele>65.866661071777</ele>
        <time>2012-08-16T09:58:38Z</time>
      </trkpt>
      <trkpt lat="47.83953" lon="-3.55526">
        <ele>65.746200561523</ele>
        <time>2012-08-16T09:58:46Z</time>
      </trkpt>
      <trkpt lat="47.83928" lon="-3.55552">
        <ele>65.755645751953</ele>
        <time>2012-08-16T09:58:51Z</time>
      </trkpt>
      <trkpt lat="47.83901" lon="-3.55579">
        <ele>65.399131774902</ele>
        <time>2012-08-16T09:58:57Z</time>
      </trkpt>
      <trkpt lat="47.83894" lon="-3.55587">
        <ele>65.130004882812</ele>
        <time>2012-08-16T09:58:59Z</time>
      </trkpt>
      <trkpt lat="47.83883" lon="-3.55599">
        <ele>64.533401489258</ele>
        <time>2012-08-16T09:59:02Z</time>
      </trkpt>
      <trkpt lat="47.83876" lon="-3.55598">
        <ele>64.256797790527</ele>
        <time>2012-08-16T09:59:06Z</time>
      </trkpt>
      <trkpt lat="47.83878" lon="-3.55593">
        <ele>64.44132232666</ele>
        <time>2012-08-16T09:59:10Z</time>
      </trkpt>
      <trkpt lat="47.83889" lon="-3.55585">
        <ele>64.967971801758</ele>
        <time>2012-08-16T09:59:15Z</time>
      </trkpt>
      <trkpt lat="47.83898" lon="-3.5559">
        <ele>65.216590881348</ele>
        <time>2012-08-16T09:59:19Z</time>
      </trkpt>
      <trkpt lat="47.83907" lon="-3.55609">
        <ele>65.300811767578</ele>
        <time>2012-08-16T09:59:24Z</time>
      </trkpt>
      <trkpt lat="47.83913" lon="-3.55626">
        <ele>65.322845458984</ele>
        <time>2012-08-16T09:59:28Z</time>
      </trkpt>
      <trkpt lat="47.83921" lon="-3.55645">
        <ele>65.193061828613</ele>
        <time>2012-08-16T09:59:32Z</time>
      </trkpt>
      <trkpt lat="47.8393" lon="-3.55653">
        <ele>64.921966552734</ele>
        <time>2012-08-16T09:59:35Z</time>
      </trkpt>
      <trkpt lat="47.83937" lon="-3.55668">
        <ele>64.451530456543</ele>
        <time>2012-08-16T09:59:41Z</time>
      </trkpt>
      <trkpt lat="47.83942" lon="-3.55674">
        <ele>64.026077270508</ele>
        <time>2012-08-16T09:59:43Z</time>
      </trkpt>
      <trkpt lat="47.83954" lon="-3.55698">
        <ele>62.399833679199</ele>
        <time>2012-08-16T09:59:48Z</time>
      </trkpt>
      <trkpt lat="47.8397" lon="-3.5573">
        <ele>60.177822113037</ele>
        <time>2012-08-16T09:59:53Z</time>
      </trkpt>
      <trkpt lat="47.83979" lon="-3.55752">
        <ele>58.716598510742</ele>
        <time>2012-08-16T09:59:56Z</time>
      </trkpt>
      <trkpt lat="47.83981" lon="-3.55758">
        <ele>58.409717559814</ele>
        <time>2012-08-16T09:59:57Z</time>
      </trkpt>
      <trkpt lat="47.83985" lon="-3.55765">
        <ele>58.09846496582</ele>
        <time>2012-08-16T09:59:58Z</time>
      </trkpt>
      <trkpt lat="47.83988" lon="-3.55779">
        <ele>57.577621459961</ele>
        <time>2012-08-16T10:00:00Z</time>
      </trkpt>
      <trkpt lat="47.83978" lon="-3.55799">
        <ele>57.136486053467</ele>
        <time>2012-08-16T10:00:04Z</time>
      </trkpt>
      <trkpt lat="47.83963" lon="-3.55819">
        <ele>56.588798522949</ele>
        <time>2012-08-16T10:00:08Z</time>
      </trkpt>
      <trkpt lat="47.83945" lon="-3.55835">
        <ele>55.902378082275</ele>
        <time>2012-08-16T10:00:12Z</time>
      </trkpt>
      <trkpt lat="47.83922" lon="-3.55848">
        <ele>54.699432373047</ele>
        <time>2012-08-16T10:00:16Z</time>
      </trkpt>
      <trkpt lat="47.839" lon="-3.55855">
        <ele>54.726634979248</ele>
        <time>2012-08-16T10:00:20Z</time>
      </trkpt>
      <trkpt lat="47.83894" lon="-3.55853">
        <ele>55.177780151367</ele>
        <time>2012-08-16T10:00:21Z</time>
      </trkpt>
      <trkpt lat="47.83878" lon="-3.55836">
        <ele>56.785636901855</ele>
        <time>2012-08-16T10:00:24Z</time>
      </trkpt>
      <trkpt lat="47.8387" lon="-3.5582">
        <ele>57.377269744873</ele>
        <time>2012-08-16T10:00:26Z</time>
      </trkpt>
      <trkpt lat="47.83861" lon="-3.55806">
        <ele>57.661819458008</ele>
        <time>2012-08-16T10:00:28Z</time>
      </trkpt>
      <trkpt lat="47.83847" lon="-3.5579">
        <ele>57.658996582031</ele>
        <time>2012-08-16T10:00:31Z</time>
      </trkpt>
      <trkpt lat="47.83838" lon="-3.55785">
        <ele>57.495464324951</ele>
        <time>2012-08-16T10:00:34Z</time>
      </trkpt>
      <trkpt lat="47.83833" lon="-3.55783">
        <ele>57.399215698242</ele>
        <time>2012-08-16T10:00:35Z</time>
      </trkpt>
      <trkpt lat="47.83815" lon="-3.55767">
        <ele>59.056838989258</ele>
        <time>2012-08-16T10:00:40Z</time>
      </trkpt>
      <trkpt lat="47.83805" lon="-3.55752">
        <ele>59.77165222168</ele>
        <time>2012-08-16T10:00:45Z</time>
      </trkpt>
      <trkpt lat="47.83794" lon="-3.5574">
        <ele>60.65592956543</ele>
        <time>2012-08-16T10:00:49Z</time>
      </trkpt>
      <trkpt lat="47.83792" lon="-3.55736">
        <ele>60.832866668701</ele>
        <time>2012-08-16T10:00:50Z</time>
      </trkpt>
      <trkpt lat="47.83785" lon="-3.55731">
        <ele>61.204708099365</ele>
        <time>2012-08-16T10:00:52Z</time>
      </trkpt>
      <trkpt lat="47.8378" lon="-3.55735">
        <ele>61.660205841064</ele>
        <time>2012-08-16T10:00:57Z</time>
      </trkpt>
      <trkpt lat="47.83785" lon="-3.55736">
        <ele>61.316638946533</ele>
        <time>2012-08-16T10:01:02Z</time>
      </trkpt>
      <trkpt lat="47.83792" lon="-3.55731">
        <ele>60.744915008545</ele>
        <time>2012-08-16T10:01:13Z</time>
      </trkpt>
      <trkpt lat="47.83799" lon="-3.55729">
        <ele>60.266338348389</ele>
        <time>2012-08-16T10:01:20Z</time>
      </trkpt>
      <trkpt lat="47.83804" lon="-3.55728">
        <ele>59.970851898193</ele>
        <time>2012-08-16T10:01:29Z</time>
      </trkpt>
      <trkpt lat="47.83799" lon="-3.55732">
        <ele>60.244598388672</ele>
        <time>2012-08-16T10:01:35Z</time>
      </trkpt>
      <trkpt lat="47.83795" lon="-3.55734">
        <ele>60.551296234131</ele>
        <time>2012-08-16T10:01:38Z</time>
      </trkpt>
      <trkpt lat="47.83778" lon="-3.55738">
        <ele>61.896503448486</ele>
        <time>2012-08-16T10:01:45Z</time>
      </trkpt>
      <trkpt lat="47.83776" lon="-3.55744">
        <ele>62.30785369873</ele>
        <time>2012-08-16T10:01:49Z</time>
      </trkpt>
      <trkpt lat="47.83771" lon="-3.55749">
        <ele>62.947082519531</ele>
        <time>2012-08-16T10:01:55Z</time>
      </trkpt>
      <trkpt lat="47.8377" lon="-3.5575">
        <ele>63.03173828125</ele>
        <time>2012-08-16T10:02:00Z</time>
      </trkpt>
      <trkpt lat="47.83777" lon="-3.55749">
        <ele>62.373817443848</ele>
        <time>2012-08-16T10:02:09Z</time>
      </trkpt>
      <trkpt lat="47.83779" lon="-3.55751">
        <ele>62.246486663818</ele>
        <time>2012-08-16T10:02:11Z</time>
      </trkpt>
      <trkpt lat="47.83782" lon="-3.55755">
        <ele>62.112838745117</ele>
        <time>2012-08-16T10:02:13Z</time>
      </trkpt>
      <trkpt lat="47.83786" lon="-3.55767">
        <ele>62.149078369141</ele>
        <time>2012-08-16T10:02:17Z</time>
      </trkpt>
      <trkpt lat="47.83795" lon="-3.55784">
        <ele>61.633651733398</ele>
        <time>2012-08-16T10:02:22Z</time>
      </trkpt>
      <trkpt lat="47.83806" lon="-3.55803">
        <ele>60.860641479492</ele>
        <time>2012-08-16T10:02:27Z</time>
      </trkpt>
      <trkpt lat="47.83821" lon="-3.55823">
        <ele>59.491436004639</ele>
        <time>2012-08-16T10:02:32Z</time>
      </trkpt>
      <trkpt lat="47.83824" lon="-3.55834">
        <ele>59.210605621338</ele>
        <time>2012-08-16T10:02:34Z</time>
      </trkpt>
      <trkpt lat="47.83825" lon="-3.5584">
        <ele>59.102031707764</ele>
        <time>2012-08-16T10:02:35Z</time>
      </trkpt>
      <trkpt lat="47.83828" lon="-3.55845">
        <ele>58.748111724854</ele>
        <time>2012-08-16T10:02:36Z</time>
      </trkpt>
      <trkpt lat="47.83842" lon="-3.55874">
        <ele>57.379455566406</ele>
        <time>2012-08-16T10:02:43Z</time>
      </trkpt>
      <trkpt lat="47.83845" lon="-3.55905">
        <ele>56.784145355225</ele>
        <time>2012-08-16T10:02:49Z</time>
      </trkpt>
      <trkpt lat="47.83851" lon="-3.55932">
        <ele>55.379699707031</ele>
        <time>2012-08-16T10:02:54Z</time>
      </trkpt>
      <trkpt lat="47.83854" lon="-3.55946">
        <ele>54.667301177979</ele>
        <time>2012-08-16T10:02:56Z</time>
      </trkpt>
      <trkpt lat="47.83849" lon="-3.55972">
        <ele>54.244598388672</ele>
        <time>2012-08-16T10:03:00Z</time>
      </trkpt>
      <trkpt lat="47.83843" lon="-3.55998">
        <ele>53.614479064941</ele>
        <time>2012-08-16T10:03:04Z</time>
      </trkpt>
      <trkpt lat="47.83838" lon="-3.56015">
        <ele>53.329807281494</ele>
        <time>2012-08-16T10:03:07Z</time>
      </trkpt>
      <trkpt lat="47.83834" lon="-3.56026">
        <ele>53.05818939209</ele>
        <time>2012-08-16T10:03:09Z</time>
      </trkpt>
      <trkpt lat="47.8383" lon="-3.56042">
        <ele>52.806232452393</ele>
        <time>2012-08-16T10:03:12Z</time>
      </trkpt>
      <trkpt lat="47.83819" lon="-3.56045">
        <ele>53.658172607422</ele>
        <time>2012-08-16T10:03:16Z</time>
      </trkpt>
      <trkpt lat="47.83808" lon="-3.56037">
        <ele>55.007225036621</ele>
        <time>2012-08-16T10:03:20Z</time>
      </trkpt>
      <trkpt lat="47.83794" lon="-3.56022">
        <ele>57.139144897461</ele>
        <time>2012-08-16T10:03:26Z</time>
      </trkpt>
      <trkpt lat="47.83779" lon="-3.56015">
        <ele>58.970317840576</ele>
        <time>2012-08-16T10:03:31Z</time>
      </trkpt>
      <trkpt lat="47.83764" lon="-3.56013">
        <ele>60.690078735352</ele>
        <time>2012-08-16T10:03:36Z</time>
      </trkpt>
      <trkpt lat="47.83754" lon="-3.56011">
        <ele>61.728260040283</ele>
        <time>2012-08-16T10:03:40Z</time>
      </trkpt>
      <trkpt lat="47.83741" lon="-3.56009">
        <ele>62.531543731689</ele>
        <time>2012-08-16T10:03:44Z</time>
      </trkpt>
      <trkpt lat="47.83723" lon="-3.56003">
        <ele>63.433364868164</ele>
        <time>2012-08-16T10:03:50Z</time>
      </trkpt>
      <trkpt lat="47.83712" lon="-3.5599">
        <ele>64.605667114258</ele>
        <time>2012-08-16T10:03:55Z</time>
      </trkpt>
      <trkpt lat="47.837" lon="-3.55975">
        <ele>65.856872558594</ele>
        <time>2012-08-16T10:04:01Z</time>
      </trkpt>
      <trkpt lat="47.83688" lon="-3.55961">
        <ele>67.133605957031</ele>
        <time>2012-08-16T10:04:07Z</time>
      </trkpt>
      <trkpt lat="47.83679" lon="-3.55953">
        <ele>67.998275756836</ele>
        <time>2012-08-16T10:04:12Z</time>
      </trkpt>
      <trkpt lat="47.83666" lon="-3.55948">
        <ele>68.730262756348</ele>
        <time>2012-08-16T10:04:17Z</time>
      </trkpt>
      <trkpt lat="47.83656" lon="-3.55944">
        <ele>68.257484436035</ele>
        <time>2012-08-16T10:04:22Z</time>
      </trkpt>
      <trkpt lat="47.83648" lon="-3.55942">
        <ele>67.928123474121</ele>
        <time>2012-08-16T10:04:26Z</time>
      </trkpt>
      <trkpt lat="47.83629" lon="-3.55934">
        <ele>67.118011474609</ele>
        <time>2012-08-16T10:04:32Z</time>
      </trkpt>
      <trkpt lat="47.83621" lon="-3.55931">
        <ele>66.778526306152</ele>
        <time>2012-08-16T10:04:35Z</time>
      </trkpt>
      <trkpt lat="47.83614" lon="-3.5591">
        <ele>67.50269317627</ele>
        <time>2012-08-16T10:04:41Z</time>
      </trkpt>
      <trkpt lat="47.83603" lon="-3.55884">
        <ele>68.121002197266</ele>
        <time>2012-08-16T10:04:47Z</time>
      </trkpt>
      <trkpt lat="47.83599" lon="-3.55876">
        <ele>68.31884765625</ele>
        <time>2012-08-16T10:04:49Z</time>
      </trkpt>
      <trkpt lat="47.83593" lon="-3.55867">
        <ele>68.449058532715</ele>
        <time>2012-08-16T10:04:52Z</time>
      </trkpt>
      <trkpt lat="47.83579" lon="-3.5588">
        <ele>67.184371948242</ele>
        <time>2012-08-16T10:04:57Z</time>
      </trkpt>
      <trkpt lat="47.83557" lon="-3.55905">
        <ele>65.675186157227</ele>
        <time>2012-08-16T10:05:02Z</time>
      </trkpt>
      <trkpt lat="47.83536" lon="-3.55925">
        <ele>64.41234588623</ele>
        <time>2012-08-16T10:05:06Z</time>
      </trkpt>
      <trkpt lat="47.83509" lon="-3.55951">
        <ele>62.561065673828</ele>
        <time>2012-08-16T10:05:11Z</time>
      </trkpt>
      <trkpt lat="47.83489" lon="-3.55971">
        <ele>60.773914337158</ele>
        <time>2012-08-16T10:05:15Z</time>
      </trkpt>
      <trkpt lat="47.83451" lon="-3.56009">
        <ele>58.428924560547</ele>
        <time>2012-08-16T10:05:23Z</time>
      </trkpt>
      <trkpt lat="47.83424" lon="-3.56035">
        <ele>58.434947967529</ele>
        <time>2012-08-16T10:05:29Z</time>
      </trkpt>
      <trkpt lat="47.83395" lon="-3.56062">
        <ele>58.934261322021</ele>
        <time>2012-08-16T10:05:36Z</time>
      </trkpt>
      <trkpt lat="47.83364" lon="-3.56093">
        <ele>59.635314941406</ele>
        <time>2012-08-16T10:05:44Z</time>
      </trkpt>
      <trkpt lat="47.83336" lon="-3.56119">
        <ele>59.964904785156</ele>
        <time>2012-08-16T10:05:51Z</time>
      </trkpt>
      <trkpt lat="47.83306" lon="-3.56149">
        <ele>60.262554168701</ele>
        <time>2012-08-16T10:05:59Z</time>
      </trkpt>
      <trkpt lat="47.8329" lon="-3.56165">
        <ele>60.502048492432</ele>
        <time>2012-08-16T10:06:03Z</time>
      </trkpt>
      <trkpt lat="47.83262" lon="-3.56193">
        <ele>61.167179107666</ele>
        <time>2012-08-16T10:06:10Z</time>
      </trkpt>
      <trkpt lat="47.83241" lon="-3.56215">
        <ele>61.623271942139</ele>
        <time>2012-08-16T10:06:15Z</time>
      </trkpt>
      <trkpt lat="47.83211" lon="-3.56244">
        <ele>61.961372375488</ele>
        <time>2012-08-16T10:06:22Z</time>
      </trkpt>
      <trkpt lat="47.83181" lon="-3.56273">
        <ele>62.272369384766</ele>
        <time>2012-08-16T10:06:29Z</time>
      </trkpt>
      <trkpt lat="47.83177" lon="-3.56277">
        <ele>62.325870513916</ele>
        <time>2012-08-16T10:06:30Z</time>
      </trkpt>
      <trkpt lat="47.83135" lon="-3.56317">
        <ele>62.503986358643</ele>
        <time>2012-08-16T10:06:40Z</time>
      </trkpt>
      <trkpt lat="47.83109" lon="-3.56342">
        <ele>62.349254608154</ele>
        <time>2012-08-16T10:06:46Z</time>
      </trkpt>
      <trkpt lat="47.83101" lon="-3.56351">
        <ele>62.337909698486</ele>
        <time>2012-08-16T10:06:48Z</time>
      </trkpt>
      <trkpt lat="47.83064" lon="-3.56389">
        <ele>62.745445251465</ele>
        <time>2012-08-16T10:06:57Z</time>
      </trkpt>
      <trkpt lat="47.83027" lon="-3.56422">
        <ele>62.956401824951</ele>
        <time>2012-08-16T10:07:06Z</time>
      </trkpt>
      <trkpt lat="47.83001" lon="-3.56448">
        <ele>62.628189086914</ele>
        <time>2012-08-16T10:07:13Z</time>
      </trkpt>
      <trkpt lat="47.82969" lon="-3.56479">
        <ele>62.527156829834</ele>
        <time>2012-08-16T10:07:21Z</time>
      </trkpt>
      <trkpt lat="47.82936" lon="-3.56511">
        <ele>62.663860321045</ele>
        <time>2012-08-16T10:07:29Z</time>
      </trkpt>
      <trkpt lat="47.82895" lon="-3.56552">
        <ele>61.858631134033</ele>
        <time>2012-08-16T10:07:39Z</time>
      </trkpt>
      <trkpt lat="47.82876" lon="-3.56571">
        <ele>61.166549682617</ele>
        <time>2012-08-16T10:07:44Z</time>
      </trkpt>
      <trkpt lat="47.8286" lon="-3.56588">
        <ele>60.721195220947</ele>
        <time>2012-08-16T10:07:48Z</time>
      </trkpt>
      <trkpt lat="47.8284" lon="-3.56584">
        <ele>60.184047698975</ele>
        <time>2012-08-16T10:07:52Z</time>
      </trkpt>
      <trkpt lat="47.82827" lon="-3.5658">
        <ele>60.105644226074</ele>
        <time>2012-08-16T10:07:54Z</time>
      </trkpt>
      <trkpt lat="47.82813" lon="-3.56563">
        <ele>60.309558868408</ele>
        <time>2012-08-16T10:07:58Z</time>
      </trkpt>
      <trkpt lat="47.82804" lon="-3.56566">
        <ele>60.339897155762</ele>
        <time>2012-08-16T10:08:01Z</time>
      </trkpt>
      <trkpt lat="47.82777" lon="-3.56572">
        <ele>60.542003631592</ele>
        <time>2012-08-16T10:08:06Z</time>
      </trkpt>
      <trkpt lat="47.82764" lon="-3.56571">
        <ele>60.609451293945</ele>
        <time>2012-08-16T10:08:08Z</time>
      </trkpt>
      <trkpt lat="47.82739" lon="-3.56548">
        <ele>60.698829650879</ele>
        <time>2012-08-16T10:08:13Z</time>
      </trkpt>
      <trkpt lat="47.82732" lon="-3.56533">
        <ele>60.612098693848</ele>
        <time>2012-08-16T10:08:16Z</time>
      </trkpt>
      <trkpt lat="47.82728" lon="-3.56524">
        <ele>60.511405944824</ele>
        <time>2012-08-16T10:08:18Z</time>
      </trkpt>
      <trkpt lat="47.82716" lon="-3.56502">
        <ele>60.300598144531</ele>
        <time>2012-08-16T10:08:23Z</time>
      </trkpt>
      <trkpt lat="47.82701" lon="-3.56487">
        <ele>60.171543121338</ele>
        <time>2012-08-16T10:08:28Z</time>
      </trkpt>
      <trkpt lat="47.82686" lon="-3.56478">
        <ele>60.175060272217</ele>
        <time>2012-08-16T10:08:31Z</time>
      </trkpt>
      <trkpt lat="47.82668" lon="-3.56459">
        <ele>59.516983032227</ele>
        <time>2012-08-16T10:08:36Z</time>
      </trkpt>
      <trkpt lat="47.82667" lon="-3.56455">
        <ele>59.283390045166</ele>
        <time>2012-08-16T10:08:37Z</time>
      </trkpt>
      <trkpt lat="47.82669" lon="-3.56446">
        <ele>58.732620239258</ele>
        <time>2012-08-16T10:08:40Z</time>
      </trkpt>
      <trkpt lat="47.82718" lon="-3.56403">
        <ele>56.875778198242</ele>
        <time>2012-08-16T10:08:46Z</time>
      </trkpt>
      <trkpt lat="47.82722" lon="-3.56382">
        <ele>56.717823028564</ele>
        <time>2012-08-16T10:08:49Z</time>
      </trkpt>
      <trkpt lat="47.82723" lon="-3.56369">
        <ele>56.632911682129</ele>
        <time>2012-08-16T10:08:51Z</time>
      </trkpt>
      <trkpt lat="47.82726" lon="-3.56357">
        <ele>56.582126617432</ele>
        <time>2012-08-16T10:08:53Z</time>
      </trkpt>
      <trkpt lat="47.82724" lon="-3.56357">
        <ele>56.551788330078</ele>
        <time>2012-08-16T10:08:55Z</time>
      </trkpt>
      <trkpt lat="47.8271" lon="-3.56369">
        <ele>56.454746246338</ele>
        <time>2012-08-16T10:08:59Z</time>
      </trkpt>
      <trkpt lat="47.82701" lon="-3.56366">
        <ele>56.283790588379</ele>
        <time>2012-08-16T10:09:02Z</time>
      </trkpt>
      <trkpt lat="47.82696" lon="-3.56359">
        <ele>56.110942840576</ele>
        <time>2012-08-16T10:09:04Z</time>
      </trkpt>
      <trkpt lat="47.82682" lon="-3.56332">
        <ele>55.371978759766</ele>
        <time>2012-08-16T10:09:10Z</time>
      </trkpt>
      <trkpt lat="47.82679" lon="-3.56316">
        <ele>55.518814086914</ele>
        <time>2012-08-16T10:09:13Z</time>
      </trkpt>
      <trkpt lat="47.8267" lon="-3.5629">
        <ele>55.623542785645</ele>
        <time>2012-08-16T10:09:18Z</time>
      </trkpt>
      <trkpt lat="47.82671" lon="-3.56275">
        <ele>55.832489013672</ele>
        <time>2012-08-16T10:09:22Z</time>
      </trkpt>
      <trkpt lat="47.82672" lon="-3.56262">
        <ele>56.027156829834</ele>
        <time>2012-08-16T10:09:25Z</time>
      </trkpt>
      <trkpt lat="47.82668" lon="-3.56246">
        <ele>56.21329498291</ele>
        <time>2012-08-16T10:09:29Z</time>
      </trkpt>
      <trkpt lat="47.82658" lon="-3.56233">
        <ele>57.234973907471</ele>
        <time>2012-08-16T10:09:33Z</time>
      </trkpt>
      <trkpt lat="47.82646" lon="-3.56222">
        <ele>58.32483291626</ele>
        <time>2012-08-16T10:09:37Z</time>
      </trkpt>
      <trkpt lat="47.82637" lon="-3.56224">
        <ele>58.88928604126</ele>
        <time>2012-08-16T10:09:41Z</time>
      </trkpt>
      <trkpt lat="47.82632" lon="-3.56231">
        <ele>59.116165161133</ele>
        <time>2012-08-16T10:09:43Z</time>
      </trkpt>
      <trkpt lat="47.82611" lon="-3.56252">
        <ele>60.748268127441</ele>
        <time>2012-08-16T10:09:49Z</time>
      </trkpt>
      <trkpt lat="47.82605" lon="-3.56261">
        <ele>61.433544158936</ele>
        <time>2012-08-16T10:09:53Z</time>
      </trkpt>
      <trkpt lat="47.82598" lon="-3.56269">
        <ele>62.23734664917</ele>
        <time>2012-08-16T10:09:59Z</time>
      </trkpt>
      <trkpt lat="47.82592" lon="-3.56281">
        <ele>63.257461547852</ele>
        <time>2012-08-16T10:10:04Z</time>
      </trkpt>
      <trkpt lat="47.82587" lon="-3.56289">
        <ele>64.021255493164</ele>
        <time>2012-08-16T10:10:09Z</time>
      </trkpt>
      <trkpt lat="47.82583" lon="-3.56299">
        <ele>64.772972106934</ele>
        <time>2012-08-16T10:10:13Z</time>
      </trkpt>
      <trkpt lat="47.8258" lon="-3.56309">
        <ele>65.402671813965</ele>
        <time>2012-08-16T10:10:17Z</time>
      </trkpt>
      <trkpt lat="47.8258" lon="-3.56322">
        <ele>65.857070922852</ele>
        <time>2012-08-16T10:10:21Z</time>
      </trkpt>
      <trkpt lat="47.82579" lon="-3.56343">
        <ele>66.884368896484</ele>
        <time>2012-08-16T10:10:27Z</time>
      </trkpt>
      <trkpt lat="47.82579" lon="-3.56369">
        <ele>68.368492126465</ele>
        <time>2012-08-16T10:10:34Z</time>
      </trkpt>
      <trkpt lat="47.82578" lon="-3.56381">
        <ele>69.144088745117</ele>
        <time>2012-08-16T10:10:37Z</time>
      </trkpt>
      <trkpt lat="47.82575" lon="-3.564">
        <ele>70.443946838379</ele>
        <time>2012-08-16T10:10:42Z</time>
      </trkpt>
      <trkpt lat="47.82578" lon="-3.56405">
        <ele>70.576362609863</ele>
        <time>2012-08-16T10:10:43Z</time>
      </trkpt>
      <trkpt lat="47.82582" lon="-3.56432">
        <ele>71.461227416992</ele>
        <time>2012-08-16T10:10:49Z</time>
      </trkpt>
      <trkpt lat="47.82582" lon="-3.56456">
        <ele>72.021095275879</ele>
        <time>2012-08-16T10:10:54Z</time>
      </trkpt>
      <trkpt lat="47.82576" lon="-3.56486">
        <ele>73.109260559082</ele>
        <time>2012-08-16T10:11:00Z</time>
      </trkpt>
      <trkpt lat="47.82572" lon="-3.56511">
        <ele>73.880920410156</ele>
        <time>2012-08-16T10:11:05Z</time>
      </trkpt>
      <trkpt lat="47.82573" lon="-3.56537">
        <ele>74.357940673828</ele>
        <time>2012-08-16T10:11:10Z</time>
      </trkpt>
      <trkpt lat="47.8257" lon="-3.56557">
        <ele>74.86302947998</ele>
        <time>2012-08-16T10:11:14Z</time>
      </trkpt>
      <trkpt lat="47.82566" lon="-3.56588">
        <ele>75.500282287598</ele>
        <time>2012-08-16T10:11:20Z</time>
      </trkpt>
      <trkpt lat="47.82558" lon="-3.56605">
        <ele>76.047332763672</ele>
        <time>2012-08-16T10:11:24Z</time>
      </trkpt>
      <trkpt lat="47.82555" lon="-3.56625">
        <ele>76.507926940918</ele>
        <time>2012-08-16T10:11:28Z</time>
      </trkpt>
      <trkpt lat="47.82545" lon="-3.5665">
        <ele>77.142234802246</ele>
        <time>2012-08-16T10:11:33Z</time>
      </trkpt>
      <trkpt lat="47.82538" lon="-3.56678">
        <ele>77.480598449707</ele>
        <time>2012-08-16T10:11:38Z</time>
      </trkpt>
      <trkpt lat="47.82529" lon="-3.567">
        <ele>77.510299682617</ele>
        <time>2012-08-16T10:11:43Z</time>
      </trkpt>
      <trkpt lat="47.82521" lon="-3.56724">
        <ele>77.566108703613</ele>
        <time>2012-08-16T10:11:48Z</time>
      </trkpt>
      <trkpt lat="47.82513" lon="-3.56745">
        <ele>77.705459594727</ele>
        <time>2012-08-16T10:11:54Z</time>
      </trkpt>
      <trkpt lat="47.82502" lon="-3.56767">
        <ele>76.956230163574</ele>
        <time>2012-08-16T10:11:59Z</time>
      </trkpt>
      <trkpt lat="47.82493" lon="-3.56791">
        <ele>75.406509399414</ele>
        <time>2012-08-16T10:12:04Z</time>
      </trkpt>
      <trkpt lat="47.82485" lon="-3.56813">
        <ele>73.845558166504</ele>
        <time>2012-08-16T10:12:09Z</time>
      </trkpt>
      <trkpt lat="47.82475" lon="-3.56835">
        <ele>71.973022460938</ele>
        <time>2012-08-16T10:12:14Z</time>
      </trkpt>
      <trkpt lat="47.82465" lon="-3.5686">
        <ele>70.130523681641</ele>
        <time>2012-08-16T10:12:19Z</time>
      </trkpt>
      <trkpt lat="47.82456" lon="-3.56888">
        <ele>68.12866973877</ele>
        <time>2012-08-16T10:12:24Z</time>
      </trkpt>
      <trkpt lat="47.82451" lon="-3.56907">
        <ele>66.828620910645</ele>
        <time>2012-08-16T10:12:28Z</time>
      </trkpt>
      <trkpt lat="47.82438" lon="-3.56939">
        <ele>65.482566833496</ele>
        <time>2012-08-16T10:12:34Z</time>
      </trkpt>
      <trkpt lat="47.82436" lon="-3.56945">
        <ele>65.375213623047</ele>
        <time>2012-08-16T10:12:35Z</time>
      </trkpt>
      <trkpt lat="47.82419" lon="-3.56978">
        <ele>65.001640319824</ele>
        <time>2012-08-16T10:12:41Z</time>
      </trkpt>
      <trkpt lat="47.82399" lon="-3.57008">
        <ele>65</ele>
        <time>2012-08-16T10:12:47Z</time>
      </trkpt>
      <trkpt lat="47.82378" lon="-3.5704">
        <ele>65</ele>
        <time>2012-08-16T10:12:54Z</time>
      </trkpt>
      <trkpt lat="47.82372" lon="-3.57048">
        <ele>65</ele>
        <time>2012-08-16T10:12:56Z</time>
      </trkpt>
      <trkpt lat="47.82361" lon="-3.57067">
        <ele>65</ele>
        <time>2012-08-16T10:13:00Z</time>
      </trkpt>
      <trkpt lat="47.82358" lon="-3.57077">
        <ele>65</ele>
        <time>2012-08-16T10:13:02Z</time>
      </trkpt>
      <trkpt lat="47.8234" lon="-3.57117">
        <ele>65.366943359375</ele>
        <time>2012-08-16T10:13:11Z</time>
      </trkpt>
      <trkpt lat="47.82336" lon="-3.57123">
        <ele>65.465972900391</ele>
        <time>2012-08-16T10:13:13Z</time>
      </trkpt>
      <trkpt lat="47.82324" lon="-3.57121">
        <ele>65.341659545898</ele>
        <time>2012-08-16T10:13:17Z</time>
      </trkpt>
      <trkpt lat="47.82312" lon="-3.571">
        <ele>64.943115234375</ele>
        <time>2012-08-16T10:13:22Z</time>
      </trkpt>
      <trkpt lat="47.82315" lon="-3.57075">
        <ele>64.776184082031</ele>
        <time>2012-08-16T10:13:26Z</time>
      </trkpt>
      <trkpt lat="47.82315" lon="-3.57062">
        <ele>64.776184082031</ele>
        <time>2012-08-16T10:13:28Z</time>
      </trkpt>
      <trkpt lat="47.82312" lon="-3.57037">
        <ele>64.748718261719</ele>
        <time>2012-08-16T10:13:32Z</time>
      </trkpt>
      <trkpt lat="47.82312" lon="-3.57008">
        <ele>64.748718261719</ele>
        <time>2012-08-16T10:13:37Z</time>
      </trkpt>
      <trkpt lat="47.82312" lon="-3.56996">
        <ele>64.748718261719</ele>
        <time>2012-08-16T10:13:39Z</time>
      </trkpt>
      <trkpt lat="47.8231" lon="-3.56972">
        <ele>64.725830078125</ele>
        <time>2012-08-16T10:13:43Z</time>
      </trkpt>
      <trkpt lat="47.82308" lon="-3.56959">
        <ele>64.698364257812</ele>
        <time>2012-08-16T10:13:45Z</time>
      </trkpt>
      <trkpt lat="47.82305" lon="-3.56926">
        <ele>64.661743164062</ele>
        <time>2012-08-16T10:13:50Z</time>
      </trkpt>
      <trkpt lat="47.82304" lon="-3.56896">
        <ele>65.14183807373</ele>
        <time>2012-08-16T10:13:55Z</time>
      </trkpt>
      <trkpt lat="47.82303" lon="-3.56863">
        <ele>65.926330566406</ele>
        <time>2012-08-16T10:14:00Z</time>
      </trkpt>
      <trkpt lat="47.82307" lon="-3.56835">
        <ele>66.64673614502</ele>
        <time>2012-08-16T10:14:04Z</time>
      </trkpt>
      <trkpt lat="47.82308" lon="-3.56805">
        <ele>68.633193969727</ele>
        <time>2012-08-16T10:14:08Z</time>
      </trkpt>
      <trkpt lat="47.82312" lon="-3.56792">
        <ele>69.720642089844</ele>
        <time>2012-08-16T10:14:10Z</time>
      </trkpt>
      <trkpt lat="47.82325" lon="-3.56765">
        <ele>72.339485168457</ele>
        <time>2012-08-16T10:14:15Z</time>
      </trkpt>
      <trkpt lat="47.82333" lon="-3.56743">
        <ele>73.76473236084</ele>
        <time>2012-08-16T10:14:20Z</time>
      </trkpt>
      <trkpt lat="47.82333" lon="-3.5674">
        <ele>73.58992767334</ele>
        <time>2012-08-16T10:14:24Z</time>
      </trkpt>
      <trkpt lat="47.82333" lon="-3.5674">
        <ele>73.637969970703</ele>
        <time>2012-08-16T10:14:36Z</time>
      </trkpt>
      <trkpt lat="47.82324" lon="-3.56739">
        <ele>73.068962097168</ele>
        <time>2012-08-16T10:14:43Z</time>
      </trkpt>
      <trkpt lat="47.8232" lon="-3.56737">
        <ele>72.765586853027</ele>
        <time>2012-08-16T10:14:49Z</time>
      </trkpt>
      <trkpt lat="47.82319" lon="-3.56741">
        <ele>72.825782775879</ele>
        <time>2012-08-16T10:14:52Z</time>
      </trkpt>
      <trkpt lat="47.82317" lon="-3.56755">
        <ele>72.676498413086</ele>
        <time>2012-08-16T10:14:57Z</time>
      </trkpt>
      <trkpt lat="47.8231" lon="-3.5677">
        <ele>71.218063354492</ele>
        <time>2012-08-16T10:15:02Z</time>
      </trkpt>
      <trkpt lat="47.82308" lon="-3.56787">
        <ele>69.903633117676</ele>
        <time>2012-08-16T10:15:06Z</time>
      </trkpt>
      <trkpt lat="47.82301" lon="-3.5679">
        <ele>69.424728393555</ele>
        <time>2012-08-16T10:15:09Z</time>
      </trkpt>
      <trkpt lat="47.82294" lon="-3.56785">
        <ele>69.497024536133</ele>
        <time>2012-08-16T10:15:12Z</time>
      </trkpt>
      <trkpt lat="47.8228" lon="-3.56776">
        <ele>69.389213562012</ele>
        <time>2012-08-16T10:15:17Z</time>
      </trkpt>
      <trkpt lat="47.82268" lon="-3.56771">
        <ele>69.116790771484</ele>
        <time>2012-08-16T10:15:22Z</time>
      </trkpt>
      <trkpt lat="47.82268" lon="-3.5677">
        <ele>69.139282226562</ele>
        <time>2012-08-16T10:15:23Z</time>
      </trkpt>
      <trkpt lat="47.82266" lon="-3.56768">
        <ele>69.141540527344</ele>
        <time>2012-08-16T10:15:25Z</time>
      </trkpt>
      <trkpt lat="47.82264" lon="-3.56767">
        <ele>69.067810058594</ele>
        <time>2012-08-16T10:15:26Z</time>
      </trkpt>
      <trkpt lat="47.82249" lon="-3.56767">
        <ele>68.369087219238</ele>
        <time>2012-08-16T10:15:32Z</time>
      </trkpt>
      <trkpt lat="47.8224" lon="-3.56776">
        <ele>67.947319030762</ele>
        <time>2012-08-16T10:15:37Z</time>
      </trkpt>
      <trkpt lat="47.8224" lon="-3.5678">
        <ele>67.814994812012</ele>
        <time>2012-08-16T10:15:41Z</time>
      </trkpt>
      <trkpt lat="47.82229" lon="-3.56797">
        <ele>67.232429504395</ele>
        <time>2012-08-16T10:15:55Z</time>
      </trkpt>
      <trkpt lat="47.82226" lon="-3.56807">
        <ele>66.954742431641</ele>
        <time>2012-08-16T10:15:58Z</time>
      </trkpt>
      <trkpt lat="47.82212" lon="-3.56811">
        <ele>66.886222839355</ele>
        <time>2012-08-16T10:16:04Z</time>
      </trkpt>
      <trkpt lat="47.82204" lon="-3.56812">
        <ele>66.895439147949</ele>
        <time>2012-08-16T10:16:07Z</time>
      </trkpt>
      <trkpt lat="47.82194" lon="-3.56814">
        <ele>66.903991699219</ele>
        <time>2012-08-16T10:16:13Z</time>
      </trkpt>
      <trkpt lat="47.82192" lon="-3.56814">
        <ele>66.905128479004</ele>
        <time>2012-08-16T10:16:14Z</time>
      </trkpt>
      <trkpt lat="47.82183" lon="-3.56813">
        <ele>66.948776245117</ele>
        <time>2012-08-16T10:16:18Z</time>
      </trkpt>
      <trkpt lat="47.82178" lon="-3.56813">
        <ele>66.965408325195</ele>
        <time>2012-08-16T10:16:20Z</time>
      </trkpt>
      <trkpt lat="47.82165" lon="-3.56808">
        <ele>66.950721740723</ele>
        <time>2012-08-16T10:16:26Z</time>
      </trkpt>
      <trkpt lat="47.82149" lon="-3.56808">
        <ele>66.420135498047</ele>
        <time>2012-08-16T10:16:32Z</time>
      </trkpt>
      <trkpt lat="47.82138" lon="-3.56804">
        <ele>66.102333068848</ele>
        <time>2012-08-16T10:16:36Z</time>
      </trkpt>
      <trkpt lat="47.82122" lon="-3.56798">
        <ele>65.629364013672</ele>
        <time>2012-08-16T10:16:42Z</time>
      </trkpt>
      <trkpt lat="47.82111" lon="-3.56794">
        <ele>65.298843383789</ele>
        <time>2012-08-16T10:16:46Z</time>
      </trkpt>
      <trkpt lat="47.82099" lon="-3.56789">
        <ele>64.999618530273</ele>
        <time>2012-08-16T10:16:51Z</time>
      </trkpt>
      <trkpt lat="47.82087" lon="-3.56788">
        <ele>64.642860412598</ele>
        <time>2012-08-16T10:16:55Z</time>
      </trkpt>
      <trkpt lat="47.82074" lon="-3.56796">
        <ele>64.058967590332</ele>
        <time>2012-08-16T10:16:59Z</time>
      </trkpt>
      <trkpt lat="47.82052" lon="-3.5681">
        <ele>63.04027557373</ele>
        <time>2012-08-16T10:17:05Z</time>
      </trkpt>
      <trkpt lat="47.82032" lon="-3.5683">
        <ele>62.181522369385</ele>
        <time>2012-08-16T10:17:11Z</time>
      </trkpt>
      <trkpt lat="47.82011" lon="-3.56841">
        <ele>61.384799957275</ele>
        <time>2012-08-16T10:17:17Z</time>
      </trkpt>
      <trkpt lat="47.81985" lon="-3.56851">
        <ele>61.112735748291</ele>
        <time>2012-08-16T10:17:24Z</time>
      </trkpt>
      <trkpt lat="47.81963" lon="-3.56857">
        <ele>61.374565124512</ele>
        <time>2012-08-16T10:17:30Z</time>
      </trkpt>
      <trkpt lat="47.81951" lon="-3.56864">
        <ele>61.648769378662</ele>
        <time>2012-08-16T10:17:34Z</time>
      </trkpt>
      <trkpt lat="47.81931" lon="-3.56873">
        <ele>62.202743530273</ele>
        <time>2012-08-16T10:17:39Z</time>
      </trkpt>
      <trkpt lat="47.81911" lon="-3.56885">
        <ele>62.657421112061</ele>
        <time>2012-08-16T10:17:44Z</time>
      </trkpt>
      <trkpt lat="47.81904" lon="-3.56887">
        <ele>62.508182525635</ele>
        <time>2012-08-16T10:17:46Z</time>
      </trkpt>
      <trkpt lat="47.81886" lon="-3.56896">
        <ele>62.342784881592</ele>
        <time>2012-08-16T10:17:51Z</time>
      </trkpt>
      <trkpt lat="47.81877" lon="-3.56901">
        <ele>62.28226852417</ele>
        <time>2012-08-16T10:17:53Z</time>
      </trkpt>
      <trkpt lat="47.81863" lon="-3.56914">
        <ele>62.575492858887</ele>
        <time>2012-08-16T10:17:56Z</time>
      </trkpt>
      <trkpt lat="47.81846" lon="-3.56942">
        <ele>61.733764648438</ele>
        <time>2012-08-16T10:18:00Z</time>
      </trkpt>
      <trkpt lat="47.81828" lon="-3.5696">
        <ele>60.799098968506</ele>
        <time>2012-08-16T10:18:04Z</time>
      </trkpt>
      <trkpt lat="47.81822" lon="-3.5696">
        <ele>60.623233795166</ele>
        <time>2012-08-16T10:18:05Z</time>
      </trkpt>
      <trkpt lat="47.81786" lon="-3.56963">
        <ele>59.489791870117</ele>
        <time>2012-08-16T10:18:11Z</time>
      </trkpt>
      <trkpt lat="47.81761" lon="-3.56969">
        <ele>58.693511962891</ele>
        <time>2012-08-16T10:18:15Z</time>
      </trkpt>
      <trkpt lat="47.8175" lon="-3.56971">
        <ele>58.366054534912</ele>
        <time>2012-08-16T10:18:17Z</time>
      </trkpt>
      <trkpt lat="47.81739" lon="-3.56977">
        <ele>58.393333435059</ele>
        <time>2012-08-16T10:18:20Z</time>
      </trkpt>
      <trkpt lat="47.81739" lon="-3.56989">
        <ele>58.321731567383</ele>
        <time>2012-08-16T10:18:25Z</time>
      </trkpt>
      <trkpt lat="47.81741" lon="-3.5699">
        <ele>58.28931427002</ele>
        <time>2012-08-16T10:18:26Z</time>
      </trkpt>
      <trkpt lat="47.81746" lon="-3.57006">
        <ele>57.959545135498</ele>
        <time>2012-08-16T10:18:32Z</time>
      </trkpt>
      <trkpt lat="47.81746" lon="-3.57029">
        <ele>57.426303863525</ele>
        <time>2012-08-16T10:18:37Z</time>
      </trkpt>
      <trkpt lat="47.81746" lon="-3.57045">
        <ele>57.057983398438</ele>
        <time>2012-08-16T10:18:40Z</time>
      </trkpt>
      <trkpt lat="47.81742" lon="-3.57072">
        <ele>56.602375030518</ele>
        <time>2012-08-16T10:18:46Z</time>
      </trkpt>
      <trkpt lat="47.81742" lon="-3.5708">
        <ele>56.479915618896</ele>
        <time>2012-08-16T10:18:48Z</time>
      </trkpt>
      <trkpt lat="47.81735" lon="-3.5709">
        <ele>56.695472717285</ele>
        <time>2012-08-16T10:18:51Z</time>
      </trkpt>
      <trkpt lat="47.81713" lon="-3.57097">
        <ele>57.678913116455</ele>
        <time>2012-08-16T10:18:58Z</time>
      </trkpt>
      <trkpt lat="47.817" lon="-3.57103">
        <ele>58.252407073975</ele>
        <time>2012-08-16T10:19:03Z</time>
      </trkpt>
      <trkpt lat="47.81686" lon="-3.57111">
        <ele>58.83757019043</ele>
        <time>2012-08-16T10:19:08Z</time>
      </trkpt>
      <trkpt lat="47.81671" lon="-3.57118">
        <ele>59.403160095215</ele>
        <time>2012-08-16T10:19:14Z</time>
      </trkpt>
      <trkpt lat="47.81651" lon="-3.5713">
        <ele>60.010681152344</ele>
        <time>2012-08-16T10:19:20Z</time>
      </trkpt>
      <trkpt lat="47.81628" lon="-3.5714">
        <ele>60.704765319824</ele>
        <time>2012-08-16T10:19:26Z</time>
      </trkpt>
      <trkpt lat="47.81612" lon="-3.57149">
        <ele>61.187992095947</ele>
        <time>2012-08-16T10:19:31Z</time>
      </trkpt>
      <trkpt lat="47.81602" lon="-3.57158">
        <ele>61.426029205322</ele>
        <time>2012-08-16T10:19:35Z</time>
      </trkpt>
      <trkpt lat="47.81587" lon="-3.57168">
        <ele>61.887920379639</ele>
        <time>2012-08-16T10:19:39Z</time>
      </trkpt>
      <trkpt lat="47.81564" lon="-3.57184">
        <ele>62.071582794189</ele>
        <time>2012-08-16T10:19:45Z</time>
      </trkpt>
      <trkpt lat="47.81532" lon="-3.57203">
        <ele>62.354633331299</ele>
        <time>2012-08-16T10:19:53Z</time>
      </trkpt>
      <trkpt lat="47.8151" lon="-3.57214">
        <ele>62.69995880127</ele>
        <time>2012-08-16T10:19:58Z</time>
      </trkpt>
      <trkpt lat="47.81495" lon="-3.57209">
        <ele>62.708866119385</ele>
        <time>2012-08-16T10:20:02Z</time>
      </trkpt>
      <trkpt lat="47.81481" lon="-3.57185">
        <ele>62.325202941895</ele>
        <time>2012-08-16T10:20:07Z</time>
      </trkpt>
      <trkpt lat="47.81464" lon="-3.57127">
        <ele>61.823543548584</ele>
        <time>2012-08-16T10:20:15Z</time>
      </trkpt>
      <trkpt lat="47.81461" lon="-3.57112">
        <ele>61.761173248291</ele>
        <time>2012-08-16T10:20:17Z</time>
      </trkpt>
      <trkpt lat="47.81459" lon="-3.57104">
        <ele>61.731704711914</ele>
        <time>2012-08-16T10:20:18Z</time>
      </trkpt>
      <trkpt lat="47.81449" lon="-3.57043">
        <ele>60.777378082275</ele>
        <time>2012-08-16T10:20:25Z</time>
      </trkpt>
      <trkpt lat="47.8144" lon="-3.56978">
        <ele>59.461334228516</ele>
        <time>2012-08-16T10:20:32Z</time>
      </trkpt>
      <trkpt lat="47.81432" lon="-3.56933">
        <ele>59.015014648438</ele>
        <time>2012-08-16T10:20:37Z</time>
      </trkpt>
      <trkpt lat="47.81424" lon="-3.56908">
        <ele>59.303298950195</ele>
        <time>2012-08-16T10:20:40Z</time>
      </trkpt>
      <trkpt lat="47.81404" lon="-3.56864">
        <ele>61.370754241943</ele>
        <time>2012-08-16T10:20:47Z</time>
      </trkpt>
      <trkpt lat="47.81401" lon="-3.56858">
        <ele>61.596435546875</ele>
        <time>2012-08-16T10:20:48Z</time>
      </trkpt>
      <trkpt lat="47.81388" lon="-3.56811">
        <ele>62.477886199951</ele>
        <time>2012-08-16T10:20:55Z</time>
      </trkpt>
      <trkpt lat="47.81369" lon="-3.56741">
        <ele>62.287647247314</ele>
        <time>2012-08-16T10:21:05Z</time>
      </trkpt>
      <trkpt lat="47.81363" lon="-3.56723">
        <ele>62.160411834717</ele>
        <time>2012-08-16T10:21:08Z</time>
      </trkpt>
      <trkpt lat="47.81356" lon="-3.567">
        <ele>62.090045928955</ele>
        <time>2012-08-16T10:21:12Z</time>
      </trkpt>
      <trkpt lat="47.81345" lon="-3.56658">
        <ele>62.13525390625</ele>
        <time>2012-08-16T10:21:20Z</time>
      </trkpt>
      <trkpt lat="47.8134" lon="-3.56645">
        <ele>62.084899902344</ele>
        <time>2012-08-16T10:21:25Z</time>
      </trkpt>
      <trkpt lat="47.81335" lon="-3.56638">
        <ele>62.020812988281</ele>
        <time>2012-08-16T10:21:29Z</time>
      </trkpt>
      <trkpt lat="47.81326" lon="-3.56623">
        <ele>62.1916847229</ele>
        <time>2012-08-16T10:21:33Z</time>
      </trkpt>
      <trkpt lat="47.8132" lon="-3.56594">
        <ele>62.443511962891</ele>
        <time>2012-08-16T10:21:38Z</time>
      </trkpt>
      <trkpt lat="47.81318" lon="-3.56581">
        <ele>62.541809082031</ele>
        <time>2012-08-16T10:21:40Z</time>
      </trkpt>
      <trkpt lat="47.81311" lon="-3.56556">
        <ele>62.789001464844</ele>
        <time>2012-08-16T10:21:44Z</time>
      </trkpt>
      <trkpt lat="47.81302" lon="-3.5652">
        <ele>63.118591308594</ele>
        <time>2012-08-16T10:21:50Z</time>
      </trkpt>
      <trkpt lat="47.81294" lon="-3.5649">
        <ele>63.300048828125</ele>
        <time>2012-08-16T10:21:55Z</time>
      </trkpt>
      <trkpt lat="47.81282" lon="-3.56475">
        <ele>63.542377471924</ele>
        <time>2012-08-16T10:21:59Z</time>
      </trkpt>
      <trkpt lat="47.81269" lon="-3.56462">
        <ele>63.852512359619</ele>
        <time>2012-08-16T10:22:03Z</time>
      </trkpt>
      <trkpt lat="47.81264" lon="-3.56454">
        <ele>63.930904388428</ele>
        <time>2012-08-16T10:22:05Z</time>
      </trkpt>
      <trkpt lat="47.81259" lon="-3.56461">
        <ele>64.201553344727</ele>
        <time>2012-08-16T10:22:09Z</time>
      </trkpt>
      <trkpt lat="47.81259" lon="-3.56465">
        <ele>64.264495849609</ele>
        <time>2012-08-16T10:22:10Z</time>
      </trkpt>
      <trkpt lat="47.81252" lon="-3.56495">
        <ele>64.867599487305</ele>
        <time>2012-08-16T10:22:17Z</time>
      </trkpt>
      <trkpt lat="47.81249" lon="-3.56502">
        <ele>65.018676757812</ele>
        <time>2012-08-16T10:22:19Z</time>
      </trkpt>
      <trkpt lat="47.81241" lon="-3.56504">
        <ele>65.230613708496</ele>
        <time>2012-08-16T10:22:23Z</time>
      </trkpt>
      <trkpt lat="47.81221" lon="-3.56516">
        <ele>65.814781188965</ele>
        <time>2012-08-16T10:22:29Z</time>
      </trkpt>
      <trkpt lat="47.81211" lon="-3.56511">
        <ele>66.070129394531</ele>
        <time>2012-08-16T10:22:33Z</time>
      </trkpt>
      <trkpt lat="47.81205" lon="-3.56509">
        <ele>66.201766967773</ele>
        <time>2012-08-16T10:22:35Z</time>
      </trkpt>
      <trkpt lat="47.81192" lon="-3.56494">
        <ele>66.240882873535</ele>
        <time>2012-08-16T10:22:41Z</time>
      </trkpt>
      <trkpt lat="47.81178" lon="-3.56488">
        <ele>66.353233337402</ele>
        <time>2012-08-16T10:22:45Z</time>
      </trkpt>
      <trkpt lat="47.81171" lon="-3.5649">
        <ele>66.523704528809</ele>
        <time>2012-08-16T10:22:47Z</time>
      </trkpt>
      <trkpt lat="47.8117" lon="-3.56473">
        <ele>65.959548950195</ele>
        <time>2012-08-16T10:22:52Z</time>
      </trkpt>
      <trkpt lat="47.81175" lon="-3.56451">
        <ele>65.134872436523</ele>
        <time>2012-08-16T10:22:57Z</time>
      </trkpt>
      <trkpt lat="47.8118" lon="-3.56443">
        <ele>64.843711853027</ele>
        <time>2012-08-16T10:23:00Z</time>
      </trkpt>
      <trkpt lat="47.81179" lon="-3.56427">
        <ele>64.341011047363</ele>
        <time>2012-08-16T10:23:05Z</time>
      </trkpt>
      <trkpt lat="47.81169" lon="-3.56409">
        <ele>63.991821289062</ele>
        <time>2012-08-16T10:23:10Z</time>
      </trkpt>
      <trkpt lat="47.81167" lon="-3.56406">
        <ele>63.99919128418</ele>
        <time>2012-08-16T10:23:11Z</time>
      </trkpt>
      <trkpt lat="47.81156" lon="-3.56378">
        <ele>63.747802734375</ele>
        <time>2012-08-16T10:23:17Z</time>
      </trkpt>
      <trkpt lat="47.81158" lon="-3.56361">
        <ele>63.793579101562</ele>
        <time>2012-08-16T10:23:22Z</time>
      </trkpt>
      <trkpt lat="47.81159" lon="-3.56358">
        <ele>63.811889648438</ele>
        <time>2012-08-16T10:23:23Z</time>
      </trkpt>
      <trkpt lat="47.81163" lon="-3.56352">
        <ele>63.91259765625</ele>
        <time>2012-08-16T10:23:25Z</time>
      </trkpt>
      <trkpt lat="47.81161" lon="-3.56334">
        <ele>63.857666015625</ele>
        <time>2012-08-16T10:23:30Z</time>
      </trkpt>
      <trkpt lat="47.81155" lon="-3.56314">
        <ele>63.126445770264</ele>
        <time>2012-08-16T10:23:34Z</time>
      </trkpt>
      <trkpt lat="47.81142" lon="-3.56297">
        <ele>62.478267669678</ele>
        <time>2012-08-16T10:23:39Z</time>
      </trkpt>
      <trkpt lat="47.81137" lon="-3.5628">
        <ele>62.060970306396</ele>
        <time>2012-08-16T10:23:43Z</time>
      </trkpt>
      <trkpt lat="47.81136" lon="-3.56277">
        <ele>61.974674224854</ele>
        <time>2012-08-16T10:23:44Z</time>
      </trkpt>
      <trkpt lat="47.81128" lon="-3.56275">
        <ele>61.954486846924</ele>
        <time>2012-08-16T10:23:48Z</time>
      </trkpt>
      <trkpt lat="47.81109" lon="-3.56294">
        <ele>62.180835723877</ele>
        <time>2012-08-16T10:23:54Z</time>
      </trkpt>
      <trkpt lat="47.81091" lon="-3.56308">
        <ele>62.105052947998</ele>
        <time>2012-08-16T10:23:59Z</time>
      </trkpt>
      <trkpt lat="47.81067" lon="-3.56317">
        <ele>61.394470214844</ele>
        <time>2012-08-16T10:24:05Z</time>
      </trkpt>
      <trkpt lat="47.81053" lon="-3.56321">
        <ele>60.913818359375</ele>
        <time>2012-08-16T10:24:08Z</time>
      </trkpt>
      <trkpt lat="47.81039" lon="-3.56322">
        <ele>60.405700683594</ele>
        <time>2012-08-16T10:24:11Z</time>
      </trkpt>
      <trkpt lat="47.8102" lon="-3.56325">
        <ele>59.732788085938</ele>
        <time>2012-08-16T10:24:15Z</time>
      </trkpt>
      <trkpt lat="47.80997" lon="-3.56318">
        <ele>58.96044921875</ele>
        <time>2012-08-16T10:24:20Z</time>
      </trkpt>
      <trkpt lat="47.80983" lon="-3.56313">
        <ele>58.791076660156</ele>
        <time>2012-08-16T10:24:23Z</time>
      </trkpt>
      <trkpt lat="47.80943" lon="-3.56308">
        <ele>58.315002441406</ele>
        <time>2012-08-16T10:24:31Z</time>
      </trkpt>
      <trkpt lat="47.80938" lon="-3.56308">
        <ele>58.255493164062</ele>
        <time>2012-08-16T10:24:32Z</time>
      </trkpt>
      <trkpt lat="47.8092" lon="-3.56311">
        <ele>58.040344238281</ele>
        <time>2012-08-16T10:24:36Z</time>
      </trkpt>
      <trkpt lat="47.80902" lon="-3.56318">
        <ele>57.932640075684</ele>
        <time>2012-08-16T10:24:40Z</time>
      </trkpt>
      <trkpt lat="47.80865" lon="-3.5633">
        <ele>57.945026397705</ele>
        <time>2012-08-16T10:24:47Z</time>
      </trkpt>
      <trkpt lat="47.80851" lon="-3.56336">
        <ele>58.054752349854</ele>
        <time>2012-08-16T10:24:50Z</time>
      </trkpt>
      <trkpt lat="47.80838" lon="-3.56339">
        <ele>58.141342163086</ele>
        <time>2012-08-16T10:24:53Z</time>
      </trkpt>
      <trkpt lat="47.80816" lon="-3.5635">
        <ele>59.046188354492</ele>
        <time>2012-08-16T10:24:58Z</time>
      </trkpt>
      <trkpt lat="47.80811" lon="-3.56353">
        <ele>59.276786804199</ele>
        <time>2012-08-16T10:24:59Z</time>
      </trkpt>
      <trkpt lat="47.80803" lon="-3.56361">
        <ele>59.74885559082</ele>
        <time>2012-08-16T10:25:01Z</time>
      </trkpt>
      <trkpt lat="47.80796" lon="-3.56368">
        <ele>60.186592102051</ele>
        <time>2012-08-16T10:25:03Z</time>
      </trkpt>
      <trkpt lat="47.8078" lon="-3.56383">
        <ele>61.130157470703</ele>
        <time>2012-08-16T10:25:08Z</time>
      </trkpt>
      <trkpt lat="47.80765" lon="-3.56396">
        <ele>61.947265625</ele>
        <time>2012-08-16T10:25:12Z</time>
      </trkpt>
      <trkpt lat="47.80759" lon="-3.56403">
        <ele>62.358108520508</ele>
        <time>2012-08-16T10:25:14Z</time>
      </trkpt>
      <trkpt lat="47.80736" lon="-3.56419">
        <ele>62.455852508545</ele>
        <time>2012-08-16T10:25:19Z</time>
      </trkpt>
      <trkpt lat="47.80732" lon="-3.56423">
        <ele>62.264450073242</ele>
        <time>2012-08-16T10:25:20Z</time>
      </trkpt>
      <trkpt lat="47.80716" lon="-3.56436">
        <ele>61.529739379883</ele>
        <time>2012-08-16T10:25:24Z</time>
      </trkpt>
      <trkpt lat="47.80705" lon="-3.56446">
        <ele>61.042221069336</ele>
        <time>2012-08-16T10:25:27Z</time>
      </trkpt>
      <trkpt lat="47.80687" lon="-3.56465">
        <ele>60.159881591797</ele>
        <time>2012-08-16T10:25:32Z</time>
      </trkpt>
      <trkpt lat="47.80683" lon="-3.56469">
        <ele>59.965618133545</ele>
        <time>2012-08-16T10:25:33Z</time>
      </trkpt>
      <trkpt lat="47.80675" lon="-3.56477">
        <ele>59.580810546875</ele>
        <time>2012-08-16T10:25:35Z</time>
      </trkpt>
      <trkpt lat="47.80661" lon="-3.56496">
        <ele>58.984466552734</ele>
        <time>2012-08-16T10:25:39Z</time>
      </trkpt>
      <trkpt lat="47.80632" lon="-3.56546">
        <ele>58.898433685303</ele>
        <time>2012-08-16T10:25:48Z</time>
      </trkpt>
      <trkpt lat="47.8062" lon="-3.56566">
        <ele>58.79162979126</ele>
        <time>2012-08-16T10:25:52Z</time>
      </trkpt>
      <trkpt lat="47.80615" lon="-3.56576">
        <ele>58.733642578125</ele>
        <time>2012-08-16T10:25:54Z</time>
      </trkpt>
      <trkpt lat="47.80597" lon="-3.5659">
        <ele>58.441528320312</ele>
        <time>2012-08-16T10:25:59Z</time>
      </trkpt>
      <trkpt lat="47.80593" lon="-3.5659">
        <ele>58.330642700195</ele>
        <time>2012-08-16T10:26:00Z</time>
      </trkpt>
      <trkpt lat="47.80582" lon="-3.56592">
        <ele>58.068519592285</ele>
        <time>2012-08-16T10:26:02Z</time>
      </trkpt>
      <trkpt lat="47.8054" lon="-3.56602">
        <ele>57.29984664917</ele>
        <time>2012-08-16T10:26:09Z</time>
      </trkpt>
      <trkpt lat="47.8052" lon="-3.56606">
        <ele>56.953453063965</ele>
        <time>2012-08-16T10:26:12Z</time>
      </trkpt>
      <trkpt lat="47.80476" lon="-3.56618">
        <ele>56.475944519043</ele>
        <time>2012-08-16T10:26:19Z</time>
      </trkpt>
      <trkpt lat="47.80447" lon="-3.56626">
        <ele>56.040420532227</ele>
        <time>2012-08-16T10:26:24Z</time>
      </trkpt>
      <trkpt lat="47.80425" lon="-3.56622">
        <ele>55.675594329834</ele>
        <time>2012-08-16T10:26:28Z</time>
      </trkpt>
      <trkpt lat="47.80419" lon="-3.56608">
        <ele>55.730617523193</ele>
        <time>2012-08-16T10:26:31Z</time>
      </trkpt>
      <trkpt lat="47.80396" lon="-3.56598">
        <ele>56.063938140869</ele>
        <time>2012-08-16T10:26:35Z</time>
      </trkpt>
      <trkpt lat="47.80361" lon="-3.56595">
        <ele>56.520843505859</ele>
        <time>2012-08-16T10:26:41Z</time>
      </trkpt>
      <trkpt lat="47.80352" lon="-3.56591">
        <ele>56.684494018555</ele>
        <time>2012-08-16T10:26:43Z</time>
      </trkpt>
      <trkpt lat="47.8034" lon="-3.56587">
        <ele>56.878471374512</ele>
        <time>2012-08-16T10:26:46Z</time>
      </trkpt>
      <trkpt lat="47.8031" lon="-3.56576">
        <ele>57.129901885986</ele>
        <time>2012-08-16T10:26:53Z</time>
      </trkpt>
      <trkpt lat="47.8029" lon="-3.5657">
        <ele>57.153011322021</ele>
        <time>2012-08-16T10:26:58Z</time>
      </trkpt>
      <trkpt lat="47.8026" lon="-3.56564">
        <ele>57.058864593506</ele>
        <time>2012-08-16T10:27:05Z</time>
      </trkpt>
      <trkpt lat="47.80252" lon="-3.56561">
        <ele>57.015941619873</ele>
        <time>2012-08-16T10:27:07Z</time>
      </trkpt>
      <trkpt lat="47.80241" lon="-3.56555">
        <ele>56.924282073975</ele>
        <time>2012-08-16T10:27:10Z</time>
      </trkpt>
      <trkpt lat="47.8023" lon="-3.56551">
        <ele>56.816326141357</ele>
        <time>2012-08-16T10:27:13Z</time>
      </trkpt>
      <trkpt lat="47.80216" lon="-3.56542">
        <ele>56.595565795898</ele>
        <time>2012-08-16T10:27:19Z</time>
      </trkpt>
      <trkpt lat="47.80216" lon="-3.56542">
        <ele>56.596370697021</ele>
        <time>2012-08-16T10:27:24Z</time>
      </trkpt>
      <trkpt lat="47.80217" lon="-3.56541">
        <ele>56.594829559326</ele>
        <time>2012-08-16T10:27:30Z</time>
      </trkpt>
      <trkpt lat="47.80217" lon="-3.56541">
        <ele>56.60018157959</ele>
        <time>2012-08-16T10:27:35Z</time>
      </trkpt>
      <trkpt lat="47.8021" lon="-3.56539">
        <ele>56.493556976318</ele>
        <time>2012-08-16T10:27:39Z</time>
      </trkpt>
      <trkpt lat="47.80193" lon="-3.56531">
        <ele>56.129230499268</ele>
        <time>2012-08-16T10:27:44Z</time>
      </trkpt>
      <trkpt lat="47.80172" lon="-3.56522">
        <ele>55.625953674316</ele>
        <time>2012-08-16T10:27:48Z</time>
      </trkpt>
      <trkpt lat="47.8014" lon="-3.56521">
        <ele>54.946014404297</ele>
        <time>2012-08-16T10:27:53Z</time>
      </trkpt>
      <trkpt lat="47.80111" lon="-3.56506">
        <ele>53.869113922119</ele>
        <time>2012-08-16T10:27:58Z</time>
      </trkpt>
      <trkpt lat="47.80066" lon="-3.56473">
        <ele>52.551086425781</ele>
        <time>2012-08-16T10:28:07Z</time>
      </trkpt>
      <trkpt lat="47.80057" lon="-3.56467">
        <ele>52.529342651367</ele>
        <time>2012-08-16T10:28:09Z</time>
      </trkpt>
      <trkpt lat="47.8004" lon="-3.56459">
        <ele>52.537925720215</ele>
        <time>2012-08-16T10:28:13Z</time>
      </trkpt>
      <trkpt lat="47.80012" lon="-3.56452">
        <ele>52.709587097168</ele>
        <time>2012-08-16T10:28:19Z</time>
      </trkpt>
      <trkpt lat="47.79998" lon="-3.56453">
        <ele>52.779739379883</ele>
        <time>2012-08-16T10:28:22Z</time>
      </trkpt>
      <trkpt lat="47.79984" lon="-3.56454">
        <ele>52.325408935547</ele>
        <time>2012-08-16T10:28:25Z</time>
      </trkpt>
      <trkpt lat="47.79962" lon="-3.56445">
        <ele>51.308029174805</ele>
        <time>2012-08-16T10:28:30Z</time>
      </trkpt>
      <trkpt lat="47.79929" lon="-3.56433">
        <ele>49.812858581543</ele>
        <time>2012-08-16T10:28:36Z</time>
      </trkpt>
      <trkpt lat="47.79894" lon="-3.56421">
        <ele>48.839508056641</ele>
        <time>2012-08-16T10:28:42Z</time>
      </trkpt>
      <trkpt lat="47.79868" lon="-3.56411">
        <ele>48.240631103516</ele>
        <time>2012-08-16T10:28:47Z</time>
      </trkpt>
      <trkpt lat="47.79857" lon="-3.56407">
        <ele>48.019096374512</ele>
        <time>2012-08-16T10:28:49Z</time>
      </trkpt>
      <trkpt lat="47.79842" lon="-3.56401">
        <ele>47.715385437012</ele>
        <time>2012-08-16T10:28:52Z</time>
      </trkpt>
      <trkpt lat="47.79827" lon="-3.56395">
        <ele>47.437923431396</ele>
        <time>2012-08-16T10:28:55Z</time>
      </trkpt>
      <trkpt lat="47.79809" lon="-3.5639">
        <ele>47.253246307373</ele>
        <time>2012-08-16T10:28:58Z</time>
      </trkpt>
      <trkpt lat="47.79767" lon="-3.56382">
        <ele>47.03540802002</ele>
        <time>2012-08-16T10:29:05Z</time>
      </trkpt>
      <trkpt lat="47.79729" lon="-3.5637">
        <ele>48.371669769287</ele>
        <time>2012-08-16T10:29:12Z</time>
      </trkpt>
      <trkpt lat="47.79706" lon="-3.56363">
        <ele>49.970119476318</ele>
        <time>2012-08-16T10:29:17Z</time>
      </trkpt>
      <trkpt lat="47.79689" lon="-3.56357">
        <ele>51.205322265625</ele>
        <time>2012-08-16T10:29:21Z</time>
      </trkpt>
      <trkpt lat="47.79681" lon="-3.56355">
        <ele>51.773204803467</ele>
        <time>2012-08-16T10:29:23Z</time>
      </trkpt>
      <trkpt lat="47.79665" lon="-3.5635">
        <ele>52.796325683594</ele>
        <time>2012-08-16T10:29:27Z</time>
      </trkpt>
      <trkpt lat="47.79657" lon="-3.56348">
        <ele>52.79088973999</ele>
        <time>2012-08-16T10:29:29Z</time>
      </trkpt>
      <trkpt lat="47.79653" lon="-3.56347">
        <ele>52.78092956543</ele>
        <time>2012-08-16T10:29:30Z</time>
      </trkpt>
      <trkpt lat="47.79639" lon="-3.56342">
        <ele>52.7053565979</ele>
        <time>2012-08-16T10:29:34Z</time>
      </trkpt>
      <trkpt lat="47.79622" lon="-3.56331">
        <ele>52.414329528809</ele>
        <time>2012-08-16T10:29:39Z</time>
      </trkpt>
      <trkpt lat="47.79604" lon="-3.56315">
        <ele>52.083873748779</ele>
        <time>2012-08-16T10:29:44Z</time>
      </trkpt>
      <trkpt lat="47.79596" lon="-3.5631">
        <ele>52.022529602051</ele>
        <time>2012-08-16T10:29:46Z</time>
      </trkpt>
      <trkpt lat="47.79572" lon="-3.56296">
        <ele>52.338405609131</ele>
        <time>2012-08-16T10:29:52Z</time>
      </trkpt>
      <trkpt lat="47.79562" lon="-3.56287">
        <ele>52.614013671875</ele>
        <time>2012-08-16T10:29:55Z</time>
      </trkpt>
      <trkpt lat="47.7955" lon="-3.5627">
        <ele>52.902599334717</ele>
        <time>2012-08-16T10:29:59Z</time>
      </trkpt>
      <trkpt lat="47.79519" lon="-3.56251">
        <ele>53.553932189941</ele>
        <time>2012-08-16T10:30:06Z</time>
      </trkpt>
      <trkpt lat="47.79486" lon="-3.56235">
        <ele>53.676189422607</ele>
        <time>2012-08-16T10:30:13Z</time>
      </trkpt>
      <trkpt lat="47.79461" lon="-3.56234">
        <ele>53.709182739258</ele>
        <time>2012-08-16T10:30:18Z</time>
      </trkpt>
      <trkpt lat="47.7944" lon="-3.56233">
        <ele>53.734535217285</ele>
        <time>2012-08-16T10:30:23Z</time>
      </trkpt>
      <trkpt lat="47.79402" lon="-3.56213">
        <ele>53.022022247314</ele>
        <time>2012-08-16T10:30:31Z</time>
      </trkpt>
      <trkpt lat="47.79375" lon="-3.56191">
        <ele>51.777763366699</ele>
        <time>2012-08-16T10:30:37Z</time>
      </trkpt>
      <trkpt lat="47.79349" lon="-3.56166">
        <ele>50.538394927979</ele>
        <time>2012-08-16T10:30:43Z</time>
      </trkpt>
      <trkpt lat="47.79325" lon="-3.56144">
        <ele>48.86116027832</ele>
        <time>2012-08-16T10:30:48Z</time>
      </trkpt>
      <trkpt lat="47.79291" lon="-3.56118">
        <ele>45.771255493164</ele>
        <time>2012-08-16T10:30:54Z</time>
      </trkpt>
      <trkpt lat="47.79271" lon="-3.56107">
        <ele>44.056930541992</ele>
        <time>2012-08-16T10:30:57Z</time>
      </trkpt>
      <trkpt lat="47.79232" lon="-3.56096">
        <ele>41.829063415527</ele>
        <time>2012-08-16T10:31:02Z</time>
      </trkpt>
      <trkpt lat="47.79193" lon="-3.56093">
        <ele>40.778667449951</ele>
        <time>2012-08-16T10:31:07Z</time>
      </trkpt>
      <trkpt lat="47.79179" lon="-3.56096">
        <ele>40.474533081055</ele>
        <time>2012-08-16T10:31:09Z</time>
      </trkpt>
      <trkpt lat="47.79155" lon="-3.56088">
        <ele>39.622585296631</ele>
        <time>2012-08-16T10:31:13Z</time>
      </trkpt>
      <trkpt lat="47.7915" lon="-3.56083">
        <ele>39.387020111084</ele>
        <time>2012-08-16T10:31:14Z</time>
      </trkpt>
      <trkpt lat="47.79117" lon="-3.56053">
        <ele>38.492744445801</ele>
        <time>2012-08-16T10:31:20Z</time>
      </trkpt>
      <trkpt lat="47.79078" lon="-3.56023">
        <ele>38.15909576416</ele>
        <time>2012-08-16T10:31:28Z</time>
      </trkpt>
      <trkpt lat="47.79045" lon="-3.56008">
        <ele>36.995231628418</ele>
        <time>2012-08-16T10:31:34Z</time>
      </trkpt>
      <trkpt lat="47.79006" lon="-3.56001">
        <ele>35.26545715332</ele>
        <time>2012-08-16T10:31:40Z</time>
      </trkpt>
      <trkpt lat="47.7896" lon="-3.55992">
        <ele>33.182277679443</ele>
        <time>2012-08-16T10:31:46Z</time>
      </trkpt>
      <trkpt lat="47.78926" lon="-3.55978">
        <ele>31.72887802124</ele>
        <time>2012-08-16T10:31:50Z</time>
      </trkpt>
      <trkpt lat="47.78911" lon="-3.55972">
        <ele>31.241590499878</ele>
        <time>2012-08-16T10:31:52Z</time>
      </trkpt>
      <trkpt lat="47.78872" lon="-3.55955">
        <ele>31.038734436035</ele>
        <time>2012-08-16T10:31:58Z</time>
      </trkpt>
      <trkpt lat="47.78842" lon="-3.55931">
        <ele>31.53574180603</ele>
        <time>2012-08-16T10:32:04Z</time>
      </trkpt>
      <trkpt lat="47.78826" lon="-3.55908">
        <ele>31.998329162598</ele>
        <time>2012-08-16T10:32:08Z</time>
      </trkpt>
      <trkpt lat="47.78822" lon="-3.55903">
        <ele>32.009811401367</ele>
        <time>2012-08-16T10:32:09Z</time>
      </trkpt>
      <trkpt lat="47.78815" lon="-3.5589">
        <ele>32.028026580811</ele>
        <time>2012-08-16T10:32:11Z</time>
      </trkpt>
      <trkpt lat="47.78798" lon="-3.55846">
        <ele>32.065799713135</ele>
        <time>2012-08-16T10:32:17Z</time>
      </trkpt>
      <trkpt lat="47.78784" lon="-3.55779">
        <ele>31.424474716186</ele>
        <time>2012-08-16T10:32:25Z</time>
      </trkpt>
      <trkpt lat="47.78773" lon="-3.55725">
        <ele>29.825061798096</ele>
        <time>2012-08-16T10:32:31Z</time>
      </trkpt>
      <trkpt lat="47.78769" lon="-3.55671">
        <ele>27.280975341797</ele>
        <time>2012-08-16T10:32:36Z</time>
      </trkpt>
      <trkpt lat="47.7877" lon="-3.55604">
        <ele>24.205307006836</ele>
        <time>2012-08-16T10:32:41Z</time>
      </trkpt>
      <trkpt lat="47.78784" lon="-3.5553">
        <ele>21.390117645264</ele>
        <time>2012-08-16T10:32:46Z</time>
      </trkpt>
      <trkpt lat="47.78795" lon="-3.55479">
        <ele>19.725927352905</ele>
        <time>2012-08-16T10:32:50Z</time>
      </trkpt>
      <trkpt lat="47.78801" lon="-3.5545">
        <ele>18.765716552734</ele>
        <time>2012-08-16T10:32:53Z</time>
      </trkpt>
      <trkpt lat="47.78803" lon="-3.55441">
        <ele>18.441934585571</ele>
        <time>2012-08-16T10:32:54Z</time>
      </trkpt>
      <trkpt lat="47.78805" lon="-3.55434">
        <ele>18.163856506348</ele>
        <time>2012-08-16T10:32:55Z</time>
      </trkpt>
      <trkpt lat="47.78811" lon="-3.55417">
        <ele>17.644756317139</ele>
        <time>2012-08-16T10:32:58Z</time>
      </trkpt>
      <trkpt lat="47.78806" lon="-3.55412">
        <ele>17.150009155273</ele>
        <time>2012-08-16T10:33:02Z</time>
      </trkpt>
      <trkpt lat="47.7879" lon="-3.55426">
        <ele>16.867021560669</ele>
        <time>2012-08-16T10:33:06Z</time>
      </trkpt>
      <trkpt lat="47.78783" lon="-3.55445">
        <ele>17.267503738403</ele>
        <time>2012-08-16T10:33:08Z</time>
      </trkpt>
      <trkpt lat="47.78769" lon="-3.55477">
        <ele>17.624134063721</ele>
        <time>2012-08-16T10:33:12Z</time>
      </trkpt>
      <trkpt lat="47.78747" lon="-3.5551">
        <ele>17.526784896851</ele>
        <time>2012-08-16T10:33:17Z</time>
      </trkpt>
      <trkpt lat="47.78733" lon="-3.55523">
        <ele>17.946496963501</ele>
        <time>2012-08-16T10:33:20Z</time>
      </trkpt>
      <trkpt lat="47.78712" lon="-3.5554">
        <ele>18.283987045288</ele>
        <time>2012-08-16T10:33:24Z</time>
      </trkpt>
      <trkpt lat="47.78692" lon="-3.55554">
        <ele>18.39414024353</ele>
        <time>2012-08-16T10:33:28Z</time>
      </trkpt>
      <trkpt lat="47.78688" lon="-3.55557">
        <ele>18.431526184082</ele>
        <time>2012-08-16T10:33:29Z</time>
      </trkpt>
      <trkpt lat="47.78677" lon="-3.55568">
        <ele>18.583524703979</ele>
        <time>2012-08-16T10:33:34Z</time>
      </trkpt>
      <trkpt lat="47.7867" lon="-3.55572">
        <ele>18.583227157593</ele>
        <time>2012-08-16T10:33:37Z</time>
      </trkpt>
      <trkpt lat="47.78666" lon="-3.55576">
        <ele>18.661651611328</ele>
        <time>2012-08-16T10:33:39Z</time>
      </trkpt>
      <trkpt lat="47.78661" lon="-3.55583">
        <ele>18.984300613403</ele>
        <time>2012-08-16T10:33:43Z</time>
      </trkpt>
      <trkpt lat="47.78657" lon="-3.55586">
        <ele>19.132781982422</ele>
        <time>2012-08-16T10:33:45Z</time>
      </trkpt>
      <trkpt lat="47.78654" lon="-3.55602">
        <ele>19.889236450195</ele>
        <time>2012-08-16T10:33:50Z</time>
      </trkpt>
      <trkpt lat="47.78653" lon="-3.55625">
        <ele>21.016479492188</ele>
        <time>2012-08-16T10:33:55Z</time>
      </trkpt>
      <trkpt lat="47.78647" lon="-3.5566">
        <ele>22.670150756836</ele>
        <time>2012-08-16T10:34:01Z</time>
      </trkpt>
      <trkpt lat="47.78646" lon="-3.55681">
        <ele>23.207855224609</ele>
        <time>2012-08-16T10:34:04Z</time>
      </trkpt>
      <trkpt lat="47.78643" lon="-3.55702">
        <ele>23.539012908936</ele>
        <time>2012-08-16T10:34:08Z</time>
      </trkpt>
      <trkpt lat="47.7864" lon="-3.55719">
        <ele>23.829965591431</ele>
        <time>2012-08-16T10:34:11Z</time>
      </trkpt>
      <trkpt lat="47.78631" lon="-3.55756">
        <ele>24.397048950195</ele>
        <time>2012-08-16T10:34:17Z</time>
      </trkpt>
      <trkpt lat="47.78625" lon="-3.5578">
        <ele>24.321500778198</ele>
        <time>2012-08-16T10:34:21Z</time>
      </trkpt>
      <trkpt lat="47.7861" lon="-3.55805">
        <ele>24.231687545776</ele>
        <time>2012-08-16T10:34:26Z</time>
      </trkpt>
      <trkpt lat="47.78607" lon="-3.55811">
        <ele>24.191930770874</ele>
        <time>2012-08-16T10:34:27Z</time>
      </trkpt>
      <trkpt lat="47.78598" lon="-3.55843">
        <ele>23.843469619751</ele>
        <time>2012-08-16T10:34:32Z</time>
      </trkpt>
      <trkpt lat="47.78598" lon="-3.55862">
        <ele>23.529348373413</ele>
        <time>2012-08-16T10:34:35Z</time>
      </trkpt>
      <trkpt lat="47.786" lon="-3.55872">
        <ele>23.358024597168</ele>
        <time>2012-08-16T10:34:37Z</time>
      </trkpt>
      <trkpt lat="47.78598" lon="-3.55903">
        <ele>22.859973907471</ele>
        <time>2012-08-16T10:34:43Z</time>
      </trkpt>
      <trkpt lat="47.786" lon="-3.55911">
        <ele>22.703294754028</ele>
        <time>2012-08-16T10:34:47Z</time>
      </trkpt>
      <trkpt lat="47.78595" lon="-3.55915">
        <ele>22.735872268677</ele>
        <time>2012-08-16T10:34:54Z</time>
      </trkpt>
      <trkpt lat="47.78589" lon="-3.55916">
        <ele>22.864562988281</ele>
        <time>2012-08-16T10:35:01Z</time>
      </trkpt>
      <trkpt lat="47.78589" lon="-3.55923">
        <ele>22.999441146851</ele>
        <time>2012-08-16T10:35:07Z</time>
      </trkpt>
      <trkpt lat="47.78587" lon="-3.55931">
        <ele>23.246030807495</ele>
        <time>2012-08-16T10:35:12Z</time>
      </trkpt>
      <trkpt lat="47.78586" lon="-3.55932">
        <ele>23.287412643433</ele>
        <time>2012-08-16T10:35:13Z</time>
      </trkpt>
      <trkpt lat="47.7858" lon="-3.55937">
        <ele>23.788570404053</ele>
        <time>2012-08-16T10:35:19Z</time>
      </trkpt>
      <trkpt lat="47.78578" lon="-3.55942">
        <ele>24.182069778442</ele>
        <time>2012-08-16T10:35:23Z</time>
      </trkpt>
      <trkpt lat="47.78577" lon="-3.55948">
        <ele>24.39529800415</ele>
        <time>2012-08-16T10:35:27Z</time>
      </trkpt>
      <trkpt lat="47.78572" lon="-3.55954">
        <ele>24.998788833618</ele>
        <time>2012-08-16T10:35:34Z</time>
      </trkpt>
      <trkpt lat="47.78566" lon="-3.55956">
        <ele>25.669242858887</ele>
        <time>2012-08-16T10:35:41Z</time>
      </trkpt>
      <trkpt lat="47.78563" lon="-3.55959">
        <ele>25.931394577026</ele>
        <time>2012-08-16T10:35:43Z</time>
      </trkpt>
      <trkpt lat="47.78558" lon="-3.55972">
        <ele>26.563196182251</ele>
        <time>2012-08-16T10:35:48Z</time>
      </trkpt>
      <trkpt lat="47.78554" lon="-3.55987">
        <ele>27.035116195679</ele>
        <time>2012-08-16T10:35:52Z</time>
      </trkpt>
      <trkpt lat="47.78544" lon="-3.5601">
        <ele>27.790370941162</ele>
        <time>2012-08-16T10:35:58Z</time>
      </trkpt>
      <trkpt lat="47.78534" lon="-3.56026">
        <ele>28.339651107788</ele>
        <time>2012-08-16T10:36:03Z</time>
      </trkpt>
      <trkpt lat="47.78524" lon="-3.56042">
        <ele>28.6721534729</ele>
        <time>2012-08-16T10:36:09Z</time>
      </trkpt>
      <trkpt lat="47.78516" lon="-3.56053">
        <ele>28.960018157959</ele>
        <time>2012-08-16T10:36:13Z</time>
      </trkpt>
      <trkpt lat="47.78513" lon="-3.56057">
        <ele>29.012550354004</ele>
        <time>2012-08-16T10:36:15Z</time>
      </trkpt>
      <trkpt lat="47.78504" lon="-3.5607">
        <ele>29.163068771362</ele>
        <time>2012-08-16T10:36:20Z</time>
      </trkpt>
      <trkpt lat="47.78498" lon="-3.56078">
        <ele>29.349990844727</ele>
        <time>2012-08-16T10:36:23Z</time>
      </trkpt>
      <trkpt lat="47.78488" lon="-3.56094">
        <ele>30.34361076355</ele>
        <time>2012-08-16T10:36:29Z</time>
      </trkpt>
      <trkpt lat="47.78485" lon="-3.561">
        <ele>30.747812271118</ele>
        <time>2012-08-16T10:36:32Z</time>
      </trkpt>
      <trkpt lat="47.78469" lon="-3.56118">
        <ele>32.339206695557</ele>
        <time>2012-08-16T10:36:39Z</time>
      </trkpt>
      <trkpt lat="47.78463" lon="-3.56122">
        <ele>32.836761474609</ele>
        <time>2012-08-16T10:36:41Z</time>
      </trkpt>
      <trkpt lat="47.78452" lon="-3.56132">
        <ele>33.800331115723</ele>
        <time>2012-08-16T10:36:46Z</time>
      </trkpt>
      <trkpt lat="47.78445" lon="-3.56132">
        <ele>34.287742614746</ele>
        <time>2012-08-16T10:36:48Z</time>
      </trkpt>
      <trkpt lat="47.78427" lon="-3.56148">
        <ele>35.539619445801</ele>
        <time>2012-08-16T10:36:55Z</time>
      </trkpt>
      <trkpt lat="47.78424" lon="-3.56151">
        <ele>35.665115356445</ele>
        <time>2012-08-16T10:36:56Z</time>
      </trkpt>
      <trkpt lat="47.7842" lon="-3.56167">
        <ele>35.807571411133</ele>
        <time>2012-08-16T10:37:01Z</time>
      </trkpt>
      <trkpt lat="47.78418" lon="-3.56187">
        <ele>35.950023651123</ele>
        <time>2012-08-16T10:37:07Z</time>
      </trkpt>
      <trkpt lat="47.78411" lon="-3.56207">
        <ele>36.533973693848</ele>
        <time>2012-08-16T10:37:14Z</time>
      </trkpt>
      <trkpt lat="47.78403" lon="-3.56217">
        <ele>37.237739562988</ele>
        <time>2012-08-16T10:37:19Z</time>
      </trkpt>
      <trkpt lat="47.78391" lon="-3.56227">
        <ele>38.388969421387</ele>
        <time>2012-08-16T10:37:25Z</time>
      </trkpt>
      <trkpt lat="47.78386" lon="-3.56234">
        <ele>38.881198883057</ele>
        <time>2012-08-16T10:37:29Z</time>
      </trkpt>
      <trkpt lat="47.78377" lon="-3.56247">
        <ele>39.814464569092</ele>
        <time>2012-08-16T10:37:37Z</time>
      </trkpt>
      <trkpt lat="47.78372" lon="-3.56254">
        <ele>40.376598358154</ele>
        <time>2012-08-16T10:37:41Z</time>
      </trkpt>
      <trkpt lat="47.78369" lon="-3.56263">
        <ele>40.942836761475</ele>
        <time>2012-08-16T10:37:45Z</time>
      </trkpt>
      <trkpt lat="47.78359" lon="-3.56273">
        <ele>42.052474975586</ele>
        <time>2012-08-16T10:37:51Z</time>
      </trkpt>
      <trkpt lat="47.78349" lon="-3.5629">
        <ele>43.249355316162</ele>
        <time>2012-08-16T10:37:58Z</time>
      </trkpt>
      <trkpt lat="47.78338" lon="-3.56305">
        <ele>44.334362030029</ele>
        <time>2012-08-16T10:38:05Z</time>
      </trkpt>
      <trkpt lat="47.78329" lon="-3.56323">
        <ele>44.983432769775</ele>
        <time>2012-08-16T10:38:12Z</time>
      </trkpt>
      <trkpt lat="47.78323" lon="-3.56338">
        <ele>45.299964904785</ele>
        <time>2012-08-16T10:38:18Z</time>
      </trkpt>
      <trkpt lat="47.78318" lon="-3.56342">
        <ele>45.457111358643</ele>
        <time>2012-08-16T10:38:21Z</time>
      </trkpt>
      <trkpt lat="47.78309" lon="-3.56339">
        <ele>45.630432128906</ele>
        <time>2012-08-16T10:38:25Z</time>
      </trkpt>
      <trkpt lat="47.78297" lon="-3.56337">
        <ele>45.887336730957</ele>
        <time>2012-08-16T10:38:29Z</time>
      </trkpt>
      <trkpt lat="47.78285" lon="-3.56337">
        <ele>46.173496246338</ele>
        <time>2012-08-16T10:38:35Z</time>
      </trkpt>
      <trkpt lat="47.78285" lon="-3.5635">
        <ele>46.241325378418</ele>
        <time>2012-08-16T10:38:40Z</time>
      </trkpt>
      <trkpt lat="47.78285" lon="-3.56353">
        <ele>46.265090942383</ele>
        <time>2012-08-16T10:38:41Z</time>
      </trkpt>
      <trkpt lat="47.78278" lon="-3.56372">
        <ele>46.478893280029</ele>
        <time>2012-08-16T10:38:46Z</time>
      </trkpt>
      <trkpt lat="47.78263" lon="-3.564">
        <ele>46.817733764648</ele>
        <time>2012-08-16T10:38:52Z</time>
      </trkpt>
      <trkpt lat="47.78249" lon="-3.56421">
        <ele>46.863426208496</ele>
        <time>2012-08-16T10:38:56Z</time>
      </trkpt>
      <trkpt lat="47.78245" lon="-3.56432">
        <ele>46.576145172119</ele>
        <time>2012-08-16T10:38:58Z</time>
      </trkpt>
      <trkpt lat="47.78243" lon="-3.56451">
        <ele>45.959869384766</ele>
        <time>2012-08-16T10:39:01Z</time>
      </trkpt>
      <trkpt lat="47.78243" lon="-3.56463">
        <ele>45.564628601074</ele>
        <time>2012-08-16T10:39:03Z</time>
      </trkpt>
      <trkpt lat="47.78231" lon="-3.56494">
        <ele>44.884273529053</ele>
        <time>2012-08-16T10:39:08Z</time>
      </trkpt>
      <trkpt lat="47.78222" lon="-3.56516">
        <ele>44.998107910156</ele>
        <time>2012-08-16T10:39:11Z</time>
      </trkpt>
      <trkpt lat="47.78214" lon="-3.56556">
        <ele>45.286499023438</ele>
        <time>2012-08-16T10:39:17Z</time>
      </trkpt>
      <trkpt lat="47.78211" lon="-3.56598">
        <ele>45.843765258789</ele>
        <time>2012-08-16T10:39:23Z</time>
      </trkpt>
      <trkpt lat="47.78211" lon="-3.56612">
        <ele>46.292434692383</ele>
        <time>2012-08-16T10:39:25Z</time>
      </trkpt>
      <trkpt lat="47.7821" lon="-3.56627">
        <ele>46.747268676758</ele>
        <time>2012-08-16T10:39:27Z</time>
      </trkpt>
      <trkpt lat="47.78204" lon="-3.5666">
        <ele>47.920219421387</ele>
        <time>2012-08-16T10:39:32Z</time>
      </trkpt>
      <trkpt lat="47.78202" lon="-3.56666">
        <ele>48.130867004395</ele>
        <time>2012-08-16T10:39:33Z</time>
      </trkpt>
      <trkpt lat="47.78197" lon="-3.56692">
        <ele>48.675010681152</ele>
        <time>2012-08-16T10:39:37Z</time>
      </trkpt>
      <trkpt lat="47.78195" lon="-3.5672">
        <ele>49.169410705566</ele>
        <time>2012-08-16T10:39:41Z</time>
      </trkpt>
      <trkpt lat="47.78188" lon="-3.56758">
        <ele>49.858875274658</ele>
        <time>2012-08-16T10:39:47Z</time>
      </trkpt>
      <trkpt lat="47.78186" lon="-3.5677">
        <ele>50.061870574951</ele>
        <time>2012-08-16T10:39:49Z</time>
      </trkpt>
      <trkpt lat="47.78179" lon="-3.56795">
        <ele>50.474620819092</ele>
        <time>2012-08-16T10:39:54Z</time>
      </trkpt>
      <trkpt lat="47.78168" lon="-3.5682">
        <ele>50.841026306152</ele>
        <time>2012-08-16T10:40:01Z</time>
      </trkpt>
      <trkpt lat="47.78169" lon="-3.56822">
        <ele>50.855583190918</ele>
        <time>2012-08-16T10:40:05Z</time>
      </trkpt>
      <trkpt lat="47.78169" lon="-3.5682">
        <ele>50.839012145996</ele>
        <time>2012-08-16T10:40:13Z</time>
      </trkpt>
      <trkpt lat="47.78168" lon="-3.5682">
        <ele>50.841289520264</ele>
        <time>2012-08-16T10:40:20Z</time>
      </trkpt>
      <trkpt lat="47.78167" lon="-3.5682">
        <ele>50.841621398926</ele>
        <time>2012-08-16T10:40:26Z</time>
      </trkpt>
      <trkpt lat="47.78165" lon="-3.56821">
        <ele>50.871360778809</ele>
        <time>2012-08-16T10:40:30Z</time>
      </trkpt>
      <trkpt lat="47.78164" lon="-3.56822">
        <ele>50.893207550049</ele>
        <time>2012-08-16T10:40:31Z</time>
      </trkpt>
      <trkpt lat="47.78158" lon="-3.56824">
        <ele>51.001575469971</ele>
        <time>2012-08-16T10:40:35Z</time>
      </trkpt>
      <trkpt lat="47.78146" lon="-3.56825">
        <ele>51.175254821777</ele>
        <time>2012-08-16T10:40:40Z</time>
      </trkpt>
      <trkpt lat="47.78121" lon="-3.56816">
        <ele>51.459300994873</ele>
        <time>2012-08-16T10:40:46Z</time>
      </trkpt>
      <trkpt lat="47.78088" lon="-3.568">
        <ele>51.915466308594</ele>
        <time>2012-08-16T10:40:53Z</time>
      </trkpt>
      <trkpt lat="47.78046" lon="-3.5679">
        <ele>50.876502990723</ele>
        <time>2012-08-16T10:41:01Z</time>
      </trkpt>
      <trkpt lat="47.78016" lon="-3.56786">
        <ele>50.034206390381</ele>
        <time>2012-08-16T10:41:06Z</time>
      </trkpt>
      <trkpt lat="47.77979" lon="-3.56777">
        <ele>48.728916168213</ele>
        <time>2012-08-16T10:41:12Z</time>
      </trkpt>
      <trkpt lat="47.77936" lon="-3.56762">
        <ele>46.884845733643</ele>
        <time>2012-08-16T10:41:19Z</time>
      </trkpt>
      <trkpt lat="47.77912" lon="-3.56744">
        <ele>45.936912536621</ele>
        <time>2012-08-16T10:41:23Z</time>
      </trkpt>
      <trkpt lat="47.77892" lon="-3.5675">
        <ele>45.698268890381</ele>
        <time>2012-08-16T10:41:27Z</time>
      </trkpt>
      <trkpt lat="47.77888" lon="-3.56758">
        <ele>45.692043304443</ele>
        <time>2012-08-16T10:41:30Z</time>
      </trkpt>
      <trkpt lat="47.77887" lon="-3.56764">
        <ele>45.698829650879</ele>
        <time>2012-08-16T10:41:34Z</time>
      </trkpt>
      <trkpt lat="47.77879" lon="-3.5678">
        <ele>45.709339141846</ele>
        <time>2012-08-16T10:41:38Z</time>
      </trkpt>
      <trkpt lat="47.77871" lon="-3.56807">
        <ele>45.82816696167</ele>
        <time>2012-08-16T10:41:42Z</time>
      </trkpt>
      <trkpt lat="47.77862" lon="-3.56843">
        <ele>46.041797637939</ele>
        <time>2012-08-16T10:41:47Z</time>
      </trkpt>
      <trkpt lat="47.77858" lon="-3.56855">
        <ele>46.077754974365</ele>
        <time>2012-08-16T10:41:49Z</time>
      </trkpt>
      <trkpt lat="47.77848" lon="-3.56866">
        <ele>46.071090698242</ele>
        <time>2012-08-16T10:41:52Z</time>
      </trkpt>
      <trkpt lat="47.77818" lon="-3.56886">
        <ele>45.930194854736</ele>
        <time>2012-08-16T10:41:58Z</time>
      </trkpt>
      <trkpt lat="47.77811" lon="-3.56889">
        <ele>45.910202026367</ele>
        <time>2012-08-16T10:41:59Z</time>
      </trkpt>
      <trkpt lat="47.77798" lon="-3.569">
        <ele>45.91690826416</ele>
        <time>2012-08-16T10:42:03Z</time>
      </trkpt>
      <trkpt lat="47.77794" lon="-3.56903">
        <ele>45.925098419189</ele>
        <time>2012-08-16T10:42:05Z</time>
      </trkpt>
      <trkpt lat="47.77774" lon="-3.56911">
        <ele>45.951755523682</ele>
        <time>2012-08-16T10:42:10Z</time>
      </trkpt>
      <trkpt lat="47.77766" lon="-3.56914">
        <ele>45.971183776855</ele>
        <time>2012-08-16T10:42:12Z</time>
      </trkpt>
      <trkpt lat="47.77755" lon="-3.56925">
        <ele>45.701068878174</ele>
        <time>2012-08-16T10:42:15Z</time>
      </trkpt>
      <trkpt lat="47.77747" lon="-3.56962">
        <ele>44.227500915527</ele>
        <time>2012-08-16T10:42:20Z</time>
      </trkpt>
      <trkpt lat="47.77743" lon="-3.56976">
        <ele>43.559005737305</ele>
        <time>2012-08-16T10:42:22Z</time>
      </trkpt>
      <trkpt lat="47.77731" lon="-3.5702">
        <ele>41.927379608154</ele>
        <time>2012-08-16T10:42:27Z</time>
      </trkpt>
      <trkpt lat="47.77716" lon="-3.57044">
        <ele>41.163566589355</ele>
        <time>2012-08-16T10:42:31Z</time>
      </trkpt>
      <trkpt lat="47.77712" lon="-3.57048">
        <ele>41.01602935791</ele>
        <time>2012-08-16T10:42:32Z</time>
      </trkpt>
      <trkpt lat="47.77686" lon="-3.57062">
        <ele>40.349449157715</ele>
        <time>2012-08-16T10:42:37Z</time>
      </trkpt>
      <trkpt lat="47.77674" lon="-3.5707">
        <ele>40.12427520752</ele>
        <time>2012-08-16T10:42:39Z</time>
      </trkpt>
      <trkpt lat="47.7766" lon="-3.57094">
        <ele>39.654705047607</ele>
        <time>2012-08-16T10:42:43Z</time>
      </trkpt>
      <trkpt lat="47.77657" lon="-3.57124">
        <ele>39.219005584717</ele>
        <time>2012-08-16T10:42:47Z</time>
      </trkpt>
      <trkpt lat="47.77655" lon="-3.57141">
        <ele>38.972248077393</ele>
        <time>2012-08-16T10:42:51Z</time>
      </trkpt>
      <trkpt lat="47.77652" lon="-3.57143">
        <ele>38.892360687256</ele>
        <time>2012-08-16T10:42:56Z</time>
      </trkpt>
      <trkpt lat="47.77656" lon="-3.57139">
        <ele>39.032257080078</ele>
        <time>2012-08-16T10:42:59Z</time>
      </trkpt>
      <trkpt lat="47.77675" lon="-3.57143">
        <ele>39.536262512207</ele>
        <time>2012-08-16T10:43:06Z</time>
      </trkpt>
      <trkpt lat="47.77684" lon="-3.57144">
        <ele>39.792091369629</ele>
        <time>2012-08-16T10:43:10Z</time>
      </trkpt>
      <trkpt lat="47.77699" lon="-3.57143">
        <ele>40.223751068115</ele>
        <time>2012-08-16T10:43:13Z</time>
      </trkpt>
      <trkpt lat="47.77719" lon="-3.57136">
        <ele>40.78369140625</ele>
        <time>2012-08-16T10:43:18Z</time>
      </trkpt>
      <trkpt lat="47.77731" lon="-3.57133">
        <ele>41.107772827148</ele>
        <time>2012-08-16T10:43:22Z</time>
      </trkpt>
      <trkpt lat="47.77746" lon="-3.57136">
        <ele>41.527599334717</ele>
        <time>2012-08-16T10:43:27Z</time>
      </trkpt>
      <trkpt lat="47.77753" lon="-3.57136">
        <ele>41.617023468018</ele>
        <time>2012-08-16T10:43:32Z</time>
      </trkpt>
      <trkpt lat="47.77754" lon="-3.57138">
        <ele>41.619472503662</ele>
        <time>2012-08-16T10:43:38Z</time>
      </trkpt>
      <trkpt lat="47.77753" lon="-3.57137">
        <ele>41.62837600708</ele>
        <time>2012-08-16T10:43:42Z</time>
      </trkpt>
      <trkpt lat="47.77739" lon="-3.57137">
        <ele>41.344158172607</ele>
        <time>2012-08-16T10:43:47Z</time>
      </trkpt>
      <trkpt lat="47.77718" lon="-3.57145">
        <ele>40.776695251465</ele>
        <time>2012-08-16T10:43:52Z</time>
      </trkpt>
      <trkpt lat="47.77707" lon="-3.57151">
        <ele>40.455318450928</ele>
        <time>2012-08-16T10:43:54Z</time>
      </trkpt>
      <trkpt lat="47.77682" lon="-3.57151">
        <ele>39.664150238037</ele>
        <time>2012-08-16T10:43:59Z</time>
      </trkpt>
      <trkpt lat="47.77658" lon="-3.57142">
        <ele>39.070526123047</ele>
        <time>2012-08-16T10:44:05Z</time>
      </trkpt>
      <trkpt lat="47.77647" lon="-3.57136">
        <ele>38.798301696777</ele>
        <time>2012-08-16T10:44:10Z</time>
      </trkpt>
      <trkpt lat="47.77648" lon="-3.57127">
        <ele>38.92444229126</ele>
        <time>2012-08-16T10:44:14Z</time>
      </trkpt>
      <trkpt lat="47.77653" lon="-3.57131">
        <ele>39.034996032715</ele>
        <time>2012-08-16T10:44:17Z</time>
      </trkpt>
      <trkpt lat="47.77657" lon="-3.57155">
        <ele>38.90461730957</ele>
        <time>2012-08-16T10:44:22Z</time>
      </trkpt>
      <trkpt lat="47.77661" lon="-3.57196">
        <ele>39.526496887207</ele>
        <time>2012-08-16T10:44:29Z</time>
      </trkpt>
      <trkpt lat="47.77658" lon="-3.57232">
        <ele>40.278678894043</ele>
        <time>2012-08-16T10:44:35Z</time>
      </trkpt>
      <trkpt lat="47.77648" lon="-3.57268">
        <ele>40.369987487793</ele>
        <time>2012-08-16T10:44:41Z</time>
      </trkpt>
      <trkpt lat="47.77637" lon="-3.57313">
        <ele>40.214363098145</ele>
        <time>2012-08-16T10:44:48Z</time>
      </trkpt>
      <trkpt lat="47.77632" lon="-3.57377">
        <ele>41.222358703613</ele>
        <time>2012-08-16T10:44:57Z</time>
      </trkpt>
      <trkpt lat="47.77631" lon="-3.57425">
        <ele>41.872940063477</ele>
        <time>2012-08-16T10:45:03Z</time>
      </trkpt>
      <trkpt lat="47.77628" lon="-3.57471">
        <ele>40.424491882324</ele>
        <time>2012-08-16T10:45:08Z</time>
      </trkpt>
      <trkpt lat="47.77625" lon="-3.57519">
        <ele>39.272171020508</ele>
        <time>2012-08-16T10:45:13Z</time>
      </trkpt>
      <trkpt lat="47.77621" lon="-3.57591">
        <ele>38.216579437256</ele>
        <time>2012-08-16T10:45:21Z</time>
      </trkpt>
      <trkpt lat="47.77621" lon="-3.57628">
        <ele>37.623165130615</ele>
        <time>2012-08-16T10:45:26Z</time>
      </trkpt>
      <trkpt lat="47.77628" lon="-3.57662">
        <ele>37.096263885498</ele>
        <time>2012-08-16T10:45:30Z</time>
      </trkpt>
      <trkpt lat="47.77634" lon="-3.57692">
        <ele>35.791854858398</ele>
        <time>2012-08-16T10:45:33Z</time>
      </trkpt>
      <trkpt lat="47.77644" lon="-3.57778">
        <ele>32.572910308838</ele>
        <time>2012-08-16T10:45:40Z</time>
      </trkpt>
      <trkpt lat="47.77645" lon="-3.57791">
        <ele>32.377574920654</ele>
        <time>2012-08-16T10:45:41Z</time>
      </trkpt>
      <trkpt lat="47.7764" lon="-3.57853">
        <ele>32.231735229492</ele>
        <time>2012-08-16T10:45:46Z</time>
      </trkpt>
      <trkpt lat="47.77634" lon="-3.57888">
        <ele>33.071266174316</ele>
        <time>2012-08-16T10:45:50Z</time>
      </trkpt>
      <trkpt lat="47.77634" lon="-3.57895">
        <ele>33.228897094727</ele>
        <time>2012-08-16T10:45:51Z</time>
      </trkpt>
      <trkpt lat="47.77633" lon="-3.57913">
        <ele>33.704502105713</ele>
        <time>2012-08-16T10:45:54Z</time>
      </trkpt>
      <trkpt lat="47.77635" lon="-3.57931">
        <ele>34.100257873535</ele>
        <time>2012-08-16T10:45:57Z</time>
      </trkpt>
      <trkpt lat="47.77641" lon="-3.57953">
        <ele>34.639450073242</ele>
        <time>2012-08-16T10:46:01Z</time>
      </trkpt>
      <trkpt lat="47.77642" lon="-3.57959">
        <ele>34.766067504883</ele>
        <time>2012-08-16T10:46:02Z</time>
      </trkpt>
      <trkpt lat="47.77659" lon="-3.57996">
        <ele>35.771759033203</ele>
        <time>2012-08-16T10:46:09Z</time>
      </trkpt>
      <trkpt lat="47.77679" lon="-3.58035">
        <ele>35.387924194336</ele>
        <time>2012-08-16T10:46:16Z</time>
      </trkpt>
      <trkpt lat="47.77685" lon="-3.58047">
        <ele>35.202663421631</ele>
        <time>2012-08-16T10:46:18Z</time>
      </trkpt>
      <trkpt lat="47.7769" lon="-3.58085">
        <ele>34.585998535156</ele>
        <time>2012-08-16T10:46:23Z</time>
      </trkpt>
      <trkpt lat="47.7769" lon="-3.58101">
        <ele>34.763668060303</ele>
        <time>2012-08-16T10:46:25Z</time>
      </trkpt>
      <trkpt lat="47.77687" lon="-3.58171">
        <ele>35.532997131348</ele>
        <time>2012-08-16T10:46:34Z</time>
      </trkpt>
      <trkpt lat="47.77688" lon="-3.58218">
        <ele>36.120079040527</ele>
        <time>2012-08-16T10:46:41Z</time>
      </trkpt>
      <trkpt lat="47.77691" lon="-3.58298">
        <ele>37.330448150635</ele>
        <time>2012-08-16T10:46:54Z</time>
      </trkpt>
      <trkpt lat="47.77691" lon="-3.58303">
        <ele>37.415306091309</ele>
        <time>2012-08-16T10:46:55Z</time>
      </trkpt>
      <trkpt lat="47.77694" lon="-3.5832">
        <ele>37.771312713623</ele>
        <time>2012-08-16T10:46:59Z</time>
      </trkpt>
      <trkpt lat="47.77696" lon="-3.58324">
        <ele>37.917568206787</ele>
        <time>2012-08-16T10:47:04Z</time>
      </trkpt>
      <trkpt lat="47.77696" lon="-3.58323">
        <ele>37.903617858887</ele>
        <time>2012-08-16T10:47:11Z</time>
      </trkpt>
      <trkpt lat="47.77695" lon="-3.58323">
        <ele>37.864917755127</ele>
        <time>2012-08-16T10:47:16Z</time>
      </trkpt>
      <trkpt lat="47.77694" lon="-3.58321">
        <ele>37.793846130371</ele>
        <time>2012-08-16T10:47:22Z</time>
      </trkpt>
      <trkpt lat="47.77694" lon="-3.58321">
        <ele>37.765872955322</ele>
        <time>2012-08-16T10:47:30Z</time>
      </trkpt>
      <trkpt lat="47.77692" lon="-3.5832">
        <ele>37.719284057617</ele>
        <time>2012-08-16T10:47:57Z</time>
      </trkpt>
      <trkpt lat="47.77692" lon="-3.5832">
        <ele>37.709636688232</ele>
        <time>2012-08-16T10:48:06Z</time>
      </trkpt>
      <trkpt lat="47.77691" lon="-3.58321">
        <ele>37.691009521484</ele>
        <time>2012-08-16T10:48:25Z</time>
      </trkpt>
      <trkpt lat="47.77691" lon="-3.58323">
        <ele>37.729919433594</ele>
        <time>2012-08-16T10:48:52Z</time>
      </trkpt>
      <trkpt lat="47.77693" lon="-3.58325">
        <ele>37.818836212158</ele>
        <time>2012-08-16T10:48:55Z</time>
      </trkpt>
      <trkpt lat="47.77705" lon="-3.58324">
        <ele>38.197967529297</ele>
        <time>2012-08-16T10:49:01Z</time>
      </trkpt>
      <trkpt lat="47.77721" lon="-3.58321">
        <ele>38.722503662109</ele>
        <time>2012-08-16T10:49:05Z</time>
      </trkpt>
      <trkpt lat="47.77735" lon="-3.58318">
        <ele>39.130714416504</ele>
        <time>2012-08-16T10:49:08Z</time>
      </trkpt>
      <trkpt lat="47.7774" lon="-3.58317">
        <ele>39.263954162598</ele>
        <time>2012-08-16T10:49:09Z</time>
      </trkpt>
      <trkpt lat="47.77771" lon="-3.58308">
        <ele>39.810405731201</ele>
        <time>2012-08-16T10:49:16Z</time>
      </trkpt>
      <trkpt lat="47.77807" lon="-3.58302">
        <ele>40.34948348999</ele>
        <time>2012-08-16T10:49:23Z</time>
      </trkpt>
      <trkpt lat="47.77841" lon="-3.58296">
        <ele>40.836921691895</ele>
        <time>2012-08-16T10:49:29Z</time>
      </trkpt>
      <trkpt lat="47.77886" lon="-3.5829">
        <ele>41.724437713623</ele>
        <time>2012-08-16T10:49:37Z</time>
      </trkpt>
      <trkpt lat="47.77932" lon="-3.58292">
        <ele>42.590270996094</ele>
        <time>2012-08-16T10:49:45Z</time>
      </trkpt>
      <trkpt lat="47.77977" lon="-3.58298">
        <ele>42.767475128174</ele>
        <time>2012-08-16T10:49:53Z</time>
      </trkpt>
      <trkpt lat="47.78017" lon="-3.58298">
        <ele>43.438316345215</ele>
        <time>2012-08-16T10:50:00Z</time>
      </trkpt>
      <trkpt lat="47.78062" lon="-3.58292">
        <ele>45.222034454346</ele>
        <time>2012-08-16T10:50:08Z</time>
      </trkpt>
      <trkpt lat="47.78111" lon="-3.58285">
        <ele>46.638137817383</ele>
        <time>2012-08-16T10:50:17Z</time>
      </trkpt>
      <trkpt lat="47.78154" lon="-3.58275">
        <ele>47.625762939453</ele>
        <time>2012-08-16T10:50:25Z</time>
      </trkpt>
      <trkpt lat="47.78201" lon="-3.58257">
        <ele>49.095184326172</ele>
        <time>2012-08-16T10:50:34Z</time>
      </trkpt>
      <trkpt lat="47.78246" lon="-3.58232">
        <ele>50.163421630859</ele>
        <time>2012-08-16T10:50:43Z</time>
      </trkpt>
      <trkpt lat="47.78285" lon="-3.58206">
        <ele>50.75707244873</ele>
        <time>2012-08-16T10:50:51Z</time>
      </trkpt>
      <trkpt lat="47.78314" lon="-3.58188">
        <ele>51.30456161499</ele>
        <time>2012-08-16T10:50:57Z</time>
      </trkpt>
      <trkpt lat="47.78363" lon="-3.58175">
        <ele>52.54870223999</ele>
        <time>2012-08-16T10:51:06Z</time>
      </trkpt>
      <trkpt lat="47.78384" lon="-3.58171">
        <ele>53.146278381348</ele>
        <time>2012-08-16T10:51:10Z</time>
      </trkpt>
      <trkpt lat="47.78433" lon="-3.58163">
        <ele>54.08154296875</ele>
        <time>2012-08-16T10:51:19Z</time>
      </trkpt>
      <trkpt lat="47.78473" lon="-3.58161">
        <ele>54.09395980835</ele>
        <time>2012-08-16T10:51:26Z</time>
      </trkpt>
      <trkpt lat="47.78513" lon="-3.58163">
        <ele>53.702365875244</ele>
        <time>2012-08-16T10:51:32Z</time>
      </trkpt>
      <trkpt lat="47.78559" lon="-3.58169">
        <ele>52.581298828125</ele>
        <time>2012-08-16T10:51:38Z</time>
      </trkpt>
      <trkpt lat="47.78599" lon="-3.58171">
        <ele>51.45227432251</ele>
        <time>2012-08-16T10:51:43Z</time>
      </trkpt>
      <trkpt lat="47.78609" lon="-3.58168">
        <ele>51.092956542969</ele>
        <time>2012-08-16T10:51:45Z</time>
      </trkpt>
      <trkpt lat="47.78614" lon="-3.58167">
        <ele>50.876770019531</ele>
        <time>2012-08-16T10:51:49Z</time>
      </trkpt>
      <trkpt lat="47.78614" lon="-3.58166">
        <ele>50.889930725098</ele>
        <time>2012-08-16T10:51:50Z</time>
      </trkpt>
      <trkpt lat="47.78615" lon="-3.58155">
        <ele>50.570068359375</ele>
        <time>2012-08-16T10:51:54Z</time>
      </trkpt>
      <trkpt lat="47.78613" lon="-3.5815">
        <ele>50.531730651855</ele>
        <time>2012-08-16T10:51:55Z</time>
      </trkpt>
      <trkpt lat="47.786" lon="-3.58121">
        <ele>50.299987792969</ele>
        <time>2012-08-16T10:52:01Z</time>
      </trkpt>
      <trkpt lat="47.78582" lon="-3.58071">
        <ele>49.766582489014</ele>
        <time>2012-08-16T10:52:08Z</time>
      </trkpt>
      <trkpt lat="47.78563" lon="-3.58018">
        <ele>49.830783843994</ele>
        <time>2012-08-16T10:52:15Z</time>
      </trkpt>
      <trkpt lat="47.78535" lon="-3.57947">
        <ele>50.736598968506</ele>
        <time>2012-08-16T10:52:24Z</time>
      </trkpt>
      <trkpt lat="47.78501" lon="-3.57876">
        <ele>50.954902648926</ele>
        <time>2012-08-16T10:52:33Z</time>
      </trkpt>
      <trkpt lat="47.78473" lon="-3.5781">
        <ele>50.513942718506</ele>
        <time>2012-08-16T10:52:41Z</time>
      </trkpt>
      <trkpt lat="47.7845" lon="-3.57739">
        <ele>50.303005218506</ele>
        <time>2012-08-16T10:52:49Z</time>
      </trkpt>
      <trkpt lat="47.78429" lon="-3.5767">
        <ele>50.606742858887</ele>
        <time>2012-08-16T10:52:57Z</time>
      </trkpt>
      <trkpt lat="47.78402" lon="-3.57585">
        <ele>50.197860717773</ele>
        <time>2012-08-16T10:53:07Z</time>
      </trkpt>
      <trkpt lat="47.7838" lon="-3.57513">
        <ele>51.747638702393</ele>
        <time>2012-08-16T10:53:16Z</time>
      </trkpt>
      <trkpt lat="47.7836" lon="-3.5745">
        <ele>52.605335235596</ele>
        <time>2012-08-16T10:53:24Z</time>
      </trkpt>
      <trkpt lat="47.78337" lon="-3.57365">
        <ele>52.413970947266</ele>
        <time>2012-08-16T10:53:34Z</time>
      </trkpt>
      <trkpt lat="47.78322" lon="-3.57286">
        <ele>52.273567199707</ele>
        <time>2012-08-16T10:53:43Z</time>
      </trkpt>
      <trkpt lat="47.7831" lon="-3.57216">
        <ele>52.146728515625</ele>
        <time>2012-08-16T10:53:51Z</time>
      </trkpt>
      <trkpt lat="47.78298" lon="-3.57137">
        <ele>51.477489471436</ele>
        <time>2012-08-16T10:54:00Z</time>
      </trkpt>
      <trkpt lat="47.78293" lon="-3.57113">
        <ele>51.197082519531</ele>
        <time>2012-08-16T10:54:03Z</time>
      </trkpt>
      <trkpt lat="47.78278" lon="-3.5708">
        <ele>51.052757263184</ele>
        <time>2012-08-16T10:54:08Z</time>
      </trkpt>
      <trkpt lat="47.78274" lon="-3.57055">
        <ele>51.432331085205</ele>
        <time>2012-08-16T10:54:11Z</time>
      </trkpt>
      <trkpt lat="47.78268" lon="-3.57013">
        <ele>52.025615692139</ele>
        <time>2012-08-16T10:54:16Z</time>
      </trkpt>
      <trkpt lat="47.78249" lon="-3.56968">
        <ele>52.374183654785</ele>
        <time>2012-08-16T10:54:22Z</time>
      </trkpt>
      <trkpt lat="47.78207" lon="-3.56901">
        <ele>52.197555541992</ele>
        <time>2012-08-16T10:54:32Z</time>
      </trkpt>
      <trkpt lat="47.78152" lon="-3.56814">
        <ele>50.972991943359</ele>
        <time>2012-08-16T10:54:44Z</time>
      </trkpt>
      <trkpt lat="47.78125" lon="-3.56763">
        <ele>51.066993713379</ele>
        <time>2012-08-16T10:54:51Z</time>
      </trkpt>
      <trkpt lat="47.78106" lon="-3.56704">
        <ele>50.900859832764</ele>
        <time>2012-08-16T10:54:58Z</time>
      </trkpt>
      <trkpt lat="47.78089" lon="-3.56629">
        <ele>49.537433624268</ele>
        <time>2012-08-16T10:55:06Z</time>
      </trkpt>
      <trkpt lat="47.7807" lon="-3.5654">
        <ele>48.154602050781</ele>
        <time>2012-08-16T10:55:15Z</time>
      </trkpt>
      <trkpt lat="47.78055" lon="-3.56468">
        <ele>47.947052001953</ele>
        <time>2012-08-16T10:55:22Z</time>
      </trkpt>
      <trkpt lat="47.78043" lon="-3.56392">
        <ele>46.728378295898</ele>
        <time>2012-08-16T10:55:29Z</time>
      </trkpt>
      <trkpt lat="47.78033" lon="-3.56311">
        <ele>44.893775939941</ele>
        <time>2012-08-16T10:55:36Z</time>
      </trkpt>
      <trkpt lat="47.7802" lon="-3.56234">
        <ele>41.971031188965</ele>
        <time>2012-08-16T10:55:43Z</time>
      </trkpt>
      <trkpt lat="47.77995" lon="-3.56138">
        <ele>39.469821929932</ele>
        <time>2012-08-16T10:55:52Z</time>
      </trkpt>
      <trkpt lat="47.77971" lon="-3.5604">
        <ele>38.313636779785</ele>
        <time>2012-08-16T10:56:01Z</time>
      </trkpt>
      <trkpt lat="47.77947" lon="-3.55944">
        <ele>38.366821289062</ele>
        <time>2012-08-16T10:56:10Z</time>
      </trkpt>
      <trkpt lat="47.77924" lon="-3.55882">
        <ele>37.253318786621</ele>
        <time>2012-08-16T10:56:16Z</time>
      </trkpt>
      <trkpt lat="47.77885" lon="-3.55793">
        <ele>36.120307922363</ele>
        <time>2012-08-16T10:56:25Z</time>
      </trkpt>
      <trkpt lat="47.77848" lon="-3.55712">
        <ele>35.444938659668</ele>
        <time>2012-08-16T10:56:34Z</time>
      </trkpt>
      <trkpt lat="47.77825" lon="-3.55656">
        <ele>35.359016418457</ele>
        <time>2012-08-16T10:56:41Z</time>
      </trkpt>
      <trkpt lat="47.77791" lon="-3.5558">
        <ele>34.96715927124</ele>
        <time>2012-08-16T10:56:51Z</time>
      </trkpt>
      <trkpt lat="47.77756" lon="-3.55519">
        <ele>33.435077667236</ele>
        <time>2012-08-16T10:56:59Z</time>
      </trkpt>
      <trkpt lat="47.77715" lon="-3.55464">
        <ele>33.376125335693</ele>
        <time>2012-08-16T10:57:07Z</time>
      </trkpt>
      <trkpt lat="47.77693" lon="-3.55418">
        <ele>34.653121948242</ele>
        <time>2012-08-16T10:57:13Z</time>
      </trkpt>
      <trkpt lat="47.77675" lon="-3.55371">
        <ele>35.613983154297</ele>
        <time>2012-08-16T10:57:19Z</time>
      </trkpt>
      <trkpt lat="47.7766" lon="-3.55333">
        <ele>36.150939941406</ele>
        <time>2012-08-16T10:57:24Z</time>
      </trkpt>
      <trkpt lat="47.77636" lon="-3.5527">
        <ele>36.174942016602</ele>
        <time>2012-08-16T10:57:32Z</time>
      </trkpt>
      <trkpt lat="47.77617" lon="-3.5522">
        <ele>35.785160064697</ele>
        <time>2012-08-16T10:57:38Z</time>
      </trkpt>
      <trkpt lat="47.77589" lon="-3.55148">
        <ele>34.68334197998</ele>
        <time>2012-08-16T10:57:46Z</time>
      </trkpt>
      <trkpt lat="47.77554" lon="-3.55054">
        <ele>32.860450744629</ele>
        <time>2012-08-16T10:57:56Z</time>
      </trkpt>
      <trkpt lat="47.77527" lon="-3.54967">
        <ele>31.159963607788</ele>
        <time>2012-08-16T10:58:05Z</time>
      </trkpt>
      <trkpt lat="47.77507" lon="-3.54887">
        <ele>30.955352783203</ele>
        <time>2012-08-16T10:58:13Z</time>
      </trkpt>
      <trkpt lat="47.77491" lon="-3.54808">
        <ele>31.753669738769</ele>
        <time>2012-08-16T10:58:21Z</time>
      </trkpt>
      <trkpt lat="47.77479" lon="-3.5474">
        <ele>32.012161254883</ele>
        <time>2012-08-16T10:58:29Z</time>
      </trkpt>
      <trkpt lat="47.77464" lon="-3.54661">
        <ele>34.162883758545</ele>
        <time>2012-08-16T10:58:39Z</time>
      </trkpt>
      <trkpt lat="47.7745" lon="-3.54603">
        <ele>35.847492218018</ele>
        <time>2012-08-16T10:58:47Z</time>
      </trkpt>
      <trkpt lat="47.77429" lon="-3.5454">
        <ele>36.952857971191</ele>
        <time>2012-08-16T10:58:56Z</time>
      </trkpt>
      <trkpt lat="47.77406" lon="-3.54487">
        <ele>38.366752624512</ele>
        <time>2012-08-16T10:59:04Z</time>
      </trkpt>
      <trkpt lat="47.77378" lon="-3.54439">
        <ele>39.05846786499</ele>
        <time>2012-08-16T10:59:12Z</time>
      </trkpt>
      <trkpt lat="47.77345" lon="-3.54395">
        <ele>39.923324584961</ele>
        <time>2012-08-16T10:59:20Z</time>
      </trkpt>
      <trkpt lat="47.77304" lon="-3.54345">
        <ele>40.507640838623</ele>
        <time>2012-08-16T10:59:30Z</time>
      </trkpt>
      <trkpt lat="47.77282" lon="-3.54315">
        <ele>40.210498809814</ele>
        <time>2012-08-16T10:59:37Z</time>
      </trkpt>
      <trkpt lat="47.7727" lon="-3.54292">
        <ele>40.001445770264</ele>
        <time>2012-08-16T10:59:41Z</time>
      </trkpt>
      <trkpt lat="47.77245" lon="-3.54244">
        <ele>39.762195587158</ele>
        <time>2012-08-16T10:59:49Z</time>
      </trkpt>
      <trkpt lat="47.77222" lon="-3.54199">
        <ele>38.866020202637</ele>
        <time>2012-08-16T10:59:56Z</time>
      </trkpt>
      <trkpt lat="47.77209" lon="-3.54147">
        <ele>38.29048538208</ele>
        <time>2012-08-16T11:00:02Z</time>
      </trkpt>
      <trkpt lat="47.77194" lon="-3.54078">
        <ele>36.99169921875</ele>
        <time>2012-08-16T11:00:09Z</time>
      </trkpt>
      <trkpt lat="47.77179" lon="-3.54027">
        <ele>36.4423828125</ele>
        <time>2012-08-16T11:00:14Z</time>
      </trkpt>
      <trkpt lat="47.7717" lon="-3.54">
        <ele>36.12638092041</ele>
        <time>2012-08-16T11:00:17Z</time>
      </trkpt>
      <trkpt lat="47.77143" lon="-3.5393">
        <ele>33.69246673584</ele>
        <time>2012-08-16T11:00:25Z</time>
      </trkpt>
      <trkpt lat="47.77117" lon="-3.53862">
        <ele>31.474397659302</ele>
        <time>2012-08-16T11:00:32Z</time>
      </trkpt>
      <trkpt lat="47.77104" lon="-3.53817">
        <ele>30.151584625244</ele>
        <time>2012-08-16T11:00:36Z</time>
      </trkpt>
      <trkpt lat="47.77097" lon="-3.5378">
        <ele>29.225852966309</ele>
        <time>2012-08-16T11:00:39Z</time>
      </trkpt>
      <trkpt lat="47.77094" lon="-3.53768">
        <ele>28.974338531494</ele>
        <time>2012-08-16T11:00:40Z</time>
      </trkpt>
      <trkpt lat="47.7708" lon="-3.53671">
        <ele>26.550109863281</ele>
        <time>2012-08-16T11:00:48Z</time>
      </trkpt>
      <trkpt lat="47.77076" lon="-3.53648">
        <ele>25.666442871094</ele>
        <time>2012-08-16T11:00:50Z</time>
      </trkpt>
      <trkpt lat="47.77066" lon="-3.53571">
        <ele>23.251985549927</ele>
        <time>2012-08-16T11:00:57Z</time>
      </trkpt>
      <trkpt lat="47.77058" lon="-3.53504">
        <ele>22.668014526367</ele>
        <time>2012-08-16T11:01:03Z</time>
      </trkpt>
      <trkpt lat="47.77049" lon="-3.53428">
        <ele>19.927284240723</ele>
        <time>2012-08-16T11:01:09Z</time>
      </trkpt>
      <trkpt lat="47.77038" lon="-3.53373">
        <ele>16.78800201416</ele>
        <time>2012-08-16T11:01:13Z</time>
      </trkpt>
      <trkpt lat="47.77013" lon="-3.53328">
        <ele>12.244578361511</ele>
        <time>2012-08-16T11:01:17Z</time>
      </trkpt>
      <trkpt lat="47.76998" lon="-3.53307">
        <ele>10.259948730469</ele>
        <time>2012-08-16T11:01:19Z</time>
      </trkpt>
      <trkpt lat="47.76987" lon="-3.53283">
        <ele>9.0051040649414</ele>
        <time>2012-08-16T11:01:21Z</time>
      </trkpt>
      <trkpt lat="47.76986" lon="-3.53267">
        <ele>8.5507736206055</ele>
        <time>2012-08-16T11:01:22Z</time>
      </trkpt>
      <trkpt lat="47.7699" lon="-3.53239">
        <ele>7.859619140625</ele>
        <time>2012-08-16T11:01:24Z</time>
      </trkpt>
      <trkpt lat="47.77011" lon="-3.5322">
        <ele>8.2125806808472</ele>
        <time>2012-08-16T11:01:26Z</time>
      </trkpt>
      <trkpt lat="47.77031" lon="-3.53207">
        <ele>8.6062717437744</ele>
        <time>2012-08-16T11:01:28Z</time>
      </trkpt>
      <trkpt lat="47.77068" lon="-3.53187">
        <ele>9.0144033432007</ele>
        <time>2012-08-16T11:01:32Z</time>
      </trkpt>
      <trkpt lat="47.77081" lon="-3.53169">
        <ele>8.1613454818726</ele>
        <time>2012-08-16T11:01:35Z</time>
      </trkpt>
      <trkpt lat="47.771" lon="-3.53153">
        <ele>5.6410732269287</ele>
        <time>2012-08-16T11:01:39Z</time>
      </trkpt>
      <trkpt lat="47.77114" lon="-3.53161">
        <ele>5.0611438751221</ele>
        <time>2012-08-16T11:01:42Z</time>
      </trkpt>
      <trkpt lat="47.77126" lon="-3.53191">
        <ele>6.5801749229431</ele>
        <time>2012-08-16T11:01:47Z</time>
      </trkpt>
      <trkpt lat="47.77137" lon="-3.53211">
        <ele>7.4899010658264</ele>
        <time>2012-08-16T11:01:51Z</time>
      </trkpt>
      <trkpt lat="47.77141" lon="-3.53221">
        <ele>8.1797866821289</ele>
        <time>2012-08-16T11:01:55Z</time>
      </trkpt>
      <trkpt lat="47.77141" lon="-3.53221">
        <ele>8.1687803268433</ele>
        <time>2012-08-16T11:01:57Z</time>
      </trkpt>
      <trkpt lat="47.77148" lon="-3.5321">
        <ele>6.5971832275391</ele>
        <time>2012-08-16T11:02:51Z</time>
      </trkpt>
      <trkpt lat="47.77149" lon="-3.53211">
        <ele>6.5824575424194</ele>
        <time>2012-08-16T11:02:52Z</time>
      </trkpt>
      <trkpt lat="47.77139" lon="-3.53218">
        <ele>8.0616369247437</ele>
        <time>2012-08-16T11:10:35Z</time>
      </trkpt>
      <trkpt lat="47.77139" lon="-3.53218">
        <ele>8.0484676361084</ele>
        <time>2012-08-16T11:10:36Z</time>
      </trkpt>
      <trkpt lat="47.7714" lon="-3.53218">
        <ele>7.9841198921204</ele>
        <time>2012-08-16T11:10:37Z</time>
      </trkpt>
      <trkpt lat="47.77138" lon="-3.53216">
        <ele>7.901674747467</ele>
        <time>2012-08-16T11:10:43Z</time>
      </trkpt>
      <trkpt lat="47.77137" lon="-3.53217">
        <ele>8.0859508514404</ele>
        <time>2012-08-16T11:10:48Z</time>
      </trkpt>
      <trkpt lat="47.77136" lon="-3.53219">
        <ele>8.4226922988892</ele>
        <time>2012-08-16T11:10:56Z</time>
      </trkpt>
      <trkpt lat="47.77135" lon="-3.5322">
        <ele>8.484561920166</ele>
        <time>2012-08-16T11:10:59Z</time>
      </trkpt>
      <trkpt lat="47.77135" lon="-3.53221">
        <ele>8.6045551300049</ele>
        <time>2012-08-16T11:11:02Z</time>
      </trkpt>
      <trkpt lat="47.77135" lon="-3.53222">
        <ele>8.7251834869385</ele>
        <time>2012-08-16T11:11:04Z</time>
      </trkpt>
      <trkpt lat="47.77135" lon="-3.53223">
        <ele>8.7862348556519</ele>
        <time>2012-08-16T11:11:05Z</time>
      </trkpt>
      <trkpt lat="47.77135" lon="-3.53225">
        <ele>8.9938793182373</ele>
        <time>2012-08-16T11:11:09Z</time>
      </trkpt>
      <trkpt lat="47.77133" lon="-3.53228">
        <ele>9.4397144317627</ele>
        <time>2012-08-16T11:11:17Z</time>
      </trkpt>
      <trkpt lat="47.77129" lon="-3.53229">
        <ele>9.8542375564575</ele>
        <time>2012-08-16T11:11:23Z</time>
      </trkpt>
      <trkpt lat="47.7713" lon="-3.53233">
        <ele>10.145142555237</ele>
        <time>2012-08-16T11:11:28Z</time>
      </trkpt>
      <trkpt lat="47.77133" lon="-3.53239">
        <ele>10.424467086792</ele>
        <time>2012-08-16T11:11:36Z</time>
      </trkpt>
      <trkpt lat="47.77134" lon="-3.53241">
        <ele>10.535934448242</ele>
        <time>2012-08-16T11:11:41Z</time>
      </trkpt>
      <trkpt lat="47.77135" lon="-3.53245">
        <ele>10.830848693848</ele>
        <time>2012-08-16T11:11:46Z</time>
      </trkpt>
      <trkpt lat="47.77137" lon="-3.5325">
        <ele>11.095185279846</ele>
        <time>2012-08-16T11:11:54Z</time>
      </trkpt>
      <trkpt lat="47.77145" lon="-3.53263">
        <ele>11.842774391174</ele>
        <time>2012-08-16T11:11:59Z</time>
      </trkpt>
      <trkpt lat="47.77148" lon="-3.53265">
        <ele>11.956696510315</ele>
        <time>2012-08-16T11:12:00Z</time>
      </trkpt>
      <trkpt lat="47.77161" lon="-3.53285">
        <ele>13.422834396362</ele>
        <time>2012-08-16T11:12:05Z</time>
      </trkpt>
      <trkpt lat="47.77166" lon="-3.5331">
        <ele>16.230169296265</ele>
        <time>2012-08-16T11:12:10Z</time>
      </trkpt>
      <trkpt lat="47.77171" lon="-3.5332">
        <ele>17.110586166382</ele>
        <time>2012-08-16T11:12:12Z</time>
      </trkpt>
      <trkpt lat="47.77192" lon="-3.53332">
        <ele>16.983751296997</ele>
        <time>2012-08-16T11:12:17Z</time>
      </trkpt>
      <trkpt lat="47.77197" lon="-3.53334">
        <ele>16.875610351562</ele>
        <time>2012-08-16T11:12:18Z</time>
      </trkpt>
      <trkpt lat="47.77211" lon="-3.53345">
        <ele>16.599235534668</ele>
        <time>2012-08-16T11:12:22Z</time>
      </trkpt>
      <trkpt lat="47.7722" lon="-3.5335">
        <ele>16.377792358398</ele>
        <time>2012-08-16T11:12:25Z</time>
      </trkpt>
      <trkpt lat="47.77244" lon="-3.53361">
        <ele>15.402755737305</ele>
        <time>2012-08-16T11:12:32Z</time>
      </trkpt>
      <trkpt lat="47.77261" lon="-3.53368">
        <ele>15.381240844727</ele>
        <time>2012-08-16T11:12:36Z</time>
      </trkpt>
      <trkpt lat="47.77279" lon="-3.53377">
        <ele>15.773200988769</ele>
        <time>2012-08-16T11:12:40Z</time>
      </trkpt>
      <trkpt lat="47.77297" lon="-3.53389">
        <ele>16.465568542481</ele>
        <time>2012-08-16T11:12:44Z</time>
      </trkpt>
      <trkpt lat="47.7731" lon="-3.53395">
        <ele>16.72477722168</ele>
        <time>2012-08-16T11:12:47Z</time>
      </trkpt>
      <trkpt lat="47.77336" lon="-3.53415">
        <ele>18.024412155151</ele>
        <time>2012-08-16T11:12:53Z</time>
      </trkpt>
      <trkpt lat="47.7734" lon="-3.53417">
        <ele>18.399829864502</ele>
        <time>2012-08-16T11:12:54Z</time>
      </trkpt>
      <trkpt lat="47.77356" lon="-3.53428">
        <ele>19.7001953125</ele>
        <time>2012-08-16T11:12:59Z</time>
      </trkpt>
      <trkpt lat="47.77365" lon="-3.53435">
        <ele>20.386564254761</ele>
        <time>2012-08-16T11:13:02Z</time>
      </trkpt>
      <trkpt lat="47.77382" lon="-3.53445">
        <ele>21.530309677124</ele>
        <time>2012-08-16T11:13:07Z</time>
      </trkpt>
      <trkpt lat="47.77392" lon="-3.53455">
        <ele>22.261402130127</ele>
        <time>2012-08-16T11:13:12Z</time>
      </trkpt>
      <trkpt lat="47.77406" lon="-3.53469">
        <ele>23.146896362305</ele>
        <time>2012-08-16T11:13:17Z</time>
      </trkpt>
      <trkpt lat="47.77427" lon="-3.53487">
        <ele>22.235162734985</ele>
        <time>2012-08-16T11:13:23Z</time>
      </trkpt>
      <trkpt lat="47.77438" lon="-3.53502">
        <ele>21.152910232544</ele>
        <time>2012-08-16T11:13:27Z</time>
      </trkpt>
      <trkpt lat="47.77445" lon="-3.53532">
        <ele>19.725921630859</ele>
        <time>2012-08-16T11:13:31Z</time>
      </trkpt>
      <trkpt lat="47.77446" lon="-3.53571">
        <ele>19.068756103516</ele>
        <time>2012-08-16T11:13:36Z</time>
      </trkpt>
      <trkpt lat="47.77445" lon="-3.53579">
        <ele>18.990571975708</ele>
        <time>2012-08-16T11:13:37Z</time>
      </trkpt>
      <trkpt lat="47.77448" lon="-3.53601">
        <ele>18.241447448731</ele>
        <time>2012-08-16T11:13:40Z</time>
      </trkpt>
      <trkpt lat="47.77444" lon="-3.53637">
        <ele>17.719024658203</ele>
        <time>2012-08-16T11:13:45Z</time>
      </trkpt>
      <trkpt lat="47.77436" lon="-3.5367">
        <ele>18.067079544067</ele>
        <time>2012-08-16T11:13:49Z</time>
      </trkpt>
      <trkpt lat="47.77451" lon="-3.53683">
        <ele>17.381610870361</ele>
        <time>2012-08-16T11:13:52Z</time>
      </trkpt>
      <trkpt lat="47.77456" lon="-3.53687">
        <ele>17.069297790527</ele>
        <time>2012-08-16T11:13:53Z</time>
      </trkpt>
      <trkpt lat="47.77465" lon="-3.53696">
        <ele>16.819124221802</ele>
        <time>2012-08-16T11:13:55Z</time>
      </trkpt>
      <trkpt lat="47.7749" lon="-3.53731">
        <ele>17.15592956543</ele>
        <time>2012-08-16T11:14:00Z</time>
      </trkpt>
      <trkpt lat="47.77515" lon="-3.5377">
        <ele>19.347021102905</ele>
        <time>2012-08-16T11:14:04Z</time>
      </trkpt>
      <trkpt lat="47.77534" lon="-3.53805">
        <ele>20.723075866699</ele>
        <time>2012-08-16T11:14:08Z</time>
      </trkpt>
      <trkpt lat="47.7754" lon="-3.53823">
        <ele>21.170055389404</ele>
        <time>2012-08-16T11:14:10Z</time>
      </trkpt>
      <trkpt lat="47.77548" lon="-3.53855">
        <ele>20.867834091186</ele>
        <time>2012-08-16T11:14:14Z</time>
      </trkpt>
      <trkpt lat="47.77554" lon="-3.53853">
        <ele>20.220037460327</ele>
        <time>2012-08-16T11:14:18Z</time>
      </trkpt>
      <trkpt lat="47.77563" lon="-3.53847">
        <ele>19.440309524536</ele>
        <time>2012-08-16T11:14:22Z</time>
      </trkpt>
      <trkpt lat="47.77564" lon="-3.53837">
        <ele>19.533971786499</ele>
        <time>2012-08-16T11:14:26Z</time>
      </trkpt>
      <trkpt lat="47.77559" lon="-3.53818">
        <ele>19.659940719604</ele>
        <time>2012-08-16T11:14:30Z</time>
      </trkpt>
      <trkpt lat="47.77556" lon="-3.53798">
        <ele>19.339359283447</ele>
        <time>2012-08-16T11:14:34Z</time>
      </trkpt>
      <trkpt lat="47.77549" lon="-3.5378">
        <ele>19.038969039917</ele>
        <time>2012-08-16T11:14:37Z</time>
      </trkpt>
      <trkpt lat="47.77542" lon="-3.53755">
        <ele>18.216505050659</ele>
        <time>2012-08-16T11:14:42Z</time>
      </trkpt>
      <trkpt lat="47.77539" lon="-3.53744">
        <ele>17.810758590698</ele>
        <time>2012-08-16T11:14:44Z</time>
      </trkpt>
      <trkpt lat="47.77536" lon="-3.53725">
        <ele>17.053554534912</ele>
        <time>2012-08-16T11:14:47Z</time>
      </trkpt>
      <trkpt lat="47.77532" lon="-3.53694">
        <ele>15.612530708313</ele>
        <time>2012-08-16T11:14:52Z</time>
      </trkpt>
      <trkpt lat="47.77529" lon="-3.53681">
        <ele>14.794655799866</ele>
        <time>2012-08-16T11:14:54Z</time>
      </trkpt>
      <trkpt lat="47.77527" lon="-3.53659">
        <ele>13.976558685303</ele>
        <time>2012-08-16T11:14:57Z</time>
      </trkpt>
      <trkpt lat="47.77534" lon="-3.5362">
        <ele>14.657123565674</ele>
        <time>2012-08-16T11:15:02Z</time>
      </trkpt>
      <trkpt lat="47.77547" lon="-3.53586">
        <ele>15.285255432129</ele>
        <time>2012-08-16T11:15:07Z</time>
      </trkpt>
      <trkpt lat="47.77563" lon="-3.53572">
        <ele>15.057066917419</ele>
        <time>2012-08-16T11:15:11Z</time>
      </trkpt>
      <trkpt lat="47.77567" lon="-3.53555">
        <ele>13.782638549805</ele>
        <time>2012-08-16T11:15:14Z</time>
      </trkpt>
      <trkpt lat="47.77573" lon="-3.53541">
        <ele>12.493637084961</ele>
        <time>2012-08-16T11:15:17Z</time>
      </trkpt>
      <trkpt lat="47.77578" lon="-3.53499">
        <ele>8.2879619598389</ele>
        <time>2012-08-16T11:15:23Z</time>
      </trkpt>
      <trkpt lat="47.77582" lon="-3.53465">
        <ele>7.5980205535889</ele>
        <time>2012-08-16T11:15:28Z</time>
      </trkpt>
      <trkpt lat="47.77577" lon="-3.53445">
        <ele>7.2165784835815</ele>
        <time>2012-08-16T11:15:31Z</time>
      </trkpt>
      <trkpt lat="47.77573" lon="-3.53422">
        <ele>6.517599105835</ele>
        <time>2012-08-16T11:15:34Z</time>
      </trkpt>
      <trkpt lat="47.77575" lon="-3.53381">
        <ele>5.2700438499451</ele>
        <time>2012-08-16T11:15:39Z</time>
      </trkpt>
      <trkpt lat="47.77579" lon="-3.53363">
        <ele>4.8196978569031</ele>
        <time>2012-08-16T11:15:41Z</time>
      </trkpt>
      <trkpt lat="47.77596" lon="-3.53341">
        <ele>4.8274874687195</ele>
        <time>2012-08-16T11:15:45Z</time>
      </trkpt>
      <trkpt lat="47.7761" lon="-3.53348">
        <ele>5.9879298210144</ele>
        <time>2012-08-16T11:15:48Z</time>
      </trkpt>
      <trkpt lat="47.77623" lon="-3.53356">
        <ele>7.3381409645081</ele>
        <time>2012-08-16T11:15:51Z</time>
      </trkpt>
      <trkpt lat="47.77651" lon="-3.53364">
        <ele>9.8741807937622</ele>
        <time>2012-08-16T11:15:57Z</time>
      </trkpt>
      <trkpt lat="47.77675" lon="-3.53369">
        <ele>12.436684608459</ele>
        <time>2012-08-16T11:16:02Z</time>
      </trkpt>
      <trkpt lat="47.77696" lon="-3.53363">
        <ele>13.30220413208</ele>
        <time>2012-08-16T11:16:07Z</time>
      </trkpt>
      <trkpt lat="47.77716" lon="-3.53354">
        <ele>13.503784179688</ele>
        <time>2012-08-16T11:16:11Z</time>
      </trkpt>
      <trkpt lat="47.77741" lon="-3.53345">
        <ele>14.147263526917</ele>
        <time>2012-08-16T11:16:16Z</time>
      </trkpt>
      <trkpt lat="47.77762" lon="-3.53342">
        <ele>14.566097259522</ele>
        <time>2012-08-16T11:16:20Z</time>
      </trkpt>
      <trkpt lat="47.77784" lon="-3.53348">
        <ele>15.664730072022</ele>
        <time>2012-08-16T11:16:25Z</time>
      </trkpt>
      <trkpt lat="47.77801" lon="-3.53348">
        <ele>15.963706970215</ele>
        <time>2012-08-16T11:16:29Z</time>
      </trkpt>
      <trkpt lat="47.77817" lon="-3.53347">
        <ele>15.873298645019</ele>
        <time>2012-08-16T11:16:33Z</time>
      </trkpt>
      <trkpt lat="47.77826" lon="-3.53343">
        <ele>15.461597442627</ele>
        <time>2012-08-16T11:16:35Z</time>
      </trkpt>
      <trkpt lat="47.77844" lon="-3.53338">
        <ele>14.754528045654</ele>
        <time>2012-08-16T11:16:39Z</time>
      </trkpt>
      <trkpt lat="47.77861" lon="-3.53335">
        <ele>14.196628570557</ele>
        <time>2012-08-16T11:16:43Z</time>
      </trkpt>
      <trkpt lat="47.77881" lon="-3.53321">
        <ele>12.152465820312</ele>
        <time>2012-08-16T11:16:48Z</time>
      </trkpt>
      <trkpt lat="47.77898" lon="-3.53308">
        <ele>10.325988769531</ele>
        <time>2012-08-16T11:16:51Z</time>
      </trkpt>
      <trkpt lat="47.77914" lon="-3.53303">
        <ele>9.5912780761719</ele>
        <time>2012-08-16T11:16:54Z</time>
      </trkpt>
      <trkpt lat="47.77929" lon="-3.53318">
        <ele>12.210865974426</ele>
        <time>2012-08-16T11:17:00Z</time>
      </trkpt>
      <trkpt lat="47.77932" lon="-3.53322">
        <ele>13.023198127747</ele>
        <time>2012-08-16T11:17:02Z</time>
      </trkpt>
      <trkpt lat="47.77937" lon="-3.53332">
        <ele>14.805384635925</ele>
        <time>2012-08-16T11:17:05Z</time>
      </trkpt>
      <trkpt lat="47.77948" lon="-3.53332">
        <ele>15.351476669312</ele>
        <time>2012-08-16T11:17:09Z</time>
      </trkpt>
      <trkpt lat="47.77965" lon="-3.53323">
        <ele>14.532228469849</ele>
        <time>2012-08-16T11:17:13Z</time>
      </trkpt>
      <trkpt lat="47.77968" lon="-3.53322">
        <ele>14.519190788269</ele>
        <time>2012-08-16T11:17:14Z</time>
      </trkpt>
      <trkpt lat="47.77989" lon="-3.53315">
        <ele>14.123462677002</ele>
        <time>2012-08-16T11:17:21Z</time>
      </trkpt>
      <trkpt lat="47.78002" lon="-3.53297">
        <ele>11.274075508118</ele>
        <time>2012-08-16T11:17:26Z</time>
      </trkpt>
      <trkpt lat="47.7802" lon="-3.53282">
        <ele>10.744366645813</ele>
        <time>2012-08-16T11:17:30Z</time>
      </trkpt>
      <trkpt lat="47.78025" lon="-3.53281">
        <ele>11.066790580749</ele>
        <time>2012-08-16T11:17:31Z</time>
      </trkpt>
      <trkpt lat="47.78039" lon="-3.5328">
        <ele>12.62278175354</ele>
        <time>2012-08-16T11:17:34Z</time>
      </trkpt>
      <trkpt lat="47.78059" lon="-3.53279">
        <ele>15.197476387024</ele>
        <time>2012-08-16T11:17:38Z</time>
      </trkpt>
      <trkpt lat="47.78073" lon="-3.53282">
        <ele>17.497610092163</ele>
        <time>2012-08-16T11:17:41Z</time>
      </trkpt>
      <trkpt lat="47.78092" lon="-3.5328">
        <ele>18.816932678223</ele>
        <time>2012-08-16T11:17:46Z</time>
      </trkpt>
      <trkpt lat="47.78109" lon="-3.53274">
        <ele>18.398254394531</ele>
        <time>2012-08-16T11:17:50Z</time>
      </trkpt>
      <trkpt lat="47.78128" lon="-3.53266">
        <ele>17.478675842285</ele>
        <time>2012-08-16T11:17:55Z</time>
      </trkpt>
      <trkpt lat="47.78136" lon="-3.5326">
        <ele>16.42645072937</ele>
        <time>2012-08-16T11:17:57Z</time>
      </trkpt>
      <trkpt lat="47.78156" lon="-3.53247">
        <ele>14.121755599976</ele>
        <time>2012-08-16T11:18:01Z</time>
      </trkpt>
      <trkpt lat="47.78167" lon="-3.53246">
        <ele>14.234731674194</ele>
        <time>2012-08-16T11:18:04Z</time>
      </trkpt>
      <trkpt lat="47.78185" lon="-3.53247">
        <ele>15.578018188477</ele>
        <time>2012-08-16T11:18:09Z</time>
      </trkpt>
      <trkpt lat="47.78188" lon="-3.53249">
        <ele>16.131258010864</ele>
        <time>2012-08-16T11:18:10Z</time>
      </trkpt>
      <trkpt lat="47.78205" lon="-3.53252">
        <ele>17.67479133606</ele>
        <time>2012-08-16T11:18:15Z</time>
      </trkpt>
      <trkpt lat="47.78222" lon="-3.53241">
        <ele>16.797624588013</ele>
        <time>2012-08-16T11:18:19Z</time>
      </trkpt>
      <trkpt lat="47.78237" lon="-3.53228">
        <ele>15.504245758057</ele>
        <time>2012-08-16T11:18:23Z</time>
      </trkpt>
      <trkpt lat="47.78256" lon="-3.5322">
        <ele>15.083498954773</ele>
        <time>2012-08-16T11:18:28Z</time>
      </trkpt>
      <trkpt lat="47.78275" lon="-3.53218">
        <ele>14.782200813293</ele>
        <time>2012-08-16T11:18:33Z</time>
      </trkpt>
      <trkpt lat="47.78294" lon="-3.53222">
        <ele>15.690380096436</ele>
        <time>2012-08-16T11:18:38Z</time>
      </trkpt>
      <trkpt lat="47.78308" lon="-3.53227">
        <ele>16.512992858887</ele>
        <time>2012-08-16T11:18:43Z</time>
      </trkpt>
      <trkpt lat="47.78324" lon="-3.53235">
        <ele>17.855495452881</ele>
        <time>2012-08-16T11:18:47Z</time>
      </trkpt>
      <trkpt lat="47.78331" lon="-3.53238">
        <ele>18.251623153686</ele>
        <time>2012-08-16T11:18:49Z</time>
      </trkpt>
      <trkpt lat="47.78339" lon="-3.53236">
        <ele>18.384717941284</ele>
        <time>2012-08-16T11:18:51Z</time>
      </trkpt>
      <trkpt lat="47.78348" lon="-3.53228">
        <ele>17.759733200073</ele>
        <time>2012-08-16T11:18:53Z</time>
      </trkpt>
      <trkpt lat="47.78352" lon="-3.53224">
        <ele>17.475027084351</ele>
        <time>2012-08-16T11:18:57Z</time>
      </trkpt>
      <trkpt lat="47.78353" lon="-3.53223">
        <ele>17.396545410156</ele>
        <time>2012-08-16T11:19:01Z</time>
      </trkpt>
      <trkpt lat="47.78357" lon="-3.53213">
        <ele>16.338911056519</ele>
        <time>2012-08-16T11:19:07Z</time>
      </trkpt>
      <trkpt lat="47.78358" lon="-3.532">
        <ele>14.662640571594</ele>
        <time>2012-08-16T11:19:14Z</time>
      </trkpt>
      <trkpt lat="47.78358" lon="-3.53197">
        <ele>14.33620929718</ele>
        <time>2012-08-16T11:19:15Z</time>
      </trkpt>
      <trkpt lat="47.78362" lon="-3.53178">
        <ele>12.166033744812</ele>
        <time>2012-08-16T11:19:20Z</time>
      </trkpt>
      <trkpt lat="47.78373" lon="-3.53159">
        <ele>11.155578613281</ele>
        <time>2012-08-16T11:19:24Z</time>
      </trkpt>
      <trkpt lat="47.78395" lon="-3.53143">
        <ele>11.917182922363</ele>
        <time>2012-08-16T11:19:30Z</time>
      </trkpt>
      <trkpt lat="47.78414" lon="-3.53132">
        <ele>12.811538696289</ele>
        <time>2012-08-16T11:19:35Z</time>
      </trkpt>
      <trkpt lat="47.78431" lon="-3.53119">
        <ele>13.524681091309</ele>
        <time>2012-08-16T11:19:41Z</time>
      </trkpt>
      <trkpt lat="47.78442" lon="-3.53096">
        <ele>12.797695159912</ele>
        <time>2012-08-16T11:19:46Z</time>
      </trkpt>
      <trkpt lat="47.78455" lon="-3.5307">
        <ele>12.053884506226</ele>
        <time>2012-08-16T11:19:51Z</time>
      </trkpt>
      <trkpt lat="47.78457" lon="-3.53064">
        <ele>11.811314582825</ele>
        <time>2012-08-16T11:19:54Z</time>
      </trkpt>
      <trkpt lat="47.7846" lon="-3.53049">
        <ele>10.984663009644</ele>
        <time>2012-08-16T11:19:59Z</time>
      </trkpt>
      <trkpt lat="47.7846" lon="-3.53047">
        <ele>10.91330242157</ele>
        <time>2012-08-16T11:20:00Z</time>
      </trkpt>
      <trkpt lat="47.78463" lon="-3.53043">
        <ele>10.82919883728</ele>
        <time>2012-08-16T11:20:04Z</time>
      </trkpt>
      <trkpt lat="47.78465" lon="-3.53036">
        <ele>10.560627937317</ele>
        <time>2012-08-16T11:20:08Z</time>
      </trkpt>
      <trkpt lat="47.78476" lon="-3.53022">
        <ele>10.695903778076</ele>
        <time>2012-08-16T11:20:14Z</time>
      </trkpt>
      <trkpt lat="47.78489" lon="-3.53001">
        <ele>10.752912521362</ele>
        <time>2012-08-16T11:20:20Z</time>
      </trkpt>
      <trkpt lat="47.78505" lon="-3.5298">
        <ele>11.554324150085</ele>
        <time>2012-08-16T11:20:25Z</time>
      </trkpt>
      <trkpt lat="47.78519" lon="-3.5296">
        <ele>12.283352851868</ele>
        <time>2012-08-16T11:20:30Z</time>
      </trkpt>
      <trkpt lat="47.78534" lon="-3.52942">
        <ele>13.060775756836</ele>
        <time>2012-08-16T11:20:35Z</time>
      </trkpt>
      <trkpt lat="47.78544" lon="-3.52918">
        <ele>12.828321456909</ele>
        <time>2012-08-16T11:20:41Z</time>
      </trkpt>
      <trkpt lat="47.78553" lon="-3.52891">
        <ele>11.827192306519</ele>
        <time>2012-08-16T11:20:45Z</time>
      </trkpt>
      <trkpt lat="47.78556" lon="-3.52886">
        <ele>11.855631828308</ele>
        <time>2012-08-16T11:20:46Z</time>
      </trkpt>
      <trkpt lat="47.78574" lon="-3.52863">
        <ele>12.562037467957</ele>
        <time>2012-08-16T11:20:51Z</time>
      </trkpt>
      <trkpt lat="47.78579" lon="-3.5286">
        <ele>12.949248313904</ele>
        <time>2012-08-16T11:20:52Z</time>
      </trkpt>
      <trkpt lat="47.78599" lon="-3.52842">
        <ele>13.79634475708</ele>
        <time>2012-08-16T11:20:56Z</time>
      </trkpt>
      <trkpt lat="47.78621" lon="-3.5283">
        <ele>14.580904006958</ele>
        <time>2012-08-16T11:21:00Z</time>
      </trkpt>
      <trkpt lat="47.78643" lon="-3.52825">
        <ele>15.405577659607</ele>
        <time>2012-08-16T11:21:05Z</time>
      </trkpt>
      <trkpt lat="47.78658" lon="-3.52826">
        <ele>16.648895263672</ele>
        <time>2012-08-16T11:21:09Z</time>
      </trkpt>
      <trkpt lat="47.78677" lon="-3.52829">
        <ele>16.295816421509</ele>
        <time>2012-08-16T11:21:15Z</time>
      </trkpt>
      <trkpt lat="47.78694" lon="-3.52845">
        <ele>14.91069316864</ele>
        <time>2012-08-16T11:21:20Z</time>
      </trkpt>
      <trkpt lat="47.78705" lon="-3.52858">
        <ele>13.900981903076</ele>
        <time>2012-08-16T11:21:24Z</time>
      </trkpt>
      <trkpt lat="47.78709" lon="-3.52863">
        <ele>13.590657234192</ele>
        <time>2012-08-16T11:21:25Z</time>
      </trkpt>
      <trkpt lat="47.78727" lon="-3.52896">
        <ele>12.896696090698</ele>
        <time>2012-08-16T11:21:29Z</time>
      </trkpt>
      <trkpt lat="47.78739" lon="-3.52917">
        <ele>12.829445838928</ele>
        <time>2012-08-16T11:21:32Z</time>
      </trkpt>
      <trkpt lat="47.78752" lon="-3.52942">
        <ele>14.114283561707</ele>
        <time>2012-08-16T11:21:36Z</time>
      </trkpt>
      <trkpt lat="47.78763" lon="-3.52956">
        <ele>14.541665077209</ele>
        <time>2012-08-16T11:21:39Z</time>
      </trkpt>
      <trkpt lat="47.78778" lon="-3.52965">
        <ele>13.903717041016</ele>
        <time>2012-08-16T11:21:42Z</time>
      </trkpt>
      <trkpt lat="47.78789" lon="-3.52968">
        <ele>12.913913726807</ele>
        <time>2012-08-16T11:21:46Z</time>
      </trkpt>
      <trkpt lat="47.78799" lon="-3.52972">
        <ele>12.254364013672</ele>
        <time>2012-08-16T11:21:51Z</time>
      </trkpt>
      <trkpt lat="47.78803" lon="-3.52975">
        <ele>12.162715911865</ele>
        <time>2012-08-16T11:21:56Z</time>
      </trkpt>
      <trkpt lat="47.78811" lon="-3.52976">
        <ele>11.424884796143</ele>
        <time>2012-08-16T11:22:03Z</time>
      </trkpt>
      <trkpt lat="47.78812" lon="-3.52977">
        <ele>11.290373802185</ele>
        <time>2012-08-16T11:22:05Z</time>
      </trkpt>
      <trkpt lat="47.78819" lon="-3.52983">
        <ele>11.296822547913</ele>
        <time>2012-08-16T11:22:14Z</time>
      </trkpt>
      <trkpt lat="47.78821" lon="-3.52988">
        <ele>11.811789512634</ele>
        <time>2012-08-16T11:22:18Z</time>
      </trkpt>
      <trkpt lat="47.78825" lon="-3.52996">
        <ele>12.450105667114</ele>
        <time>2012-08-16T11:22:25Z</time>
      </trkpt>
      <trkpt lat="47.78831" lon="-3.53006">
        <ele>13.249788284302</ele>
        <time>2012-08-16T11:22:35Z</time>
      </trkpt>
      <trkpt lat="47.78834" lon="-3.5301">
        <ele>13.738582611084</ele>
        <time>2012-08-16T11:22:40Z</time>
      </trkpt>
      <trkpt lat="47.7884" lon="-3.53031">
        <ele>16.586048126221</ele>
        <time>2012-08-16T11:22:47Z</time>
      </trkpt>
      <trkpt lat="47.78844" lon="-3.53046">
        <ele>18.654226303101</ele>
        <time>2012-08-16T11:22:51Z</time>
      </trkpt>
      <trkpt lat="47.78851" lon="-3.53063">
        <ele>20.563598632812</ele>
        <time>2012-08-16T11:22:57Z</time>
      </trkpt>
      <trkpt lat="47.7886" lon="-3.53078">
        <ele>21.891729354858</ele>
        <time>2012-08-16T11:23:04Z</time>
      </trkpt>
      <trkpt lat="47.78868" lon="-3.53091">
        <ele>22.432291030884</ele>
        <time>2012-08-16T11:23:10Z</time>
      </trkpt>
      <trkpt lat="47.78875" lon="-3.53099">
        <ele>22.267082214356</ele>
        <time>2012-08-16T11:23:14Z</time>
      </trkpt>
      <trkpt lat="47.78887" lon="-3.53107">
        <ele>21.735084533691</ele>
        <time>2012-08-16T11:23:18Z</time>
      </trkpt>
      <trkpt lat="47.78905" lon="-3.53116">
        <ele>20.770845413208</ele>
        <time>2012-08-16T11:23:21Z</time>
      </trkpt>
      <trkpt lat="47.78911" lon="-3.53118">
        <ele>20.413652420044</ele>
        <time>2012-08-16T11:23:22Z</time>
      </trkpt>
      <trkpt lat="47.78937" lon="-3.53131">
        <ele>18.429904937744</ele>
        <time>2012-08-16T11:23:25Z</time>
      </trkpt>
      <trkpt lat="47.78946" lon="-3.53135">
        <ele>17.235418319702</ele>
        <time>2012-08-16T11:23:27Z</time>
      </trkpt>
      <trkpt lat="47.78962" lon="-3.53147">
        <ele>16.188947677612</ele>
        <time>2012-08-16T11:23:31Z</time>
      </trkpt>
      <trkpt lat="47.7897" lon="-3.53161">
        <ele>17.023674011231</ele>
        <time>2012-08-16T11:23:35Z</time>
      </trkpt>
      <trkpt lat="47.78988" lon="-3.53172">
        <ele>14.849623680115</ele>
        <time>2012-08-16T11:23:40Z</time>
      </trkpt>
      <trkpt lat="47.79" lon="-3.53175">
        <ele>13.203357696533</ele>
        <time>2012-08-16T11:23:42Z</time>
      </trkpt>
      <trkpt lat="47.79024" lon="-3.53194">
        <ele>12.135842323303</ele>
        <time>2012-08-16T11:23:47Z</time>
      </trkpt>
      <trkpt lat="47.79028" lon="-3.53197">
        <ele>11.873205184937</ele>
        <time>2012-08-16T11:23:48Z</time>
      </trkpt>
      <trkpt lat="47.79053" lon="-3.53196">
        <ele>8.0922088623047</ele>
        <time>2012-08-16T11:23:52Z</time>
      </trkpt>
      <trkpt lat="47.79071" lon="-3.53186">
        <ele>5.0909314155579</ele>
        <time>2012-08-16T11:23:55Z</time>
      </trkpt>
      <trkpt lat="47.79077" lon="-3.53183">
        <ele>4.1750926971436</ele>
        <time>2012-08-16T11:23:56Z</time>
      </trkpt>
      <trkpt lat="47.79113" lon="-3.53162">
        <ele>5.6929082870483</ele>
        <time>2012-08-16T11:24:03Z</time>
      </trkpt>
      <trkpt lat="47.7914" lon="-3.53145">
        <ele>7.6497640609741</ele>
        <time>2012-08-16T11:24:09Z</time>
      </trkpt>
      <trkpt lat="47.79144" lon="-3.53141">
        <ele>7.8525247573853</ele>
        <time>2012-08-16T11:24:10Z</time>
      </trkpt>
      <trkpt lat="47.79147" lon="-3.53119">
        <ele>7.2273244857788</ele>
        <time>2012-08-16T11:24:15Z</time>
      </trkpt>
      <trkpt lat="47.79139" lon="-3.53095">
        <ele>5.7899098396301</ele>
        <time>2012-08-16T11:24:18Z</time>
      </trkpt>
      <trkpt lat="47.79136" lon="-3.5308">
        <ele>5.1415090560913</ele>
        <time>2012-08-16T11:24:20Z</time>
      </trkpt>
      <trkpt lat="47.79139" lon="-3.5305">
        <ele>5.4991250038147</ele>
        <time>2012-08-16T11:24:25Z</time>
      </trkpt>
      <trkpt lat="47.79155" lon="-3.53034">
        <ele>6.7210416793823</ele>
        <time>2012-08-16T11:24:29Z</time>
      </trkpt>
      <trkpt lat="47.7916" lon="-3.53032">
        <ele>7.0814161300659</ele>
        <time>2012-08-16T11:24:30Z</time>
      </trkpt>
      <trkpt lat="47.79168" lon="-3.53028">
        <ele>7.7094960212708</ele>
        <time>2012-08-16T11:24:32Z</time>
      </trkpt>
      <trkpt lat="47.79187" lon="-3.53016">
        <ele>8.4381475448608</ele>
        <time>2012-08-16T11:24:37Z</time>
      </trkpt>
      <trkpt lat="47.79192" lon="-3.52992">
        <ele>8.3938245773315</ele>
        <time>2012-08-16T11:24:40Z</time>
      </trkpt>
      <trkpt lat="47.79198" lon="-3.52955">
        <ele>7.4589171409607</ele>
        <time>2012-08-16T11:24:45Z</time>
      </trkpt>
      <trkpt lat="47.79215" lon="-3.52917">
        <ele>6.5985026359558</ele>
        <time>2012-08-16T11:24:51Z</time>
      </trkpt>
      <trkpt lat="47.79237" lon="-3.52885">
        <ele>6.2070317268372</ele>
        <time>2012-08-16T11:24:58Z</time>
      </trkpt>
      <trkpt lat="47.7924" lon="-3.52881">
        <ele>6.2414307594299</ele>
        <time>2012-08-16T11:24:59Z</time>
      </trkpt>
      <trkpt lat="47.7926" lon="-3.52862">
        <ele>6.7594146728516</ele>
        <time>2012-08-16T11:25:05Z</time>
      </trkpt>
      <trkpt lat="47.79275" lon="-3.52858">
        <ele>7.2440123558044</ele>
        <time>2012-08-16T11:25:10Z</time>
      </trkpt>
      <trkpt lat="47.7928" lon="-3.52858">
        <ele>7.4385523796081</ele>
        <time>2012-08-16T11:25:13Z</time>
      </trkpt>
      <trkpt lat="47.79293" lon="-3.5285">
        <ele>7.6661190986633</ele>
        <time>2012-08-16T11:25:18Z</time>
      </trkpt>
      <trkpt lat="47.79302" lon="-3.52843">
        <ele>7.6458029747009</ele>
        <time>2012-08-16T11:25:21Z</time>
      </trkpt>
      <trkpt lat="47.79307" lon="-3.52836">
        <ele>7.5054450035095</ele>
        <time>2012-08-16T11:25:23Z</time>
      </trkpt>
      <trkpt lat="47.79322" lon="-3.52827">
        <ele>7.3032746315002</ele>
        <time>2012-08-16T11:25:27Z</time>
      </trkpt>
      <trkpt lat="47.79335" lon="-3.5282">
        <ele>7.0919046401978</ele>
        <time>2012-08-16T11:25:30Z</time>
      </trkpt>
      <trkpt lat="47.79356" lon="-3.52821">
        <ele>8.1096601486206</ele>
        <time>2012-08-16T11:25:35Z</time>
      </trkpt>
      <trkpt lat="47.79368" lon="-3.52807">
        <ele>7.5505127906799</ele>
        <time>2012-08-16T11:25:39Z</time>
      </trkpt>
      <trkpt lat="47.79378" lon="-3.52792">
        <ele>6.6490721702576</ele>
        <time>2012-08-16T11:25:43Z</time>
      </trkpt>
      <trkpt lat="47.79382" lon="-3.52791">
        <ele>6.6556482315064</ele>
        <time>2012-08-16T11:25:48Z</time>
      </trkpt>
      <trkpt lat="47.79391" lon="-3.52783">
        <ele>6.3356919288635</ele>
        <time>2012-08-16T11:25:56Z</time>
      </trkpt>
      <trkpt lat="47.79404" lon="-3.52777">
        <ele>6.144739151001</ele>
        <time>2012-08-16T11:26:01Z</time>
      </trkpt>
      <trkpt lat="47.79412" lon="-3.52774">
        <ele>6.1170511245728</ele>
        <time>2012-08-16T11:26:06Z</time>
      </trkpt>
      <trkpt lat="47.79413" lon="-3.52773">
        <ele>6.1001710891724</ele>
        <time>2012-08-16T11:26:07Z</time>
      </trkpt>
      <trkpt lat="47.79418" lon="-3.52773">
        <ele>6.2405972480774</ele>
        <time>2012-08-16T11:26:12Z</time>
      </trkpt>
      <trkpt lat="47.79422" lon="-3.52781">
        <ele>6.902747631073</ele>
        <time>2012-08-16T11:26:17Z</time>
      </trkpt>
      <trkpt lat="47.79428" lon="-3.52799">
        <ele>8.6201114654541</ele>
        <time>2012-08-16T11:26:24Z</time>
      </trkpt>
      <trkpt lat="47.79434" lon="-3.52807">
        <ele>9.442816734314</ele>
        <time>2012-08-16T11:26:29Z</time>
      </trkpt>
      <trkpt lat="47.79441" lon="-3.52815">
        <ele>10.139451980591</ele>
        <time>2012-08-16T11:26:35Z</time>
      </trkpt>
      <trkpt lat="47.79448" lon="-3.52813">
        <ele>9.9894361495972</ele>
        <time>2012-08-16T11:26:40Z</time>
      </trkpt>
      <trkpt lat="47.79452" lon="-3.52814">
        <ele>10.006052970886</ele>
        <time>2012-08-16T11:26:42Z</time>
      </trkpt>
      <trkpt lat="47.79466" lon="-3.52813">
        <ele>9.9462871551514</ele>
        <time>2012-08-16T11:26:47Z</time>
      </trkpt>
      <trkpt lat="47.79469" lon="-3.52817">
        <ele>10.271657943726</ele>
        <time>2012-08-16T11:26:48Z</time>
      </trkpt>
      <trkpt lat="47.79489" lon="-3.52843">
        <ele>12.949766159058</ele>
        <time>2012-08-16T11:26:54Z</time>
      </trkpt>
      <trkpt lat="47.79498" lon="-3.52844">
        <ele>13.110867500305</ele>
        <time>2012-08-16T11:26:58Z</time>
      </trkpt>
      <trkpt lat="47.79503" lon="-3.52845">
        <ele>13.48494052887</ele>
        <time>2012-08-16T11:27:00Z</time>
      </trkpt>
      <trkpt lat="47.79512" lon="-3.52861">
        <ele>15.819008827209</ele>
        <time>2012-08-16T11:27:06Z</time>
      </trkpt>
      <trkpt lat="47.79518" lon="-3.52872">
        <ele>17.346544265747</ele>
        <time>2012-08-16T11:27:09Z</time>
      </trkpt>
      <trkpt lat="47.79538" lon="-3.52875">
        <ele>18.970804214477</ele>
        <time>2012-08-16T11:27:14Z</time>
      </trkpt>
      <trkpt lat="47.79545" lon="-3.52879">
        <ele>19.85768699646</ele>
        <time>2012-08-16T11:27:17Z</time>
      </trkpt>
      <trkpt lat="47.79548" lon="-3.5288">
        <ele>20.205207824707</ele>
        <time>2012-08-16T11:27:22Z</time>
      </trkpt>
      <trkpt lat="47.7955" lon="-3.52884">
        <ele>20.678068161011</ele>
        <time>2012-08-16T11:27:28Z</time>
      </trkpt>
      <trkpt lat="47.79555" lon="-3.52893">
        <ele>21.920085906982</ele>
        <time>2012-08-16T11:27:36Z</time>
      </trkpt>
      <trkpt lat="47.79558" lon="-3.529">
        <ele>22.840446472168</ele>
        <time>2012-08-16T11:27:42Z</time>
      </trkpt>
      <trkpt lat="47.79562" lon="-3.52908">
        <ele>23.825126647949</ele>
        <time>2012-08-16T11:27:49Z</time>
      </trkpt>
      <trkpt lat="47.79565" lon="-3.52911">
        <ele>24.319721221924</ele>
        <time>2012-08-16T11:27:54Z</time>
      </trkpt>
      <trkpt lat="47.79568" lon="-3.52909">
        <ele>24.318531036377</ele>
        <time>2012-08-16T11:27:59Z</time>
      </trkpt>
      <trkpt lat="47.7957" lon="-3.52905">
        <ele>24.012454986572</ele>
        <time>2012-08-16T11:28:04Z</time>
      </trkpt>
      <trkpt lat="47.79571" lon="-3.52898">
        <ele>23.460252761841</ele>
        <time>2012-08-16T11:28:10Z</time>
      </trkpt>
      <trkpt lat="47.7957" lon="-3.52893">
        <ele>22.874046325684</ele>
        <time>2012-08-16T11:28:15Z</time>
      </trkpt>
      <trkpt lat="47.7957" lon="-3.52887">
        <ele>22.307064056396</ele>
        <time>2012-08-16T11:28:21Z</time>
      </trkpt>
      <trkpt lat="47.7957" lon="-3.52882">
        <ele>21.734777450561</ele>
        <time>2012-08-16T11:28:25Z</time>
      </trkpt>
      <trkpt lat="47.7957" lon="-3.52857">
        <ele>19.373203277588</ele>
        <time>2012-08-16T11:28:34Z</time>
      </trkpt>
      <trkpt lat="47.79576" lon="-3.5284">
        <ele>18.156450271606</ele>
        <time>2012-08-16T11:28:39Z</time>
      </trkpt>
      <trkpt lat="47.79589" lon="-3.5282">
        <ele>17.577524185181</ele>
        <time>2012-08-16T11:28:43Z</time>
      </trkpt>
      <trkpt lat="47.79605" lon="-3.52813">
        <ele>18.411479949951</ele>
        <time>2012-08-16T11:28:47Z</time>
      </trkpt>
      <trkpt lat="47.79626" lon="-3.52794">
        <ele>18.530841827393</ele>
        <time>2012-08-16T11:28:51Z</time>
      </trkpt>
      <trkpt lat="47.79636" lon="-3.52788">
        <ele>18.726594924927</ele>
        <time>2012-08-16T11:28:53Z</time>
      </trkpt>
      <trkpt lat="47.79648" lon="-3.52778">
        <ele>18.632972717285</ele>
        <time>2012-08-16T11:28:56Z</time>
      </trkpt>
      <trkpt lat="47.79659" lon="-3.52775">
        <ele>19.171566009521</ele>
        <time>2012-08-16T11:29:01Z</time>
      </trkpt>
      <trkpt lat="47.7966" lon="-3.52774">
        <ele>19.103464126587</ele>
        <time>2012-08-16T11:29:02Z</time>
      </trkpt>
      <trkpt lat="47.79664" lon="-3.52774">
        <ele>19.381006240845</ele>
        <time>2012-08-16T11:29:07Z</time>
      </trkpt>
      <trkpt lat="47.79665" lon="-3.52774">
        <ele>19.453804016113</ele>
        <time>2012-08-16T11:29:08Z</time>
      </trkpt>
      <trkpt lat="47.7967" lon="-3.52775">
        <ele>20.323188781738</ele>
        <time>2012-08-16T11:29:14Z</time>
      </trkpt>
      <trkpt lat="47.79675" lon="-3.52774">
        <ele>20.950834274292</ele>
        <time>2012-08-16T11:29:20Z</time>
      </trkpt>
      <trkpt lat="47.79681" lon="-3.52772">
        <ele>21.807514190674</ele>
        <time>2012-08-16T11:29:29Z</time>
      </trkpt>
      <trkpt lat="47.79685" lon="-3.5277">
        <ele>22.33487701416</ele>
        <time>2012-08-16T11:29:35Z</time>
      </trkpt>
      <trkpt lat="47.79694" lon="-3.52774">
        <ele>24.131500244141</ele>
        <time>2012-08-16T11:29:42Z</time>
      </trkpt>
      <trkpt lat="47.79696" lon="-3.52773">
        <ele>24.548503875732</ele>
        <time>2012-08-16T11:29:46Z</time>
      </trkpt>
      <trkpt lat="47.79702" lon="-3.52772">
        <ele>25.369647979736</ele>
        <time>2012-08-16T11:29:51Z</time>
      </trkpt>
      <trkpt lat="47.79707" lon="-3.52769">
        <ele>25.933727264404</ele>
        <time>2012-08-16T11:29:57Z</time>
      </trkpt>
      <trkpt lat="47.79714" lon="-3.5276">
        <ele>26.462879180908</ele>
        <time>2012-08-16T11:30:01Z</time>
      </trkpt>
      <trkpt lat="47.79723" lon="-3.52742">
        <ele>26.173469543457</ele>
        <time>2012-08-16T11:30:06Z</time>
      </trkpt>
      <trkpt lat="47.79728" lon="-3.52722">
        <ele>24.742958068848</ele>
        <time>2012-08-16T11:30:11Z</time>
      </trkpt>
      <trkpt lat="47.79737" lon="-3.52689">
        <ele>22.451278686523</ele>
        <time>2012-08-16T11:30:16Z</time>
      </trkpt>
      <trkpt lat="47.79741" lon="-3.52671">
        <ele>20.983573913574</ele>
        <time>2012-08-16T11:30:19Z</time>
      </trkpt>
      <trkpt lat="47.79749" lon="-3.52647">
        <ele>20.211204528809</ele>
        <time>2012-08-16T11:30:23Z</time>
      </trkpt>
      <trkpt lat="47.79755" lon="-3.52634">
        <ele>20.251907348633</ele>
        <time>2012-08-16T11:30:25Z</time>
      </trkpt>
      <trkpt lat="47.79755" lon="-3.52596">
        <ele>17.255947113037</ele>
        <time>2012-08-16T11:30:30Z</time>
      </trkpt>
      <trkpt lat="47.79757" lon="-3.52561">
        <ele>15.349815368652</ele>
        <time>2012-08-16T11:30:34Z</time>
      </trkpt>
      <trkpt lat="47.79775" lon="-3.52492">
        <ele>15.704942703247</ele>
        <time>2012-08-16T11:30:42Z</time>
      </trkpt>
      <trkpt lat="47.79786" lon="-3.52454">
        <ele>15.148742675781</ele>
        <time>2012-08-16T11:30:47Z</time>
      </trkpt>
      <trkpt lat="47.79794" lon="-3.52429">
        <ele>15.16934967041</ele>
        <time>2012-08-16T11:30:51Z</time>
      </trkpt>
      <trkpt lat="47.79802" lon="-3.52403">
        <ele>14.503703117371</ele>
        <time>2012-08-16T11:30:56Z</time>
      </trkpt>
      <trkpt lat="47.79802" lon="-3.52398">
        <ele>14.217626571655</ele>
        <time>2012-08-16T11:30:57Z</time>
      </trkpt>
      <trkpt lat="47.79807" lon="-3.52377">
        <ele>13.233459472656</ele>
        <time>2012-08-16T11:31:02Z</time>
      </trkpt>
      <trkpt lat="47.79809" lon="-3.52371">
        <ele>12.900611877441</ele>
        <time>2012-08-16T11:31:06Z</time>
      </trkpt>
      <trkpt lat="47.79812" lon="-3.52358">
        <ele>12.160375595093</ele>
        <time>2012-08-16T11:31:11Z</time>
      </trkpt>
      <trkpt lat="47.79821" lon="-3.52335">
        <ele>11.192655563354</ele>
        <time>2012-08-16T11:31:17Z</time>
      </trkpt>
      <trkpt lat="47.7984" lon="-3.52311">
        <ele>12.093747138977</ele>
        <time>2012-08-16T11:31:25Z</time>
      </trkpt>
      <trkpt lat="47.7984" lon="-3.52299">
        <ele>11.042087554932</ele>
        <time>2012-08-16T11:31:29Z</time>
      </trkpt>
      <trkpt lat="47.79834" lon="-3.52298">
        <ele>10.148406982422</ele>
        <time>2012-08-16T11:31:31Z</time>
      </trkpt>
      <trkpt lat="47.79796" lon="-3.52312">
        <ele>6.1778264045715</ele>
        <time>2012-08-16T11:31:40Z</time>
      </trkpt>
      <trkpt lat="47.79753" lon="-3.52328">
        <ele>0.52477490901947</ele>
        <time>2012-08-16T11:31:49Z</time>
      </trkpt>
      <trkpt lat="47.79696" lon="-3.52349">
        <ele>2.7542624473572</ele>
        <time>2012-08-16T11:32:01Z</time>
      </trkpt>
      <trkpt lat="47.79631" lon="-3.52372">
        <ele>11.670428276062</ele>
        <time>2012-08-16T11:32:13Z</time>
      </trkpt>
      <trkpt lat="47.79578" lon="-3.52391">
        <ele>21.232833862305</ele>
        <time>2012-08-16T11:32:23Z</time>
      </trkpt>
      <trkpt lat="47.79546" lon="-3.52403">
        <ele>22.803991317749</ele>
        <time>2012-08-16T11:32:30Z</time>
      </trkpt>
      <trkpt lat="47.79504" lon="-3.52418">
        <ele>24.484281539917</ele>
        <time>2012-08-16T11:32:40Z</time>
      </trkpt>
      <trkpt lat="47.79474" lon="-3.52426">
        <ele>25.923728942871</ele>
        <time>2012-08-16T11:32:48Z</time>
      </trkpt>
      <trkpt lat="47.79443" lon="-3.52435">
        <ele>27.258541107178</ele>
        <time>2012-08-16T11:32:57Z</time>
      </trkpt>
      <trkpt lat="47.79423" lon="-3.52439">
        <ele>28.18302154541</ele>
        <time>2012-08-16T11:33:03Z</time>
      </trkpt>
      <trkpt lat="47.79405" lon="-3.52439">
        <ele>28.790508270264</ele>
        <time>2012-08-16T11:33:08Z</time>
      </trkpt>
      <trkpt lat="47.79388" lon="-3.52438">
        <ele>29.13737487793</ele>
        <time>2012-08-16T11:33:13Z</time>
      </trkpt>
      <trkpt lat="47.79362" lon="-3.52434">
        <ele>29.926776885986</ele>
        <time>2012-08-16T11:33:20Z</time>
      </trkpt>
      <trkpt lat="47.79339" lon="-3.52427">
        <ele>31.285966873169</ele>
        <time>2012-08-16T11:33:26Z</time>
      </trkpt>
      <trkpt lat="47.79313" lon="-3.52411">
        <ele>33.719829559326</ele>
        <time>2012-08-16T11:33:33Z</time>
      </trkpt>
      <trkpt lat="47.79274" lon="-3.52377">
        <ele>35.845043182373</ele>
        <time>2012-08-16T11:33:43Z</time>
      </trkpt>
      <trkpt lat="47.7925" lon="-3.52341">
        <ele>36.669952392578</ele>
        <time>2012-08-16T11:33:50Z</time>
      </trkpt>
      <trkpt lat="47.79227" lon="-3.5229">
        <ele>34.11060333252</ele>
        <time>2012-08-16T11:33:58Z</time>
      </trkpt>
      <trkpt lat="47.79214" lon="-3.52239">
        <ele>32.669548034668</ele>
        <time>2012-08-16T11:34:05Z</time>
      </trkpt>
      <trkpt lat="47.79207" lon="-3.52177">
        <ele>32.769386291504</ele>
        <time>2012-08-16T11:34:13Z</time>
      </trkpt>
      <trkpt lat="47.79206" lon="-3.52112">
        <ele>34.213832855225</ele>
        <time>2012-08-16T11:34:21Z</time>
      </trkpt>
      <trkpt lat="47.79209" lon="-3.52023">
        <ele>35.738563537598</ele>
        <time>2012-08-16T11:34:32Z</time>
      </trkpt>
      <trkpt lat="47.79212" lon="-3.51956">
        <ele>36.171825408936</ele>
        <time>2012-08-16T11:34:41Z</time>
      </trkpt>
      <trkpt lat="47.7922" lon="-3.51895">
        <ele>36.477779388428</ele>
        <time>2012-08-16T11:34:49Z</time>
      </trkpt>
      <trkpt lat="47.79234" lon="-3.51851">
        <ele>36.896186828613</ele>
        <time>2012-08-16T11:34:56Z</time>
      </trkpt>
      <trkpt lat="47.79255" lon="-3.51815">
        <ele>38.037334442139</ele>
        <time>2012-08-16T11:35:03Z</time>
      </trkpt>
      <trkpt lat="47.79284" lon="-3.51769">
        <ele>39.508037567139</ele>
        <time>2012-08-16T11:35:12Z</time>
      </trkpt>
      <trkpt lat="47.79313" lon="-3.51724">
        <ele>41.01197052002</ele>
        <time>2012-08-16T11:35:20Z</time>
      </trkpt>
      <trkpt lat="47.79353" lon="-3.51662">
        <ele>42.968906402588</ele>
        <time>2012-08-16T11:35:30Z</time>
      </trkpt>
      <trkpt lat="47.79384" lon="-3.5161">
        <ele>44.691493988037</ele>
        <time>2012-08-16T11:35:38Z</time>
      </trkpt>
      <trkpt lat="47.79394" lon="-3.51591">
        <ele>45.163558959961</ele>
        <time>2012-08-16T11:35:41Z</time>
      </trkpt>
      <trkpt lat="47.79419" lon="-3.51533">
        <ele>46.56079864502</ele>
        <time>2012-08-16T11:35:50Z</time>
      </trkpt>
      <trkpt lat="47.79441" lon="-3.51461">
        <ele>46.932983398438</ele>
        <time>2012-08-16T11:36:01Z</time>
      </trkpt>
      <trkpt lat="47.7945" lon="-3.51397">
        <ele>47.339866638184</ele>
        <time>2012-08-16T11:36:10Z</time>
      </trkpt>
      <trkpt lat="47.79458" lon="-3.51324">
        <ele>48.191410064697</ele>
        <time>2012-08-16T11:36:20Z</time>
      </trkpt>
      <trkpt lat="47.79464" lon="-3.51265">
        <ele>49.034339904785</ele>
        <time>2012-08-16T11:36:28Z</time>
      </trkpt>
      <trkpt lat="47.79469" lon="-3.51188">
        <ele>50.326351165771</ele>
        <time>2012-08-16T11:36:38Z</time>
      </trkpt>
      <trkpt lat="47.79472" lon="-3.51103">
        <ele>51.686725616455</ele>
        <time>2012-08-16T11:36:49Z</time>
      </trkpt>
      <trkpt lat="47.79477" lon="-3.51024">
        <ele>52.319629669189</ele>
        <time>2012-08-16T11:37:00Z</time>
      </trkpt>
      <trkpt lat="47.7948" lon="-3.50994">
        <ele>52.510375976562</ele>
        <time>2012-08-16T11:37:04Z</time>
      </trkpt>
      <trkpt lat="47.79485" lon="-3.50936">
        <ele>52.62939453125</ele>
        <time>2012-08-16T11:37:12Z</time>
      </trkpt>
      <trkpt lat="47.7949" lon="-3.50861">
        <ele>52.757568359375</ele>
        <time>2012-08-16T11:37:22Z</time>
      </trkpt>
      <trkpt lat="47.79492" lon="-3.50778">
        <ele>52.007503509521</ele>
        <time>2012-08-16T11:37:32Z</time>
      </trkpt>
      <trkpt lat="47.79492" lon="-3.50734">
        <ele>51.428081512451</ele>
        <time>2012-08-16T11:37:37Z</time>
      </trkpt>
      <trkpt lat="47.79493" lon="-3.50697">
        <ele>51.019813537598</ele>
        <time>2012-08-16T11:37:41Z</time>
      </trkpt>
      <trkpt lat="47.79493" lon="-3.50638">
        <ele>50.010585784912</ele>
        <time>2012-08-16T11:37:47Z</time>
      </trkpt>
      <trkpt lat="47.79485" lon="-3.5058">
        <ele>48.481018066406</ele>
        <time>2012-08-16T11:37:52Z</time>
      </trkpt>
      <trkpt lat="47.79474" lon="-3.50545">
        <ele>46.647392272949</ele>
        <time>2012-08-16T11:37:55Z</time>
      </trkpt>
      <trkpt lat="47.79461" lon="-3.50507">
        <ele>45.182994842529</ele>
        <time>2012-08-16T11:37:58Z</time>
      </trkpt>
      <trkpt lat="47.79456" lon="-3.50494">
        <ele>44.701671600342</ele>
        <time>2012-08-16T11:37:59Z</time>
      </trkpt>
      <trkpt lat="47.79419" lon="-3.50393">
        <ele>39.64673614502</ele>
        <time>2012-08-16T11:38:06Z</time>
      </trkpt>
      <trkpt lat="47.79409" lon="-3.50363">
        <ele>36.920623779297</ele>
        <time>2012-08-16T11:38:08Z</time>
      </trkpt>
      <trkpt lat="47.79404" lon="-3.50347">
        <ele>35.494689941406</ele>
        <time>2012-08-16T11:38:09Z</time>
      </trkpt>
      <trkpt lat="47.79392" lon="-3.50288">
        <ele>34.355922698975</ele>
        <time>2012-08-16T11:38:13Z</time>
      </trkpt>
      <trkpt lat="47.79383" lon="-3.50224">
        <ele>35.144603729248</ele>
        <time>2012-08-16T11:38:18Z</time>
      </trkpt>
      <trkpt lat="47.79381" lon="-3.50202">
        <ele>35.876167297363</ele>
        <time>2012-08-16T11:38:20Z</time>
      </trkpt>
      <trkpt lat="47.79374" lon="-3.50144">
        <ele>37.665615081787</ele>
        <time>2012-08-16T11:38:26Z</time>
      </trkpt>
      <trkpt lat="47.79374" lon="-3.50136">
        <ele>37.899715423584</ele>
        <time>2012-08-16T11:38:27Z</time>
      </trkpt>
      <trkpt lat="47.7937" lon="-3.5012">
        <ele>38.319416046143</ele>
        <time>2012-08-16T11:38:29Z</time>
      </trkpt>
      <trkpt lat="47.79368" lon="-3.50113">
        <ele>38.502880096436</ele>
        <time>2012-08-16T11:38:30Z</time>
      </trkpt>
      <trkpt lat="47.79367" lon="-3.5009">
        <ele>39.190643310547</ele>
        <time>2012-08-16T11:38:33Z</time>
      </trkpt>
      <trkpt lat="47.79364" lon="-3.5006">
        <ele>40.514362335205</ele>
        <time>2012-08-16T11:38:37Z</time>
      </trkpt>
      <trkpt lat="47.79359" lon="-3.50027">
        <ele>41.97660446167</ele>
        <time>2012-08-16T11:38:42Z</time>
      </trkpt>
      <trkpt lat="47.79355" lon="-3.49996">
        <ele>43.274959564209</ele>
        <time>2012-08-16T11:38:47Z</time>
      </trkpt>
      <trkpt lat="47.79348" lon="-3.49957">
        <ele>45.289978027344</ele>
        <time>2012-08-16T11:38:54Z</time>
      </trkpt>
      <trkpt lat="47.79346" lon="-3.49927">
        <ele>46.995433807373</ele>
        <time>2012-08-16T11:39:00Z</time>
      </trkpt>
      <trkpt lat="47.79343" lon="-3.49888">
        <ele>48.458675384521</ele>
        <time>2012-08-16T11:39:08Z</time>
      </trkpt>
      <trkpt lat="47.79344" lon="-3.49841">
        <ele>50.116546630859</ele>
        <time>2012-08-16T11:39:17Z</time>
      </trkpt>
      <trkpt lat="47.79345" lon="-3.49806">
        <ele>51.09676361084</ele>
        <time>2012-08-16T11:39:24Z</time>
      </trkpt>
      <trkpt lat="47.7934" lon="-3.49782">
        <ele>51.477279663086</ele>
        <time>2012-08-16T11:39:29Z</time>
      </trkpt>
      <trkpt lat="47.79339" lon="-3.49761">
        <ele>51.932182312012</ele>
        <time>2012-08-16T11:39:33Z</time>
      </trkpt>
      <trkpt lat="47.79345" lon="-3.49736">
        <ele>52.417846679688</ele>
        <time>2012-08-16T11:39:38Z</time>
      </trkpt>
      <trkpt lat="47.79343" lon="-3.4969">
        <ele>52.349182128906</ele>
        <time>2012-08-16T11:39:46Z</time>
      </trkpt>
      <trkpt lat="47.79335" lon="-3.49649">
        <ele>52.069385528564</ele>
        <time>2012-08-16T11:39:53Z</time>
      </trkpt>
      <trkpt lat="47.79317" lon="-3.49589">
        <ele>51.986267089844</ele>
        <time>2012-08-16T11:40:03Z</time>
      </trkpt>
      <trkpt lat="47.79296" lon="-3.49521">
        <ele>52.411464691162</ele>
        <time>2012-08-16T11:40:13Z</time>
      </trkpt>
      <trkpt lat="47.79285" lon="-3.49483">
        <ele>52.704074859619</ele>
        <time>2012-08-16T11:40:18Z</time>
      </trkpt>
      <trkpt lat="47.79274" lon="-3.49417">
        <ele>53.565818786621</ele>
        <time>2012-08-16T11:40:26Z</time>
      </trkpt>
      <trkpt lat="47.79271" lon="-3.494">
        <ele>52.911445617676</ele>
        <time>2012-08-16T11:40:28Z</time>
      </trkpt>
      <trkpt lat="47.79271" lon="-3.49363">
        <ele>51.573631286621</ele>
        <time>2012-08-16T11:40:32Z</time>
      </trkpt>
      <trkpt lat="47.79271" lon="-3.49291">
        <ele>48.966381072998</ele>
        <time>2012-08-16T11:40:39Z</time>
      </trkpt>
      <trkpt lat="47.79268" lon="-3.49258">
        <ele>47.711822509766</ele>
        <time>2012-08-16T11:40:42Z</time>
      </trkpt>
      <trkpt lat="47.79263" lon="-3.49224">
        <ele>47.012714385986</ele>
        <time>2012-08-16T11:40:45Z</time>
      </trkpt>
      <trkpt lat="47.79265" lon="-3.49184">
        <ele>46.575263977051</ele>
        <time>2012-08-16T11:40:49Z</time>
      </trkpt>
      <trkpt lat="47.79267" lon="-3.4917">
        <ele>46.446804046631</ele>
        <time>2012-08-16T11:40:51Z</time>
      </trkpt>
      <trkpt lat="47.79272" lon="-3.49146">
        <ele>46.529907226562</ele>
        <time>2012-08-16T11:40:56Z</time>
      </trkpt>
      <trkpt lat="47.79281" lon="-3.49144">
        <ele>46.749633789062</ele>
        <time>2012-08-16T11:40:58Z</time>
      </trkpt>
      <trkpt lat="47.79295" lon="-3.49142">
        <ele>47.079223632812</ele>
        <time>2012-08-16T11:41:01Z</time>
      </trkpt>
      <trkpt lat="47.79311" lon="-3.49144">
        <ele>47.472900390625</ele>
        <time>2012-08-16T11:41:05Z</time>
      </trkpt>
      <trkpt lat="47.79325" lon="-3.4913">
        <ele>47.793334960938</ele>
        <time>2012-08-16T11:41:09Z</time>
      </trkpt>
      <trkpt lat="47.79325" lon="-3.49123">
        <ele>47.811645507812</ele>
        <time>2012-08-16T11:41:10Z</time>
      </trkpt>
      <trkpt lat="47.7933" lon="-3.49074">
        <ele>48.128768920898</ele>
        <time>2012-08-16T11:41:17Z</time>
      </trkpt>
      <trkpt lat="47.79338" lon="-3.49047">
        <ele>48.73303604126</ele>
        <time>2012-08-16T11:41:21Z</time>
      </trkpt>
      <trkpt lat="47.79346" lon="-3.4903">
        <ele>48.856182098389</ele>
        <time>2012-08-16T11:41:24Z</time>
      </trkpt>
      <trkpt lat="47.79374" lon="-3.48994">
        <ele>48.692924499512</ele>
        <time>2012-08-16T11:41:32Z</time>
      </trkpt>
      <trkpt lat="47.79394" lon="-3.4897">
        <ele>48.55216217041</ele>
        <time>2012-08-16T11:41:37Z</time>
      </trkpt>
      <trkpt lat="47.79398" lon="-3.48965">
        <ele>48.500663757324</ele>
        <time>2012-08-16T11:41:38Z</time>
      </trkpt>
      <trkpt lat="47.79417" lon="-3.48939">
        <ele>48.438793182373</ele>
        <time>2012-08-16T11:41:42Z</time>
      </trkpt>
      <trkpt lat="47.79434" lon="-3.48892">
        <ele>48.089714050293</ele>
        <time>2012-08-16T11:41:47Z</time>
      </trkpt>
      <trkpt lat="47.79435" lon="-3.48861">
        <ele>47.743858337402</ele>
        <time>2012-08-16T11:41:50Z</time>
      </trkpt>
      <trkpt lat="47.79438" lon="-3.48844">
        <ele>47.60326385498</ele>
        <time>2012-08-16T11:41:53Z</time>
      </trkpt>
      <trkpt lat="47.79448" lon="-3.48847">
        <ele>47.765064239502</ele>
        <time>2012-08-16T11:41:55Z</time>
      </trkpt>
      <trkpt lat="47.79453" lon="-3.48848">
        <ele>47.832916259766</ele>
        <time>2012-08-16T11:41:56Z</time>
      </trkpt>
      <trkpt lat="47.79489" lon="-3.48852">
        <ele>48.220149993896</ele>
        <time>2012-08-16T11:42:03Z</time>
      </trkpt>
      <trkpt lat="47.79499" lon="-3.48852">
        <ele>48.317276000977</ele>
        <time>2012-08-16T11:42:05Z</time>
      </trkpt>
      <trkpt lat="47.79543" lon="-3.48855">
        <ele>49.49089050293</ele>
        <time>2012-08-16T11:42:13Z</time>
      </trkpt>
      <trkpt lat="47.79574" lon="-3.48857">
        <ele>50.34105682373</ele>
        <time>2012-08-16T11:42:19Z</time>
      </trkpt>
      <trkpt lat="47.79599" lon="-3.4886">
        <ele>50.70384979248</ele>
        <time>2012-08-16T11:42:24Z</time>
      </trkpt>
      <trkpt lat="47.79609" lon="-3.48864">
        <ele>50.674137115479</ele>
        <time>2012-08-16T11:42:26Z</time>
      </trkpt>
      <trkpt lat="47.79652" lon="-3.48878">
        <ele>50.498268127441</ele>
        <time>2012-08-16T11:42:34Z</time>
      </trkpt>
      <trkpt lat="47.79665" lon="-3.4888">
        <ele>50.614398956299</ele>
        <time>2012-08-16T11:42:36Z</time>
      </trkpt>
      <trkpt lat="47.79713" lon="-3.4889">
        <ele>51.061672210693</ele>
        <time>2012-08-16T11:42:45Z</time>
      </trkpt>
      <trkpt lat="47.79732" lon="-3.48898">
        <ele>51.431159973145</ele>
        <time>2012-08-16T11:42:49Z</time>
      </trkpt>
      <trkpt lat="47.79742" lon="-3.48899">
        <ele>51.737907409668</ele>
        <time>2012-08-16T11:42:51Z</time>
      </trkpt>
      <trkpt lat="47.79767" lon="-3.48899">
        <ele>52.159423828125</ele>
        <time>2012-08-16T11:42:56Z</time>
      </trkpt>
      <trkpt lat="47.79802" lon="-3.48898">
        <ele>52.49068069458</ele>
        <time>2012-08-16T11:43:03Z</time>
      </trkpt>
      <trkpt lat="47.79812" lon="-3.48901">
        <ele>52.604965209961</ele>
        <time>2012-08-16T11:43:05Z</time>
      </trkpt>
      <trkpt lat="47.79857" lon="-3.489">
        <ele>51.832141876221</ele>
        <time>2012-08-16T11:43:14Z</time>
      </trkpt>
      <trkpt lat="47.7988" lon="-3.48899">
        <ele>50.869071960449</ele>
        <time>2012-08-16T11:43:18Z</time>
      </trkpt>
      <trkpt lat="47.79892" lon="-3.48898">
        <ele>50.367256164551</ele>
        <time>2012-08-16T11:43:20Z</time>
      </trkpt>
      <trkpt lat="47.79908" lon="-3.48888">
        <ele>49.340564727783</ele>
        <time>2012-08-16T11:43:24Z</time>
      </trkpt>
      <trkpt lat="47.79919" lon="-3.48871">
        <ele>48.215209960938</ele>
        <time>2012-08-16T11:43:28Z</time>
      </trkpt>
      <trkpt lat="47.79918" lon="-3.48866">
        <ele>48.100086212158</ele>
        <time>2012-08-16T11:43:29Z</time>
      </trkpt>
      <trkpt lat="47.79914" lon="-3.48836">
        <ele>47.238243103027</ele>
        <time>2012-08-16T11:43:34Z</time>
      </trkpt>
      <trkpt lat="47.79906" lon="-3.48777">
        <ele>47.925579071045</ele>
        <time>2012-08-16T11:43:41Z</time>
      </trkpt>
      <trkpt lat="47.79902" lon="-3.48734">
        <ele>48.317840576172</ele>
        <time>2012-08-16T11:43:46Z</time>
      </trkpt>
      <trkpt lat="47.799" lon="-3.48705">
        <ele>48.38614654541</ele>
        <time>2012-08-16T11:43:50Z</time>
      </trkpt>
      <trkpt lat="47.799" lon="-3.48696">
        <ele>48.342601776123</ele>
        <time>2012-08-16T11:43:51Z</time>
      </trkpt>
      <trkpt lat="47.79892" lon="-3.48654">
        <ele>48.446384429932</ele>
        <time>2012-08-16T11:43:56Z</time>
      </trkpt>
      <trkpt lat="47.79885" lon="-3.48622">
        <ele>47.984558105469</ele>
        <time>2012-08-16T11:44:00Z</time>
      </trkpt>
      <trkpt lat="47.79877" lon="-3.48602">
        <ele>47.95951461792</ele>
        <time>2012-08-16T11:44:04Z</time>
      </trkpt>
      <trkpt lat="47.79865" lon="-3.48579">
        <ele>48.075897216797</ele>
        <time>2012-08-16T11:44:09Z</time>
      </trkpt>
      <trkpt lat="47.79836" lon="-3.48549">
        <ele>49.433166503906</ele>
        <time>2012-08-16T11:44:18Z</time>
      </trkpt>
      <trkpt lat="47.79821" lon="-3.4853">
        <ele>50.392799377441</ele>
        <time>2012-08-16T11:44:23Z</time>
      </trkpt>
      <trkpt lat="47.79806" lon="-3.48513">
        <ele>51.877521514893</ele>
        <time>2012-08-16T11:44:28Z</time>
      </trkpt>
      <trkpt lat="47.7979" lon="-3.48501">
        <ele>53.646320343018</ele>
        <time>2012-08-16T11:44:33Z</time>
      </trkpt>
      <trkpt lat="47.79772" lon="-3.48488">
        <ele>55.241291046143</ele>
        <time>2012-08-16T11:44:38Z</time>
      </trkpt>
      <trkpt lat="47.7976" lon="-3.48474">
        <ele>56.212032318115</ele>
        <time>2012-08-16T11:44:42Z</time>
      </trkpt>
      <trkpt lat="47.79756" lon="-3.4847">
        <ele>56.599864959717</ele>
        <time>2012-08-16T11:44:43Z</time>
      </trkpt>
      <trkpt lat="47.79741" lon="-3.48456">
        <ele>56.644790649414</ele>
        <time>2012-08-16T11:44:46Z</time>
      </trkpt>
      <trkpt lat="47.79725" lon="-3.48425">
        <ele>55.781070709229</ele>
        <time>2012-08-16T11:44:50Z</time>
      </trkpt>
      <trkpt lat="47.79704" lon="-3.48407">
        <ele>54.679244995117</ele>
        <time>2012-08-16T11:44:53Z</time>
      </trkpt>
      <trkpt lat="47.79696" lon="-3.48398">
        <ele>53.858699798584</ele>
        <time>2012-08-16T11:44:55Z</time>
      </trkpt>
      <trkpt lat="47.7968" lon="-3.48378">
        <ele>52.265041351318</ele>
        <time>2012-08-16T11:44:59Z</time>
      </trkpt>
      <trkpt lat="47.7966" lon="-3.48356">
        <ele>50.526027679443</ele>
        <time>2012-08-16T11:45:03Z</time>
      </trkpt>
      <trkpt lat="47.79644" lon="-3.48321">
        <ele>49.497779846191</ele>
        <time>2012-08-16T11:45:08Z</time>
      </trkpt>
      <trkpt lat="47.79634" lon="-3.48302">
        <ele>50.512187957764</ele>
        <time>2012-08-16T11:45:12Z</time>
      </trkpt>
      <trkpt lat="47.79621" lon="-3.48295">
        <ele>51.173065185547</ele>
        <time>2012-08-16T11:45:17Z</time>
      </trkpt>
      <trkpt lat="47.79611" lon="-3.48275">
        <ele>52.716674804688</ele>
        <time>2012-08-16T11:45:21Z</time>
      </trkpt>
      <trkpt lat="47.79618" lon="-3.4825">
        <ele>53.875514984131</ele>
        <time>2012-08-16T11:45:24Z</time>
      </trkpt>
      <trkpt lat="47.79635" lon="-3.48242">
        <ele>53.406154632568</ele>
        <time>2012-08-16T11:45:27Z</time>
      </trkpt>
      <trkpt lat="47.79641" lon="-3.48243">
        <ele>52.977630615234</ele>
        <time>2012-08-16T11:45:28Z</time>
      </trkpt>
      <trkpt lat="47.79677" lon="-3.48246">
        <ele>50.585796356201</ele>
        <time>2012-08-16T11:45:34Z</time>
      </trkpt>
      <trkpt lat="47.79688" lon="-3.48219">
        <ele>51.112350463867</ele>
        <time>2012-08-16T11:45:37Z</time>
      </trkpt>
      <trkpt lat="47.79693" lon="-3.48198">
        <ele>51.683441162109</ele>
        <time>2012-08-16T11:45:39Z</time>
      </trkpt>
      <trkpt lat="47.7971" lon="-3.48121">
        <ele>52.110366821289</ele>
        <time>2012-08-16T11:45:46Z</time>
      </trkpt>
      <trkpt lat="47.79716" lon="-3.48099">
        <ele>51.801971435547</ele>
        <time>2012-08-16T11:45:48Z</time>
      </trkpt>
      <trkpt lat="47.79737" lon="-3.48056">
        <ele>49.734180450439</ele>
        <time>2012-08-16T11:45:53Z</time>
      </trkpt>
      <trkpt lat="47.79776" lon="-3.48021">
        <ele>47.252872467041</ele>
        <time>2012-08-16T11:46:00Z</time>
      </trkpt>
      <trkpt lat="47.79794" lon="-3.47999">
        <ele>46.430862426758</ele>
        <time>2012-08-16T11:46:04Z</time>
      </trkpt>
      <trkpt lat="47.79837" lon="-3.47964">
        <ele>45.838352203369</ele>
        <time>2012-08-16T11:46:13Z</time>
      </trkpt>
      <trkpt lat="47.79872" lon="-3.47934">
        <ele>46.220390319824</ele>
        <time>2012-08-16T11:46:21Z</time>
      </trkpt>
      <trkpt lat="47.79899" lon="-3.47911">
        <ele>46.260906219482</ele>
        <time>2012-08-16T11:46:27Z</time>
      </trkpt>
      <trkpt lat="47.79908" lon="-3.47903">
        <ele>46.250907897949</ele>
        <time>2012-08-16T11:46:29Z</time>
      </trkpt>
      <trkpt lat="47.79922" lon="-3.47875">
        <ele>46.665802001953</ele>
        <time>2012-08-16T11:46:34Z</time>
      </trkpt>
      <trkpt lat="47.79926" lon="-3.47853">
        <ele>47.004898071289</ele>
        <time>2012-08-16T11:46:37Z</time>
      </trkpt>
      <trkpt lat="47.79927" lon="-3.47809">
        <ele>47.345508575439</ele>
        <time>2012-08-16T11:46:43Z</time>
      </trkpt>
      <trkpt lat="47.79929" lon="-3.47789">
        <ele>47.533580780029</ele>
        <time>2012-08-16T11:46:46Z</time>
      </trkpt>
      <trkpt lat="47.79932" lon="-3.47745">
        <ele>47.869537353516</ele>
        <time>2012-08-16T11:46:52Z</time>
      </trkpt>
      <trkpt lat="47.79943" lon="-3.47709">
        <ele>48.590599060059</ele>
        <time>2012-08-16T11:46:57Z</time>
      </trkpt>
      <trkpt lat="47.79961" lon="-3.47699">
        <ele>50.054218292236</ele>
        <time>2012-08-16T11:47:01Z</time>
      </trkpt>
      <trkpt lat="47.79968" lon="-3.4772">
        <ele>50.406551361084</ele>
        <time>2012-08-16T11:47:04Z</time>
      </trkpt>
      <trkpt lat="47.79983" lon="-3.47767">
        <ele>50.510570526123</ele>
        <time>2012-08-16T11:47:10Z</time>
      </trkpt>
      <trkpt lat="47.8" lon="-3.47794">
        <ele>50.450687408447</ele>
        <time>2012-08-16T11:47:14Z</time>
      </trkpt>
      <trkpt lat="47.80025" lon="-3.47815">
        <ele>50.62629699707</ele>
        <time>2012-08-16T11:47:18Z</time>
      </trkpt>
      <trkpt lat="47.80063" lon="-3.47827">
        <ele>51.103992462158</ele>
        <time>2012-08-16T11:47:23Z</time>
      </trkpt>
      <trkpt lat="47.80087" lon="-3.47828">
        <ele>51.471340179443</ele>
        <time>2012-08-16T11:47:26Z</time>
      </trkpt>
      <trkpt lat="47.80158" lon="-3.47835">
        <ele>48.40119934082</ele>
        <time>2012-08-16T11:47:36Z</time>
      </trkpt>
      <trkpt lat="47.80164" lon="-3.47835">
        <ele>48.22550201416</ele>
        <time>2012-08-16T11:47:37Z</time>
      </trkpt>
      <trkpt lat="47.80185" lon="-3.47827">
        <ele>48.296657562256</ele>
        <time>2012-08-16T11:47:41Z</time>
      </trkpt>
      <trkpt lat="47.80203" lon="-3.47808">
        <ele>48.726676940918</ele>
        <time>2012-08-16T11:47:45Z</time>
      </trkpt>
      <trkpt lat="47.80212" lon="-3.47796">
        <ele>48.778316497803</ele>
        <time>2012-08-16T11:47:47Z</time>
      </trkpt>
      <trkpt lat="47.80233" lon="-3.47763">
        <ele>48.190132141113</ele>
        <time>2012-08-16T11:47:52Z</time>
      </trkpt>
      <trkpt lat="47.80256" lon="-3.4773">
        <ele>47.051979064941</ele>
        <time>2012-08-16T11:47:57Z</time>
      </trkpt>
      <trkpt lat="47.80266" lon="-3.47716">
        <ele>46.875606536865</ele>
        <time>2012-08-16T11:47:59Z</time>
      </trkpt>
      <trkpt lat="47.80285" lon="-3.47686">
        <ele>46.28882598877</ele>
        <time>2012-08-16T11:48:03Z</time>
      </trkpt>
      <trkpt lat="47.80321" lon="-3.47626">
        <ele>44.385276794434</ele>
        <time>2012-08-16T11:48:11Z</time>
      </trkpt>
      <trkpt lat="47.80358" lon="-3.47567">
        <ele>45.120094299316</ele>
        <time>2012-08-16T11:48:20Z</time>
      </trkpt>
      <trkpt lat="47.80393" lon="-3.47511">
        <ele>49.649841308594</ele>
        <time>2012-08-16T11:48:29Z</time>
      </trkpt>
      <trkpt lat="47.80423" lon="-3.47459">
        <ele>51.310390472412</ele>
        <time>2012-08-16T11:48:37Z</time>
      </trkpt>
      <trkpt lat="47.8044" lon="-3.47426">
        <ele>51.627422332764</ele>
        <time>2012-08-16T11:48:42Z</time>
      </trkpt>
      <trkpt lat="47.80471" lon="-3.47369">
        <ele>51.37574005127</ele>
        <time>2012-08-16T11:48:50Z</time>
      </trkpt>
      <trkpt lat="47.80497" lon="-3.47318">
        <ele>49.697967529297</ele>
        <time>2012-08-16T11:48:56Z</time>
      </trkpt>
      <trkpt lat="47.8052" lon="-3.47255">
        <ele>45.14387512207</ele>
        <time>2012-08-16T11:49:02Z</time>
      </trkpt>
      <trkpt lat="47.80536" lon="-3.47174">
        <ele>42.903564453125</ele>
        <time>2012-08-16T11:49:09Z</time>
      </trkpt>
      <trkpt lat="47.80552" lon="-3.47079">
        <ele>43.545791625977</ele>
        <time>2012-08-16T11:49:18Z</time>
      </trkpt>
      <trkpt lat="47.80566" lon="-3.46999">
        <ele>44.837074279785</ele>
        <time>2012-08-16T11:49:27Z</time>
      </trkpt>
      <trkpt lat="47.80579" lon="-3.46924">
        <ele>47.62398147583</ele>
        <time>2012-08-16T11:49:36Z</time>
      </trkpt>
      <trkpt lat="47.80588" lon="-3.46884">
        <ele>49.025749206543</ele>
        <time>2012-08-16T11:49:41Z</time>
      </trkpt>
      <trkpt lat="47.80609" lon="-3.46805">
        <ele>50.590572357178</ele>
        <time>2012-08-16T11:49:51Z</time>
      </trkpt>
      <trkpt lat="47.80634" lon="-3.46716">
        <ele>51.131610870361</ele>
        <time>2012-08-16T11:50:02Z</time>
      </trkpt>
      <trkpt lat="47.80656" lon="-3.46633">
        <ele>50.774978637695</ele>
        <time>2012-08-16T11:50:11Z</time>
      </trkpt>
      <trkpt lat="47.8067" lon="-3.46561">
        <ele>48.822612762451</ele>
        <time>2012-08-16T11:50:18Z</time>
      </trkpt>
      <trkpt lat="47.80673" lon="-3.46525">
        <ele>47.143165588379</ele>
        <time>2012-08-16T11:50:21Z</time>
      </trkpt>
      <trkpt lat="47.80673" lon="-3.46513">
        <ele>46.581115722656</ele>
        <time>2012-08-16T11:50:22Z</time>
      </trkpt>
      <trkpt lat="47.80664" lon="-3.46466">
        <ele>46.101051330566</ele>
        <time>2012-08-16T11:50:26Z</time>
      </trkpt>
      <trkpt lat="47.80656" lon="-3.46432">
        <ele>46.565849304199</ele>
        <time>2012-08-16T11:50:29Z</time>
      </trkpt>
      <trkpt lat="47.8066" lon="-3.46409">
        <ele>46.414318084717</ele>
        <time>2012-08-16T11:50:31Z</time>
      </trkpt>
      <trkpt lat="47.80667" lon="-3.46348">
        <ele>45.974105834961</ele>
        <time>2012-08-16T11:50:36Z</time>
      </trkpt>
      <trkpt lat="47.80665" lon="-3.46269">
        <ele>46.965564727783</ele>
        <time>2012-08-16T11:50:43Z</time>
      </trkpt>
      <trkpt lat="47.80657" lon="-3.462">
        <ele>46.41104888916</ele>
        <time>2012-08-16T11:50:50Z</time>
      </trkpt>
      <trkpt lat="47.8065" lon="-3.46152">
        <ele>45.338565826416</ele>
        <time>2012-08-16T11:50:55Z</time>
      </trkpt>
      <trkpt lat="47.80638" lon="-3.46089">
        <ele>44.139526367188</ele>
        <time>2012-08-16T11:51:02Z</time>
      </trkpt>
      <trkpt lat="47.80622" lon="-3.45999">
        <ele>46.444820404053</ele>
        <time>2012-08-16T11:51:12Z</time>
      </trkpt>
      <trkpt lat="47.80603" lon="-3.45898">
        <ele>44.94877243042</ele>
        <time>2012-08-16T11:51:23Z</time>
      </trkpt>
      <trkpt lat="47.80587" lon="-3.45819">
        <ele>44.951354980469</ele>
        <time>2012-08-16T11:51:31Z</time>
      </trkpt>
      <trkpt lat="47.80568" lon="-3.45719">
        <ele>45.947547912598</ele>
        <time>2012-08-16T11:51:41Z</time>
      </trkpt>
      <trkpt lat="47.80553" lon="-3.45633">
        <ele>46.854339599609</ele>
        <time>2012-08-16T11:51:50Z</time>
      </trkpt>
      <trkpt lat="47.80545" lon="-3.45574">
        <ele>46.139705657959</ele>
        <time>2012-08-16T11:51:56Z</time>
      </trkpt>
      <trkpt lat="47.80536" lon="-3.45482">
        <ele>45.031604766846</ele>
        <time>2012-08-16T11:52:05Z</time>
      </trkpt>
      <trkpt lat="47.80526" lon="-3.45393">
        <ele>44.182708740234</ele>
        <time>2012-08-16T11:52:14Z</time>
      </trkpt>
      <trkpt lat="47.80513" lon="-3.45312">
        <ele>43.151313781738</ele>
        <time>2012-08-16T11:52:22Z</time>
      </trkpt>
      <trkpt lat="47.80491" lon="-3.45223">
        <ele>41.109497070312</ele>
        <time>2012-08-16T11:52:31Z</time>
      </trkpt>
      <trkpt lat="47.80484" lon="-3.45206">
        <ele>41.196472167969</ele>
        <time>2012-08-16T11:52:33Z</time>
      </trkpt>
      <trkpt lat="47.80469" lon="-3.45142">
        <ele>40.77515411377</ele>
        <time>2012-08-16T11:52:40Z</time>
      </trkpt>
      <trkpt lat="47.80455" lon="-3.4509">
        <ele>39.686820983887</ele>
        <time>2012-08-16T11:52:46Z</time>
      </trkpt>
      <trkpt lat="47.80439" lon="-3.4502">
        <ele>38.978446960449</ele>
        <time>2012-08-16T11:52:54Z</time>
      </trkpt>
      <trkpt lat="47.80426" lon="-3.44936">
        <ele>40.425666809082</ele>
        <time>2012-08-16T11:53:03Z</time>
      </trkpt>
      <trkpt lat="47.8042" lon="-3.44862">
        <ele>40.985084533691</ele>
        <time>2012-08-16T11:53:11Z</time>
      </trkpt>
      <trkpt lat="47.80415" lon="-3.44797">
        <ele>42.002647399902</ele>
        <time>2012-08-16T11:53:19Z</time>
      </trkpt>
      <trkpt lat="47.8041" lon="-3.44738">
        <ele>43.668422698975</ele>
        <time>2012-08-16T11:53:27Z</time>
      </trkpt>
      <trkpt lat="47.80407" lon="-3.44679">
        <ele>44.698104858398</ele>
        <time>2012-08-16T11:53:36Z</time>
      </trkpt>
      <trkpt lat="47.80405" lon="-3.44667">
        <ele>44.944152832031</ele>
        <time>2012-08-16T11:53:38Z</time>
      </trkpt>
      <trkpt lat="47.80402" lon="-3.44624">
        <ele>45.91397857666</ele>
        <time>2012-08-16T11:53:45Z</time>
      </trkpt>
      <trkpt lat="47.804" lon="-3.44582">
        <ele>46.619567871094</ele>
        <time>2012-08-16T11:53:52Z</time>
      </trkpt>
      <trkpt lat="47.80392" lon="-3.44511">
        <ele>47.240386962891</ele>
        <time>2012-08-16T11:54:03Z</time>
      </trkpt>
      <trkpt lat="47.80381" lon="-3.4446">
        <ele>47.224548339844</ele>
        <time>2012-08-16T11:54:11Z</time>
      </trkpt>
      <trkpt lat="47.80366" lon="-3.44403">
        <ele>47.027206420898</ele>
        <time>2012-08-16T11:54:20Z</time>
      </trkpt>
      <trkpt lat="47.80362" lon="-3.44384">
        <ele>47.011642456055</ele>
        <time>2012-08-16T11:54:23Z</time>
      </trkpt>
      <trkpt lat="47.8036" lon="-3.44372">
        <ele>46.986408233643</ele>
        <time>2012-08-16T11:54:25Z</time>
      </trkpt>
      <trkpt lat="47.80367" lon="-3.44324">
        <ele>47.369079589844</ele>
        <time>2012-08-16T11:54:32Z</time>
      </trkpt>
      <trkpt lat="47.80368" lon="-3.44317">
        <ele>47.542816162109</ele>
        <time>2012-08-16T11:54:33Z</time>
      </trkpt>
      <trkpt lat="47.80365" lon="-3.4429">
        <ele>47.97087097168</ele>
        <time>2012-08-16T11:54:37Z</time>
      </trkpt>
      <trkpt lat="47.80352" lon="-3.44278">
        <ele>47.853366851807</ele>
        <time>2012-08-16T11:54:40Z</time>
      </trkpt>
      <trkpt lat="47.80314" lon="-3.44265">
        <ele>47.676986694336</ele>
        <time>2012-08-16T11:54:48Z</time>
      </trkpt>
      <trkpt lat="47.80293" lon="-3.44257">
        <ele>47.87406539917</ele>
        <time>2012-08-16T11:54:53Z</time>
      </trkpt>
      <trkpt lat="47.80289" lon="-3.44256">
        <ele>47.895477294922</ele>
        <time>2012-08-16T11:54:54Z</time>
      </trkpt>
      <trkpt lat="47.80258" lon="-3.44245">
        <ele>48.023868560791</ele>
        <time>2012-08-16T11:55:01Z</time>
      </trkpt>
      <trkpt lat="47.80224" lon="-3.44232">
        <ele>47.616523742676</ele>
        <time>2012-08-16T11:55:08Z</time>
      </trkpt>
      <trkpt lat="47.80186" lon="-3.44224">
        <ele>46.98743057251</ele>
        <time>2012-08-16T11:55:15Z</time>
      </trkpt>
      <trkpt lat="47.80151" lon="-3.44212">
        <ele>46.375473022461</ele>
        <time>2012-08-16T11:55:22Z</time>
      </trkpt>
      <trkpt lat="47.80146" lon="-3.4421">
        <ele>46.275466918945</ele>
        <time>2012-08-16T11:55:23Z</time>
      </trkpt>
      <trkpt lat="47.80119" lon="-3.4418">
        <ele>45.19603729248</ele>
        <time>2012-08-16T11:55:30Z</time>
      </trkpt>
      <trkpt lat="47.80093" lon="-3.44146">
        <ele>43.744956970215</ele>
        <time>2012-08-16T11:55:36Z</time>
      </trkpt>
      <trkpt lat="47.80069" lon="-3.44109">
        <ele>42.683235168457</ele>
        <time>2012-08-16T11:55:41Z</time>
      </trkpt>
      <trkpt lat="47.80056" lon="-3.44074">
        <ele>42.107578277588</ele>
        <time>2012-08-16T11:55:45Z</time>
      </trkpt>
      <trkpt lat="47.80051" lon="-3.44036">
        <ele>42.571350097656</ele>
        <time>2012-08-16T11:55:49Z</time>
      </trkpt>
      <trkpt lat="47.80056" lon="-3.43974">
        <ele>43.803993225098</ele>
        <time>2012-08-16T11:55:56Z</time>
      </trkpt>
      <trkpt lat="47.80066" lon="-3.43914">
        <ele>45.162631988525</ele>
        <time>2012-08-16T11:56:04Z</time>
      </trkpt>
      <trkpt lat="47.80073" lon="-3.43862">
        <ele>46.164611816406</ele>
        <time>2012-08-16T11:56:11Z</time>
      </trkpt>
      <trkpt lat="47.80075" lon="-3.43825">
        <ele>46.802928924561</ele>
        <time>2012-08-16T11:56:16Z</time>
      </trkpt>
      <trkpt lat="47.80072" lon="-3.43787">
        <ele>47.161640167236</ele>
        <time>2012-08-16T11:56:21Z</time>
      </trkpt>
      <trkpt lat="47.80053" lon="-3.43723">
        <ele>48.252552032471</ele>
        <time>2012-08-16T11:56:29Z</time>
      </trkpt>
      <trkpt lat="47.80036" lon="-3.43673">
        <ele>47.675830841064</ele>
        <time>2012-08-16T11:56:35Z</time>
      </trkpt>
      <trkpt lat="47.80034" lon="-3.43665">
        <ele>47.514476776123</ele>
        <time>2012-08-16T11:56:36Z</time>
      </trkpt>
      <trkpt lat="47.80023" lon="-3.43636">
        <ele>47.344535827637</ele>
        <time>2012-08-16T11:56:40Z</time>
      </trkpt>
      <trkpt lat="47.80002" lon="-3.43572">
        <ele>46.895977020264</ele>
        <time>2012-08-16T11:56:48Z</time>
      </trkpt>
      <trkpt lat="47.79993" lon="-3.43549">
        <ele>46.6989402771</ele>
        <time>2012-08-16T11:56:51Z</time>
      </trkpt>
      <trkpt lat="47.79972" lon="-3.43524">
        <ele>45.537490844727</ele>
        <time>2012-08-16T11:56:56Z</time>
      </trkpt>
      <trkpt lat="47.79951" lon="-3.43496">
        <ele>44.056907653809</ele>
        <time>2012-08-16T11:57:02Z</time>
      </trkpt>
      <trkpt lat="47.79947" lon="-3.4348">
        <ele>43.726947784424</ele>
        <time>2012-08-16T11:57:04Z</time>
      </trkpt>
      <trkpt lat="47.79932" lon="-3.4345">
        <ele>43.077743530273</ele>
        <time>2012-08-16T11:57:08Z</time>
      </trkpt>
      <trkpt lat="47.79903" lon="-3.43416">
        <ele>42.505657196045</ele>
        <time>2012-08-16T11:57:14Z</time>
      </trkpt>
      <trkpt lat="47.79883" lon="-3.43398">
        <ele>42.020141601562</ele>
        <time>2012-08-16T11:57:18Z</time>
      </trkpt>
      <trkpt lat="47.79847" lon="-3.43373">
        <ele>41.003047943115</ele>
        <time>2012-08-16T11:57:25Z</time>
      </trkpt>
      <trkpt lat="47.79815" lon="-3.43354">
        <ele>40.975467681885</ele>
        <time>2012-08-16T11:57:31Z</time>
      </trkpt>
      <trkpt lat="47.79779" lon="-3.43332">
        <ele>41.007255554199</ele>
        <time>2012-08-16T11:57:37Z</time>
      </trkpt>
      <trkpt lat="47.79752" lon="-3.43317">
        <ele>41.003665924072</ele>
        <time>2012-08-16T11:57:42Z</time>
      </trkpt>
      <trkpt lat="47.79731" lon="-3.43297">
        <ele>40.543701171875</ele>
        <time>2012-08-16T11:57:46Z</time>
      </trkpt>
      <trkpt lat="47.79694" lon="-3.43246">
        <ele>39.780406951904</ele>
        <time>2012-08-16T11:57:53Z</time>
      </trkpt>
      <trkpt lat="47.79662" lon="-3.43202">
        <ele>40.641166687012</ele>
        <time>2012-08-16T11:57:59Z</time>
      </trkpt>
      <trkpt lat="47.79631" lon="-3.43162">
        <ele>40.708728790283</ele>
        <time>2012-08-16T11:58:05Z</time>
      </trkpt>
      <trkpt lat="47.79622" lon="-3.43152">
        <ele>40.306827545166</ele>
        <time>2012-08-16T11:58:07Z</time>
      </trkpt>
      <trkpt lat="47.79585" lon="-3.43137">
        <ele>38.716270446777</ele>
        <time>2012-08-16T11:58:14Z</time>
      </trkpt>
      <trkpt lat="47.79575" lon="-3.43134">
        <ele>38.649936676025</ele>
        <time>2012-08-16T11:58:16Z</time>
      </trkpt>
      <trkpt lat="47.79556" lon="-3.43134">
        <ele>38.737972259521</ele>
        <time>2012-08-16T11:58:20Z</time>
      </trkpt>
      <trkpt lat="47.79527" lon="-3.43136">
        <ele>38.881706237793</ele>
        <time>2012-08-16T11:58:26Z</time>
      </trkpt>
      <trkpt lat="47.7949" lon="-3.43135">
        <ele>39.048091888428</ele>
        <time>2012-08-16T11:58:34Z</time>
      </trkpt>
      <trkpt lat="47.79467" lon="-3.43133">
        <ele>39.160003662109</ele>
        <time>2012-08-16T11:58:39Z</time>
      </trkpt>
      <trkpt lat="47.79449" lon="-3.43117">
        <ele>39.360061645508</ele>
        <time>2012-08-16T11:58:44Z</time>
      </trkpt>
      <trkpt lat="47.7944" lon="-3.43095">
        <ele>39.619163513184</ele>
        <time>2012-08-16T11:58:48Z</time>
      </trkpt>
      <trkpt lat="47.79414" lon="-3.43048">
        <ele>39.878604888916</ele>
        <time>2012-08-16T11:58:56Z</time>
      </trkpt>
      <trkpt lat="47.79388" lon="-3.42991">
        <ele>41.445598602295</ele>
        <time>2012-08-16T11:59:04Z</time>
      </trkpt>
      <trkpt lat="47.79369" lon="-3.42943">
        <ele>43.271011352539</ele>
        <time>2012-08-16T11:59:11Z</time>
      </trkpt>
      <trkpt lat="47.79363" lon="-3.42929">
        <ele>43.822959899902</ele>
        <time>2012-08-16T11:59:13Z</time>
      </trkpt>
      <trkpt lat="47.79344" lon="-3.42903">
        <ele>45.146926879883</ele>
        <time>2012-08-16T11:59:18Z</time>
      </trkpt>
      <trkpt lat="47.79338" lon="-3.42896">
        <ele>45.427402496338</ele>
        <time>2012-08-16T11:59:20Z</time>
      </trkpt>
      <trkpt lat="47.79335" lon="-3.42869">
        <ele>45.363479614258</ele>
        <time>2012-08-16T11:59:25Z</time>
      </trkpt>
      <trkpt lat="47.79324" lon="-3.4284">
        <ele>45.534545898438</ele>
        <time>2012-08-16T11:59:30Z</time>
      </trkpt>
      <trkpt lat="47.79298" lon="-3.42797">
        <ele>45.813751220703</ele>
        <time>2012-08-16T11:59:37Z</time>
      </trkpt>
      <trkpt lat="47.79275" lon="-3.42762">
        <ele>46.076965332031</ele>
        <time>2012-08-16T11:59:43Z</time>
      </trkpt>
      <trkpt lat="47.7926" lon="-3.42738">
        <ele>46.124923706055</ele>
        <time>2012-08-16T11:59:47Z</time>
      </trkpt>
      <trkpt lat="47.79227" lon="-3.42693">
        <ele>45.139976501465</ele>
        <time>2012-08-16T11:59:55Z</time>
      </trkpt>
      <trkpt lat="47.79199" lon="-3.42664">
        <ele>44.584854125977</ele>
        <time>2012-08-16T12:00:01Z</time>
      </trkpt>
      <trkpt lat="47.79179" lon="-3.42647">
        <ele>44.618900299072</ele>
        <time>2012-08-16T12:00:05Z</time>
      </trkpt>
      <trkpt lat="47.79163" lon="-3.42626">
        <ele>44.533428192139</ele>
        <time>2012-08-16T12:00:09Z</time>
      </trkpt>
      <trkpt lat="47.79148" lon="-3.42618">
        <ele>44.584053039551</ele>
        <time>2012-08-16T12:00:12Z</time>
      </trkpt>
      <trkpt lat="47.79138" lon="-3.42595">
        <ele>44.679893493652</ele>
        <time>2012-08-16T12:00:16Z</time>
      </trkpt>
      <trkpt lat="47.79123" lon="-3.42548">
        <ele>45.263122558594</ele>
        <time>2012-08-16T12:00:23Z</time>
      </trkpt>
      <trkpt lat="47.7911" lon="-3.42517">
        <ele>45.911521911621</ele>
        <time>2012-08-16T12:00:28Z</time>
      </trkpt>
      <trkpt lat="47.79095" lon="-3.4248">
        <ele>46.847877502441</ele>
        <time>2012-08-16T12:00:34Z</time>
      </trkpt>
      <trkpt lat="47.7907" lon="-3.42424">
        <ele>47.767997741699</ele>
        <time>2012-08-16T12:00:43Z</time>
      </trkpt>
      <trkpt lat="47.79048" lon="-3.42369">
        <ele>48.965179443359</ele>
        <time>2012-08-16T12:00:52Z</time>
      </trkpt>
      <trkpt lat="47.79031" lon="-3.42329">
        <ele>50.02014541626</ele>
        <time>2012-08-16T12:00:59Z</time>
      </trkpt>
      <trkpt lat="47.79028" lon="-3.42316">
        <ele>50.069793701172</ele>
        <time>2012-08-16T12:01:01Z</time>
      </trkpt>
      <trkpt lat="47.79008" lon="-3.4226">
        <ele>50.085502624512</ele>
        <time>2012-08-16T12:01:10Z</time>
      </trkpt>
      <trkpt lat="47.78991" lon="-3.42217">
        <ele>49.377388000488</ele>
        <time>2012-08-16T12:01:17Z</time>
      </trkpt>
      <trkpt lat="47.78978" lon="-3.42194">
        <ele>49.095520019531</ele>
        <time>2012-08-16T12:01:21Z</time>
      </trkpt>
      <trkpt lat="47.78971" lon="-3.4218">
        <ele>48.962642669678</ele>
        <time>2012-08-16T12:01:23Z</time>
      </trkpt>
      <trkpt lat="47.78959" lon="-3.42165">
        <ele>48.953002929688</ele>
        <time>2012-08-16T12:01:26Z</time>
      </trkpt>
      <trkpt lat="47.78952" lon="-3.42138">
        <ele>48.731739044189</ele>
        <time>2012-08-16T12:01:30Z</time>
      </trkpt>
      <trkpt lat="47.78964" lon="-3.42121">
        <ele>47.946506500244</ele>
        <time>2012-08-16T12:01:33Z</time>
      </trkpt>
      <trkpt lat="47.78971" lon="-3.42108">
        <ele>47.303958892822</ele>
        <time>2012-08-16T12:01:35Z</time>
      </trkpt>
      <trkpt lat="47.79005" lon="-3.4205">
        <ele>45.411502838135</ele>
        <time>2012-08-16T12:01:43Z</time>
      </trkpt>
      <trkpt lat="47.79039" lon="-3.41993">
        <ele>45.536991119385</ele>
        <time>2012-08-16T12:01:50Z</time>
      </trkpt>
      <trkpt lat="47.79087" lon="-3.41918">
        <ele>44.057189941406</ele>
        <time>2012-08-16T12:01:59Z</time>
      </trkpt>
      <trkpt lat="47.79091" lon="-3.4191">
        <ele>44.235664367676</ele>
        <time>2012-08-16T12:02:00Z</time>
      </trkpt>
      <trkpt lat="47.79097" lon="-3.41893">
        <ele>44.594108581543</ele>
        <time>2012-08-16T12:02:02Z</time>
      </trkpt>
      <trkpt lat="47.79114" lon="-3.41867">
        <ele>44.895557403564</ele>
        <time>2012-08-16T12:02:06Z</time>
      </trkpt>
      <trkpt lat="47.79141" lon="-3.41819">
        <ele>44.850025177002</ele>
        <time>2012-08-16T12:02:13Z</time>
      </trkpt>
      <trkpt lat="47.79152" lon="-3.41787">
        <ele>45.018703460693</ele>
        <time>2012-08-16T12:02:17Z</time>
      </trkpt>
      <trkpt lat="47.7916" lon="-3.41736">
        <ele>45.729789733887</ele>
        <time>2012-08-16T12:02:23Z</time>
      </trkpt>
      <trkpt lat="47.79164" lon="-3.41695">
        <ele>47.025428771973</ele>
        <time>2012-08-16T12:02:28Z</time>
      </trkpt>
      <trkpt lat="47.7917" lon="-3.41638">
        <ele>48.39888381958</ele>
        <time>2012-08-16T12:02:35Z</time>
      </trkpt>
      <trkpt lat="47.79177" lon="-3.41571">
        <ele>49.12833404541</ele>
        <time>2012-08-16T12:02:43Z</time>
      </trkpt>
      <trkpt lat="47.79178" lon="-3.41563">
        <ele>49.205085754395</ele>
        <time>2012-08-16T12:02:44Z</time>
      </trkpt>
      <trkpt lat="47.79173" lon="-3.41529">
        <ele>49.608234405518</ele>
        <time>2012-08-16T12:02:49Z</time>
      </trkpt>
      <trkpt lat="47.79171" lon="-3.41523">
        <ele>49.680973052979</ele>
        <time>2012-08-16T12:02:50Z</time>
      </trkpt>
      <trkpt lat="47.79165" lon="-3.41508">
        <ele>49.889945983887</ele>
        <time>2012-08-16T12:02:55Z</time>
      </trkpt>
      <trkpt lat="47.79164" lon="-3.41503">
        <ele>49.931163787842</ele>
        <time>2012-08-16T12:02:56Z</time>
      </trkpt>
      <trkpt lat="47.79176" lon="-3.41487">
        <ele>49.876560211182</ele>
        <time>2012-08-16T12:03:00Z</time>
      </trkpt>
      <trkpt lat="47.7921" lon="-3.41467">
        <ele>49.268760681152</ele>
        <time>2012-08-16T12:03:06Z</time>
      </trkpt>
      <trkpt lat="47.7925" lon="-3.4144">
        <ele>48.284099578857</ele>
        <time>2012-08-16T12:03:11Z</time>
      </trkpt>
      <trkpt lat="47.79282" lon="-3.4142">
        <ele>47.664691925049</ele>
        <time>2012-08-16T12:03:15Z</time>
      </trkpt>
      <trkpt lat="47.79299" lon="-3.41394">
        <ele>47.526103973389</ele>
        <time>2012-08-16T12:03:19Z</time>
      </trkpt>
      <trkpt lat="47.79311" lon="-3.4139">
        <ele>47.359146118164</ele>
        <time>2012-08-16T12:03:22Z</time>
      </trkpt>
      <trkpt lat="47.79319" lon="-3.41389">
        <ele>47.223648071289</ele>
        <time>2012-08-16T12:03:24Z</time>
      </trkpt>
      <trkpt lat="47.79334" lon="-3.4138">
        <ele>46.99059677124</ele>
        <time>2012-08-16T12:03:27Z</time>
      </trkpt>
      <trkpt lat="47.7937" lon="-3.4136">
        <ele>46.253280639648</ele>
        <time>2012-08-16T12:03:33Z</time>
      </trkpt>
      <trkpt lat="47.79406" lon="-3.41342">
        <ele>45.33602142334</ele>
        <time>2012-08-16T12:03:39Z</time>
      </trkpt>
      <trkpt lat="47.79451" lon="-3.41316">
        <ele>44.756690979004</ele>
        <time>2012-08-16T12:03:46Z</time>
      </trkpt>
      <trkpt lat="47.79494" lon="-3.4129">
        <ele>44.922054290771</ele>
        <time>2012-08-16T12:03:53Z</time>
      </trkpt>
      <trkpt lat="47.79533" lon="-3.4127">
        <ele>44.294281005859</ele>
        <time>2012-08-16T12:03:59Z</time>
      </trkpt>
      <trkpt lat="47.79577" lon="-3.41244">
        <ele>43.14087677002</ele>
        <time>2012-08-16T12:04:05Z</time>
      </trkpt>
      <trkpt lat="47.79615" lon="-3.41223">
        <ele>42.239501953125</ele>
        <time>2012-08-16T12:04:11Z</time>
      </trkpt>
      <trkpt lat="47.79635" lon="-3.41215">
        <ele>41.763427734375</ele>
        <time>2012-08-16T12:04:14Z</time>
      </trkpt>
      <trkpt lat="47.79653" lon="-3.41209">
        <ele>41.323974609375</ele>
        <time>2012-08-16T12:04:18Z</time>
      </trkpt>
      <trkpt lat="47.79666" lon="-3.41206">
        <ele>41.0126953125</ele>
        <time>2012-08-16T12:04:22Z</time>
      </trkpt>
      <trkpt lat="47.79694" lon="-3.41192">
        <ele>41.3232421875</ele>
        <time>2012-08-16T12:04:28Z</time>
      </trkpt>
      <trkpt lat="47.79739" lon="-3.41184">
        <ele>41.87255859375</ele>
        <time>2012-08-16T12:04:36Z</time>
      </trkpt>
      <trkpt lat="47.79776" lon="-3.41182">
        <ele>41.385131835938</ele>
        <time>2012-08-16T12:04:43Z</time>
      </trkpt>
      <trkpt lat="47.79793" lon="-3.41183">
        <ele>40.97314453125</ele>
        <time>2012-08-16T12:04:46Z</time>
      </trkpt>
      <trkpt lat="47.79805" lon="-3.41183">
        <ele>40.671020507812</ele>
        <time>2012-08-16T12:04:48Z</time>
      </trkpt>
      <trkpt lat="47.79871" lon="-3.41186">
        <ele>39.696399688721</ele>
        <time>2012-08-16T12:04:58Z</time>
      </trkpt>
      <trkpt lat="47.799" lon="-3.41185">
        <ele>39.486179351807</ele>
        <time>2012-08-16T12:05:02Z</time>
      </trkpt>
      <trkpt lat="47.79934" lon="-3.41186">
        <ele>39.974769592285</ele>
        <time>2012-08-16T12:05:07Z</time>
      </trkpt>
      <trkpt lat="47.79953" lon="-3.41186">
        <ele>40.711097717285</ele>
        <time>2012-08-16T12:05:10Z</time>
      </trkpt>
      <trkpt lat="47.79967" lon="-3.41194">
        <ele>41.018184661865</ele>
        <time>2012-08-16T12:05:13Z</time>
      </trkpt>
      <trkpt lat="47.79965" lon="-3.41217">
        <ele>40.292434692383</ele>
        <time>2012-08-16T12:05:17Z</time>
      </trkpt>
      <trkpt lat="47.79964" lon="-3.4123">
        <ele>39.868751525879</ele>
        <time>2012-08-16T12:05:19Z</time>
      </trkpt>
      <trkpt lat="47.79952" lon="-3.41243">
        <ele>38.89673614502</ele>
        <time>2012-08-16T12:05:23Z</time>
      </trkpt>
      <trkpt lat="47.79941" lon="-3.41245">
        <ele>38.34094619751</ele>
        <time>2012-08-16T12:05:25Z</time>
      </trkpt>
      <trkpt lat="47.7993" lon="-3.41248">
        <ele>37.705932617188</ele>
        <time>2012-08-16T12:05:27Z</time>
      </trkpt>
      <trkpt lat="47.79911" lon="-3.41264">
        <ele>37.202514648438</ele>
        <time>2012-08-16T12:05:31Z</time>
      </trkpt>
      <trkpt lat="47.79912" lon="-3.41277">
        <ele>37.175048828125</ele>
        <time>2012-08-16T12:05:34Z</time>
      </trkpt>
      <trkpt lat="47.79912" lon="-3.41276">
        <ele>37.161315917969</ele>
        <time>2012-08-16T12:05:39Z</time>
      </trkpt>
    </trkseg>
  </trk>
</gpx>